<?xml version="1.0" encoding="UTF-8" standalone="no" ?>
<gpx xmlns="http://www.topografix.com/GPX/1/1" xmlns:xsi="http://www.w3.org/2001/XMLSchema-instance" xsi:schemaLocation="http://www.topografix.com/GPX/1/1 http://www.topografix.com/GPX/1/1/gpx.xsd" version="1.1" creator="VisuGPX - https://www.visugpx.com">
  <metadata>
    <name>Rando Molières 2024</name>
  </metadata>
  <trk>
    <name><![CDATA[Rando Molières 2024]]></name>
    <extensions>
      <line xmlns="http://www.topografix.com/GPX/gpx_style/0/2">
        <color>0000FF</color>
        <width>4</width>
      </line>
    </extensions>
    <trkseg>
      <trkpt lat="44.81132" lon="0.82408">
        <ele>163</ele>
        <time>2024-04-07T07:43:15Z</time>
      </trkpt>
      <trkpt lat="44.81138" lon="0.82404">
        <ele>162.5</ele>
        <time>2024-04-07T07:43:17Z</time>
      </trkpt>
      <trkpt lat="44.81141" lon="0.82402">
        <ele>162.2</ele>
        <time>2024-04-07T07:43:18Z</time>
      </trkpt>
      <trkpt lat="44.81145" lon="0.82397">
        <ele>161.8</ele>
        <time>2024-04-07T07:43:19Z</time>
      </trkpt>
      <trkpt lat="44.81148" lon="0.8239">
        <ele>161.3</ele>
        <time>2024-04-07T07:43:20Z</time>
      </trkpt>
      <trkpt lat="44.8115" lon="0.82383">
        <ele>160.7</ele>
        <time>2024-04-07T07:43:21Z</time>
      </trkpt>
      <trkpt lat="44.81154" lon="0.82368">
        <ele>159.7</ele>
        <time>2024-04-07T07:43:23Z</time>
      </trkpt>
      <trkpt lat="44.81155" lon="0.82357">
        <ele>159</ele>
        <time>2024-04-07T07:43:25Z</time>
      </trkpt>
      <trkpt lat="44.81153" lon="0.82352">
        <ele>158.6</ele>
        <time>2024-04-07T07:43:26Z</time>
      </trkpt>
      <trkpt lat="44.8115" lon="0.82347">
        <ele>158.3</ele>
        <time>2024-04-07T07:43:27Z</time>
      </trkpt>
      <trkpt lat="44.81147" lon="0.82342">
        <ele>158.3</ele>
        <time>2024-04-07T07:43:28Z</time>
      </trkpt>
      <trkpt lat="44.81142" lon="0.82339">
        <ele>158.3</ele>
        <time>2024-04-07T07:43:29Z</time>
      </trkpt>
      <trkpt lat="44.81137" lon="0.82337">
        <ele>158.4</ele>
        <time>2024-04-07T07:43:30Z</time>
      </trkpt>
      <trkpt lat="44.81133" lon="0.82335">
        <ele>158.4</ele>
        <time>2024-04-07T07:43:31Z</time>
      </trkpt>
      <trkpt lat="44.81128" lon="0.82332">
        <ele>158.4</ele>
        <time>2024-04-07T07:43:32Z</time>
      </trkpt>
      <trkpt lat="44.81124" lon="0.8233">
        <ele>158.4</ele>
        <time>2024-04-07T07:43:33Z</time>
      </trkpt>
      <trkpt lat="44.81118" lon="0.82325">
        <ele>158.5</ele>
        <time>2024-04-07T07:43:35Z</time>
      </trkpt>
      <trkpt lat="44.81115" lon="0.82322">
        <ele>158.5</ele>
        <time>2024-04-07T07:43:36Z</time>
      </trkpt>
      <trkpt lat="44.81112" lon="0.8232">
        <ele>158.5</ele>
        <time>2024-04-07T07:43:37Z</time>
      </trkpt>
      <trkpt lat="44.81105" lon="0.82316">
        <ele>158.5</ele>
        <time>2024-04-07T07:43:39Z</time>
      </trkpt>
      <trkpt lat="44.81102" lon="0.82314">
        <ele>158.5</ele>
        <time>2024-04-07T07:43:40Z</time>
      </trkpt>
      <trkpt lat="44.81098" lon="0.82312">
        <ele>158.5</ele>
        <time>2024-04-07T07:43:41Z</time>
      </trkpt>
      <trkpt lat="44.81094" lon="0.8231">
        <ele>158.5</ele>
        <time>2024-04-07T07:43:42Z</time>
      </trkpt>
      <trkpt lat="44.8109" lon="0.82307">
        <ele>158.4</ele>
        <time>2024-04-07T07:43:43Z</time>
      </trkpt>
      <trkpt lat="44.81082" lon="0.82301">
        <ele>158.4</ele>
        <time>2024-04-07T07:43:45Z</time>
      </trkpt>
      <trkpt lat="44.81075" lon="0.82295">
        <ele>158.4</ele>
        <time>2024-04-07T07:43:47Z</time>
      </trkpt>
      <trkpt lat="44.81068" lon="0.82289">
        <ele>158.7</ele>
        <time>2024-04-07T07:43:49Z</time>
      </trkpt>
      <trkpt lat="44.81064" lon="0.82286">
        <ele>159</ele>
        <time>2024-04-07T07:43:50Z</time>
      </trkpt>
      <trkpt lat="44.8106" lon="0.82283">
        <ele>159.3</ele>
        <time>2024-04-07T07:43:51Z</time>
      </trkpt>
      <trkpt lat="44.81057" lon="0.8228">
        <ele>159.6</ele>
        <time>2024-04-07T07:43:52Z</time>
      </trkpt>
      <trkpt lat="44.81054" lon="0.82278">
        <ele>159.9</ele>
        <time>2024-04-07T07:43:53Z</time>
      </trkpt>
      <trkpt lat="44.8105" lon="0.82275">
        <ele>160.3</ele>
        <time>2024-04-07T07:43:55Z</time>
      </trkpt>
      <trkpt lat="44.81047" lon="0.82272">
        <ele>160.6</ele>
        <time>2024-04-07T07:43:57Z</time>
      </trkpt>
      <trkpt lat="44.81043" lon="0.82267">
        <ele>161.1</ele>
        <time>2024-04-07T07:43:59Z</time>
      </trkpt>
      <trkpt lat="44.8104" lon="0.82264">
        <ele>161.5</ele>
        <time>2024-04-07T07:44:01Z</time>
      </trkpt>
      <trkpt lat="44.81036" lon="0.82261">
        <ele>162.1</ele>
        <time>2024-04-07T07:44:03Z</time>
      </trkpt>
      <trkpt lat="44.81033" lon="0.82258">
        <ele>162.6</ele>
        <time>2024-04-07T07:44:05Z</time>
      </trkpt>
      <trkpt lat="44.81032" lon="0.82256">
        <ele>162.8</ele>
        <time>2024-04-07T07:44:06Z</time>
      </trkpt>
      <trkpt lat="44.81031" lon="0.82255">
        <ele>162.9</ele>
        <time>2024-04-07T07:44:07Z</time>
      </trkpt>
      <trkpt lat="44.81028" lon="0.82252">
        <ele>163.4</ele>
        <time>2024-04-07T07:44:09Z</time>
      </trkpt>
      <trkpt lat="44.81026" lon="0.82251">
        <ele>163.6</ele>
        <time>2024-04-07T07:44:10Z</time>
      </trkpt>
      <trkpt lat="44.81025" lon="0.82249">
        <ele>163.7</ele>
        <time>2024-04-07T07:44:11Z</time>
      </trkpt>
      <trkpt lat="44.81023" lon="0.82248">
        <ele>163.9</ele>
        <time>2024-04-07T07:44:12Z</time>
      </trkpt>
      <trkpt lat="44.81021" lon="0.82246">
        <ele>164.1</ele>
        <time>2024-04-07T07:44:13Z</time>
      </trkpt>
      <trkpt lat="44.81018" lon="0.82243">
        <ele>164.4</ele>
        <time>2024-04-07T07:44:15Z</time>
      </trkpt>
      <trkpt lat="44.81014" lon="0.8224">
        <ele>164.7</ele>
        <time>2024-04-07T07:44:17Z</time>
      </trkpt>
      <trkpt lat="44.81009" lon="0.82237">
        <ele>164.9</ele>
        <time>2024-04-07T07:44:19Z</time>
      </trkpt>
      <trkpt lat="44.81005" lon="0.82234">
        <ele>165.1</ele>
        <time>2024-04-07T07:44:21Z</time>
      </trkpt>
      <trkpt lat="44.81" lon="0.82231">
        <ele>165.3</ele>
        <time>2024-04-07T07:44:23Z</time>
      </trkpt>
      <trkpt lat="44.80997" lon="0.82229">
        <ele>165.4</ele>
        <time>2024-04-07T07:44:24Z</time>
      </trkpt>
      <trkpt lat="44.80994" lon="0.82227">
        <ele>165.4</ele>
        <time>2024-04-07T07:44:25Z</time>
      </trkpt>
      <trkpt lat="44.80989" lon="0.82223">
        <ele>165.4</ele>
        <time>2024-04-07T07:44:27Z</time>
      </trkpt>
      <trkpt lat="44.80984" lon="0.82218">
        <ele>165.3</ele>
        <time>2024-04-07T07:44:29Z</time>
      </trkpt>
      <trkpt lat="44.80982" lon="0.82215">
        <ele>165.1</ele>
        <time>2024-04-07T07:44:30Z</time>
      </trkpt>
      <trkpt lat="44.80981" lon="0.82211">
        <ele>164.8</ele>
        <time>2024-04-07T07:44:31Z</time>
      </trkpt>
      <trkpt lat="44.80982" lon="0.82206">
        <ele>164.5</ele>
        <time>2024-04-07T07:44:32Z</time>
      </trkpt>
      <trkpt lat="44.80983" lon="0.82201">
        <ele>164</ele>
        <time>2024-04-07T07:44:33Z</time>
      </trkpt>
      <trkpt lat="44.80988" lon="0.82188">
        <ele>162.7</ele>
        <time>2024-04-07T07:44:35Z</time>
      </trkpt>
      <trkpt lat="44.80991" lon="0.8218">
        <ele>161.9</ele>
        <time>2024-04-07T07:44:36Z</time>
      </trkpt>
      <trkpt lat="44.80993" lon="0.82172">
        <ele>161.2</ele>
        <time>2024-04-07T07:44:37Z</time>
      </trkpt>
      <trkpt lat="44.80997" lon="0.82152">
        <ele>159.7</ele>
        <time>2024-04-07T07:44:39Z</time>
      </trkpt>
      <trkpt lat="44.81002" lon="0.82131">
        <ele>158.6</ele>
        <time>2024-04-07T07:44:41Z</time>
      </trkpt>
      <trkpt lat="44.81006" lon="0.82122">
        <ele>158.1</ele>
        <time>2024-04-07T07:44:42Z</time>
      </trkpt>
      <trkpt lat="44.8101" lon="0.82113">
        <ele>157.8</ele>
        <time>2024-04-07T07:44:43Z</time>
      </trkpt>
      <trkpt lat="44.81017" lon="0.82096">
        <ele>157.3</ele>
        <time>2024-04-07T07:44:45Z</time>
      </trkpt>
      <trkpt lat="44.8102" lon="0.82088">
        <ele>157.1</ele>
        <time>2024-04-07T07:44:46Z</time>
      </trkpt>
      <trkpt lat="44.81023" lon="0.82081">
        <ele>156.9</ele>
        <time>2024-04-07T07:44:47Z</time>
      </trkpt>
      <trkpt lat="44.81025" lon="0.82074">
        <ele>156.7</ele>
        <time>2024-04-07T07:44:48Z</time>
      </trkpt>
      <trkpt lat="44.81026" lon="0.82066">
        <ele>156.6</ele>
        <time>2024-04-07T07:44:49Z</time>
      </trkpt>
      <trkpt lat="44.81028" lon="0.82058">
        <ele>156.4</ele>
        <time>2024-04-07T07:44:50Z</time>
      </trkpt>
      <trkpt lat="44.81031" lon="0.8205">
        <ele>156.2</ele>
        <time>2024-04-07T07:44:51Z</time>
      </trkpt>
      <trkpt lat="44.81038" lon="0.82035">
        <ele>155.6</ele>
        <time>2024-04-07T07:44:53Z</time>
      </trkpt>
      <trkpt lat="44.81045" lon="0.82024">
        <ele>154.9</ele>
        <time>2024-04-07T07:44:55Z</time>
      </trkpt>
      <trkpt lat="44.81048" lon="0.82017">
        <ele>154.5</ele>
        <time>2024-04-07T07:44:56Z</time>
      </trkpt>
      <trkpt lat="44.81051" lon="0.8201">
        <ele>154.2</ele>
        <time>2024-04-07T07:44:57Z</time>
      </trkpt>
      <trkpt lat="44.81053" lon="0.81995">
        <ele>153.9</ele>
        <time>2024-04-07T07:44:59Z</time>
      </trkpt>
      <trkpt lat="44.81053" lon="0.81988">
        <ele>153.9</ele>
        <time>2024-04-07T07:45:00Z</time>
      </trkpt>
      <trkpt lat="44.81054" lon="0.81982">
        <ele>153.9</ele>
        <time>2024-04-07T07:45:01Z</time>
      </trkpt>
      <trkpt lat="44.81056" lon="0.81969">
        <ele>154</ele>
        <time>2024-04-07T07:45:03Z</time>
      </trkpt>
      <trkpt lat="44.81058" lon="0.81955">
        <ele>154</ele>
        <time>2024-04-07T07:45:05Z</time>
      </trkpt>
      <trkpt lat="44.81055" lon="0.81942">
        <ele>154.1</ele>
        <time>2024-04-07T07:45:07Z</time>
      </trkpt>
      <trkpt lat="44.81056" lon="0.8193">
        <ele>154.1</ele>
        <time>2024-04-07T07:45:09Z</time>
      </trkpt>
      <trkpt lat="44.81055" lon="0.81924">
        <ele>154.2</ele>
        <time>2024-04-07T07:45:10Z</time>
      </trkpt>
      <trkpt lat="44.81055" lon="0.81919">
        <ele>154.2</ele>
        <time>2024-04-07T07:45:11Z</time>
      </trkpt>
      <trkpt lat="44.81053" lon="0.8191">
        <ele>154.3</ele>
        <time>2024-04-07T07:45:13Z</time>
      </trkpt>
      <trkpt lat="44.81052" lon="0.81901">
        <ele>154.4</ele>
        <time>2024-04-07T07:45:15Z</time>
      </trkpt>
      <trkpt lat="44.81049" lon="0.81891">
        <ele>154.5</ele>
        <time>2024-04-07T07:45:17Z</time>
      </trkpt>
      <trkpt lat="44.81046" lon="0.81883">
        <ele>154.6</ele>
        <time>2024-04-07T07:45:19Z</time>
      </trkpt>
      <trkpt lat="44.81044" lon="0.81874">
        <ele>154.6</ele>
        <time>2024-04-07T07:45:21Z</time>
      </trkpt>
      <trkpt lat="44.81041" lon="0.81866">
        <ele>154.7</ele>
        <time>2024-04-07T07:45:23Z</time>
      </trkpt>
      <trkpt lat="44.81036" lon="0.81859">
        <ele>154.8</ele>
        <time>2024-04-07T07:45:25Z</time>
      </trkpt>
      <trkpt lat="44.81033" lon="0.81856">
        <ele>154.9</ele>
        <time>2024-04-07T07:45:26Z</time>
      </trkpt>
      <trkpt lat="44.81031" lon="0.81853">
        <ele>154.9</ele>
        <time>2024-04-07T07:45:27Z</time>
      </trkpt>
      <trkpt lat="44.81027" lon="0.81847">
        <ele>155</ele>
        <time>2024-04-07T07:45:29Z</time>
      </trkpt>
      <trkpt lat="44.81023" lon="0.81842">
        <ele>155.1</ele>
        <time>2024-04-07T07:45:31Z</time>
      </trkpt>
      <trkpt lat="44.8102" lon="0.81839">
        <ele>155.2</ele>
        <time>2024-04-07T07:45:32Z</time>
      </trkpt>
      <trkpt lat="44.81018" lon="0.81836">
        <ele>155.2</ele>
        <time>2024-04-07T07:45:33Z</time>
      </trkpt>
      <trkpt lat="44.81017" lon="0.81833">
        <ele>155.2</ele>
        <time>2024-04-07T07:45:34Z</time>
      </trkpt>
      <trkpt lat="44.81015" lon="0.81829">
        <ele>155.3</ele>
        <time>2024-04-07T07:45:35Z</time>
      </trkpt>
      <trkpt lat="44.8101" lon="0.81823">
        <ele>155.3</ele>
        <time>2024-04-07T07:45:37Z</time>
      </trkpt>
      <trkpt lat="44.81007" lon="0.81819">
        <ele>155.3</ele>
        <time>2024-04-07T07:45:38Z</time>
      </trkpt>
      <trkpt lat="44.81005" lon="0.81815">
        <ele>155.4</ele>
        <time>2024-04-07T07:45:39Z</time>
      </trkpt>
      <trkpt lat="44.81001" lon="0.81808">
        <ele>155.3</ele>
        <time>2024-04-07T07:45:41Z</time>
      </trkpt>
      <trkpt lat="44.80996" lon="0.81799">
        <ele>155.3</ele>
        <time>2024-04-07T07:45:43Z</time>
      </trkpt>
      <trkpt lat="44.80992" lon="0.81791">
        <ele>155.3</ele>
        <time>2024-04-07T07:45:45Z</time>
      </trkpt>
      <trkpt lat="44.80988" lon="0.81782">
        <ele>155.4</ele>
        <time>2024-04-07T07:45:47Z</time>
      </trkpt>
      <trkpt lat="44.80985" lon="0.81778">
        <ele>155.4</ele>
        <time>2024-04-07T07:45:48Z</time>
      </trkpt>
      <trkpt lat="44.80983" lon="0.81775">
        <ele>155.4</ele>
        <time>2024-04-07T07:45:49Z</time>
      </trkpt>
      <trkpt lat="44.80979" lon="0.81767">
        <ele>155.6</ele>
        <time>2024-04-07T07:45:51Z</time>
      </trkpt>
      <trkpt lat="44.80974" lon="0.81759">
        <ele>155.7</ele>
        <time>2024-04-07T07:45:53Z</time>
      </trkpt>
      <trkpt lat="44.80971" lon="0.81751">
        <ele>155.9</ele>
        <time>2024-04-07T07:45:55Z</time>
      </trkpt>
      <trkpt lat="44.8097" lon="0.81747">
        <ele>156</ele>
        <time>2024-04-07T07:45:56Z</time>
      </trkpt>
      <trkpt lat="44.80969" lon="0.81742">
        <ele>156.2</ele>
        <time>2024-04-07T07:45:57Z</time>
      </trkpt>
      <trkpt lat="44.80964" lon="0.81736">
        <ele>156.4</ele>
        <time>2024-04-07T07:45:59Z</time>
      </trkpt>
      <trkpt lat="44.80959" lon="0.81728">
        <ele>156.6</ele>
        <time>2024-04-07T07:46:01Z</time>
      </trkpt>
      <trkpt lat="44.80955" lon="0.81721">
        <ele>156.7</ele>
        <time>2024-04-07T07:46:03Z</time>
      </trkpt>
      <trkpt lat="44.8095" lon="0.81713">
        <ele>156.8</ele>
        <time>2024-04-07T07:46:05Z</time>
      </trkpt>
      <trkpt lat="44.80945" lon="0.81705">
        <ele>156.8</ele>
        <time>2024-04-07T07:46:07Z</time>
      </trkpt>
      <trkpt lat="44.80943" lon="0.81701">
        <ele>156.9</ele>
        <time>2024-04-07T07:46:08Z</time>
      </trkpt>
      <trkpt lat="44.8094" lon="0.81697">
        <ele>156.9</ele>
        <time>2024-04-07T07:46:09Z</time>
      </trkpt>
      <trkpt lat="44.80936" lon="0.81689">
        <ele>156.7</ele>
        <time>2024-04-07T07:46:11Z</time>
      </trkpt>
      <trkpt lat="44.80931" lon="0.81682">
        <ele>156.7</ele>
        <time>2024-04-07T07:46:13Z</time>
      </trkpt>
      <trkpt lat="44.80928" lon="0.81678">
        <ele>156.6</ele>
        <time>2024-04-07T07:46:14Z</time>
      </trkpt>
      <trkpt lat="44.80925" lon="0.81675">
        <ele>156.5</ele>
        <time>2024-04-07T07:46:15Z</time>
      </trkpt>
      <trkpt lat="44.80921" lon="0.81669">
        <ele>156.4</ele>
        <time>2024-04-07T07:46:17Z</time>
      </trkpt>
      <trkpt lat="44.80916" lon="0.81664">
        <ele>156.3</ele>
        <time>2024-04-07T07:46:19Z</time>
      </trkpt>
      <trkpt lat="44.8091" lon="0.81659">
        <ele>156.2</ele>
        <time>2024-04-07T07:46:21Z</time>
      </trkpt>
      <trkpt lat="44.80906" lon="0.81655">
        <ele>156.2</ele>
        <time>2024-04-07T07:46:23Z</time>
      </trkpt>
      <trkpt lat="44.80902" lon="0.81651">
        <ele>156.1</ele>
        <time>2024-04-07T07:46:25Z</time>
      </trkpt>
      <trkpt lat="44.80901" lon="0.81649">
        <ele>156.1</ele>
        <time>2024-04-07T07:46:26Z</time>
      </trkpt>
      <trkpt lat="44.80901" lon="0.81646">
        <ele>156.1</ele>
        <time>2024-04-07T07:46:27Z</time>
      </trkpt>
      <trkpt lat="44.80897" lon="0.81645">
        <ele>156</ele>
        <time>2024-04-07T07:46:28Z</time>
      </trkpt>
      <trkpt lat="44.80893" lon="0.81643">
        <ele>156.1</ele>
        <time>2024-04-07T07:46:29Z</time>
      </trkpt>
      <trkpt lat="44.80887" lon="0.81639">
        <ele>156.1</ele>
        <time>2024-04-07T07:46:31Z</time>
      </trkpt>
      <trkpt lat="44.80882" lon="0.81634">
        <ele>156.2</ele>
        <time>2024-04-07T07:46:33Z</time>
      </trkpt>
      <trkpt lat="44.80878" lon="0.8163">
        <ele>156.3</ele>
        <time>2024-04-07T07:46:35Z</time>
      </trkpt>
      <trkpt lat="44.80876" lon="0.81628">
        <ele>156.2</ele>
        <time>2024-04-07T07:46:36Z</time>
      </trkpt>
      <trkpt lat="44.80874" lon="0.81627">
        <ele>156.3</ele>
        <time>2024-04-07T07:46:37Z</time>
      </trkpt>
      <trkpt lat="44.80871" lon="0.81629">
        <ele>156.4</ele>
        <time>2024-04-07T07:46:39Z</time>
      </trkpt>
      <trkpt lat="44.80869" lon="0.81633">
        <ele>156.6</ele>
        <time>2024-04-07T07:46:41Z</time>
      </trkpt>
      <trkpt lat="44.80865" lon="0.81636">
        <ele>156.8</ele>
        <time>2024-04-07T07:46:43Z</time>
      </trkpt>
      <trkpt lat="44.80859" lon="0.81637">
        <ele>157.1</ele>
        <time>2024-04-07T07:46:45Z</time>
      </trkpt>
      <trkpt lat="44.80855" lon="0.81636">
        <ele>157.2</ele>
        <time>2024-04-07T07:46:47Z</time>
      </trkpt>
      <trkpt lat="44.80852" lon="0.81635">
        <ele>157.3</ele>
        <time>2024-04-07T07:46:48Z</time>
      </trkpt>
      <trkpt lat="44.8085" lon="0.81633">
        <ele>157.3</ele>
        <time>2024-04-07T07:46:49Z</time>
      </trkpt>
      <trkpt lat="44.80847" lon="0.81629">
        <ele>157.3</ele>
        <time>2024-04-07T07:46:51Z</time>
      </trkpt>
      <trkpt lat="44.80846" lon="0.81627">
        <ele>157.3</ele>
        <time>2024-04-07T07:46:52Z</time>
      </trkpt>
      <trkpt lat="44.80845" lon="0.81625">
        <ele>157.3</ele>
        <time>2024-04-07T07:46:53Z</time>
      </trkpt>
      <trkpt lat="44.80844" lon="0.81624">
        <ele>157.3</ele>
        <time>2024-04-07T07:46:54Z</time>
      </trkpt>
      <trkpt lat="44.80843" lon="0.81622">
        <ele>157.3</ele>
        <time>2024-04-07T07:46:55Z</time>
      </trkpt>
      <trkpt lat="44.80842" lon="0.8162">
        <ele>157.3</ele>
        <time>2024-04-07T07:46:56Z</time>
      </trkpt>
      <trkpt lat="44.80841" lon="0.81618">
        <ele>157.3</ele>
        <time>2024-04-07T07:46:57Z</time>
      </trkpt>
      <trkpt lat="44.80845" lon="0.81612">
        <ele>157.1</ele>
        <time>2024-04-07T07:46:59Z</time>
      </trkpt>
      <trkpt lat="44.80844" lon="0.81607">
        <ele>156.9</ele>
        <time>2024-04-07T07:47:01Z</time>
      </trkpt>
      <trkpt lat="44.80844" lon="0.81604">
        <ele>156.9</ele>
        <time>2024-04-07T07:47:02Z</time>
      </trkpt>
      <trkpt lat="44.80845" lon="0.81601">
        <ele>156.9</ele>
        <time>2024-04-07T07:47:03Z</time>
      </trkpt>
      <trkpt lat="44.80847" lon="0.81596">
        <ele>156.8</ele>
        <time>2024-04-07T07:47:05Z</time>
      </trkpt>
      <trkpt lat="44.80848" lon="0.81592">
        <ele>156.8</ele>
        <time>2024-04-07T07:47:07Z</time>
      </trkpt>
      <trkpt lat="44.80854" lon="0.8159">
        <ele>156.8</ele>
        <time>2024-04-07T07:47:09Z</time>
      </trkpt>
      <trkpt lat="44.80854" lon="0.8159">
        <ele>156.8</ele>
        <time>2024-04-07T07:47:10Z</time>
      </trkpt>
      <trkpt lat="44.80852" lon="0.81592">
        <ele>156.7</ele>
        <time>2024-04-07T07:47:11Z</time>
      </trkpt>
      <trkpt lat="44.80851" lon="0.81594">
        <ele>156.8</ele>
        <time>2024-04-07T07:47:13Z</time>
      </trkpt>
      <trkpt lat="44.80852" lon="0.81595">
        <ele>156.7</ele>
        <time>2024-04-07T07:47:15Z</time>
      </trkpt>
      <trkpt lat="44.80855" lon="0.81595">
        <ele>156.6</ele>
        <time>2024-04-07T07:47:16Z</time>
      </trkpt>
      <trkpt lat="44.80858" lon="0.81595">
        <ele>156.6</ele>
        <time>2024-04-07T07:47:17Z</time>
      </trkpt>
      <trkpt lat="44.80874" lon="0.81591">
        <ele>156.4</ele>
        <time>2024-04-07T07:47:19Z</time>
      </trkpt>
      <trkpt lat="44.80881" lon="0.8159">
        <ele>156.5</ele>
        <time>2024-04-07T07:47:20Z</time>
      </trkpt>
      <trkpt lat="44.80886" lon="0.81588">
        <ele>156.6</ele>
        <time>2024-04-07T07:47:21Z</time>
      </trkpt>
      <trkpt lat="44.8089" lon="0.81585">
        <ele>156.8</ele>
        <time>2024-04-07T07:47:22Z</time>
      </trkpt>
      <trkpt lat="44.80895" lon="0.81582">
        <ele>156.9</ele>
        <time>2024-04-07T07:47:23Z</time>
      </trkpt>
      <trkpt lat="44.80898" lon="0.81579">
        <ele>157.2</ele>
        <time>2024-04-07T07:47:24Z</time>
      </trkpt>
      <trkpt lat="44.80898" lon="0.81576">
        <ele>157.4</ele>
        <time>2024-04-07T07:47:25Z</time>
      </trkpt>
      <trkpt lat="44.80901" lon="0.81571">
        <ele>157.7</ele>
        <time>2024-04-07T07:47:27Z</time>
      </trkpt>
      <trkpt lat="44.80904" lon="0.81568">
        <ele>158</ele>
        <time>2024-04-07T07:47:28Z</time>
      </trkpt>
      <trkpt lat="44.80907" lon="0.81565">
        <ele>158</ele>
        <time>2024-04-07T07:47:29Z</time>
      </trkpt>
      <trkpt lat="44.80911" lon="0.8156">
        <ele>158.5</ele>
        <time>2024-04-07T07:47:31Z</time>
      </trkpt>
      <trkpt lat="44.80914" lon="0.81556">
        <ele>158.8</ele>
        <time>2024-04-07T07:47:33Z</time>
      </trkpt>
      <trkpt lat="44.80917" lon="0.81551">
        <ele>159</ele>
        <time>2024-04-07T07:47:35Z</time>
      </trkpt>
      <trkpt lat="44.80919" lon="0.81547">
        <ele>159.3</ele>
        <time>2024-04-07T07:47:37Z</time>
      </trkpt>
      <trkpt lat="44.80922" lon="0.81542">
        <ele>159.5</ele>
        <time>2024-04-07T07:47:39Z</time>
      </trkpt>
      <trkpt lat="44.80924" lon="0.81539">
        <ele>159.5</ele>
        <time>2024-04-07T07:47:40Z</time>
      </trkpt>
      <trkpt lat="44.80925" lon="0.81537">
        <ele>159.7</ele>
        <time>2024-04-07T07:47:41Z</time>
      </trkpt>
      <trkpt lat="44.80926" lon="0.81535">
        <ele>159.7</ele>
        <time>2024-04-07T07:47:42Z</time>
      </trkpt>
      <trkpt lat="44.80927" lon="0.81533">
        <ele>159.9</ele>
        <time>2024-04-07T07:47:43Z</time>
      </trkpt>
      <trkpt lat="44.80927" lon="0.8153">
        <ele>160.1</ele>
        <time>2024-04-07T07:47:44Z</time>
      </trkpt>
      <trkpt lat="44.80928" lon="0.81527">
        <ele>160.1</ele>
        <time>2024-04-07T07:47:45Z</time>
      </trkpt>
      <trkpt lat="44.80927" lon="0.81523">
        <ele>160.2</ele>
        <time>2024-04-07T07:47:47Z</time>
      </trkpt>
      <trkpt lat="44.80927" lon="0.8152">
        <ele>160.4</ele>
        <time>2024-04-07T07:47:48Z</time>
      </trkpt>
      <trkpt lat="44.80928" lon="0.81517">
        <ele>160.6</ele>
        <time>2024-04-07T07:47:49Z</time>
      </trkpt>
      <trkpt lat="44.80928" lon="0.81511">
        <ele>160.8</ele>
        <time>2024-04-07T07:47:51Z</time>
      </trkpt>
      <trkpt lat="44.80928" lon="0.81509">
        <ele>161</ele>
        <time>2024-04-07T07:47:52Z</time>
      </trkpt>
      <trkpt lat="44.80928" lon="0.81507">
        <ele>161</ele>
        <time>2024-04-07T07:47:53Z</time>
      </trkpt>
      <trkpt lat="44.80927" lon="0.81503">
        <ele>161.2</ele>
        <time>2024-04-07T07:47:55Z</time>
      </trkpt>
      <trkpt lat="44.80926" lon="0.81502">
        <ele>161.1</ele>
        <time>2024-04-07T07:47:57Z</time>
      </trkpt>
      <trkpt lat="44.80924" lon="0.81504">
        <ele>161.1</ele>
        <time>2024-04-07T07:47:59Z</time>
      </trkpt>
      <trkpt lat="44.80923" lon="0.81506">
        <ele>160.8</ele>
        <time>2024-04-07T07:48:00Z</time>
      </trkpt>
      <trkpt lat="44.80921" lon="0.81507">
        <ele>160.8</ele>
        <time>2024-04-07T07:48:01Z</time>
      </trkpt>
      <trkpt lat="44.80919" lon="0.81511">
        <ele>160.6</ele>
        <time>2024-04-07T07:48:03Z</time>
      </trkpt>
      <trkpt lat="44.80918" lon="0.81516">
        <ele>160.4</ele>
        <time>2024-04-07T07:48:05Z</time>
      </trkpt>
      <trkpt lat="44.80917" lon="0.81519">
        <ele>160.2</ele>
        <time>2024-04-07T07:48:06Z</time>
      </trkpt>
      <trkpt lat="44.80918" lon="0.81523">
        <ele>160</ele>
        <time>2024-04-07T07:48:07Z</time>
      </trkpt>
      <trkpt lat="44.80919" lon="0.81532">
        <ele>159.7</ele>
        <time>2024-04-07T07:48:09Z</time>
      </trkpt>
      <trkpt lat="44.80918" lon="0.81541">
        <ele>159.4</ele>
        <time>2024-04-07T07:48:11Z</time>
      </trkpt>
      <trkpt lat="44.80917" lon="0.81545">
        <ele>159.2</ele>
        <time>2024-04-07T07:48:12Z</time>
      </trkpt>
      <trkpt lat="44.80916" lon="0.81547">
        <ele>159.2</ele>
        <time>2024-04-07T07:48:13Z</time>
      </trkpt>
      <trkpt lat="44.80912" lon="0.81554">
        <ele>158.6</ele>
        <time>2024-04-07T07:48:15Z</time>
      </trkpt>
      <trkpt lat="44.80908" lon="0.81562">
        <ele>158.2</ele>
        <time>2024-04-07T07:48:17Z</time>
      </trkpt>
      <trkpt lat="44.80904" lon="0.8157">
        <ele>157.7</ele>
        <time>2024-04-07T07:48:19Z</time>
      </trkpt>
      <trkpt lat="44.80901" lon="0.81574">
        <ele>157.4</ele>
        <time>2024-04-07T07:48:20Z</time>
      </trkpt>
      <trkpt lat="44.809" lon="0.81577">
        <ele>157.4</ele>
        <time>2024-04-07T07:48:21Z</time>
      </trkpt>
      <trkpt lat="44.80898" lon="0.8158">
        <ele>157.2</ele>
        <time>2024-04-07T07:48:22Z</time>
      </trkpt>
      <trkpt lat="44.80898" lon="0.81583">
        <ele>157</ele>
        <time>2024-04-07T07:48:23Z</time>
      </trkpt>
      <trkpt lat="44.80896" lon="0.8159">
        <ele>156.7</ele>
        <time>2024-04-07T07:48:25Z</time>
      </trkpt>
      <trkpt lat="44.80894" lon="0.81593">
        <ele>156.5</ele>
        <time>2024-04-07T07:48:26Z</time>
      </trkpt>
      <trkpt lat="44.80893" lon="0.81596">
        <ele>156.3</ele>
        <time>2024-04-07T07:48:27Z</time>
      </trkpt>
      <trkpt lat="44.80891" lon="0.816">
        <ele>156.1</ele>
        <time>2024-04-07T07:48:29Z</time>
      </trkpt>
      <trkpt lat="44.8089" lon="0.81603">
        <ele>156.1</ele>
        <time>2024-04-07T07:48:30Z</time>
      </trkpt>
      <trkpt lat="44.8089" lon="0.81606">
        <ele>156</ele>
        <time>2024-04-07T07:48:31Z</time>
      </trkpt>
      <trkpt lat="44.80888" lon="0.8161">
        <ele>155.9</ele>
        <time>2024-04-07T07:48:33Z</time>
      </trkpt>
      <trkpt lat="44.80889" lon="0.81615">
        <ele>155.9</ele>
        <time>2024-04-07T07:48:35Z</time>
      </trkpt>
      <trkpt lat="44.80892" lon="0.81618">
        <ele>155.9</ele>
        <time>2024-04-07T07:48:36Z</time>
      </trkpt>
      <trkpt lat="44.80894" lon="0.81619">
        <ele>155.8</ele>
        <time>2024-04-07T07:48:37Z</time>
      </trkpt>
      <trkpt lat="44.80897" lon="0.81626">
        <ele>155.9</ele>
        <time>2024-04-07T07:48:39Z</time>
      </trkpt>
      <trkpt lat="44.809" lon="0.81632">
        <ele>155.9</ele>
        <time>2024-04-07T07:48:41Z</time>
      </trkpt>
      <trkpt lat="44.80902" lon="0.81636">
        <ele>155.9</ele>
        <time>2024-04-07T07:48:42Z</time>
      </trkpt>
      <trkpt lat="44.80903" lon="0.81637">
        <ele>155.9</ele>
        <time>2024-04-07T07:48:43Z</time>
      </trkpt>
      <trkpt lat="44.80906" lon="0.81643">
        <ele>156</ele>
        <time>2024-04-07T07:48:45Z</time>
      </trkpt>
      <trkpt lat="44.80908" lon="0.81647">
        <ele>156</ele>
        <time>2024-04-07T07:48:47Z</time>
      </trkpt>
      <trkpt lat="44.8091" lon="0.81649">
        <ele>156.1</ele>
        <time>2024-04-07T07:48:48Z</time>
      </trkpt>
      <trkpt lat="44.8091" lon="0.8165">
        <ele>156.1</ele>
        <time>2024-04-07T07:48:49Z</time>
      </trkpt>
      <trkpt lat="44.80912" lon="0.81651">
        <ele>156.1</ele>
        <time>2024-04-07T07:48:50Z</time>
      </trkpt>
      <trkpt lat="44.80914" lon="0.81652">
        <ele>156.2</ele>
        <time>2024-04-07T07:48:51Z</time>
      </trkpt>
      <trkpt lat="44.80917" lon="0.81656">
        <ele>156.2</ele>
        <time>2024-04-07T07:48:53Z</time>
      </trkpt>
      <trkpt lat="44.80916" lon="0.81659">
        <ele>156.2</ele>
        <time>2024-04-07T07:48:55Z</time>
      </trkpt>
      <trkpt lat="44.80916" lon="0.81662">
        <ele>156.2</ele>
        <time>2024-04-07T07:48:57Z</time>
      </trkpt>
      <trkpt lat="44.80916" lon="0.81662">
        <ele>156.2</ele>
        <time>2024-04-07T07:48:58Z</time>
      </trkpt>
      <trkpt lat="44.80919" lon="0.81666">
        <ele>156.2</ele>
        <time>2024-04-07T07:49:02Z</time>
      </trkpt>
      <trkpt lat="44.8092" lon="0.81669">
        <ele>156.2</ele>
        <time>2024-04-07T07:49:03Z</time>
      </trkpt>
      <trkpt lat="44.80923" lon="0.81674">
        <ele>156.3</ele>
        <time>2024-04-07T07:49:05Z</time>
      </trkpt>
      <trkpt lat="44.80925" lon="0.81676">
        <ele>156.4</ele>
        <time>2024-04-07T07:49:06Z</time>
      </trkpt>
      <trkpt lat="44.80928" lon="0.81679">
        <ele>156.4</ele>
        <time>2024-04-07T07:49:07Z</time>
      </trkpt>
      <trkpt lat="44.80932" lon="0.81685">
        <ele>156.5</ele>
        <time>2024-04-07T07:49:09Z</time>
      </trkpt>
      <trkpt lat="44.80935" lon="0.81691">
        <ele>156.6</ele>
        <time>2024-04-07T07:49:11Z</time>
      </trkpt>
      <trkpt lat="44.80937" lon="0.81694">
        <ele>156.6</ele>
        <time>2024-04-07T07:49:12Z</time>
      </trkpt>
      <trkpt lat="44.80939" lon="0.81698">
        <ele>156.6</ele>
        <time>2024-04-07T07:49:13Z</time>
      </trkpt>
      <trkpt lat="44.80943" lon="0.81706">
        <ele>156.7</ele>
        <time>2024-04-07T07:49:15Z</time>
      </trkpt>
      <trkpt lat="44.80947" lon="0.81714">
        <ele>156.6</ele>
        <time>2024-04-07T07:49:17Z</time>
      </trkpt>
      <trkpt lat="44.80952" lon="0.81722">
        <ele>156.5</ele>
        <time>2024-04-07T07:49:19Z</time>
      </trkpt>
      <trkpt lat="44.80957" lon="0.8173">
        <ele>156.3</ele>
        <time>2024-04-07T07:49:21Z</time>
      </trkpt>
      <trkpt lat="44.80961" lon="0.81737">
        <ele>156.1</ele>
        <time>2024-04-07T07:49:23Z</time>
      </trkpt>
      <trkpt lat="44.80967" lon="0.81745">
        <ele>156</ele>
        <time>2024-04-07T07:49:25Z</time>
      </trkpt>
      <trkpt lat="44.80972" lon="0.81754">
        <ele>155.8</ele>
        <time>2024-04-07T07:49:27Z</time>
      </trkpt>
      <trkpt lat="44.80974" lon="0.81758">
        <ele>155.6</ele>
        <time>2024-04-07T07:49:28Z</time>
      </trkpt>
      <trkpt lat="44.80976" lon="0.81763">
        <ele>155.4</ele>
        <time>2024-04-07T07:49:29Z</time>
      </trkpt>
      <trkpt lat="44.80979" lon="0.81768">
        <ele>155.4</ele>
        <time>2024-04-07T07:49:30Z</time>
      </trkpt>
      <trkpt lat="44.80981" lon="0.81773">
        <ele>155.3</ele>
        <time>2024-04-07T07:49:31Z</time>
      </trkpt>
      <trkpt lat="44.80985" lon="0.81778">
        <ele>155.2</ele>
        <time>2024-04-07T07:49:32Z</time>
      </trkpt>
      <trkpt lat="44.80987" lon="0.81783">
        <ele>155.2</ele>
        <time>2024-04-07T07:49:33Z</time>
      </trkpt>
      <trkpt lat="44.80993" lon="0.81794">
        <ele>155.1</ele>
        <time>2024-04-07T07:49:35Z</time>
      </trkpt>
      <trkpt lat="44.80998" lon="0.81804">
        <ele>155.1</ele>
        <time>2024-04-07T07:49:37Z</time>
      </trkpt>
      <trkpt lat="44.81003" lon="0.81813">
        <ele>155.2</ele>
        <time>2024-04-07T07:49:39Z</time>
      </trkpt>
      <trkpt lat="44.81008" lon="0.8182">
        <ele>155.1</ele>
        <time>2024-04-07T07:49:41Z</time>
      </trkpt>
      <trkpt lat="44.81014" lon="0.81828">
        <ele>155.1</ele>
        <time>2024-04-07T07:49:43Z</time>
      </trkpt>
      <trkpt lat="44.81017" lon="0.81832">
        <ele>155</ele>
        <time>2024-04-07T07:49:44Z</time>
      </trkpt>
      <trkpt lat="44.8102" lon="0.81838">
        <ele>155</ele>
        <time>2024-04-07T07:49:45Z</time>
      </trkpt>
      <trkpt lat="44.81027" lon="0.81848">
        <ele>154.8</ele>
        <time>2024-04-07T07:49:47Z</time>
      </trkpt>
      <trkpt lat="44.81035" lon="0.81859">
        <ele>154.6</ele>
        <time>2024-04-07T07:49:49Z</time>
      </trkpt>
      <trkpt lat="44.81039" lon="0.81866">
        <ele>154.5</ele>
        <time>2024-04-07T07:49:50Z</time>
      </trkpt>
      <trkpt lat="44.81043" lon="0.81873">
        <ele>154.5</ele>
        <time>2024-04-07T07:49:51Z</time>
      </trkpt>
      <trkpt lat="44.81046" lon="0.81881">
        <ele>154.4</ele>
        <time>2024-04-07T07:49:52Z</time>
      </trkpt>
      <trkpt lat="44.81049" lon="0.81889">
        <ele>154.3</ele>
        <time>2024-04-07T07:49:53Z</time>
      </trkpt>
      <trkpt lat="44.8105" lon="0.81895">
        <ele>154.3</ele>
        <time>2024-04-07T07:49:54Z</time>
      </trkpt>
      <trkpt lat="44.81052" lon="0.81902">
        <ele>154.2</ele>
        <time>2024-04-07T07:49:55Z</time>
      </trkpt>
      <trkpt lat="44.81055" lon="0.81913">
        <ele>154</ele>
        <time>2024-04-07T07:49:57Z</time>
      </trkpt>
      <trkpt lat="44.81058" lon="0.81921">
        <ele>153.9</ele>
        <time>2024-04-07T07:49:59Z</time>
      </trkpt>
      <trkpt lat="44.81061" lon="0.81926">
        <ele>154</ele>
        <time>2024-04-07T07:50:01Z</time>
      </trkpt>
      <trkpt lat="44.81064" lon="0.81925">
        <ele>154.2</ele>
        <time>2024-04-07T07:50:03Z</time>
      </trkpt>
      <trkpt lat="44.81066" lon="0.81921">
        <ele>154.2</ele>
        <time>2024-04-07T07:50:04Z</time>
      </trkpt>
      <trkpt lat="44.81067" lon="0.81917">
        <ele>154.2</ele>
        <time>2024-04-07T07:50:05Z</time>
      </trkpt>
      <trkpt lat="44.81069" lon="0.81908">
        <ele>154.3</ele>
        <time>2024-04-07T07:50:07Z</time>
      </trkpt>
      <trkpt lat="44.81072" lon="0.81903">
        <ele>154.4</ele>
        <time>2024-04-07T07:50:08Z</time>
      </trkpt>
      <trkpt lat="44.81074" lon="0.81898">
        <ele>154.5</ele>
        <time>2024-04-07T07:50:09Z</time>
      </trkpt>
      <trkpt lat="44.81079" lon="0.81887">
        <ele>154.7</ele>
        <time>2024-04-07T07:50:11Z</time>
      </trkpt>
      <trkpt lat="44.81082" lon="0.81882">
        <ele>154.8</ele>
        <time>2024-04-07T07:50:12Z</time>
      </trkpt>
      <trkpt lat="44.81086" lon="0.81877">
        <ele>155</ele>
        <time>2024-04-07T07:50:13Z</time>
      </trkpt>
      <trkpt lat="44.81092" lon="0.81867">
        <ele>155.4</ele>
        <time>2024-04-07T07:50:15Z</time>
      </trkpt>
      <trkpt lat="44.81097" lon="0.81856">
        <ele>155.9</ele>
        <time>2024-04-07T07:50:17Z</time>
      </trkpt>
      <trkpt lat="44.81099" lon="0.81846">
        <ele>156.4</ele>
        <time>2024-04-07T07:50:19Z</time>
      </trkpt>
      <trkpt lat="44.811" lon="0.81841">
        <ele>156.6</ele>
        <time>2024-04-07T07:50:20Z</time>
      </trkpt>
      <trkpt lat="44.81101" lon="0.81837">
        <ele>156.8</ele>
        <time>2024-04-07T07:50:21Z</time>
      </trkpt>
      <trkpt lat="44.81103" lon="0.8183">
        <ele>157.2</ele>
        <time>2024-04-07T07:50:23Z</time>
      </trkpt>
      <trkpt lat="44.81103" lon="0.81827">
        <ele>157.4</ele>
        <time>2024-04-07T07:50:24Z</time>
      </trkpt>
      <trkpt lat="44.81102" lon="0.81823">
        <ele>157.6</ele>
        <time>2024-04-07T07:50:25Z</time>
      </trkpt>
      <trkpt lat="44.81104" lon="0.81814">
        <ele>158.7</ele>
        <time>2024-04-07T07:50:27Z</time>
      </trkpt>
      <trkpt lat="44.81106" lon="0.81806">
        <ele>159.3</ele>
        <time>2024-04-07T07:50:29Z</time>
      </trkpt>
      <trkpt lat="44.81107" lon="0.81802">
        <ele>159.6</ele>
        <time>2024-04-07T07:50:30Z</time>
      </trkpt>
      <trkpt lat="44.81109" lon="0.81799">
        <ele>160</ele>
        <time>2024-04-07T07:50:31Z</time>
      </trkpt>
      <trkpt lat="44.8111" lon="0.81796">
        <ele>160.2</ele>
        <time>2024-04-07T07:50:32Z</time>
      </trkpt>
      <trkpt lat="44.81111" lon="0.81793">
        <ele>160.5</ele>
        <time>2024-04-07T07:50:33Z</time>
      </trkpt>
      <trkpt lat="44.81113" lon="0.81787">
        <ele>161.1</ele>
        <time>2024-04-07T07:50:35Z</time>
      </trkpt>
      <trkpt lat="44.81117" lon="0.81782">
        <ele>161.6</ele>
        <time>2024-04-07T07:50:37Z</time>
      </trkpt>
      <trkpt lat="44.8112" lon="0.81776">
        <ele>162.3</ele>
        <time>2024-04-07T07:50:39Z</time>
      </trkpt>
      <trkpt lat="44.81122" lon="0.81771">
        <ele>162.8</ele>
        <time>2024-04-07T07:50:41Z</time>
      </trkpt>
      <trkpt lat="44.81122" lon="0.81768">
        <ele>163</ele>
        <time>2024-04-07T07:50:42Z</time>
      </trkpt>
      <trkpt lat="44.81123" lon="0.81765">
        <ele>163.3</ele>
        <time>2024-04-07T07:50:43Z</time>
      </trkpt>
      <trkpt lat="44.81124" lon="0.81763">
        <ele>163.5</ele>
        <time>2024-04-07T07:50:44Z</time>
      </trkpt>
      <trkpt lat="44.81125" lon="0.81761">
        <ele>163.7</ele>
        <time>2024-04-07T07:50:45Z</time>
      </trkpt>
      <trkpt lat="44.81125" lon="0.81758">
        <ele>164</ele>
        <time>2024-04-07T07:50:46Z</time>
      </trkpt>
      <trkpt lat="44.81127" lon="0.81755">
        <ele>164.3</ele>
        <time>2024-04-07T07:50:47Z</time>
      </trkpt>
      <trkpt lat="44.81129" lon="0.8175">
        <ele>164.8</ele>
        <time>2024-04-07T07:50:49Z</time>
      </trkpt>
      <trkpt lat="44.8113" lon="0.81748">
        <ele>165.1</ele>
        <time>2024-04-07T07:50:50Z</time>
      </trkpt>
      <trkpt lat="44.81132" lon="0.81744">
        <ele>165.5</ele>
        <time>2024-04-07T07:50:51Z</time>
      </trkpt>
      <trkpt lat="44.81133" lon="0.81742">
        <ele>165.8</ele>
        <time>2024-04-07T07:50:52Z</time>
      </trkpt>
      <trkpt lat="44.81136" lon="0.81739">
        <ele>166.2</ele>
        <time>2024-04-07T07:50:53Z</time>
      </trkpt>
      <trkpt lat="44.81139" lon="0.81733">
        <ele>167</ele>
        <time>2024-04-07T07:50:55Z</time>
      </trkpt>
      <trkpt lat="44.81141" lon="0.81731">
        <ele>167.3</ele>
        <time>2024-04-07T07:50:56Z</time>
      </trkpt>
      <trkpt lat="44.81143" lon="0.81728">
        <ele>167.6</ele>
        <time>2024-04-07T07:50:57Z</time>
      </trkpt>
      <trkpt lat="44.81144" lon="0.81724">
        <ele>168</ele>
        <time>2024-04-07T07:50:59Z</time>
      </trkpt>
      <trkpt lat="44.81147" lon="0.81719">
        <ele>168.5</ele>
        <time>2024-04-07T07:51:01Z</time>
      </trkpt>
      <trkpt lat="44.81148" lon="0.81717">
        <ele>168.8</ele>
        <time>2024-04-07T07:51:02Z</time>
      </trkpt>
      <trkpt lat="44.81149" lon="0.81715">
        <ele>169</ele>
        <time>2024-04-07T07:51:03Z</time>
      </trkpt>
      <trkpt lat="44.81152" lon="0.8171">
        <ele>169.6</ele>
        <time>2024-04-07T07:51:05Z</time>
      </trkpt>
      <trkpt lat="44.81153" lon="0.81707">
        <ele>169.8</ele>
        <time>2024-04-07T07:51:06Z</time>
      </trkpt>
      <trkpt lat="44.81154" lon="0.81705">
        <ele>170.1</ele>
        <time>2024-04-07T07:51:07Z</time>
      </trkpt>
      <trkpt lat="44.81156" lon="0.81701">
        <ele>170.5</ele>
        <time>2024-04-07T07:51:09Z</time>
      </trkpt>
      <trkpt lat="44.81157" lon="0.81696">
        <ele>170.9</ele>
        <time>2024-04-07T07:51:11Z</time>
      </trkpt>
      <trkpt lat="44.81157" lon="0.81693">
        <ele>171.2</ele>
        <time>2024-04-07T07:51:12Z</time>
      </trkpt>
      <trkpt lat="44.81158" lon="0.81691">
        <ele>171.4</ele>
        <time>2024-04-07T07:51:13Z</time>
      </trkpt>
      <trkpt lat="44.81158" lon="0.81686">
        <ele>171.8</ele>
        <time>2024-04-07T07:51:15Z</time>
      </trkpt>
      <trkpt lat="44.81159" lon="0.81684">
        <ele>171.9</ele>
        <time>2024-04-07T07:51:16Z</time>
      </trkpt>
      <trkpt lat="44.81161" lon="0.81682">
        <ele>172.2</ele>
        <time>2024-04-07T07:51:17Z</time>
      </trkpt>
      <trkpt lat="44.81162" lon="0.81679">
        <ele>172.4</ele>
        <time>2024-04-07T07:51:18Z</time>
      </trkpt>
      <trkpt lat="44.81163" lon="0.81678">
        <ele>172.5</ele>
        <time>2024-04-07T07:51:19Z</time>
      </trkpt>
      <trkpt lat="44.81163" lon="0.81675">
        <ele>172.7</ele>
        <time>2024-04-07T07:51:20Z</time>
      </trkpt>
      <trkpt lat="44.81165" lon="0.81672">
        <ele>173</ele>
        <time>2024-04-07T07:51:21Z</time>
      </trkpt>
      <trkpt lat="44.81168" lon="0.81666">
        <ele>173.4</ele>
        <time>2024-04-07T07:51:23Z</time>
      </trkpt>
      <trkpt lat="44.81169" lon="0.8166">
        <ele>173.8</ele>
        <time>2024-04-07T07:51:25Z</time>
      </trkpt>
      <trkpt lat="44.8117" lon="0.81658">
        <ele>173.9</ele>
        <time>2024-04-07T07:51:26Z</time>
      </trkpt>
      <trkpt lat="44.81171" lon="0.81655">
        <ele>174.1</ele>
        <time>2024-04-07T07:51:27Z</time>
      </trkpt>
      <trkpt lat="44.81171" lon="0.81653">
        <ele>174.2</ele>
        <time>2024-04-07T07:51:28Z</time>
      </trkpt>
      <trkpt lat="44.8117" lon="0.8165">
        <ele>174.3</ele>
        <time>2024-04-07T07:51:29Z</time>
      </trkpt>
      <trkpt lat="44.81168" lon="0.81648">
        <ele>174.5</ele>
        <time>2024-04-07T07:51:30Z</time>
      </trkpt>
      <trkpt lat="44.81168" lon="0.81646">
        <ele>174.6</ele>
        <time>2024-04-07T07:51:31Z</time>
      </trkpt>
      <trkpt lat="44.81167" lon="0.81643">
        <ele>174.7</ele>
        <time>2024-04-07T07:51:32Z</time>
      </trkpt>
      <trkpt lat="44.81171" lon="0.81639">
        <ele>175</ele>
        <time>2024-04-07T07:51:33Z</time>
      </trkpt>
      <trkpt lat="44.81174" lon="0.81632">
        <ele>175.3</ele>
        <time>2024-04-07T07:51:35Z</time>
      </trkpt>
      <trkpt lat="44.81176" lon="0.81626">
        <ele>175.6</ele>
        <time>2024-04-07T07:51:37Z</time>
      </trkpt>
      <trkpt lat="44.81178" lon="0.81621">
        <ele>175.8</ele>
        <time>2024-04-07T07:51:39Z</time>
      </trkpt>
      <trkpt lat="44.8118" lon="0.81619">
        <ele>176</ele>
        <time>2024-04-07T07:51:40Z</time>
      </trkpt>
      <trkpt lat="44.81181" lon="0.81616">
        <ele>176.1</ele>
        <time>2024-04-07T07:51:41Z</time>
      </trkpt>
      <trkpt lat="44.81181" lon="0.81612">
        <ele>176.3</ele>
        <time>2024-04-07T07:51:42Z</time>
      </trkpt>
      <trkpt lat="44.81182" lon="0.81609">
        <ele>176.4</ele>
        <time>2024-04-07T07:51:43Z</time>
      </trkpt>
      <trkpt lat="44.81182" lon="0.81607">
        <ele>176.6</ele>
        <time>2024-04-07T07:51:44Z</time>
      </trkpt>
      <trkpt lat="44.81183" lon="0.81604">
        <ele>176.7</ele>
        <time>2024-04-07T07:51:45Z</time>
      </trkpt>
      <trkpt lat="44.81182" lon="0.81598">
        <ele>177</ele>
        <time>2024-04-07T07:51:47Z</time>
      </trkpt>
      <trkpt lat="44.81183" lon="0.81592">
        <ele>177.3</ele>
        <time>2024-04-07T07:51:49Z</time>
      </trkpt>
      <trkpt lat="44.81185" lon="0.81586">
        <ele>177.6</ele>
        <time>2024-04-07T07:51:51Z</time>
      </trkpt>
      <trkpt lat="44.81186" lon="0.81583">
        <ele>177.8</ele>
        <time>2024-04-07T07:51:52Z</time>
      </trkpt>
      <trkpt lat="44.81186" lon="0.8158">
        <ele>177.9</ele>
        <time>2024-04-07T07:51:53Z</time>
      </trkpt>
      <trkpt lat="44.81187" lon="0.81578">
        <ele>178</ele>
        <time>2024-04-07T07:51:54Z</time>
      </trkpt>
      <trkpt lat="44.81187" lon="0.81575">
        <ele>178.2</ele>
        <time>2024-04-07T07:51:55Z</time>
      </trkpt>
      <trkpt lat="44.81189" lon="0.81571">
        <ele>178.4</ele>
        <time>2024-04-07T07:51:56Z</time>
      </trkpt>
      <trkpt lat="44.81189" lon="0.81568">
        <ele>178.5</ele>
        <time>2024-04-07T07:51:57Z</time>
      </trkpt>
      <trkpt lat="44.8119" lon="0.81561">
        <ele>178.8</ele>
        <time>2024-04-07T07:51:59Z</time>
      </trkpt>
      <trkpt lat="44.8119" lon="0.81558">
        <ele>179</ele>
        <time>2024-04-07T07:52:00Z</time>
      </trkpt>
      <trkpt lat="44.81191" lon="0.81555">
        <ele>179.1</ele>
        <time>2024-04-07T07:52:01Z</time>
      </trkpt>
      <trkpt lat="44.81192" lon="0.81551">
        <ele>179.3</ele>
        <time>2024-04-07T07:52:03Z</time>
      </trkpt>
      <trkpt lat="44.81193" lon="0.81546">
        <ele>179.6</ele>
        <time>2024-04-07T07:52:05Z</time>
      </trkpt>
      <trkpt lat="44.81193" lon="0.81541">
        <ele>179.8</ele>
        <time>2024-04-07T07:52:07Z</time>
      </trkpt>
      <trkpt lat="44.81194" lon="0.81538">
        <ele>179.9</ele>
        <time>2024-04-07T07:52:08Z</time>
      </trkpt>
      <trkpt lat="44.81194" lon="0.81535">
        <ele>180</ele>
        <time>2024-04-07T07:52:09Z</time>
      </trkpt>
      <trkpt lat="44.81195" lon="0.8153">
        <ele>180.3</ele>
        <time>2024-04-07T07:52:11Z</time>
      </trkpt>
      <trkpt lat="44.81197" lon="0.81524">
        <ele>180.5</ele>
        <time>2024-04-07T07:52:13Z</time>
      </trkpt>
      <trkpt lat="44.81197" lon="0.81519">
        <ele>180.7</ele>
        <time>2024-04-07T07:52:15Z</time>
      </trkpt>
      <trkpt lat="44.81198" lon="0.81514">
        <ele>181</ele>
        <time>2024-04-07T07:52:17Z</time>
      </trkpt>
      <trkpt lat="44.81198" lon="0.81511">
        <ele>181.1</ele>
        <time>2024-04-07T07:52:18Z</time>
      </trkpt>
      <trkpt lat="44.81199" lon="0.81509">
        <ele>181.2</ele>
        <time>2024-04-07T07:52:19Z</time>
      </trkpt>
      <trkpt lat="44.81199" lon="0.81505">
        <ele>181.5</ele>
        <time>2024-04-07T07:52:21Z</time>
      </trkpt>
      <trkpt lat="44.81199" lon="0.81499">
        <ele>181.8</ele>
        <time>2024-04-07T07:52:23Z</time>
      </trkpt>
      <trkpt lat="44.81199" lon="0.81493">
        <ele>182.2</ele>
        <time>2024-04-07T07:52:25Z</time>
      </trkpt>
      <trkpt lat="44.81198" lon="0.81487">
        <ele>182.6</ele>
        <time>2024-04-07T07:52:27Z</time>
      </trkpt>
      <trkpt lat="44.81199" lon="0.81482">
        <ele>182.9</ele>
        <time>2024-04-07T07:52:29Z</time>
      </trkpt>
      <trkpt lat="44.81199" lon="0.81478">
        <ele>183.2</ele>
        <time>2024-04-07T07:52:31Z</time>
      </trkpt>
      <trkpt lat="44.81199" lon="0.81476">
        <ele>183.3</ele>
        <time>2024-04-07T07:52:32Z</time>
      </trkpt>
      <trkpt lat="44.81199" lon="0.81474">
        <ele>183.4</ele>
        <time>2024-04-07T07:52:33Z</time>
      </trkpt>
      <trkpt lat="44.81199" lon="0.8147">
        <ele>183.7</ele>
        <time>2024-04-07T07:52:35Z</time>
      </trkpt>
      <trkpt lat="44.81199" lon="0.81465">
        <ele>183.9</ele>
        <time>2024-04-07T07:52:37Z</time>
      </trkpt>
      <trkpt lat="44.81198" lon="0.81464">
        <ele>184</ele>
        <time>2024-04-07T07:52:38Z</time>
      </trkpt>
      <trkpt lat="44.81198" lon="0.81461">
        <ele>184.2</ele>
        <time>2024-04-07T07:52:39Z</time>
      </trkpt>
      <trkpt lat="44.81198" lon="0.81456">
        <ele>184.4</ele>
        <time>2024-04-07T07:52:41Z</time>
      </trkpt>
      <trkpt lat="44.81198" lon="0.81451">
        <ele>184.7</ele>
        <time>2024-04-07T07:52:43Z</time>
      </trkpt>
      <trkpt lat="44.81197" lon="0.81447">
        <ele>185</ele>
        <time>2024-04-07T07:52:45Z</time>
      </trkpt>
      <trkpt lat="44.81196" lon="0.81443">
        <ele>185.2</ele>
        <time>2024-04-07T07:52:47Z</time>
      </trkpt>
      <trkpt lat="44.81194" lon="0.81442">
        <ele>185.3</ele>
        <time>2024-04-07T07:52:48Z</time>
      </trkpt>
      <trkpt lat="44.81192" lon="0.81442">
        <ele>185.3</ele>
        <time>2024-04-07T07:52:49Z</time>
      </trkpt>
      <trkpt lat="44.81189" lon="0.8144">
        <ele>185.5</ele>
        <time>2024-04-07T07:52:51Z</time>
      </trkpt>
      <trkpt lat="44.81186" lon="0.81438">
        <ele>185.6</ele>
        <time>2024-04-07T07:52:53Z</time>
      </trkpt>
      <trkpt lat="44.81183" lon="0.81435">
        <ele>185.7</ele>
        <time>2024-04-07T07:52:55Z</time>
      </trkpt>
      <trkpt lat="44.8118" lon="0.81432">
        <ele>185.8</ele>
        <time>2024-04-07T07:52:57Z</time>
      </trkpt>
      <trkpt lat="44.81178" lon="0.81429">
        <ele>185.9</ele>
        <time>2024-04-07T07:52:59Z</time>
      </trkpt>
      <trkpt lat="44.81176" lon="0.81426">
        <ele>186</ele>
        <time>2024-04-07T07:53:01Z</time>
      </trkpt>
      <trkpt lat="44.81174" lon="0.81422">
        <ele>186.1</ele>
        <time>2024-04-07T07:53:03Z</time>
      </trkpt>
      <trkpt lat="44.81172" lon="0.81418">
        <ele>186.2</ele>
        <time>2024-04-07T07:53:05Z</time>
      </trkpt>
      <trkpt lat="44.8117" lon="0.81417">
        <ele>186.2</ele>
        <time>2024-04-07T07:53:06Z</time>
      </trkpt>
      <trkpt lat="44.81169" lon="0.81416">
        <ele>186.2</ele>
        <time>2024-04-07T07:53:07Z</time>
      </trkpt>
      <trkpt lat="44.81169" lon="0.81414">
        <ele>186.1</ele>
        <time>2024-04-07T07:53:08Z</time>
      </trkpt>
      <trkpt lat="44.81169" lon="0.81412">
        <ele>186.1</ele>
        <time>2024-04-07T07:53:09Z</time>
      </trkpt>
      <trkpt lat="44.81171" lon="0.81407">
        <ele>185.9</ele>
        <time>2024-04-07T07:53:11Z</time>
      </trkpt>
      <trkpt lat="44.81172" lon="0.81403">
        <ele>185.7</ele>
        <time>2024-04-07T07:53:13Z</time>
      </trkpt>
      <trkpt lat="44.81174" lon="0.81396">
        <ele>185.4</ele>
        <time>2024-04-07T07:53:15Z</time>
      </trkpt>
      <trkpt lat="44.81177" lon="0.81388">
        <ele>184.9</ele>
        <time>2024-04-07T07:53:17Z</time>
      </trkpt>
      <trkpt lat="44.8118" lon="0.81383">
        <ele>184.6</ele>
        <time>2024-04-07T07:53:18Z</time>
      </trkpt>
      <trkpt lat="44.81185" lon="0.81376">
        <ele>184</ele>
        <time>2024-04-07T07:53:19Z</time>
      </trkpt>
      <trkpt lat="44.81192" lon="0.8136">
        <ele>183.1</ele>
        <time>2024-04-07T07:53:21Z</time>
      </trkpt>
      <trkpt lat="44.81198" lon="0.81349">
        <ele>182.4</ele>
        <time>2024-04-07T07:53:23Z</time>
      </trkpt>
      <trkpt lat="44.81199" lon="0.81345">
        <ele>182.1</ele>
        <time>2024-04-07T07:53:24Z</time>
      </trkpt>
      <trkpt lat="44.81201" lon="0.81341">
        <ele>181.9</ele>
        <time>2024-04-07T07:53:25Z</time>
      </trkpt>
      <trkpt lat="44.81203" lon="0.81336">
        <ele>181.6</ele>
        <time>2024-04-07T07:53:27Z</time>
      </trkpt>
      <trkpt lat="44.81208" lon="0.81326">
        <ele>180.8</ele>
        <time>2024-04-07T07:53:28Z</time>
      </trkpt>
      <trkpt lat="44.81212" lon="0.81319">
        <ele>180.3</ele>
        <time>2024-04-07T07:53:29Z</time>
      </trkpt>
      <trkpt lat="44.81218" lon="0.81304">
        <ele>179.5</ele>
        <time>2024-04-07T07:53:31Z</time>
      </trkpt>
      <trkpt lat="44.81226" lon="0.81288">
        <ele>178.8</ele>
        <time>2024-04-07T07:53:33Z</time>
      </trkpt>
      <trkpt lat="44.8123" lon="0.8128">
        <ele>178.4</ele>
        <time>2024-04-07T07:53:34Z</time>
      </trkpt>
      <trkpt lat="44.81234" lon="0.81271">
        <ele>177.9</ele>
        <time>2024-04-07T07:53:35Z</time>
      </trkpt>
      <trkpt lat="44.81242" lon="0.81253">
        <ele>176.9</ele>
        <time>2024-04-07T07:53:37Z</time>
      </trkpt>
      <trkpt lat="44.81251" lon="0.81234">
        <ele>175.5</ele>
        <time>2024-04-07T07:53:39Z</time>
      </trkpt>
      <trkpt lat="44.8126" lon="0.81217">
        <ele>173.9</ele>
        <time>2024-04-07T07:53:41Z</time>
      </trkpt>
      <trkpt lat="44.81272" lon="0.812">
        <ele>172.3</ele>
        <time>2024-04-07T07:53:43Z</time>
      </trkpt>
      <trkpt lat="44.81285" lon="0.81185">
        <ele>170.8</ele>
        <time>2024-04-07T07:53:45Z</time>
      </trkpt>
      <trkpt lat="44.81292" lon="0.81177">
        <ele>170</ele>
        <time>2024-04-07T07:53:46Z</time>
      </trkpt>
      <trkpt lat="44.81299" lon="0.8117">
        <ele>169.2</ele>
        <time>2024-04-07T07:53:47Z</time>
      </trkpt>
      <trkpt lat="44.81311" lon="0.81156">
        <ele>167.8</ele>
        <time>2024-04-07T07:53:49Z</time>
      </trkpt>
      <trkpt lat="44.81315" lon="0.81146">
        <ele>167.2</ele>
        <time>2024-04-07T07:53:50Z</time>
      </trkpt>
      <trkpt lat="44.81316" lon="0.81134">
        <ele>166.7</ele>
        <time>2024-04-07T07:53:51Z</time>
      </trkpt>
      <trkpt lat="44.81314" lon="0.81122">
        <ele>166.4</ele>
        <time>2024-04-07T07:53:52Z</time>
      </trkpt>
      <trkpt lat="44.81311" lon="0.81111">
        <ele>166.3</ele>
        <time>2024-04-07T07:53:53Z</time>
      </trkpt>
      <trkpt lat="44.8131" lon="0.81101">
        <ele>166.2</ele>
        <time>2024-04-07T07:53:54Z</time>
      </trkpt>
      <trkpt lat="44.81311" lon="0.81092">
        <ele>166.1</ele>
        <time>2024-04-07T07:53:55Z</time>
      </trkpt>
      <trkpt lat="44.81315" lon="0.81085">
        <ele>166</ele>
        <time>2024-04-07T07:53:56Z</time>
      </trkpt>
      <trkpt lat="44.81319" lon="0.81081">
        <ele>165.8</ele>
        <time>2024-04-07T07:53:57Z</time>
      </trkpt>
      <trkpt lat="44.81324" lon="0.81077">
        <ele>165.6</ele>
        <time>2024-04-07T07:53:58Z</time>
      </trkpt>
      <trkpt lat="44.81329" lon="0.81074">
        <ele>165.4</ele>
        <time>2024-04-07T07:53:59Z</time>
      </trkpt>
      <trkpt lat="44.81341" lon="0.81067">
        <ele>164.7</ele>
        <time>2024-04-07T07:54:01Z</time>
      </trkpt>
      <trkpt lat="44.81353" lon="0.81058">
        <ele>164</ele>
        <time>2024-04-07T07:54:03Z</time>
      </trkpt>
      <trkpt lat="44.8136" lon="0.81053">
        <ele>163.7</ele>
        <time>2024-04-07T07:54:04Z</time>
      </trkpt>
      <trkpt lat="44.81367" lon="0.81047">
        <ele>163.5</ele>
        <time>2024-04-07T07:54:05Z</time>
      </trkpt>
      <trkpt lat="44.8138" lon="0.81034">
        <ele>163.5</ele>
        <time>2024-04-07T07:54:07Z</time>
      </trkpt>
      <trkpt lat="44.81385" lon="0.81028">
        <ele>163.6</ele>
        <time>2024-04-07T07:54:08Z</time>
      </trkpt>
      <trkpt lat="44.8139" lon="0.81021">
        <ele>163.8</ele>
        <time>2024-04-07T07:54:09Z</time>
      </trkpt>
      <trkpt lat="44.81393" lon="0.81015">
        <ele>164</ele>
        <time>2024-04-07T07:54:10Z</time>
      </trkpt>
      <trkpt lat="44.81395" lon="0.8101">
        <ele>164.2</ele>
        <time>2024-04-07T07:54:11Z</time>
      </trkpt>
      <trkpt lat="44.81399" lon="0.80997">
        <ele>164.5</ele>
        <time>2024-04-07T07:54:13Z</time>
      </trkpt>
      <trkpt lat="44.81401" lon="0.80991">
        <ele>164.6</ele>
        <time>2024-04-07T07:54:14Z</time>
      </trkpt>
      <trkpt lat="44.81403" lon="0.80984">
        <ele>164.6</ele>
        <time>2024-04-07T07:54:15Z</time>
      </trkpt>
      <trkpt lat="44.81408" lon="0.80971">
        <ele>164.7</ele>
        <time>2024-04-07T07:54:17Z</time>
      </trkpt>
      <trkpt lat="44.81409" lon="0.80965">
        <ele>164.7</ele>
        <time>2024-04-07T07:54:18Z</time>
      </trkpt>
      <trkpt lat="44.81411" lon="0.8096">
        <ele>164.7</ele>
        <time>2024-04-07T07:54:19Z</time>
      </trkpt>
      <trkpt lat="44.81413" lon="0.80955">
        <ele>164.7</ele>
        <time>2024-04-07T07:54:20Z</time>
      </trkpt>
      <trkpt lat="44.81416" lon="0.80946">
        <ele>164.8</ele>
        <time>2024-04-07T07:54:21Z</time>
      </trkpt>
      <trkpt lat="44.81419" lon="0.8094">
        <ele>164.8</ele>
        <time>2024-04-07T07:54:22Z</time>
      </trkpt>
      <trkpt lat="44.81421" lon="0.80934">
        <ele>164.9</ele>
        <time>2024-04-07T07:54:23Z</time>
      </trkpt>
      <trkpt lat="44.81424" lon="0.80927">
        <ele>165</ele>
        <time>2024-04-07T07:54:24Z</time>
      </trkpt>
      <trkpt lat="44.81426" lon="0.80921">
        <ele>165.1</ele>
        <time>2024-04-07T07:54:25Z</time>
      </trkpt>
      <trkpt lat="44.81432" lon="0.80909">
        <ele>165.4</ele>
        <time>2024-04-07T07:54:27Z</time>
      </trkpt>
      <trkpt lat="44.81437" lon="0.80897">
        <ele>165.7</ele>
        <time>2024-04-07T07:54:29Z</time>
      </trkpt>
      <trkpt lat="44.81441" lon="0.80886">
        <ele>166</ele>
        <time>2024-04-07T07:54:31Z</time>
      </trkpt>
      <trkpt lat="44.81444" lon="0.80875">
        <ele>166.3</ele>
        <time>2024-04-07T07:54:33Z</time>
      </trkpt>
      <trkpt lat="44.81446" lon="0.80869">
        <ele>166.4</ele>
        <time>2024-04-07T07:54:34Z</time>
      </trkpt>
      <trkpt lat="44.81446" lon="0.80864">
        <ele>166.5</ele>
        <time>2024-04-07T07:54:35Z</time>
      </trkpt>
      <trkpt lat="44.8145" lon="0.80851">
        <ele>166.7</ele>
        <time>2024-04-07T07:54:37Z</time>
      </trkpt>
      <trkpt lat="44.81453" lon="0.80836">
        <ele>166.5</ele>
        <time>2024-04-07T07:54:39Z</time>
      </trkpt>
      <trkpt lat="44.81457" lon="0.8082">
        <ele>166</ele>
        <time>2024-04-07T07:54:41Z</time>
      </trkpt>
      <trkpt lat="44.81459" lon="0.80812">
        <ele>165.7</ele>
        <time>2024-04-07T07:54:42Z</time>
      </trkpt>
      <trkpt lat="44.81461" lon="0.80803">
        <ele>165.5</ele>
        <time>2024-04-07T07:54:43Z</time>
      </trkpt>
      <trkpt lat="44.81464" lon="0.80795">
        <ele>165.3</ele>
        <time>2024-04-07T07:54:44Z</time>
      </trkpt>
      <trkpt lat="44.81467" lon="0.80787">
        <ele>165.2</ele>
        <time>2024-04-07T07:54:45Z</time>
      </trkpt>
      <trkpt lat="44.81475" lon="0.80774">
        <ele>165.4</ele>
        <time>2024-04-07T07:54:47Z</time>
      </trkpt>
      <trkpt lat="44.8148" lon="0.80766">
        <ele>165.6</ele>
        <time>2024-04-07T07:54:49Z</time>
      </trkpt>
      <trkpt lat="44.81485" lon="0.80758">
        <ele>166.1</ele>
        <time>2024-04-07T07:54:51Z</time>
      </trkpt>
      <trkpt lat="44.81492" lon="0.80751">
        <ele>166.8</ele>
        <time>2024-04-07T07:54:53Z</time>
      </trkpt>
      <trkpt lat="44.81498" lon="0.80744">
        <ele>167.5</ele>
        <time>2024-04-07T07:54:55Z</time>
      </trkpt>
      <trkpt lat="44.81503" lon="0.80738">
        <ele>168.2</ele>
        <time>2024-04-07T07:54:57Z</time>
      </trkpt>
      <trkpt lat="44.81507" lon="0.80732">
        <ele>168.9</ele>
        <time>2024-04-07T07:54:59Z</time>
      </trkpt>
      <trkpt lat="44.8151" lon="0.80728">
        <ele>169.3</ele>
        <time>2024-04-07T07:55:00Z</time>
      </trkpt>
      <trkpt lat="44.81513" lon="0.80724">
        <ele>169.8</ele>
        <time>2024-04-07T07:55:01Z</time>
      </trkpt>
      <trkpt lat="44.81518" lon="0.80718">
        <ele>170.4</ele>
        <time>2024-04-07T07:55:03Z</time>
      </trkpt>
      <trkpt lat="44.81522" lon="0.80712">
        <ele>170.9</ele>
        <time>2024-04-07T07:55:05Z</time>
      </trkpt>
      <trkpt lat="44.81523" lon="0.80709">
        <ele>171.2</ele>
        <time>2024-04-07T07:55:06Z</time>
      </trkpt>
      <trkpt lat="44.81526" lon="0.80706">
        <ele>171.4</ele>
        <time>2024-04-07T07:55:07Z</time>
      </trkpt>
      <trkpt lat="44.8153" lon="0.80697">
        <ele>171.8</ele>
        <time>2024-04-07T07:55:09Z</time>
      </trkpt>
      <trkpt lat="44.81533" lon="0.80687">
        <ele>172</ele>
        <time>2024-04-07T07:55:11Z</time>
      </trkpt>
      <trkpt lat="44.81536" lon="0.80677">
        <ele>172.3</ele>
        <time>2024-04-07T07:55:13Z</time>
      </trkpt>
      <trkpt lat="44.81538" lon="0.80667">
        <ele>172.4</ele>
        <time>2024-04-07T07:55:15Z</time>
      </trkpt>
      <trkpt lat="44.81539" lon="0.80663">
        <ele>172.5</ele>
        <time>2024-04-07T07:55:16Z</time>
      </trkpt>
      <trkpt lat="44.8154" lon="0.80658">
        <ele>172.6</ele>
        <time>2024-04-07T07:55:17Z</time>
      </trkpt>
      <trkpt lat="44.81541" lon="0.8065">
        <ele>172.7</ele>
        <time>2024-04-07T07:55:19Z</time>
      </trkpt>
      <trkpt lat="44.81542" lon="0.80641">
        <ele>172.9</ele>
        <time>2024-04-07T07:55:21Z</time>
      </trkpt>
      <trkpt lat="44.81543" lon="0.80637">
        <ele>172.9</ele>
        <time>2024-04-07T07:55:22Z</time>
      </trkpt>
      <trkpt lat="44.81544" lon="0.80632">
        <ele>173</ele>
        <time>2024-04-07T07:55:23Z</time>
      </trkpt>
      <trkpt lat="44.81546" lon="0.80623">
        <ele>173</ele>
        <time>2024-04-07T07:55:25Z</time>
      </trkpt>
      <trkpt lat="44.81548" lon="0.80615">
        <ele>172.9</ele>
        <time>2024-04-07T07:55:27Z</time>
      </trkpt>
      <trkpt lat="44.81547" lon="0.80604">
        <ele>172.6</ele>
        <time>2024-04-07T07:55:29Z</time>
      </trkpt>
      <trkpt lat="44.81546" lon="0.80599">
        <ele>172.4</ele>
        <time>2024-04-07T07:55:30Z</time>
      </trkpt>
      <trkpt lat="44.81547" lon="0.80593">
        <ele>172.1</ele>
        <time>2024-04-07T07:55:31Z</time>
      </trkpt>
      <trkpt lat="44.81547" lon="0.80585">
        <ele>171.7</ele>
        <time>2024-04-07T07:55:32Z</time>
      </trkpt>
      <trkpt lat="44.81549" lon="0.80576">
        <ele>171</ele>
        <time>2024-04-07T07:55:33Z</time>
      </trkpt>
      <trkpt lat="44.81551" lon="0.80567">
        <ele>170.3</ele>
        <time>2024-04-07T07:55:34Z</time>
      </trkpt>
      <trkpt lat="44.81553" lon="0.80556">
        <ele>169.4</ele>
        <time>2024-04-07T07:55:35Z</time>
      </trkpt>
      <trkpt lat="44.81559" lon="0.80534">
        <ele>167.8</ele>
        <time>2024-04-07T07:55:37Z</time>
      </trkpt>
      <trkpt lat="44.81564" lon="0.80512">
        <ele>166.5</ele>
        <time>2024-04-07T07:55:39Z</time>
      </trkpt>
      <trkpt lat="44.81569" lon="0.8049">
        <ele>165.5</ele>
        <time>2024-04-07T07:55:41Z</time>
      </trkpt>
      <trkpt lat="44.81571" lon="0.80479">
        <ele>165</ele>
        <time>2024-04-07T07:55:42Z</time>
      </trkpt>
      <trkpt lat="44.81572" lon="0.8047">
        <ele>164.6</ele>
        <time>2024-04-07T07:55:43Z</time>
      </trkpt>
      <trkpt lat="44.81572" lon="0.80461">
        <ele>164.4</ele>
        <time>2024-04-07T07:55:44Z</time>
      </trkpt>
      <trkpt lat="44.8157" lon="0.80453">
        <ele>164.2</ele>
        <time>2024-04-07T07:55:45Z</time>
      </trkpt>
      <trkpt lat="44.81567" lon="0.80438">
        <ele>164</ele>
        <time>2024-04-07T07:55:47Z</time>
      </trkpt>
      <trkpt lat="44.81563" lon="0.80424">
        <ele>163.9</ele>
        <time>2024-04-07T07:55:49Z</time>
      </trkpt>
      <trkpt lat="44.81559" lon="0.80411">
        <ele>164</ele>
        <time>2024-04-07T07:55:51Z</time>
      </trkpt>
      <trkpt lat="44.81556" lon="0.80405">
        <ele>164</ele>
        <time>2024-04-07T07:55:52Z</time>
      </trkpt>
      <trkpt lat="44.81554" lon="0.80399">
        <ele>164.1</ele>
        <time>2024-04-07T07:55:53Z</time>
      </trkpt>
      <trkpt lat="44.81551" lon="0.80393">
        <ele>164.1</ele>
        <time>2024-04-07T07:55:55Z</time>
      </trkpt>
      <trkpt lat="44.81548" lon="0.80388">
        <ele>164.1</ele>
        <time>2024-04-07T07:55:57Z</time>
      </trkpt>
      <trkpt lat="44.81549" lon="0.80384">
        <ele>164.1</ele>
        <time>2024-04-07T07:55:58Z</time>
      </trkpt>
      <trkpt lat="44.8155" lon="0.80381">
        <ele>164.1</ele>
        <time>2024-04-07T07:55:59Z</time>
      </trkpt>
      <trkpt lat="44.81551" lon="0.80378">
        <ele>164.1</ele>
        <time>2024-04-07T07:56:00Z</time>
      </trkpt>
      <trkpt lat="44.81558" lon="0.80372">
        <ele>163.9</ele>
        <time>2024-04-07T07:56:01Z</time>
      </trkpt>
      <trkpt lat="44.81563" lon="0.80366">
        <ele>163.8</ele>
        <time>2024-04-07T07:56:02Z</time>
      </trkpt>
      <trkpt lat="44.8157" lon="0.8036">
        <ele>163.6</ele>
        <time>2024-04-07T07:56:03Z</time>
      </trkpt>
      <trkpt lat="44.81579" lon="0.80351">
        <ele>163.3</ele>
        <time>2024-04-07T07:56:05Z</time>
      </trkpt>
      <trkpt lat="44.81587" lon="0.80344">
        <ele>163.1</ele>
        <time>2024-04-07T07:56:07Z</time>
      </trkpt>
      <trkpt lat="44.81595" lon="0.80338">
        <ele>162.9</ele>
        <time>2024-04-07T07:56:09Z</time>
      </trkpt>
      <trkpt lat="44.816" lon="0.80332">
        <ele>162.8</ele>
        <time>2024-04-07T07:56:11Z</time>
      </trkpt>
      <trkpt lat="44.81604" lon="0.80324">
        <ele>162.7</ele>
        <time>2024-04-07T07:56:13Z</time>
      </trkpt>
      <trkpt lat="44.81607" lon="0.80319">
        <ele>162.7</ele>
        <time>2024-04-07T07:56:14Z</time>
      </trkpt>
      <trkpt lat="44.81609" lon="0.80315">
        <ele>162.6</ele>
        <time>2024-04-07T07:56:15Z</time>
      </trkpt>
      <trkpt lat="44.81614" lon="0.80306">
        <ele>162.5</ele>
        <time>2024-04-07T07:56:17Z</time>
      </trkpt>
      <trkpt lat="44.81616" lon="0.80301">
        <ele>162.4</ele>
        <time>2024-04-07T07:56:18Z</time>
      </trkpt>
      <trkpt lat="44.81619" lon="0.80295">
        <ele>162.2</ele>
        <time>2024-04-07T07:56:19Z</time>
      </trkpt>
      <trkpt lat="44.81625" lon="0.80281">
        <ele>161.9</ele>
        <time>2024-04-07T07:56:21Z</time>
      </trkpt>
      <trkpt lat="44.81628" lon="0.80274">
        <ele>161.7</ele>
        <time>2024-04-07T07:56:22Z</time>
      </trkpt>
      <trkpt lat="44.81629" lon="0.80266">
        <ele>161.6</ele>
        <time>2024-04-07T07:56:23Z</time>
      </trkpt>
      <trkpt lat="44.81631" lon="0.80253">
        <ele>161.3</ele>
        <time>2024-04-07T07:56:25Z</time>
      </trkpt>
      <trkpt lat="44.81632" lon="0.80246">
        <ele>161.1</ele>
        <time>2024-04-07T07:56:26Z</time>
      </trkpt>
      <trkpt lat="44.81634" lon="0.80239">
        <ele>160.9</ele>
        <time>2024-04-07T07:56:27Z</time>
      </trkpt>
      <trkpt lat="44.81634" lon="0.80233">
        <ele>160.7</ele>
        <time>2024-04-07T07:56:28Z</time>
      </trkpt>
      <trkpt lat="44.81635" lon="0.80225">
        <ele>160.5</ele>
        <time>2024-04-07T07:56:29Z</time>
      </trkpt>
      <trkpt lat="44.81635" lon="0.80217">
        <ele>160.2</ele>
        <time>2024-04-07T07:56:30Z</time>
      </trkpt>
      <trkpt lat="44.81635" lon="0.80209">
        <ele>160</ele>
        <time>2024-04-07T07:56:31Z</time>
      </trkpt>
      <trkpt lat="44.81635" lon="0.802">
        <ele>159.9</ele>
        <time>2024-04-07T07:56:32Z</time>
      </trkpt>
      <trkpt lat="44.81635" lon="0.80192">
        <ele>159.9</ele>
        <time>2024-04-07T07:56:33Z</time>
      </trkpt>
      <trkpt lat="44.81636" lon="0.80176">
        <ele>160.1</ele>
        <time>2024-04-07T07:56:35Z</time>
      </trkpt>
      <trkpt lat="44.81636" lon="0.8016">
        <ele>160.8</ele>
        <time>2024-04-07T07:56:37Z</time>
      </trkpt>
      <trkpt lat="44.81638" lon="0.80144">
        <ele>161.7</ele>
        <time>2024-04-07T07:56:39Z</time>
      </trkpt>
      <trkpt lat="44.81639" lon="0.80132">
        <ele>162.7</ele>
        <time>2024-04-07T07:56:41Z</time>
      </trkpt>
      <trkpt lat="44.81639" lon="0.80127">
        <ele>163</ele>
        <time>2024-04-07T07:56:42Z</time>
      </trkpt>
      <trkpt lat="44.81639" lon="0.80123">
        <ele>163.4</ele>
        <time>2024-04-07T07:56:43Z</time>
      </trkpt>
      <trkpt lat="44.8164" lon="0.80114">
        <ele>164</ele>
        <time>2024-04-07T07:56:45Z</time>
      </trkpt>
      <trkpt lat="44.81641" lon="0.80106">
        <ele>164.6</ele>
        <time>2024-04-07T07:56:47Z</time>
      </trkpt>
      <trkpt lat="44.81641" lon="0.80102">
        <ele>164.9</ele>
        <time>2024-04-07T07:56:48Z</time>
      </trkpt>
      <trkpt lat="44.81641" lon="0.80097">
        <ele>165.2</ele>
        <time>2024-04-07T07:56:49Z</time>
      </trkpt>
      <trkpt lat="44.81642" lon="0.80089">
        <ele>165.8</ele>
        <time>2024-04-07T07:56:51Z</time>
      </trkpt>
      <trkpt lat="44.81643" lon="0.80081">
        <ele>166.4</ele>
        <time>2024-04-07T07:56:53Z</time>
      </trkpt>
      <trkpt lat="44.81644" lon="0.80073">
        <ele>166.9</ele>
        <time>2024-04-07T07:56:55Z</time>
      </trkpt>
      <trkpt lat="44.81645" lon="0.80069">
        <ele>167.2</ele>
        <time>2024-04-07T07:56:56Z</time>
      </trkpt>
      <trkpt lat="44.81645" lon="0.80065">
        <ele>167.5</ele>
        <time>2024-04-07T07:56:57Z</time>
      </trkpt>
      <trkpt lat="44.81646" lon="0.80057">
        <ele>167.9</ele>
        <time>2024-04-07T07:56:59Z</time>
      </trkpt>
      <trkpt lat="44.81647" lon="0.8005">
        <ele>168.2</ele>
        <time>2024-04-07T07:57:01Z</time>
      </trkpt>
      <trkpt lat="44.81648" lon="0.80042">
        <ele>168.5</ele>
        <time>2024-04-07T07:57:03Z</time>
      </trkpt>
      <trkpt lat="44.81648" lon="0.80034">
        <ele>168.7</ele>
        <time>2024-04-07T07:57:05Z</time>
      </trkpt>
      <trkpt lat="44.81649" lon="0.80025">
        <ele>168.8</ele>
        <time>2024-04-07T07:57:07Z</time>
      </trkpt>
      <trkpt lat="44.8165" lon="0.80016">
        <ele>168.8</ele>
        <time>2024-04-07T07:57:09Z</time>
      </trkpt>
      <trkpt lat="44.81651" lon="0.80011">
        <ele>168.8</ele>
        <time>2024-04-07T07:57:10Z</time>
      </trkpt>
      <trkpt lat="44.81651" lon="0.80007">
        <ele>168.8</ele>
        <time>2024-04-07T07:57:11Z</time>
      </trkpt>
      <trkpt lat="44.81653" lon="0.79999">
        <ele>168.7</ele>
        <time>2024-04-07T07:57:13Z</time>
      </trkpt>
      <trkpt lat="44.81654" lon="0.7999">
        <ele>168.6</ele>
        <time>2024-04-07T07:57:15Z</time>
      </trkpt>
      <trkpt lat="44.81654" lon="0.79986">
        <ele>168.5</ele>
        <time>2024-04-07T07:57:16Z</time>
      </trkpt>
      <trkpt lat="44.81655" lon="0.79982">
        <ele>168.4</ele>
        <time>2024-04-07T07:57:17Z</time>
      </trkpt>
      <trkpt lat="44.81656" lon="0.79974">
        <ele>168.2</ele>
        <time>2024-04-07T07:57:19Z</time>
      </trkpt>
      <trkpt lat="44.81657" lon="0.79967">
        <ele>168</ele>
        <time>2024-04-07T07:57:21Z</time>
      </trkpt>
      <trkpt lat="44.81657" lon="0.79964">
        <ele>167.9</ele>
        <time>2024-04-07T07:57:22Z</time>
      </trkpt>
      <trkpt lat="44.81659" lon="0.79962">
        <ele>167.8</ele>
        <time>2024-04-07T07:57:23Z</time>
      </trkpt>
      <trkpt lat="44.81662" lon="0.79962">
        <ele>167.5</ele>
        <time>2024-04-07T07:57:25Z</time>
      </trkpt>
      <trkpt lat="44.81665" lon="0.79963">
        <ele>167.3</ele>
        <time>2024-04-07T07:57:27Z</time>
      </trkpt>
      <trkpt lat="44.8167" lon="0.79962">
        <ele>167.1</ele>
        <time>2024-04-07T07:57:29Z</time>
      </trkpt>
      <trkpt lat="44.81676" lon="0.79961">
        <ele>166.7</ele>
        <time>2024-04-07T07:57:31Z</time>
      </trkpt>
      <trkpt lat="44.81682" lon="0.7996">
        <ele>166.3</ele>
        <time>2024-04-07T07:57:33Z</time>
      </trkpt>
      <trkpt lat="44.81688" lon="0.79958">
        <ele>165.9</ele>
        <time>2024-04-07T07:57:35Z</time>
      </trkpt>
      <trkpt lat="44.81694" lon="0.79955">
        <ele>165.4</ele>
        <time>2024-04-07T07:57:37Z</time>
      </trkpt>
      <trkpt lat="44.81698" lon="0.79954">
        <ele>165.1</ele>
        <time>2024-04-07T07:57:38Z</time>
      </trkpt>
      <trkpt lat="44.81701" lon="0.79953">
        <ele>164.8</ele>
        <time>2024-04-07T07:57:39Z</time>
      </trkpt>
      <trkpt lat="44.81708" lon="0.79953">
        <ele>164.1</ele>
        <time>2024-04-07T07:57:41Z</time>
      </trkpt>
      <trkpt lat="44.81712" lon="0.79953">
        <ele>163.8</ele>
        <time>2024-04-07T07:57:42Z</time>
      </trkpt>
      <trkpt lat="44.81718" lon="0.79954">
        <ele>163.3</ele>
        <time>2024-04-07T07:57:43Z</time>
      </trkpt>
      <trkpt lat="44.81729" lon="0.79954">
        <ele>162.3</ele>
        <time>2024-04-07T07:57:45Z</time>
      </trkpt>
      <trkpt lat="44.81734" lon="0.79952">
        <ele>161.7</ele>
        <time>2024-04-07T07:57:46Z</time>
      </trkpt>
      <trkpt lat="44.81738" lon="0.79948">
        <ele>161.4</ele>
        <time>2024-04-07T07:57:47Z</time>
      </trkpt>
      <trkpt lat="44.8174" lon="0.79936">
        <ele>160.9</ele>
        <time>2024-04-07T07:57:49Z</time>
      </trkpt>
      <trkpt lat="44.81739" lon="0.79923">
        <ele>160.2</ele>
        <time>2024-04-07T07:57:51Z</time>
      </trkpt>
      <trkpt lat="44.81739" lon="0.79917">
        <ele>159.7</ele>
        <time>2024-04-07T07:57:52Z</time>
      </trkpt>
      <trkpt lat="44.81739" lon="0.79911">
        <ele>159.3</ele>
        <time>2024-04-07T07:57:53Z</time>
      </trkpt>
      <trkpt lat="44.8174" lon="0.79906">
        <ele>158.9</ele>
        <time>2024-04-07T07:57:54Z</time>
      </trkpt>
      <trkpt lat="44.81744" lon="0.79903">
        <ele>158.4</ele>
        <time>2024-04-07T07:57:55Z</time>
      </trkpt>
      <trkpt lat="44.81751" lon="0.79903">
        <ele>157.9</ele>
        <time>2024-04-07T07:57:56Z</time>
      </trkpt>
      <trkpt lat="44.81758" lon="0.79905">
        <ele>157.4</ele>
        <time>2024-04-07T07:57:57Z</time>
      </trkpt>
      <trkpt lat="44.81773" lon="0.79908">
        <ele>156.8</ele>
        <time>2024-04-07T07:57:59Z</time>
      </trkpt>
      <trkpt lat="44.81781" lon="0.7991">
        <ele>156.5</ele>
        <time>2024-04-07T07:58:00Z</time>
      </trkpt>
      <trkpt lat="44.81788" lon="0.79911">
        <ele>156.2</ele>
        <time>2024-04-07T07:58:01Z</time>
      </trkpt>
      <trkpt lat="44.81802" lon="0.79914">
        <ele>155.5</ele>
        <time>2024-04-07T07:58:03Z</time>
      </trkpt>
      <trkpt lat="44.81815" lon="0.79918">
        <ele>154.8</ele>
        <time>2024-04-07T07:58:05Z</time>
      </trkpt>
      <trkpt lat="44.81822" lon="0.79921">
        <ele>154.3</ele>
        <time>2024-04-07T07:58:06Z</time>
      </trkpt>
      <trkpt lat="44.81829" lon="0.79924">
        <ele>153.8</ele>
        <time>2024-04-07T07:58:07Z</time>
      </trkpt>
      <trkpt lat="44.81836" lon="0.79928">
        <ele>153.3</ele>
        <time>2024-04-07T07:58:08Z</time>
      </trkpt>
      <trkpt lat="44.81843" lon="0.79931">
        <ele>152.8</ele>
        <time>2024-04-07T07:58:09Z</time>
      </trkpt>
      <trkpt lat="44.81851" lon="0.79932">
        <ele>152.3</ele>
        <time>2024-04-07T07:58:10Z</time>
      </trkpt>
      <trkpt lat="44.81858" lon="0.79932">
        <ele>151.7</ele>
        <time>2024-04-07T07:58:11Z</time>
      </trkpt>
      <trkpt lat="44.81865" lon="0.79933">
        <ele>151.1</ele>
        <time>2024-04-07T07:58:12Z</time>
      </trkpt>
      <trkpt lat="44.81871" lon="0.79935">
        <ele>150.5</ele>
        <time>2024-04-07T07:58:13Z</time>
      </trkpt>
      <trkpt lat="44.81876" lon="0.79937">
        <ele>150.1</ele>
        <time>2024-04-07T07:58:14Z</time>
      </trkpt>
      <trkpt lat="44.8188" lon="0.79938">
        <ele>149.8</ele>
        <time>2024-04-07T07:58:15Z</time>
      </trkpt>
      <trkpt lat="44.81883" lon="0.79936">
        <ele>149.6</ele>
        <time>2024-04-07T07:58:16Z</time>
      </trkpt>
      <trkpt lat="44.81886" lon="0.79933">
        <ele>149.4</ele>
        <time>2024-04-07T07:58:17Z</time>
      </trkpt>
      <trkpt lat="44.81896" lon="0.79925">
        <ele>148.9</ele>
        <time>2024-04-07T07:58:19Z</time>
      </trkpt>
      <trkpt lat="44.81901" lon="0.79921">
        <ele>148.8</ele>
        <time>2024-04-07T07:58:20Z</time>
      </trkpt>
      <trkpt lat="44.81906" lon="0.79917">
        <ele>148.7</ele>
        <time>2024-04-07T07:58:21Z</time>
      </trkpt>
      <trkpt lat="44.81913" lon="0.7991">
        <ele>148.8</ele>
        <time>2024-04-07T07:58:23Z</time>
      </trkpt>
      <trkpt lat="44.81917" lon="0.79908">
        <ele>148.9</ele>
        <time>2024-04-07T07:58:24Z</time>
      </trkpt>
      <trkpt lat="44.8192" lon="0.79905">
        <ele>149</ele>
        <time>2024-04-07T07:58:25Z</time>
      </trkpt>
      <trkpt lat="44.81927" lon="0.79901">
        <ele>149.4</ele>
        <time>2024-04-07T07:58:27Z</time>
      </trkpt>
      <trkpt lat="44.81933" lon="0.79899">
        <ele>150.1</ele>
        <time>2024-04-07T07:58:29Z</time>
      </trkpt>
      <trkpt lat="44.81937" lon="0.79896">
        <ele>150.7</ele>
        <time>2024-04-07T07:58:31Z</time>
      </trkpt>
      <trkpt lat="44.8194" lon="0.79894">
        <ele>151.1</ele>
        <time>2024-04-07T07:58:33Z</time>
      </trkpt>
      <trkpt lat="44.81942" lon="0.79893">
        <ele>151.3</ele>
        <time>2024-04-07T07:58:34Z</time>
      </trkpt>
      <trkpt lat="44.81943" lon="0.79893">
        <ele>151.5</ele>
        <time>2024-04-07T07:58:35Z</time>
      </trkpt>
      <trkpt lat="44.81946" lon="0.7989">
        <ele>152</ele>
        <time>2024-04-07T07:58:37Z</time>
      </trkpt>
      <trkpt lat="44.8195" lon="0.79888">
        <ele>152.7</ele>
        <time>2024-04-07T07:58:39Z</time>
      </trkpt>
      <trkpt lat="44.81952" lon="0.79887">
        <ele>153</ele>
        <time>2024-04-07T07:58:40Z</time>
      </trkpt>
      <trkpt lat="44.81954" lon="0.79886">
        <ele>153.3</ele>
        <time>2024-04-07T07:58:41Z</time>
      </trkpt>
      <trkpt lat="44.81957" lon="0.79885">
        <ele>153.9</ele>
        <time>2024-04-07T07:58:43Z</time>
      </trkpt>
      <trkpt lat="44.8196" lon="0.79883">
        <ele>154.5</ele>
        <time>2024-04-07T07:58:45Z</time>
      </trkpt>
      <trkpt lat="44.81961" lon="0.79882">
        <ele>154.7</ele>
        <time>2024-04-07T07:58:47Z</time>
      </trkpt>
      <trkpt lat="44.81962" lon="0.79882">
        <ele>155</ele>
        <time>2024-04-07T07:58:49Z</time>
      </trkpt>
      <trkpt lat="44.81963" lon="0.7988">
        <ele>155.4</ele>
        <time>2024-04-07T07:58:50Z</time>
      </trkpt>
      <trkpt lat="44.81965" lon="0.79878">
        <ele>155.8</ele>
        <time>2024-04-07T07:58:51Z</time>
      </trkpt>
      <trkpt lat="44.81966" lon="0.79876">
        <ele>156.2</ele>
        <time>2024-04-07T07:58:52Z</time>
      </trkpt>
      <trkpt lat="44.81966" lon="0.79874">
        <ele>156.6</ele>
        <time>2024-04-07T07:58:53Z</time>
      </trkpt>
      <trkpt lat="44.81967" lon="0.79873">
        <ele>156.9</ele>
        <time>2024-04-07T07:58:54Z</time>
      </trkpt>
      <trkpt lat="44.81968" lon="0.79871">
        <ele>157.2</ele>
        <time>2024-04-07T07:58:55Z</time>
      </trkpt>
      <trkpt lat="44.81969" lon="0.7987">
        <ele>157.6</ele>
        <time>2024-04-07T07:58:56Z</time>
      </trkpt>
      <trkpt lat="44.8197" lon="0.79868">
        <ele>158</ele>
        <time>2024-04-07T07:58:57Z</time>
      </trkpt>
      <trkpt lat="44.81971" lon="0.79865">
        <ele>158.6</ele>
        <time>2024-04-07T07:58:59Z</time>
      </trkpt>
      <trkpt lat="44.81974" lon="0.79862">
        <ele>159.5</ele>
        <time>2024-04-07T07:59:01Z</time>
      </trkpt>
      <trkpt lat="44.81976" lon="0.79858">
        <ele>160.4</ele>
        <time>2024-04-07T07:59:03Z</time>
      </trkpt>
      <trkpt lat="44.81977" lon="0.79855">
        <ele>161</ele>
        <time>2024-04-07T07:59:05Z</time>
      </trkpt>
      <trkpt lat="44.81979" lon="0.79851">
        <ele>161.7</ele>
        <time>2024-04-07T07:59:07Z</time>
      </trkpt>
      <trkpt lat="44.81982" lon="0.79848">
        <ele>162.5</ele>
        <time>2024-04-07T07:59:09Z</time>
      </trkpt>
      <trkpt lat="44.81983" lon="0.79847">
        <ele>162.7</ele>
        <time>2024-04-07T07:59:11Z</time>
      </trkpt>
      <trkpt lat="44.81983" lon="0.79844">
        <ele>163.2</ele>
        <time>2024-04-07T07:59:13Z</time>
      </trkpt>
      <trkpt lat="44.81984" lon="0.7984">
        <ele>163.7</ele>
        <time>2024-04-07T07:59:15Z</time>
      </trkpt>
      <trkpt lat="44.81986" lon="0.79837">
        <ele>164</ele>
        <time>2024-04-07T07:59:17Z</time>
      </trkpt>
      <trkpt lat="44.81988" lon="0.79834">
        <ele>164.5</ele>
        <time>2024-04-07T07:59:19Z</time>
      </trkpt>
      <trkpt lat="44.8199" lon="0.7983">
        <ele>164.8</ele>
        <time>2024-04-07T07:59:21Z</time>
      </trkpt>
      <trkpt lat="44.81992" lon="0.79827">
        <ele>165.1</ele>
        <time>2024-04-07T07:59:23Z</time>
      </trkpt>
      <trkpt lat="44.81992" lon="0.79826">
        <ele>165.2</ele>
        <time>2024-04-07T07:59:24Z</time>
      </trkpt>
      <trkpt lat="44.81993" lon="0.79824">
        <ele>165.3</ele>
        <time>2024-04-07T07:59:25Z</time>
      </trkpt>
      <trkpt lat="44.81995" lon="0.79821">
        <ele>165.6</ele>
        <time>2024-04-07T07:59:27Z</time>
      </trkpt>
      <trkpt lat="44.81997" lon="0.79817">
        <ele>165.8</ele>
        <time>2024-04-07T07:59:29Z</time>
      </trkpt>
      <trkpt lat="44.81998" lon="0.79815">
        <ele>166</ele>
        <time>2024-04-07T07:59:31Z</time>
      </trkpt>
      <trkpt lat="44.82002" lon="0.79812">
        <ele>166.2</ele>
        <time>2024-04-07T07:59:33Z</time>
      </trkpt>
      <trkpt lat="44.82003" lon="0.79811">
        <ele>166.4</ele>
        <time>2024-04-07T07:59:34Z</time>
      </trkpt>
      <trkpt lat="44.82004" lon="0.79809">
        <ele>166.4</ele>
        <time>2024-04-07T07:59:35Z</time>
      </trkpt>
      <trkpt lat="44.82006" lon="0.79806">
        <ele>166.6</ele>
        <time>2024-04-07T07:59:37Z</time>
      </trkpt>
      <trkpt lat="44.82007" lon="0.79804">
        <ele>166.7</ele>
        <time>2024-04-07T07:59:38Z</time>
      </trkpt>
      <trkpt lat="44.82008" lon="0.79802">
        <ele>166.8</ele>
        <time>2024-04-07T07:59:39Z</time>
      </trkpt>
      <trkpt lat="44.8201" lon="0.798">
        <ele>166.8</ele>
        <time>2024-04-07T07:59:40Z</time>
      </trkpt>
      <trkpt lat="44.82011" lon="0.79799">
        <ele>166.8</ele>
        <time>2024-04-07T07:59:41Z</time>
      </trkpt>
      <trkpt lat="44.82012" lon="0.79796">
        <ele>166.8</ele>
        <time>2024-04-07T07:59:43Z</time>
      </trkpt>
      <trkpt lat="44.82012" lon="0.79795">
        <ele>166.8</ele>
        <time>2024-04-07T07:59:44Z</time>
      </trkpt>
      <trkpt lat="44.82008" lon="0.79772">
        <ele>167.3</ele>
        <time>2024-04-07T08:00:30Z</time>
      </trkpt>
      <trkpt lat="44.82008" lon="0.7977">
        <ele>167.4</ele>
        <time>2024-04-07T08:00:31Z</time>
      </trkpt>
      <trkpt lat="44.82008" lon="0.79766">
        <ele>167.5</ele>
        <time>2024-04-07T08:00:33Z</time>
      </trkpt>
      <trkpt lat="44.82008" lon="0.7976">
        <ele>167.7</ele>
        <time>2024-04-07T08:00:35Z</time>
      </trkpt>
      <trkpt lat="44.82008" lon="0.79756">
        <ele>167.8</ele>
        <time>2024-04-07T08:00:37Z</time>
      </trkpt>
      <trkpt lat="44.82008" lon="0.7975">
        <ele>167.9</ele>
        <time>2024-04-07T08:00:39Z</time>
      </trkpt>
      <trkpt lat="44.82009" lon="0.79742">
        <ele>168</ele>
        <time>2024-04-07T08:00:41Z</time>
      </trkpt>
      <trkpt lat="44.82011" lon="0.79735">
        <ele>168</ele>
        <time>2024-04-07T08:00:43Z</time>
      </trkpt>
      <trkpt lat="44.82012" lon="0.79727">
        <ele>168</ele>
        <time>2024-04-07T08:00:45Z</time>
      </trkpt>
      <trkpt lat="44.82014" lon="0.79719">
        <ele>167.9</ele>
        <time>2024-04-07T08:00:47Z</time>
      </trkpt>
      <trkpt lat="44.82017" lon="0.79711">
        <ele>167.8</ele>
        <time>2024-04-07T08:00:49Z</time>
      </trkpt>
      <trkpt lat="44.82021" lon="0.79702">
        <ele>167.7</ele>
        <time>2024-04-07T08:00:51Z</time>
      </trkpt>
      <trkpt lat="44.82023" lon="0.79697">
        <ele>167.6</ele>
        <time>2024-04-07T08:00:52Z</time>
      </trkpt>
      <trkpt lat="44.82025" lon="0.79693">
        <ele>167.5</ele>
        <time>2024-04-07T08:00:53Z</time>
      </trkpt>
      <trkpt lat="44.82028" lon="0.79685">
        <ele>167.4</ele>
        <time>2024-04-07T08:00:55Z</time>
      </trkpt>
      <trkpt lat="44.82031" lon="0.79677">
        <ele>167.3</ele>
        <time>2024-04-07T08:00:57Z</time>
      </trkpt>
      <trkpt lat="44.82032" lon="0.79674">
        <ele>167.3</ele>
        <time>2024-04-07T08:00:58Z</time>
      </trkpt>
      <trkpt lat="44.82033" lon="0.79671">
        <ele>167.3</ele>
        <time>2024-04-07T08:00:59Z</time>
      </trkpt>
      <trkpt lat="44.82036" lon="0.79664">
        <ele>167.4</ele>
        <time>2024-04-07T08:01:01Z</time>
      </trkpt>
      <trkpt lat="44.82039" lon="0.79657">
        <ele>167.4</ele>
        <time>2024-04-07T08:01:03Z</time>
      </trkpt>
      <trkpt lat="44.82042" lon="0.79651">
        <ele>167.5</ele>
        <time>2024-04-07T08:01:05Z</time>
      </trkpt>
      <trkpt lat="44.82046" lon="0.79646">
        <ele>167.5</ele>
        <time>2024-04-07T08:01:07Z</time>
      </trkpt>
      <trkpt lat="44.82051" lon="0.79639">
        <ele>167.6</ele>
        <time>2024-04-07T08:01:09Z</time>
      </trkpt>
      <trkpt lat="44.82056" lon="0.79633">
        <ele>167.7</ele>
        <time>2024-04-07T08:01:11Z</time>
      </trkpt>
      <trkpt lat="44.82061" lon="0.79627">
        <ele>167.8</ele>
        <time>2024-04-07T08:01:13Z</time>
      </trkpt>
      <trkpt lat="44.82064" lon="0.79624">
        <ele>167.8</ele>
        <time>2024-04-07T08:01:14Z</time>
      </trkpt>
      <trkpt lat="44.82067" lon="0.79621">
        <ele>167.9</ele>
        <time>2024-04-07T08:01:15Z</time>
      </trkpt>
      <trkpt lat="44.82073" lon="0.79615">
        <ele>167.8</ele>
        <time>2024-04-07T08:01:17Z</time>
      </trkpt>
      <trkpt lat="44.82079" lon="0.79608">
        <ele>167.7</ele>
        <time>2024-04-07T08:01:19Z</time>
      </trkpt>
      <trkpt lat="44.82086" lon="0.79602">
        <ele>167.5</ele>
        <time>2024-04-07T08:01:21Z</time>
      </trkpt>
      <trkpt lat="44.82092" lon="0.79596">
        <ele>167.3</ele>
        <time>2024-04-07T08:01:23Z</time>
      </trkpt>
      <trkpt lat="44.82099" lon="0.79591">
        <ele>167</ele>
        <time>2024-04-07T08:01:25Z</time>
      </trkpt>
      <trkpt lat="44.82107" lon="0.79586">
        <ele>166.5</ele>
        <time>2024-04-07T08:01:27Z</time>
      </trkpt>
      <trkpt lat="44.82115" lon="0.79581">
        <ele>166</ele>
        <time>2024-04-07T08:01:29Z</time>
      </trkpt>
      <trkpt lat="44.82123" lon="0.79576">
        <ele>165.4</ele>
        <time>2024-04-07T08:01:31Z</time>
      </trkpt>
      <trkpt lat="44.82128" lon="0.79573">
        <ele>165.1</ele>
        <time>2024-04-07T08:01:32Z</time>
      </trkpt>
      <trkpt lat="44.82132" lon="0.79569">
        <ele>164.8</ele>
        <time>2024-04-07T08:01:33Z</time>
      </trkpt>
      <trkpt lat="44.82136" lon="0.79565">
        <ele>164.5</ele>
        <time>2024-04-07T08:01:34Z</time>
      </trkpt>
      <trkpt lat="44.82141" lon="0.79561">
        <ele>164.2</ele>
        <time>2024-04-07T08:01:35Z</time>
      </trkpt>
      <trkpt lat="44.82145" lon="0.79557">
        <ele>163.9</ele>
        <time>2024-04-07T08:01:36Z</time>
      </trkpt>
      <trkpt lat="44.82149" lon="0.79554">
        <ele>163.6</ele>
        <time>2024-04-07T08:01:37Z</time>
      </trkpt>
      <trkpt lat="44.82158" lon="0.79544">
        <ele>163</ele>
        <time>2024-04-07T08:01:39Z</time>
      </trkpt>
      <trkpt lat="44.82163" lon="0.7954">
        <ele>162.7</ele>
        <time>2024-04-07T08:01:40Z</time>
      </trkpt>
      <trkpt lat="44.82168" lon="0.79535">
        <ele>162.3</ele>
        <time>2024-04-07T08:01:41Z</time>
      </trkpt>
      <trkpt lat="44.82176" lon="0.79526">
        <ele>161.6</ele>
        <time>2024-04-07T08:01:43Z</time>
      </trkpt>
      <trkpt lat="44.82179" lon="0.79522">
        <ele>161.3</ele>
        <time>2024-04-07T08:01:44Z</time>
      </trkpt>
      <trkpt lat="44.82183" lon="0.79517">
        <ele>160.9</ele>
        <time>2024-04-07T08:01:45Z</time>
      </trkpt>
      <trkpt lat="44.8219" lon="0.79506">
        <ele>160.1</ele>
        <time>2024-04-07T08:01:47Z</time>
      </trkpt>
      <trkpt lat="44.82199" lon="0.79494">
        <ele>159.2</ele>
        <time>2024-04-07T08:01:49Z</time>
      </trkpt>
      <trkpt lat="44.82203" lon="0.79486">
        <ele>158.7</ele>
        <time>2024-04-07T08:01:50Z</time>
      </trkpt>
      <trkpt lat="44.82209" lon="0.79479">
        <ele>158.3</ele>
        <time>2024-04-07T08:01:51Z</time>
      </trkpt>
      <trkpt lat="44.82214" lon="0.79473">
        <ele>158</ele>
        <time>2024-04-07T08:01:52Z</time>
      </trkpt>
      <trkpt lat="44.82218" lon="0.79469">
        <ele>157.8</ele>
        <time>2024-04-07T08:01:53Z</time>
      </trkpt>
      <trkpt lat="44.82222" lon="0.79465">
        <ele>157.6</ele>
        <time>2024-04-07T08:01:54Z</time>
      </trkpt>
      <trkpt lat="44.82225" lon="0.79461">
        <ele>157.4</ele>
        <time>2024-04-07T08:01:55Z</time>
      </trkpt>
      <trkpt lat="44.82231" lon="0.79453">
        <ele>157</ele>
        <time>2024-04-07T08:01:57Z</time>
      </trkpt>
      <trkpt lat="44.82234" lon="0.79449">
        <ele>156.9</ele>
        <time>2024-04-07T08:01:58Z</time>
      </trkpt>
      <trkpt lat="44.82238" lon="0.79443">
        <ele>156.7</ele>
        <time>2024-04-07T08:01:59Z</time>
      </trkpt>
      <trkpt lat="44.82241" lon="0.79438">
        <ele>156.6</ele>
        <time>2024-04-07T08:02:00Z</time>
      </trkpt>
      <trkpt lat="44.82246" lon="0.79432">
        <ele>156.4</ele>
        <time>2024-04-07T08:02:01Z</time>
      </trkpt>
      <trkpt lat="44.82256" lon="0.79421">
        <ele>156.3</ele>
        <time>2024-04-07T08:02:03Z</time>
      </trkpt>
      <trkpt lat="44.82267" lon="0.79413">
        <ele>156.1</ele>
        <time>2024-04-07T08:02:05Z</time>
      </trkpt>
      <trkpt lat="44.82277" lon="0.79404">
        <ele>155.9</ele>
        <time>2024-04-07T08:02:07Z</time>
      </trkpt>
      <trkpt lat="44.82282" lon="0.79398">
        <ele>155.8</ele>
        <time>2024-04-07T08:02:08Z</time>
      </trkpt>
      <trkpt lat="44.82286" lon="0.79392">
        <ele>155.7</ele>
        <time>2024-04-07T08:02:09Z</time>
      </trkpt>
      <trkpt lat="44.82289" lon="0.79386">
        <ele>155.6</ele>
        <time>2024-04-07T08:02:10Z</time>
      </trkpt>
      <trkpt lat="44.82292" lon="0.79379">
        <ele>155.5</ele>
        <time>2024-04-07T08:02:11Z</time>
      </trkpt>
      <trkpt lat="44.82297" lon="0.79365">
        <ele>155.2</ele>
        <time>2024-04-07T08:02:13Z</time>
      </trkpt>
      <trkpt lat="44.82303" lon="0.7935">
        <ele>155</ele>
        <time>2024-04-07T08:02:15Z</time>
      </trkpt>
      <trkpt lat="44.82308" lon="0.79334">
        <ele>154.9</ele>
        <time>2024-04-07T08:02:17Z</time>
      </trkpt>
      <trkpt lat="44.82313" lon="0.79319">
        <ele>154.8</ele>
        <time>2024-04-07T08:02:19Z</time>
      </trkpt>
      <trkpt lat="44.82315" lon="0.79311">
        <ele>154.8</ele>
        <time>2024-04-07T08:02:20Z</time>
      </trkpt>
      <trkpt lat="44.82318" lon="0.79304">
        <ele>154.7</ele>
        <time>2024-04-07T08:02:21Z</time>
      </trkpt>
      <trkpt lat="44.82323" lon="0.79289">
        <ele>154.7</ele>
        <time>2024-04-07T08:02:23Z</time>
      </trkpt>
      <trkpt lat="44.82326" lon="0.79282">
        <ele>154.7</ele>
        <time>2024-04-07T08:02:24Z</time>
      </trkpt>
      <trkpt lat="44.82329" lon="0.79275">
        <ele>154.7</ele>
        <time>2024-04-07T08:02:25Z</time>
      </trkpt>
      <trkpt lat="44.82331" lon="0.79268">
        <ele>154.7</ele>
        <time>2024-04-07T08:02:26Z</time>
      </trkpt>
      <trkpt lat="44.82334" lon="0.7926">
        <ele>154.6</ele>
        <time>2024-04-07T08:02:27Z</time>
      </trkpt>
      <trkpt lat="44.82339" lon="0.79245">
        <ele>154.5</ele>
        <time>2024-04-07T08:02:29Z</time>
      </trkpt>
      <trkpt lat="44.82344" lon="0.7923">
        <ele>154.1</ele>
        <time>2024-04-07T08:02:31Z</time>
      </trkpt>
      <trkpt lat="44.82346" lon="0.79222">
        <ele>153.8</ele>
        <time>2024-04-07T08:02:32Z</time>
      </trkpt>
      <trkpt lat="44.82348" lon="0.79214">
        <ele>153.4</ele>
        <time>2024-04-07T08:02:33Z</time>
      </trkpt>
      <trkpt lat="44.82352" lon="0.79198">
        <ele>152.7</ele>
        <time>2024-04-07T08:02:35Z</time>
      </trkpt>
      <trkpt lat="44.82352" lon="0.79187">
        <ele>152.2</ele>
        <time>2024-04-07T08:02:36Z</time>
      </trkpt>
      <trkpt lat="44.82351" lon="0.79176">
        <ele>151.8</ele>
        <time>2024-04-07T08:02:37Z</time>
      </trkpt>
      <trkpt lat="44.8235" lon="0.79156">
        <ele>151.1</ele>
        <time>2024-04-07T08:02:39Z</time>
      </trkpt>
      <trkpt lat="44.82349" lon="0.79145">
        <ele>150.7</ele>
        <time>2024-04-07T08:02:40Z</time>
      </trkpt>
      <trkpt lat="44.8235" lon="0.79134">
        <ele>150.3</ele>
        <time>2024-04-07T08:02:41Z</time>
      </trkpt>
      <trkpt lat="44.8235" lon="0.79113">
        <ele>149.7</ele>
        <time>2024-04-07T08:02:43Z</time>
      </trkpt>
      <trkpt lat="44.82351" lon="0.79102">
        <ele>149.4</ele>
        <time>2024-04-07T08:02:44Z</time>
      </trkpt>
      <trkpt lat="44.82352" lon="0.79093">
        <ele>149.2</ele>
        <time>2024-04-07T08:02:45Z</time>
      </trkpt>
      <trkpt lat="44.82355" lon="0.79084">
        <ele>149.1</ele>
        <time>2024-04-07T08:02:46Z</time>
      </trkpt>
      <trkpt lat="44.82358" lon="0.79074">
        <ele>149</ele>
        <time>2024-04-07T08:02:47Z</time>
      </trkpt>
      <trkpt lat="44.82362" lon="0.79066">
        <ele>149</ele>
        <time>2024-04-07T08:02:48Z</time>
      </trkpt>
      <trkpt lat="44.82365" lon="0.79058">
        <ele>149.1</ele>
        <time>2024-04-07T08:02:49Z</time>
      </trkpt>
      <trkpt lat="44.82369" lon="0.79041">
        <ele>149.5</ele>
        <time>2024-04-07T08:02:51Z</time>
      </trkpt>
      <trkpt lat="44.8237" lon="0.79035">
        <ele>149.7</ele>
        <time>2024-04-07T08:02:52Z</time>
      </trkpt>
      <trkpt lat="44.82371" lon="0.79029">
        <ele>149.9</ele>
        <time>2024-04-07T08:02:53Z</time>
      </trkpt>
      <trkpt lat="44.82372" lon="0.79015">
        <ele>150.6</ele>
        <time>2024-04-07T08:02:55Z</time>
      </trkpt>
      <trkpt lat="44.82373" lon="0.79007">
        <ele>150.9</ele>
        <time>2024-04-07T08:02:56Z</time>
      </trkpt>
      <trkpt lat="44.82373" lon="0.79">
        <ele>151.2</ele>
        <time>2024-04-07T08:02:57Z</time>
      </trkpt>
      <trkpt lat="44.82374" lon="0.78993">
        <ele>151.5</ele>
        <time>2024-04-07T08:02:58Z</time>
      </trkpt>
      <trkpt lat="44.82374" lon="0.78986">
        <ele>151.8</ele>
        <time>2024-04-07T08:02:59Z</time>
      </trkpt>
      <trkpt lat="44.82376" lon="0.78973">
        <ele>152.3</ele>
        <time>2024-04-07T08:03:01Z</time>
      </trkpt>
      <trkpt lat="44.82377" lon="0.78967">
        <ele>152.5</ele>
        <time>2024-04-07T08:03:02Z</time>
      </trkpt>
      <trkpt lat="44.82378" lon="0.78961">
        <ele>152.7</ele>
        <time>2024-04-07T08:03:03Z</time>
      </trkpt>
      <trkpt lat="44.8238" lon="0.78948">
        <ele>153.1</ele>
        <time>2024-04-07T08:03:05Z</time>
      </trkpt>
      <trkpt lat="44.82382" lon="0.78941">
        <ele>153.3</ele>
        <time>2024-04-07T08:03:06Z</time>
      </trkpt>
      <trkpt lat="44.82383" lon="0.78935">
        <ele>153.4</ele>
        <time>2024-04-07T08:03:07Z</time>
      </trkpt>
      <trkpt lat="44.82387" lon="0.78924">
        <ele>153.7</ele>
        <time>2024-04-07T08:03:09Z</time>
      </trkpt>
      <trkpt lat="44.8239" lon="0.7891">
        <ele>153.9</ele>
        <time>2024-04-07T08:03:11Z</time>
      </trkpt>
      <trkpt lat="44.82393" lon="0.789">
        <ele>153.9</ele>
        <time>2024-04-07T08:03:13Z</time>
      </trkpt>
      <trkpt lat="44.82393" lon="0.78896">
        <ele>153.9</ele>
        <time>2024-04-07T08:03:14Z</time>
      </trkpt>
      <trkpt lat="44.82395" lon="0.78892">
        <ele>153.9</ele>
        <time>2024-04-07T08:03:15Z</time>
      </trkpt>
      <trkpt lat="44.82398" lon="0.78885">
        <ele>153.9</ele>
        <time>2024-04-07T08:03:17Z</time>
      </trkpt>
      <trkpt lat="44.82401" lon="0.78877">
        <ele>153.8</ele>
        <time>2024-04-07T08:03:19Z</time>
      </trkpt>
      <trkpt lat="44.82403" lon="0.78872">
        <ele>153.7</ele>
        <time>2024-04-07T08:03:20Z</time>
      </trkpt>
      <trkpt lat="44.82405" lon="0.78867">
        <ele>153.6</ele>
        <time>2024-04-07T08:03:21Z</time>
      </trkpt>
      <trkpt lat="44.82407" lon="0.78862">
        <ele>153.4</ele>
        <time>2024-04-07T08:03:22Z</time>
      </trkpt>
      <trkpt lat="44.8241" lon="0.78856">
        <ele>153.2</ele>
        <time>2024-04-07T08:03:23Z</time>
      </trkpt>
      <trkpt lat="44.82413" lon="0.78851">
        <ele>153.1</ele>
        <time>2024-04-07T08:03:24Z</time>
      </trkpt>
      <trkpt lat="44.82415" lon="0.78845">
        <ele>152.9</ele>
        <time>2024-04-07T08:03:25Z</time>
      </trkpt>
      <trkpt lat="44.82416" lon="0.78837">
        <ele>152.7</ele>
        <time>2024-04-07T08:03:26Z</time>
      </trkpt>
      <trkpt lat="44.82418" lon="0.7883">
        <ele>152.6</ele>
        <time>2024-04-07T08:03:27Z</time>
      </trkpt>
      <trkpt lat="44.82418" lon="0.78824">
        <ele>152.5</ele>
        <time>2024-04-07T08:03:28Z</time>
      </trkpt>
      <trkpt lat="44.82415" lon="0.78821">
        <ele>152.4</ele>
        <time>2024-04-07T08:03:29Z</time>
      </trkpt>
      <trkpt lat="44.82417" lon="0.78815">
        <ele>152.3</ele>
        <time>2024-04-07T08:03:30Z</time>
      </trkpt>
      <trkpt lat="44.82418" lon="0.7881">
        <ele>152.2</ele>
        <time>2024-04-07T08:03:31Z</time>
      </trkpt>
      <trkpt lat="44.82421" lon="0.78804">
        <ele>152.1</ele>
        <time>2024-04-07T08:03:32Z</time>
      </trkpt>
      <trkpt lat="44.82423" lon="0.78799">
        <ele>152</ele>
        <time>2024-04-07T08:03:33Z</time>
      </trkpt>
      <trkpt lat="44.8243" lon="0.78786">
        <ele>151.7</ele>
        <time>2024-04-07T08:03:35Z</time>
      </trkpt>
      <trkpt lat="44.82435" lon="0.7878">
        <ele>151.5</ele>
        <time>2024-04-07T08:03:36Z</time>
      </trkpt>
      <trkpt lat="44.82439" lon="0.78774">
        <ele>151.4</ele>
        <time>2024-04-07T08:03:37Z</time>
      </trkpt>
      <trkpt lat="44.82442" lon="0.78767">
        <ele>151.2</ele>
        <time>2024-04-07T08:03:38Z</time>
      </trkpt>
      <trkpt lat="44.82445" lon="0.78761">
        <ele>151.1</ele>
        <time>2024-04-07T08:03:39Z</time>
      </trkpt>
      <trkpt lat="44.82449" lon="0.78754">
        <ele>150.9</ele>
        <time>2024-04-07T08:03:40Z</time>
      </trkpt>
      <trkpt lat="44.82452" lon="0.78748">
        <ele>150.8</ele>
        <time>2024-04-07T08:03:41Z</time>
      </trkpt>
      <trkpt lat="44.82455" lon="0.78742">
        <ele>150.6</ele>
        <time>2024-04-07T08:03:42Z</time>
      </trkpt>
      <trkpt lat="44.82458" lon="0.78735">
        <ele>150.4</ele>
        <time>2024-04-07T08:03:43Z</time>
      </trkpt>
      <trkpt lat="44.82462" lon="0.78728">
        <ele>150.2</ele>
        <time>2024-04-07T08:03:44Z</time>
      </trkpt>
      <trkpt lat="44.82466" lon="0.78721">
        <ele>150</ele>
        <time>2024-04-07T08:03:45Z</time>
      </trkpt>
      <trkpt lat="44.82473" lon="0.78708">
        <ele>149.8</ele>
        <time>2024-04-07T08:03:47Z</time>
      </trkpt>
      <trkpt lat="44.8248" lon="0.78696">
        <ele>149.6</ele>
        <time>2024-04-07T08:03:49Z</time>
      </trkpt>
      <trkpt lat="44.82486" lon="0.78684">
        <ele>149.5</ele>
        <time>2024-04-07T08:03:51Z</time>
      </trkpt>
      <trkpt lat="44.82489" lon="0.78679">
        <ele>149.4</ele>
        <time>2024-04-07T08:03:52Z</time>
      </trkpt>
      <trkpt lat="44.8249" lon="0.78674">
        <ele>149.2</ele>
        <time>2024-04-07T08:03:53Z</time>
      </trkpt>
      <trkpt lat="44.82492" lon="0.7867">
        <ele>149.1</ele>
        <time>2024-04-07T08:03:54Z</time>
      </trkpt>
      <trkpt lat="44.82494" lon="0.78668">
        <ele>149</ele>
        <time>2024-04-07T08:03:55Z</time>
      </trkpt>
      <trkpt lat="44.82502" lon="0.78663">
        <ele>148.6</ele>
        <time>2024-04-07T08:03:57Z</time>
      </trkpt>
      <trkpt lat="44.82507" lon="0.7866">
        <ele>148.2</ele>
        <time>2024-04-07T08:03:58Z</time>
      </trkpt>
      <trkpt lat="44.82514" lon="0.78657">
        <ele>147.8</ele>
        <time>2024-04-07T08:03:59Z</time>
      </trkpt>
      <trkpt lat="44.82528" lon="0.78652">
        <ele>146.8</ele>
        <time>2024-04-07T08:04:01Z</time>
      </trkpt>
      <trkpt lat="44.82543" lon="0.7865">
        <ele>145.9</ele>
        <time>2024-04-07T08:04:03Z</time>
      </trkpt>
      <trkpt lat="44.82556" lon="0.78649">
        <ele>145.2</ele>
        <time>2024-04-07T08:04:05Z</time>
      </trkpt>
      <trkpt lat="44.8257" lon="0.78646">
        <ele>144.5</ele>
        <time>2024-04-07T08:04:07Z</time>
      </trkpt>
      <trkpt lat="44.82584" lon="0.78643">
        <ele>144.1</ele>
        <time>2024-04-07T08:04:09Z</time>
      </trkpt>
      <trkpt lat="44.82598" lon="0.7864">
        <ele>143.6</ele>
        <time>2024-04-07T08:04:11Z</time>
      </trkpt>
      <trkpt lat="44.82612" lon="0.78636">
        <ele>143.1</ele>
        <time>2024-04-07T08:04:13Z</time>
      </trkpt>
      <trkpt lat="44.82617" lon="0.78635">
        <ele>142.9</ele>
        <time>2024-04-07T08:04:14Z</time>
      </trkpt>
      <trkpt lat="44.82623" lon="0.78633">
        <ele>142.7</ele>
        <time>2024-04-07T08:04:15Z</time>
      </trkpt>
      <trkpt lat="44.82634" lon="0.78629">
        <ele>142.1</ele>
        <time>2024-04-07T08:04:17Z</time>
      </trkpt>
      <trkpt lat="44.8264" lon="0.78627">
        <ele>141.7</ele>
        <time>2024-04-07T08:04:18Z</time>
      </trkpt>
      <trkpt lat="44.82647" lon="0.78625">
        <ele>141.4</ele>
        <time>2024-04-07T08:04:19Z</time>
      </trkpt>
      <trkpt lat="44.82662" lon="0.78619">
        <ele>140.5</ele>
        <time>2024-04-07T08:04:21Z</time>
      </trkpt>
      <trkpt lat="44.82678" lon="0.78613">
        <ele>139.5</ele>
        <time>2024-04-07T08:04:23Z</time>
      </trkpt>
      <trkpt lat="44.82693" lon="0.78609">
        <ele>138.5</ele>
        <time>2024-04-07T08:04:25Z</time>
      </trkpt>
      <trkpt lat="44.82699" lon="0.7861">
        <ele>138</ele>
        <time>2024-04-07T08:04:26Z</time>
      </trkpt>
      <trkpt lat="44.82704" lon="0.78612">
        <ele>137.5</ele>
        <time>2024-04-07T08:04:27Z</time>
      </trkpt>
      <trkpt lat="44.82714" lon="0.78606">
        <ele>136.5</ele>
        <time>2024-04-07T08:04:29Z</time>
      </trkpt>
      <trkpt lat="44.82723" lon="0.78594">
        <ele>135.4</ele>
        <time>2024-04-07T08:04:31Z</time>
      </trkpt>
      <trkpt lat="44.82727" lon="0.78588">
        <ele>134.9</ele>
        <time>2024-04-07T08:04:32Z</time>
      </trkpt>
      <trkpt lat="44.82731" lon="0.78584">
        <ele>134.4</ele>
        <time>2024-04-07T08:04:33Z</time>
      </trkpt>
      <trkpt lat="44.82745" lon="0.78575">
        <ele>133.2</ele>
        <time>2024-04-07T08:04:35Z</time>
      </trkpt>
      <trkpt lat="44.82752" lon="0.7857">
        <ele>132.6</ele>
        <time>2024-04-07T08:04:36Z</time>
      </trkpt>
      <trkpt lat="44.8276" lon="0.78565">
        <ele>132.1</ele>
        <time>2024-04-07T08:04:37Z</time>
      </trkpt>
      <trkpt lat="44.82776" lon="0.78555">
        <ele>131.4</ele>
        <time>2024-04-07T08:04:39Z</time>
      </trkpt>
      <trkpt lat="44.8279" lon="0.78543">
        <ele>131.1</ele>
        <time>2024-04-07T08:04:41Z</time>
      </trkpt>
      <trkpt lat="44.82802" lon="0.7853">
        <ele>130.9</ele>
        <time>2024-04-07T08:04:43Z</time>
      </trkpt>
      <trkpt lat="44.82812" lon="0.78518">
        <ele>130.8</ele>
        <time>2024-04-07T08:04:45Z</time>
      </trkpt>
      <trkpt lat="44.8282" lon="0.78506">
        <ele>130.9</ele>
        <time>2024-04-07T08:04:47Z</time>
      </trkpt>
      <trkpt lat="44.82824" lon="0.78499">
        <ele>130.9</ele>
        <time>2024-04-07T08:04:48Z</time>
      </trkpt>
      <trkpt lat="44.82828" lon="0.78493">
        <ele>131</ele>
        <time>2024-04-07T08:04:49Z</time>
      </trkpt>
      <trkpt lat="44.82831" lon="0.78486">
        <ele>131.1</ele>
        <time>2024-04-07T08:04:50Z</time>
      </trkpt>
      <trkpt lat="44.82834" lon="0.7848">
        <ele>131.2</ele>
        <time>2024-04-07T08:04:51Z</time>
      </trkpt>
      <trkpt lat="44.8284" lon="0.7847">
        <ele>131.4</ele>
        <time>2024-04-07T08:04:53Z</time>
      </trkpt>
      <trkpt lat="44.82846" lon="0.78458">
        <ele>131.6</ele>
        <time>2024-04-07T08:04:55Z</time>
      </trkpt>
      <trkpt lat="44.82849" lon="0.78451">
        <ele>131.8</ele>
        <time>2024-04-07T08:04:56Z</time>
      </trkpt>
      <trkpt lat="44.82852" lon="0.78445">
        <ele>131.9</ele>
        <time>2024-04-07T08:04:57Z</time>
      </trkpt>
      <trkpt lat="44.82854" lon="0.78439">
        <ele>132</ele>
        <time>2024-04-07T08:04:58Z</time>
      </trkpt>
      <trkpt lat="44.82856" lon="0.78433">
        <ele>132.2</ele>
        <time>2024-04-07T08:04:59Z</time>
      </trkpt>
      <trkpt lat="44.82861" lon="0.78422">
        <ele>132.5</ele>
        <time>2024-04-07T08:05:01Z</time>
      </trkpt>
      <trkpt lat="44.82864" lon="0.78417">
        <ele>132.7</ele>
        <time>2024-04-07T08:05:02Z</time>
      </trkpt>
      <trkpt lat="44.82867" lon="0.78412">
        <ele>132.9</ele>
        <time>2024-04-07T08:05:03Z</time>
      </trkpt>
      <trkpt lat="44.8287" lon="0.78403">
        <ele>133.1</ele>
        <time>2024-04-07T08:05:05Z</time>
      </trkpt>
      <trkpt lat="44.82874" lon="0.78393">
        <ele>133.4</ele>
        <time>2024-04-07T08:05:07Z</time>
      </trkpt>
      <trkpt lat="44.82881" lon="0.78382">
        <ele>133.7</ele>
        <time>2024-04-07T08:05:09Z</time>
      </trkpt>
      <trkpt lat="44.8289" lon="0.78373">
        <ele>134.1</ele>
        <time>2024-04-07T08:05:11Z</time>
      </trkpt>
      <trkpt lat="44.82898" lon="0.78365">
        <ele>134.3</ele>
        <time>2024-04-07T08:05:13Z</time>
      </trkpt>
      <trkpt lat="44.82906" lon="0.78359">
        <ele>134.4</ele>
        <time>2024-04-07T08:05:15Z</time>
      </trkpt>
      <trkpt lat="44.82911" lon="0.78354">
        <ele>134.5</ele>
        <time>2024-04-07T08:05:17Z</time>
      </trkpt>
      <trkpt lat="44.82919" lon="0.78347">
        <ele>134.4</ele>
        <time>2024-04-07T08:05:19Z</time>
      </trkpt>
      <trkpt lat="44.82927" lon="0.7834">
        <ele>134.4</ele>
        <time>2024-04-07T08:05:21Z</time>
      </trkpt>
      <trkpt lat="44.82932" lon="0.78337">
        <ele>134.4</ele>
        <time>2024-04-07T08:05:22Z</time>
      </trkpt>
      <trkpt lat="44.82935" lon="0.78333">
        <ele>134.5</ele>
        <time>2024-04-07T08:05:23Z</time>
      </trkpt>
      <trkpt lat="44.82938" lon="0.7833">
        <ele>134.5</ele>
        <time>2024-04-07T08:05:24Z</time>
      </trkpt>
      <trkpt lat="44.82939" lon="0.78327">
        <ele>134.5</ele>
        <time>2024-04-07T08:05:25Z</time>
      </trkpt>
      <trkpt lat="44.82941" lon="0.78323">
        <ele>134.6</ele>
        <time>2024-04-07T08:05:26Z</time>
      </trkpt>
      <trkpt lat="44.82946" lon="0.78319">
        <ele>134.6</ele>
        <time>2024-04-07T08:05:27Z</time>
      </trkpt>
      <trkpt lat="44.82955" lon="0.78313">
        <ele>134.6</ele>
        <time>2024-04-07T08:05:29Z</time>
      </trkpt>
      <trkpt lat="44.82956" lon="0.78314">
        <ele>134.5</ele>
        <time>2024-04-07T08:05:30Z</time>
      </trkpt>
      <trkpt lat="44.82957" lon="0.78316">
        <ele>134.5</ele>
        <time>2024-04-07T08:05:31Z</time>
      </trkpt>
      <trkpt lat="44.82961" lon="0.78316">
        <ele>134.3</ele>
        <time>2024-04-07T08:05:32Z</time>
      </trkpt>
      <trkpt lat="44.82963" lon="0.78317">
        <ele>134.2</ele>
        <time>2024-04-07T08:05:33Z</time>
      </trkpt>
      <trkpt lat="44.82968" lon="0.78318">
        <ele>134</ele>
        <time>2024-04-07T08:05:35Z</time>
      </trkpt>
      <trkpt lat="44.82971" lon="0.78318">
        <ele>133.9</ele>
        <time>2024-04-07T08:05:36Z</time>
      </trkpt>
      <trkpt lat="44.82979" lon="0.78316">
        <ele>133.4</ele>
        <time>2024-04-07T08:05:37Z</time>
      </trkpt>
      <trkpt lat="44.82988" lon="0.78313">
        <ele>133</ele>
        <time>2024-04-07T08:05:38Z</time>
      </trkpt>
      <trkpt lat="44.82998" lon="0.7831">
        <ele>132.6</ele>
        <time>2024-04-07T08:05:39Z</time>
      </trkpt>
      <trkpt lat="44.83006" lon="0.78308">
        <ele>132.2</ele>
        <time>2024-04-07T08:05:40Z</time>
      </trkpt>
      <trkpt lat="44.83015" lon="0.78304">
        <ele>131.7</ele>
        <time>2024-04-07T08:05:41Z</time>
      </trkpt>
      <trkpt lat="44.83023" lon="0.78301">
        <ele>131.3</ele>
        <time>2024-04-07T08:05:42Z</time>
      </trkpt>
      <trkpt lat="44.83033" lon="0.78296">
        <ele>130.8</ele>
        <time>2024-04-07T08:05:43Z</time>
      </trkpt>
      <trkpt lat="44.83048" lon="0.78288">
        <ele>130.1</ele>
        <time>2024-04-07T08:05:45Z</time>
      </trkpt>
      <trkpt lat="44.83052" lon="0.78285">
        <ele>129.9</ele>
        <time>2024-04-07T08:05:46Z</time>
      </trkpt>
      <trkpt lat="44.83059" lon="0.78281">
        <ele>129.6</ele>
        <time>2024-04-07T08:05:47Z</time>
      </trkpt>
      <trkpt lat="44.83065" lon="0.78276">
        <ele>129.3</ele>
        <time>2024-04-07T08:05:48Z</time>
      </trkpt>
      <trkpt lat="44.83066" lon="0.78275">
        <ele>129.2</ele>
        <time>2024-04-07T08:05:49Z</time>
      </trkpt>
      <trkpt lat="44.83068" lon="0.78274">
        <ele>129.2</ele>
        <time>2024-04-07T08:05:50Z</time>
      </trkpt>
      <trkpt lat="44.83069" lon="0.78272">
        <ele>129.1</ele>
        <time>2024-04-07T08:05:51Z</time>
      </trkpt>
      <trkpt lat="44.83071" lon="0.78271">
        <ele>129</ele>
        <time>2024-04-07T08:05:53Z</time>
      </trkpt>
      <trkpt lat="44.83072" lon="0.7827">
        <ele>129</ele>
        <time>2024-04-07T08:05:54Z</time>
      </trkpt>
      <trkpt lat="44.83074" lon="0.78269">
        <ele>129</ele>
        <time>2024-04-07T08:05:55Z</time>
      </trkpt>
      <trkpt lat="44.83076" lon="0.78265">
        <ele>128.9</ele>
        <time>2024-04-07T08:05:56Z</time>
      </trkpt>
      <trkpt lat="44.83078" lon="0.78262">
        <ele>128.8</ele>
        <time>2024-04-07T08:05:57Z</time>
      </trkpt>
      <trkpt lat="44.83081" lon="0.78257">
        <ele>128.5</ele>
        <time>2024-04-07T08:05:58Z</time>
      </trkpt>
      <trkpt lat="44.83084" lon="0.7825">
        <ele>128.2</ele>
        <time>2024-04-07T08:05:59Z</time>
      </trkpt>
      <trkpt lat="44.83087" lon="0.78244">
        <ele>127.9</ele>
        <time>2024-04-07T08:06:00Z</time>
      </trkpt>
      <trkpt lat="44.83088" lon="0.78238">
        <ele>127.6</ele>
        <time>2024-04-07T08:06:01Z</time>
      </trkpt>
      <trkpt lat="44.8309" lon="0.78231">
        <ele>127.3</ele>
        <time>2024-04-07T08:06:02Z</time>
      </trkpt>
      <trkpt lat="44.83093" lon="0.78224">
        <ele>126.9</ele>
        <time>2024-04-07T08:06:03Z</time>
      </trkpt>
      <trkpt lat="44.83095" lon="0.78217">
        <ele>126.5</ele>
        <time>2024-04-07T08:06:04Z</time>
      </trkpt>
      <trkpt lat="44.83098" lon="0.7821">
        <ele>126.1</ele>
        <time>2024-04-07T08:06:05Z</time>
      </trkpt>
      <trkpt lat="44.83106" lon="0.78195">
        <ele>125.2</ele>
        <time>2024-04-07T08:06:07Z</time>
      </trkpt>
      <trkpt lat="44.8311" lon="0.78186">
        <ele>124.9</ele>
        <time>2024-04-07T08:06:08Z</time>
      </trkpt>
      <trkpt lat="44.83113" lon="0.78177">
        <ele>124.5</ele>
        <time>2024-04-07T08:06:09Z</time>
      </trkpt>
      <trkpt lat="44.8312" lon="0.7816">
        <ele>123.9</ele>
        <time>2024-04-07T08:06:11Z</time>
      </trkpt>
      <trkpt lat="44.83124" lon="0.78152">
        <ele>123.6</ele>
        <time>2024-04-07T08:06:12Z</time>
      </trkpt>
      <trkpt lat="44.83127" lon="0.78145">
        <ele>123.4</ele>
        <time>2024-04-07T08:06:13Z</time>
      </trkpt>
      <trkpt lat="44.83132" lon="0.78132">
        <ele>123.2</ele>
        <time>2024-04-07T08:06:15Z</time>
      </trkpt>
      <trkpt lat="44.83134" lon="0.78126">
        <ele>123.2</ele>
        <time>2024-04-07T08:06:16Z</time>
      </trkpt>
      <trkpt lat="44.83136" lon="0.78121">
        <ele>123.1</ele>
        <time>2024-04-07T08:06:17Z</time>
      </trkpt>
      <trkpt lat="44.83141" lon="0.78109">
        <ele>123.1</ele>
        <time>2024-04-07T08:06:19Z</time>
      </trkpt>
      <trkpt lat="44.83144" lon="0.78103">
        <ele>123.1</ele>
        <time>2024-04-07T08:06:20Z</time>
      </trkpt>
      <trkpt lat="44.83147" lon="0.78097">
        <ele>123.1</ele>
        <time>2024-04-07T08:06:21Z</time>
      </trkpt>
      <trkpt lat="44.83153" lon="0.78085">
        <ele>123.2</ele>
        <time>2024-04-07T08:06:23Z</time>
      </trkpt>
      <trkpt lat="44.8316" lon="0.78072">
        <ele>123.5</ele>
        <time>2024-04-07T08:06:25Z</time>
      </trkpt>
      <trkpt lat="44.83162" lon="0.78066">
        <ele>123.6</ele>
        <time>2024-04-07T08:06:26Z</time>
      </trkpt>
      <trkpt lat="44.83165" lon="0.7806">
        <ele>123.6</ele>
        <time>2024-04-07T08:06:27Z</time>
      </trkpt>
      <trkpt lat="44.83169" lon="0.7805">
        <ele>123.6</ele>
        <time>2024-04-07T08:06:29Z</time>
      </trkpt>
      <trkpt lat="44.83172" lon="0.78045">
        <ele>123.6</ele>
        <time>2024-04-07T08:06:30Z</time>
      </trkpt>
      <trkpt lat="44.83174" lon="0.78039">
        <ele>123.6</ele>
        <time>2024-04-07T08:06:31Z</time>
      </trkpt>
      <trkpt lat="44.83177" lon="0.78033">
        <ele>123.6</ele>
        <time>2024-04-07T08:06:32Z</time>
      </trkpt>
      <trkpt lat="44.8318" lon="0.78027">
        <ele>123.6</ele>
        <time>2024-04-07T08:06:33Z</time>
      </trkpt>
      <trkpt lat="44.83183" lon="0.78022">
        <ele>123.6</ele>
        <time>2024-04-07T08:06:34Z</time>
      </trkpt>
      <trkpt lat="44.83186" lon="0.78016">
        <ele>123.6</ele>
        <time>2024-04-07T08:06:35Z</time>
      </trkpt>
      <trkpt lat="44.83189" lon="0.78009">
        <ele>123.6</ele>
        <time>2024-04-07T08:06:36Z</time>
      </trkpt>
      <trkpt lat="44.83192" lon="0.78003">
        <ele>123.7</ele>
        <time>2024-04-07T08:06:37Z</time>
      </trkpt>
      <trkpt lat="44.83194" lon="0.77997">
        <ele>123.9</ele>
        <time>2024-04-07T08:06:38Z</time>
      </trkpt>
      <trkpt lat="44.83198" lon="0.77991">
        <ele>124.1</ele>
        <time>2024-04-07T08:06:39Z</time>
      </trkpt>
      <trkpt lat="44.83202" lon="0.77981">
        <ele>124.5</ele>
        <time>2024-04-07T08:06:41Z</time>
      </trkpt>
      <trkpt lat="44.83203" lon="0.77978">
        <ele>124.8</ele>
        <time>2024-04-07T08:06:42Z</time>
      </trkpt>
      <trkpt lat="44.83205" lon="0.77975">
        <ele>125</ele>
        <time>2024-04-07T08:06:43Z</time>
      </trkpt>
      <trkpt lat="44.83207" lon="0.7797">
        <ele>125.4</ele>
        <time>2024-04-07T08:06:45Z</time>
      </trkpt>
      <trkpt lat="44.83208" lon="0.77967">
        <ele>125.6</ele>
        <time>2024-04-07T08:06:46Z</time>
      </trkpt>
      <trkpt lat="44.83209" lon="0.77964">
        <ele>125.9</ele>
        <time>2024-04-07T08:06:47Z</time>
      </trkpt>
      <trkpt lat="44.83212" lon="0.77957">
        <ele>126.5</ele>
        <time>2024-04-07T08:06:49Z</time>
      </trkpt>
      <trkpt lat="44.83213" lon="0.77954">
        <ele>126.8</ele>
        <time>2024-04-07T08:06:50Z</time>
      </trkpt>
      <trkpt lat="44.83214" lon="0.7795">
        <ele>127.2</ele>
        <time>2024-04-07T08:06:51Z</time>
      </trkpt>
      <trkpt lat="44.83216" lon="0.77945">
        <ele>127.7</ele>
        <time>2024-04-07T08:06:53Z</time>
      </trkpt>
      <trkpt lat="44.83217" lon="0.77941">
        <ele>128.1</ele>
        <time>2024-04-07T08:06:54Z</time>
      </trkpt>
      <trkpt lat="44.83218" lon="0.77938">
        <ele>128.4</ele>
        <time>2024-04-07T08:06:55Z</time>
      </trkpt>
      <trkpt lat="44.8322" lon="0.77931">
        <ele>129.1</ele>
        <time>2024-04-07T08:06:57Z</time>
      </trkpt>
      <trkpt lat="44.83221" lon="0.77929">
        <ele>129.4</ele>
        <time>2024-04-07T08:06:58Z</time>
      </trkpt>
      <trkpt lat="44.83222" lon="0.77926">
        <ele>129.7</ele>
        <time>2024-04-07T08:06:59Z</time>
      </trkpt>
      <trkpt lat="44.83225" lon="0.77921">
        <ele>130.3</ele>
        <time>2024-04-07T08:07:01Z</time>
      </trkpt>
      <trkpt lat="44.83225" lon="0.77919">
        <ele>130.5</ele>
        <time>2024-04-07T08:07:02Z</time>
      </trkpt>
      <trkpt lat="44.83227" lon="0.77916">
        <ele>130.9</ele>
        <time>2024-04-07T08:07:03Z</time>
      </trkpt>
      <trkpt lat="44.83231" lon="0.7791">
        <ele>131.5</ele>
        <time>2024-04-07T08:07:05Z</time>
      </trkpt>
      <trkpt lat="44.83234" lon="0.77904">
        <ele>132</ele>
        <time>2024-04-07T08:07:07Z</time>
      </trkpt>
      <trkpt lat="44.83235" lon="0.77898">
        <ele>132.4</ele>
        <time>2024-04-07T08:07:09Z</time>
      </trkpt>
      <trkpt lat="44.83238" lon="0.77894">
        <ele>132.7</ele>
        <time>2024-04-07T08:07:10Z</time>
      </trkpt>
      <trkpt lat="44.8324" lon="0.77891">
        <ele>133</ele>
        <time>2024-04-07T08:07:11Z</time>
      </trkpt>
      <trkpt lat="44.83241" lon="0.77888">
        <ele>133.1</ele>
        <time>2024-04-07T08:07:12Z</time>
      </trkpt>
      <trkpt lat="44.83241" lon="0.77886">
        <ele>133.3</ele>
        <time>2024-04-07T08:07:13Z</time>
      </trkpt>
      <trkpt lat="44.83241" lon="0.77883">
        <ele>133.4</ele>
        <time>2024-04-07T08:07:14Z</time>
      </trkpt>
      <trkpt lat="44.83243" lon="0.7788">
        <ele>133.6</ele>
        <time>2024-04-07T08:07:15Z</time>
      </trkpt>
      <trkpt lat="44.83245" lon="0.77874">
        <ele>134</ele>
        <time>2024-04-07T08:07:17Z</time>
      </trkpt>
      <trkpt lat="44.83247" lon="0.77871">
        <ele>134.2</ele>
        <time>2024-04-07T08:07:18Z</time>
      </trkpt>
      <trkpt lat="44.83247" lon="0.77868">
        <ele>134.4</ele>
        <time>2024-04-07T08:07:19Z</time>
      </trkpt>
      <trkpt lat="44.83249" lon="0.77861">
        <ele>134.7</ele>
        <time>2024-04-07T08:07:21Z</time>
      </trkpt>
      <trkpt lat="44.8325" lon="0.77855">
        <ele>134.9</ele>
        <time>2024-04-07T08:07:23Z</time>
      </trkpt>
      <trkpt lat="44.8325" lon="0.77853">
        <ele>135</ele>
        <time>2024-04-07T08:07:24Z</time>
      </trkpt>
      <trkpt lat="44.8325" lon="0.77851">
        <ele>135</ele>
        <time>2024-04-07T08:07:25Z</time>
      </trkpt>
      <trkpt lat="44.83251" lon="0.77844">
        <ele>135.2</ele>
        <time>2024-04-07T08:07:27Z</time>
      </trkpt>
      <trkpt lat="44.83254" lon="0.7784">
        <ele>135.3</ele>
        <time>2024-04-07T08:07:28Z</time>
      </trkpt>
      <trkpt lat="44.83256" lon="0.77836">
        <ele>135.4</ele>
        <time>2024-04-07T08:07:29Z</time>
      </trkpt>
      <trkpt lat="44.83259" lon="0.77828">
        <ele>135.5</ele>
        <time>2024-04-07T08:07:31Z</time>
      </trkpt>
      <trkpt lat="44.83261" lon="0.77821">
        <ele>135.5</ele>
        <time>2024-04-07T08:07:33Z</time>
      </trkpt>
      <trkpt lat="44.83264" lon="0.77812">
        <ele>135.5</ele>
        <time>2024-04-07T08:07:35Z</time>
      </trkpt>
      <trkpt lat="44.83265" lon="0.77808">
        <ele>135.4</ele>
        <time>2024-04-07T08:07:36Z</time>
      </trkpt>
      <trkpt lat="44.83266" lon="0.77803">
        <ele>135.4</ele>
        <time>2024-04-07T08:07:37Z</time>
      </trkpt>
      <trkpt lat="44.8327" lon="0.77794">
        <ele>135.2</ele>
        <time>2024-04-07T08:07:39Z</time>
      </trkpt>
      <trkpt lat="44.83272" lon="0.77785">
        <ele>135</ele>
        <time>2024-04-07T08:07:41Z</time>
      </trkpt>
      <trkpt lat="44.83273" lon="0.77773">
        <ele>134.5</ele>
        <time>2024-04-07T08:07:43Z</time>
      </trkpt>
      <trkpt lat="44.83274" lon="0.77763">
        <ele>134.1</ele>
        <time>2024-04-07T08:07:45Z</time>
      </trkpt>
      <trkpt lat="44.83274" lon="0.7776">
        <ele>133.9</ele>
        <time>2024-04-07T08:07:46Z</time>
      </trkpt>
      <trkpt lat="44.83275" lon="0.77757">
        <ele>133.7</ele>
        <time>2024-04-07T08:07:47Z</time>
      </trkpt>
      <trkpt lat="44.83275" lon="0.77747">
        <ele>133.3</ele>
        <time>2024-04-07T08:07:49Z</time>
      </trkpt>
      <trkpt lat="44.83275" lon="0.77741">
        <ele>132.9</ele>
        <time>2024-04-07T08:07:50Z</time>
      </trkpt>
      <trkpt lat="44.83275" lon="0.77733">
        <ele>132.4</ele>
        <time>2024-04-07T08:07:51Z</time>
      </trkpt>
      <trkpt lat="44.83275" lon="0.77725">
        <ele>131.8</ele>
        <time>2024-04-07T08:07:52Z</time>
      </trkpt>
      <trkpt lat="44.83276" lon="0.77716">
        <ele>131.1</ele>
        <time>2024-04-07T08:07:53Z</time>
      </trkpt>
      <trkpt lat="44.83276" lon="0.77707">
        <ele>130.3</ele>
        <time>2024-04-07T08:07:54Z</time>
      </trkpt>
      <trkpt lat="44.83276" lon="0.77696">
        <ele>129.4</ele>
        <time>2024-04-07T08:07:55Z</time>
      </trkpt>
      <trkpt lat="44.83277" lon="0.77671">
        <ele>127.3</ele>
        <time>2024-04-07T08:07:57Z</time>
      </trkpt>
      <trkpt lat="44.83277" lon="0.7766">
        <ele>126.1</ele>
        <time>2024-04-07T08:07:58Z</time>
      </trkpt>
      <trkpt lat="44.83277" lon="0.77648">
        <ele>124.9</ele>
        <time>2024-04-07T08:07:59Z</time>
      </trkpt>
      <trkpt lat="44.83278" lon="0.77626">
        <ele>122.7</ele>
        <time>2024-04-07T08:08:01Z</time>
      </trkpt>
      <trkpt lat="44.83279" lon="0.77616">
        <ele>121.7</ele>
        <time>2024-04-07T08:08:02Z</time>
      </trkpt>
      <trkpt lat="44.83279" lon="0.77605">
        <ele>120.6</ele>
        <time>2024-04-07T08:08:03Z</time>
      </trkpt>
      <trkpt lat="44.8328" lon="0.77588">
        <ele>118.7</ele>
        <time>2024-04-07T08:08:05Z</time>
      </trkpt>
      <trkpt lat="44.8328" lon="0.77574">
        <ele>117.1</ele>
        <time>2024-04-07T08:08:07Z</time>
      </trkpt>
      <trkpt lat="44.8328" lon="0.7756">
        <ele>115.5</ele>
        <time>2024-04-07T08:08:09Z</time>
      </trkpt>
      <trkpt lat="44.83281" lon="0.77554">
        <ele>114.7</ele>
        <time>2024-04-07T08:08:10Z</time>
      </trkpt>
      <trkpt lat="44.83282" lon="0.77547">
        <ele>113.8</ele>
        <time>2024-04-07T08:08:11Z</time>
      </trkpt>
      <trkpt lat="44.83285" lon="0.77538">
        <ele>112.5</ele>
        <time>2024-04-07T08:08:12Z</time>
      </trkpt>
      <trkpt lat="44.8329" lon="0.77528">
        <ele>110.9</ele>
        <time>2024-04-07T08:08:13Z</time>
      </trkpt>
      <trkpt lat="44.83294" lon="0.77518">
        <ele>109.5</ele>
        <time>2024-04-07T08:08:14Z</time>
      </trkpt>
      <trkpt lat="44.83297" lon="0.77508">
        <ele>108.2</ele>
        <time>2024-04-07T08:08:15Z</time>
      </trkpt>
      <trkpt lat="44.83305" lon="0.77488">
        <ele>105.8</ele>
        <time>2024-04-07T08:08:17Z</time>
      </trkpt>
      <trkpt lat="44.83308" lon="0.77479">
        <ele>104.7</ele>
        <time>2024-04-07T08:08:18Z</time>
      </trkpt>
      <trkpt lat="44.83312" lon="0.77468">
        <ele>103.4</ele>
        <time>2024-04-07T08:08:19Z</time>
      </trkpt>
      <trkpt lat="44.83317" lon="0.77457">
        <ele>101.9</ele>
        <time>2024-04-07T08:08:20Z</time>
      </trkpt>
      <trkpt lat="44.83322" lon="0.77446">
        <ele>100.5</ele>
        <time>2024-04-07T08:08:21Z</time>
      </trkpt>
      <trkpt lat="44.83333" lon="0.77424">
        <ele>97.1</ele>
        <time>2024-04-07T08:08:23Z</time>
      </trkpt>
      <trkpt lat="44.83339" lon="0.77413">
        <ele>95.1</ele>
        <time>2024-04-07T08:08:24Z</time>
      </trkpt>
      <trkpt lat="44.83345" lon="0.77403">
        <ele>93.2</ele>
        <time>2024-04-07T08:08:25Z</time>
      </trkpt>
      <trkpt lat="44.83357" lon="0.77379">
        <ele>89</ele>
        <time>2024-04-07T08:08:27Z</time>
      </trkpt>
      <trkpt lat="44.83362" lon="0.77366">
        <ele>87.1</ele>
        <time>2024-04-07T08:08:28Z</time>
      </trkpt>
      <trkpt lat="44.83365" lon="0.77355">
        <ele>86</ele>
        <time>2024-04-07T08:08:29Z</time>
      </trkpt>
      <trkpt lat="44.83365" lon="0.77344">
        <ele>85.1</ele>
        <time>2024-04-07T08:08:30Z</time>
      </trkpt>
      <trkpt lat="44.83364" lon="0.77333">
        <ele>84.3</ele>
        <time>2024-04-07T08:08:31Z</time>
      </trkpt>
      <trkpt lat="44.83364" lon="0.77309">
        <ele>82.6</ele>
        <time>2024-04-07T08:08:33Z</time>
      </trkpt>
      <trkpt lat="44.83362" lon="0.77296">
        <ele>81.7</ele>
        <time>2024-04-07T08:08:34Z</time>
      </trkpt>
      <trkpt lat="44.8336" lon="0.77284">
        <ele>80.4</ele>
        <time>2024-04-07T08:08:35Z</time>
      </trkpt>
      <trkpt lat="44.83356" lon="0.7726">
        <ele>77.8</ele>
        <time>2024-04-07T08:08:37Z</time>
      </trkpt>
      <trkpt lat="44.83352" lon="0.77236">
        <ele>75.1</ele>
        <time>2024-04-07T08:08:39Z</time>
      </trkpt>
      <trkpt lat="44.83347" lon="0.77213">
        <ele>72.3</ele>
        <time>2024-04-07T08:08:41Z</time>
      </trkpt>
      <trkpt lat="44.83342" lon="0.7719">
        <ele>69.3</ele>
        <time>2024-04-07T08:08:43Z</time>
      </trkpt>
      <trkpt lat="44.8334" lon="0.77179">
        <ele>67.9</ele>
        <time>2024-04-07T08:08:44Z</time>
      </trkpt>
      <trkpt lat="44.83339" lon="0.77167">
        <ele>66.5</ele>
        <time>2024-04-07T08:08:45Z</time>
      </trkpt>
      <trkpt lat="44.8334" lon="0.77155">
        <ele>65.1</ele>
        <time>2024-04-07T08:08:46Z</time>
      </trkpt>
      <trkpt lat="44.83343" lon="0.77143">
        <ele>63.7</ele>
        <time>2024-04-07T08:08:47Z</time>
      </trkpt>
      <trkpt lat="44.83344" lon="0.77131">
        <ele>62.3</ele>
        <time>2024-04-07T08:08:48Z</time>
      </trkpt>
      <trkpt lat="44.83344" lon="0.77117">
        <ele>60.8</ele>
        <time>2024-04-07T08:08:49Z</time>
      </trkpt>
      <trkpt lat="44.83343" lon="0.77096">
        <ele>58.9</ele>
        <time>2024-04-07T08:08:51Z</time>
      </trkpt>
      <trkpt lat="44.83343" lon="0.7709">
        <ele>58.4</ele>
        <time>2024-04-07T08:08:52Z</time>
      </trkpt>
      <trkpt lat="44.83344" lon="0.77087">
        <ele>58.1</ele>
        <time>2024-04-07T08:08:53Z</time>
      </trkpt>
      <trkpt lat="44.83349" lon="0.77079">
        <ele>57.2</ele>
        <time>2024-04-07T08:08:55Z</time>
      </trkpt>
      <trkpt lat="44.83354" lon="0.77076">
        <ele>56.9</ele>
        <time>2024-04-07T08:08:57Z</time>
      </trkpt>
      <trkpt lat="44.83354" lon="0.77075">
        <ele>56.9</ele>
        <time>2024-04-07T08:08:58Z</time>
      </trkpt>
      <trkpt lat="44.83354" lon="0.77075">
        <ele>56.9</ele>
        <time>2024-04-07T08:08:59Z</time>
      </trkpt>
      <trkpt lat="44.83358" lon="0.77072">
        <ele>56.6</ele>
        <time>2024-04-07T08:09:13Z</time>
      </trkpt>
      <trkpt lat="44.83361" lon="0.77071">
        <ele>56.5</ele>
        <time>2024-04-07T08:09:14Z</time>
      </trkpt>
      <trkpt lat="44.83363" lon="0.77069">
        <ele>56.3</ele>
        <time>2024-04-07T08:09:15Z</time>
      </trkpt>
      <trkpt lat="44.83365" lon="0.77068">
        <ele>56.2</ele>
        <time>2024-04-07T08:09:16Z</time>
      </trkpt>
      <trkpt lat="44.83368" lon="0.77067">
        <ele>56</ele>
        <time>2024-04-07T08:09:17Z</time>
      </trkpt>
      <trkpt lat="44.8337" lon="0.77065">
        <ele>55.9</ele>
        <time>2024-04-07T08:09:18Z</time>
      </trkpt>
      <trkpt lat="44.83373" lon="0.77063">
        <ele>55.7</ele>
        <time>2024-04-07T08:09:19Z</time>
      </trkpt>
      <trkpt lat="44.8338" lon="0.77059">
        <ele>55.4</ele>
        <time>2024-04-07T08:09:21Z</time>
      </trkpt>
      <trkpt lat="44.83384" lon="0.77057">
        <ele>55.1</ele>
        <time>2024-04-07T08:09:22Z</time>
      </trkpt>
      <trkpt lat="44.83389" lon="0.77054">
        <ele>54.8</ele>
        <time>2024-04-07T08:09:23Z</time>
      </trkpt>
      <trkpt lat="44.83393" lon="0.77051">
        <ele>54.6</ele>
        <time>2024-04-07T08:09:24Z</time>
      </trkpt>
      <trkpt lat="44.83398" lon="0.77049">
        <ele>54.3</ele>
        <time>2024-04-07T08:09:25Z</time>
      </trkpt>
      <trkpt lat="44.83409" lon="0.77043">
        <ele>53.7</ele>
        <time>2024-04-07T08:09:27Z</time>
      </trkpt>
      <trkpt lat="44.83419" lon="0.77037">
        <ele>53.2</ele>
        <time>2024-04-07T08:09:29Z</time>
      </trkpt>
      <trkpt lat="44.8343" lon="0.77032">
        <ele>52.6</ele>
        <time>2024-04-07T08:09:31Z</time>
      </trkpt>
      <trkpt lat="44.83441" lon="0.77027">
        <ele>52.1</ele>
        <time>2024-04-07T08:09:33Z</time>
      </trkpt>
      <trkpt lat="44.83445" lon="0.77026">
        <ele>51.9</ele>
        <time>2024-04-07T08:09:34Z</time>
      </trkpt>
      <trkpt lat="44.83448" lon="0.77025">
        <ele>51.8</ele>
        <time>2024-04-07T08:09:35Z</time>
      </trkpt>
      <trkpt lat="44.83451" lon="0.77021">
        <ele>51.6</ele>
        <time>2024-04-07T08:09:36Z</time>
      </trkpt>
      <trkpt lat="44.83454" lon="0.77017">
        <ele>51.5</ele>
        <time>2024-04-07T08:09:37Z</time>
      </trkpt>
      <trkpt lat="44.83456" lon="0.77013">
        <ele>51.3</ele>
        <time>2024-04-07T08:09:38Z</time>
      </trkpt>
      <trkpt lat="44.83455" lon="0.77008">
        <ele>51.1</ele>
        <time>2024-04-07T08:09:39Z</time>
      </trkpt>
      <trkpt lat="44.83453" lon="0.76998">
        <ele>51.4</ele>
        <time>2024-04-07T08:09:41Z</time>
      </trkpt>
      <trkpt lat="44.83451" lon="0.76992">
        <ele>51.6</ele>
        <time>2024-04-07T08:09:42Z</time>
      </trkpt>
      <trkpt lat="44.83449" lon="0.76986">
        <ele>51.8</ele>
        <time>2024-04-07T08:09:43Z</time>
      </trkpt>
      <trkpt lat="44.83447" lon="0.76981">
        <ele>52</ele>
        <time>2024-04-07T08:09:44Z</time>
      </trkpt>
      <trkpt lat="44.83445" lon="0.76975">
        <ele>52.4</ele>
        <time>2024-04-07T08:09:45Z</time>
      </trkpt>
      <trkpt lat="44.83442" lon="0.76969">
        <ele>52.8</ele>
        <time>2024-04-07T08:09:46Z</time>
      </trkpt>
      <trkpt lat="44.83439" lon="0.76963">
        <ele>53.2</ele>
        <time>2024-04-07T08:09:47Z</time>
      </trkpt>
      <trkpt lat="44.83432" lon="0.76952">
        <ele>54.2</ele>
        <time>2024-04-07T08:09:49Z</time>
      </trkpt>
      <trkpt lat="44.83427" lon="0.76945">
        <ele>54.9</ele>
        <time>2024-04-07T08:09:51Z</time>
      </trkpt>
      <trkpt lat="44.83424" lon="0.7694">
        <ele>55.4</ele>
        <time>2024-04-07T08:09:53Z</time>
      </trkpt>
      <trkpt lat="44.83421" lon="0.76935">
        <ele>56</ele>
        <time>2024-04-07T08:09:55Z</time>
      </trkpt>
      <trkpt lat="44.83418" lon="0.7693">
        <ele>56.7</ele>
        <time>2024-04-07T08:09:57Z</time>
      </trkpt>
      <trkpt lat="44.83416" lon="0.76924">
        <ele>57.4</ele>
        <time>2024-04-07T08:09:59Z</time>
      </trkpt>
      <trkpt lat="44.83414" lon="0.76922">
        <ele>57.7</ele>
        <time>2024-04-07T08:10:00Z</time>
      </trkpt>
      <trkpt lat="44.83413" lon="0.76921">
        <ele>58</ele>
        <time>2024-04-07T08:10:01Z</time>
      </trkpt>
      <trkpt lat="44.8341" lon="0.76917">
        <ele>58.5</ele>
        <time>2024-04-07T08:10:03Z</time>
      </trkpt>
      <trkpt lat="44.83406" lon="0.76915">
        <ele>59.2</ele>
        <time>2024-04-07T08:10:05Z</time>
      </trkpt>
      <trkpt lat="44.83403" lon="0.76915">
        <ele>59.7</ele>
        <time>2024-04-07T08:10:07Z</time>
      </trkpt>
      <trkpt lat="44.83399" lon="0.76916">
        <ele>60.3</ele>
        <time>2024-04-07T08:10:09Z</time>
      </trkpt>
      <trkpt lat="44.83395" lon="0.76916">
        <ele>60.9</ele>
        <time>2024-04-07T08:10:11Z</time>
      </trkpt>
      <trkpt lat="44.83391" lon="0.76918">
        <ele>61.5</ele>
        <time>2024-04-07T08:10:13Z</time>
      </trkpt>
      <trkpt lat="44.83388" lon="0.76919">
        <ele>61.9</ele>
        <time>2024-04-07T08:10:15Z</time>
      </trkpt>
      <trkpt lat="44.83384" lon="0.7692">
        <ele>62.4</ele>
        <time>2024-04-07T08:10:17Z</time>
      </trkpt>
      <trkpt lat="44.8338" lon="0.76921">
        <ele>62.9</ele>
        <time>2024-04-07T08:10:19Z</time>
      </trkpt>
      <trkpt lat="44.83376" lon="0.76921">
        <ele>63.4</ele>
        <time>2024-04-07T08:10:21Z</time>
      </trkpt>
      <trkpt lat="44.83372" lon="0.76922">
        <ele>63.8</ele>
        <time>2024-04-07T08:10:23Z</time>
      </trkpt>
      <trkpt lat="44.83371" lon="0.76922">
        <ele>64</ele>
        <time>2024-04-07T08:10:24Z</time>
      </trkpt>
      <trkpt lat="44.8337" lon="0.76922">
        <ele>64.1</ele>
        <time>2024-04-07T08:10:25Z</time>
      </trkpt>
      <trkpt lat="44.83364" lon="0.76923">
        <ele>64.8</ele>
        <time>2024-04-07T08:10:27Z</time>
      </trkpt>
      <trkpt lat="44.83359" lon="0.76924">
        <ele>65.3</ele>
        <time>2024-04-07T08:10:29Z</time>
      </trkpt>
      <trkpt lat="44.83354" lon="0.76926">
        <ele>65.8</ele>
        <time>2024-04-07T08:10:31Z</time>
      </trkpt>
      <trkpt lat="44.8335" lon="0.76924">
        <ele>66.2</ele>
        <time>2024-04-07T08:10:33Z</time>
      </trkpt>
      <trkpt lat="44.83346" lon="0.76923">
        <ele>66.7</ele>
        <time>2024-04-07T08:10:35Z</time>
      </trkpt>
      <trkpt lat="44.83343" lon="0.76921">
        <ele>67</ele>
        <time>2024-04-07T08:10:37Z</time>
      </trkpt>
      <trkpt lat="44.83342" lon="0.7692">
        <ele>67.2</ele>
        <time>2024-04-07T08:10:38Z</time>
      </trkpt>
      <trkpt lat="44.83341" lon="0.76919">
        <ele>67.4</ele>
        <time>2024-04-07T08:10:39Z</time>
      </trkpt>
      <trkpt lat="44.83339" lon="0.76917">
        <ele>67.6</ele>
        <time>2024-04-07T08:10:41Z</time>
      </trkpt>
      <trkpt lat="44.83336" lon="0.76917">
        <ele>68.1</ele>
        <time>2024-04-07T08:10:43Z</time>
      </trkpt>
      <trkpt lat="44.83331" lon="0.76916">
        <ele>68.7</ele>
        <time>2024-04-07T08:10:45Z</time>
      </trkpt>
      <trkpt lat="44.83328" lon="0.76916">
        <ele>69.1</ele>
        <time>2024-04-07T08:10:47Z</time>
      </trkpt>
      <trkpt lat="44.83326" lon="0.76915">
        <ele>69.5</ele>
        <time>2024-04-07T08:10:48Z</time>
      </trkpt>
      <trkpt lat="44.83324" lon="0.76915">
        <ele>69.8</ele>
        <time>2024-04-07T08:10:49Z</time>
      </trkpt>
      <trkpt lat="44.83322" lon="0.76915">
        <ele>70</ele>
        <time>2024-04-07T08:10:50Z</time>
      </trkpt>
      <trkpt lat="44.83321" lon="0.76915">
        <ele>70.2</ele>
        <time>2024-04-07T08:10:51Z</time>
      </trkpt>
      <trkpt lat="44.8332" lon="0.76914">
        <ele>70.5</ele>
        <time>2024-04-07T08:10:52Z</time>
      </trkpt>
      <trkpt lat="44.83318" lon="0.76914">
        <ele>70.7</ele>
        <time>2024-04-07T08:10:53Z</time>
      </trkpt>
      <trkpt lat="44.83316" lon="0.76914">
        <ele>71.2</ele>
        <time>2024-04-07T08:10:55Z</time>
      </trkpt>
      <trkpt lat="44.83313" lon="0.76913">
        <ele>71.6</ele>
        <time>2024-04-07T08:10:57Z</time>
      </trkpt>
      <trkpt lat="44.83311" lon="0.76914">
        <ele>71.9</ele>
        <time>2024-04-07T08:10:58Z</time>
      </trkpt>
      <trkpt lat="44.83309" lon="0.76914">
        <ele>72.2</ele>
        <time>2024-04-07T08:10:59Z</time>
      </trkpt>
      <trkpt lat="44.83306" lon="0.76914">
        <ele>72.8</ele>
        <time>2024-04-07T08:11:01Z</time>
      </trkpt>
      <trkpt lat="44.83302" lon="0.76913">
        <ele>73.5</ele>
        <time>2024-04-07T08:11:03Z</time>
      </trkpt>
      <trkpt lat="44.83299" lon="0.76913">
        <ele>74</ele>
        <time>2024-04-07T08:11:05Z</time>
      </trkpt>
      <trkpt lat="44.83297" lon="0.76913">
        <ele>74.3</ele>
        <time>2024-04-07T08:11:06Z</time>
      </trkpt>
      <trkpt lat="44.83296" lon="0.76913">
        <ele>74.5</ele>
        <time>2024-04-07T08:11:07Z</time>
      </trkpt>
      <trkpt lat="44.83295" lon="0.76914">
        <ele>74.8</ele>
        <time>2024-04-07T08:11:08Z</time>
      </trkpt>
      <trkpt lat="44.83293" lon="0.76914">
        <ele>75.1</ele>
        <time>2024-04-07T08:11:09Z</time>
      </trkpt>
      <trkpt lat="44.83291" lon="0.76914">
        <ele>75.4</ele>
        <time>2024-04-07T08:11:10Z</time>
      </trkpt>
      <trkpt lat="44.8329" lon="0.76914">
        <ele>75.6</ele>
        <time>2024-04-07T08:11:11Z</time>
      </trkpt>
      <trkpt lat="44.83288" lon="0.76914">
        <ele>76</ele>
        <time>2024-04-07T08:11:13Z</time>
      </trkpt>
      <trkpt lat="44.83286" lon="0.76914">
        <ele>76.2</ele>
        <time>2024-04-07T08:11:14Z</time>
      </trkpt>
      <trkpt lat="44.83285" lon="0.76914">
        <ele>76.4</ele>
        <time>2024-04-07T08:11:15Z</time>
      </trkpt>
      <trkpt lat="44.83283" lon="0.76912">
        <ele>76.8</ele>
        <time>2024-04-07T08:11:16Z</time>
      </trkpt>
      <trkpt lat="44.83281" lon="0.76912">
        <ele>77.1</ele>
        <time>2024-04-07T08:11:17Z</time>
      </trkpt>
      <trkpt lat="44.83277" lon="0.76911">
        <ele>77.6</ele>
        <time>2024-04-07T08:11:19Z</time>
      </trkpt>
      <trkpt lat="44.83274" lon="0.76909">
        <ele>78.1</ele>
        <time>2024-04-07T08:11:21Z</time>
      </trkpt>
      <trkpt lat="44.8327" lon="0.76908">
        <ele>78.6</ele>
        <time>2024-04-07T08:11:23Z</time>
      </trkpt>
      <trkpt lat="44.83267" lon="0.76907">
        <ele>79.1</ele>
        <time>2024-04-07T08:11:25Z</time>
      </trkpt>
      <trkpt lat="44.83263" lon="0.76907">
        <ele>79.7</ele>
        <time>2024-04-07T08:11:27Z</time>
      </trkpt>
      <trkpt lat="44.83261" lon="0.76906">
        <ele>79.9</ele>
        <time>2024-04-07T08:11:28Z</time>
      </trkpt>
      <trkpt lat="44.83259" lon="0.76906">
        <ele>80.1</ele>
        <time>2024-04-07T08:11:29Z</time>
      </trkpt>
      <trkpt lat="44.83256" lon="0.76905">
        <ele>80.6</ele>
        <time>2024-04-07T08:11:31Z</time>
      </trkpt>
      <trkpt lat="44.83254" lon="0.76905">
        <ele>80.8</ele>
        <time>2024-04-07T08:11:32Z</time>
      </trkpt>
      <trkpt lat="44.83253" lon="0.76904">
        <ele>81</ele>
        <time>2024-04-07T08:11:33Z</time>
      </trkpt>
      <trkpt lat="44.83252" lon="0.76904">
        <ele>81.2</ele>
        <time>2024-04-07T08:11:34Z</time>
      </trkpt>
      <trkpt lat="44.8325" lon="0.76903">
        <ele>81.4</ele>
        <time>2024-04-07T08:11:35Z</time>
      </trkpt>
      <trkpt lat="44.83247" lon="0.76902">
        <ele>81.8</ele>
        <time>2024-04-07T08:11:37Z</time>
      </trkpt>
      <trkpt lat="44.83244" lon="0.76901">
        <ele>82.2</ele>
        <time>2024-04-07T08:11:39Z</time>
      </trkpt>
      <trkpt lat="44.83242" lon="0.769">
        <ele>82.5</ele>
        <time>2024-04-07T08:11:40Z</time>
      </trkpt>
      <trkpt lat="44.8324" lon="0.76899">
        <ele>82.7</ele>
        <time>2024-04-07T08:11:41Z</time>
      </trkpt>
      <trkpt lat="44.83238" lon="0.76898">
        <ele>82.9</ele>
        <time>2024-04-07T08:11:42Z</time>
      </trkpt>
      <trkpt lat="44.83237" lon="0.76898">
        <ele>83.1</ele>
        <time>2024-04-07T08:11:43Z</time>
      </trkpt>
      <trkpt lat="44.83233" lon="0.76897">
        <ele>83.6</ele>
        <time>2024-04-07T08:11:45Z</time>
      </trkpt>
      <trkpt lat="44.83232" lon="0.76896">
        <ele>83.8</ele>
        <time>2024-04-07T08:11:46Z</time>
      </trkpt>
      <trkpt lat="44.8323" lon="0.76896">
        <ele>84</ele>
        <time>2024-04-07T08:11:47Z</time>
      </trkpt>
      <trkpt lat="44.83228" lon="0.76895">
        <ele>84.2</ele>
        <time>2024-04-07T08:11:48Z</time>
      </trkpt>
      <trkpt lat="44.83226" lon="0.76895">
        <ele>84.5</ele>
        <time>2024-04-07T08:11:49Z</time>
      </trkpt>
      <trkpt lat="44.83224" lon="0.76895">
        <ele>84.8</ele>
        <time>2024-04-07T08:11:50Z</time>
      </trkpt>
      <trkpt lat="44.83223" lon="0.76895">
        <ele>85</ele>
        <time>2024-04-07T08:11:51Z</time>
      </trkpt>
      <trkpt lat="44.83221" lon="0.76894">
        <ele>85.3</ele>
        <time>2024-04-07T08:11:52Z</time>
      </trkpt>
      <trkpt lat="44.83219" lon="0.76895">
        <ele>85.5</ele>
        <time>2024-04-07T08:11:53Z</time>
      </trkpt>
      <trkpt lat="44.83216" lon="0.76893">
        <ele>85.9</ele>
        <time>2024-04-07T08:11:55Z</time>
      </trkpt>
      <trkpt lat="44.83212" lon="0.76892">
        <ele>86.4</ele>
        <time>2024-04-07T08:11:57Z</time>
      </trkpt>
      <trkpt lat="44.83209" lon="0.76891">
        <ele>86.8</ele>
        <time>2024-04-07T08:11:59Z</time>
      </trkpt>
      <trkpt lat="44.83205" lon="0.76892">
        <ele>87.3</ele>
        <time>2024-04-07T08:12:01Z</time>
      </trkpt>
      <trkpt lat="44.83202" lon="0.76892">
        <ele>87.7</ele>
        <time>2024-04-07T08:12:03Z</time>
      </trkpt>
      <trkpt lat="44.83199" lon="0.76892">
        <ele>88</ele>
        <time>2024-04-07T08:12:05Z</time>
      </trkpt>
      <trkpt lat="44.83197" lon="0.76892">
        <ele>88.2</ele>
        <time>2024-04-07T08:12:06Z</time>
      </trkpt>
      <trkpt lat="44.83196" lon="0.76891">
        <ele>88.5</ele>
        <time>2024-04-07T08:12:07Z</time>
      </trkpt>
      <trkpt lat="44.83191" lon="0.76893">
        <ele>89</ele>
        <time>2024-04-07T08:12:09Z</time>
      </trkpt>
      <trkpt lat="44.83188" lon="0.76894">
        <ele>89.5</ele>
        <time>2024-04-07T08:12:11Z</time>
      </trkpt>
      <trkpt lat="44.83187" lon="0.76894">
        <ele>89.6</ele>
        <time>2024-04-07T08:12:12Z</time>
      </trkpt>
      <trkpt lat="44.83186" lon="0.76894">
        <ele>89.8</ele>
        <time>2024-04-07T08:12:13Z</time>
      </trkpt>
      <trkpt lat="44.83184" lon="0.76895">
        <ele>90.1</ele>
        <time>2024-04-07T08:12:15Z</time>
      </trkpt>
      <trkpt lat="44.83183" lon="0.76894">
        <ele>90.3</ele>
        <time>2024-04-07T08:12:17Z</time>
      </trkpt>
      <trkpt lat="44.83181" lon="0.76894">
        <ele>90.6</ele>
        <time>2024-04-07T08:12:18Z</time>
      </trkpt>
      <trkpt lat="44.8318" lon="0.76894">
        <ele>90.7</ele>
        <time>2024-04-07T08:12:19Z</time>
      </trkpt>
      <trkpt lat="44.83178" lon="0.76894">
        <ele>91</ele>
        <time>2024-04-07T08:12:21Z</time>
      </trkpt>
      <trkpt lat="44.83176" lon="0.76895">
        <ele>91.3</ele>
        <time>2024-04-07T08:12:23Z</time>
      </trkpt>
      <trkpt lat="44.83175" lon="0.76895">
        <ele>91.5</ele>
        <time>2024-04-07T08:12:24Z</time>
      </trkpt>
      <trkpt lat="44.83173" lon="0.76896">
        <ele>91.8</ele>
        <time>2024-04-07T08:12:25Z</time>
      </trkpt>
      <trkpt lat="44.8317" lon="0.76898">
        <ele>92.3</ele>
        <time>2024-04-07T08:12:27Z</time>
      </trkpt>
      <trkpt lat="44.83166" lon="0.76898">
        <ele>92.9</ele>
        <time>2024-04-07T08:12:29Z</time>
      </trkpt>
      <trkpt lat="44.83165" lon="0.76899">
        <ele>93.1</ele>
        <time>2024-04-07T08:12:30Z</time>
      </trkpt>
      <trkpt lat="44.83163" lon="0.769">
        <ele>93.4</ele>
        <time>2024-04-07T08:12:31Z</time>
      </trkpt>
      <trkpt lat="44.83161" lon="0.769">
        <ele>93.6</ele>
        <time>2024-04-07T08:12:32Z</time>
      </trkpt>
      <trkpt lat="44.8316" lon="0.76901">
        <ele>93.8</ele>
        <time>2024-04-07T08:12:33Z</time>
      </trkpt>
      <trkpt lat="44.83159" lon="0.769">
        <ele>94</ele>
        <time>2024-04-07T08:12:34Z</time>
      </trkpt>
      <trkpt lat="44.83157" lon="0.76901">
        <ele>94.3</ele>
        <time>2024-04-07T08:12:35Z</time>
      </trkpt>
      <trkpt lat="44.83151" lon="0.76903">
        <ele>95.2</ele>
        <time>2024-04-07T08:12:37Z</time>
      </trkpt>
      <trkpt lat="44.83146" lon="0.76904">
        <ele>95.9</ele>
        <time>2024-04-07T08:12:39Z</time>
      </trkpt>
      <trkpt lat="44.83144" lon="0.76904">
        <ele>96.2</ele>
        <time>2024-04-07T08:12:40Z</time>
      </trkpt>
      <trkpt lat="44.83142" lon="0.76904">
        <ele>96.5</ele>
        <time>2024-04-07T08:12:41Z</time>
      </trkpt>
      <trkpt lat="44.8314" lon="0.76905">
        <ele>96.8</ele>
        <time>2024-04-07T08:12:43Z</time>
      </trkpt>
      <trkpt lat="44.83137" lon="0.76904">
        <ele>97.2</ele>
        <time>2024-04-07T08:12:45Z</time>
      </trkpt>
      <trkpt lat="44.83137" lon="0.76903">
        <ele>97.3</ele>
        <time>2024-04-07T08:12:46Z</time>
      </trkpt>
      <trkpt lat="44.83135" lon="0.76903">
        <ele>97.5</ele>
        <time>2024-04-07T08:12:47Z</time>
      </trkpt>
      <trkpt lat="44.83132" lon="0.76901">
        <ele>97.9</ele>
        <time>2024-04-07T08:12:49Z</time>
      </trkpt>
      <trkpt lat="44.83131" lon="0.76899">
        <ele>98.2</ele>
        <time>2024-04-07T08:12:51Z</time>
      </trkpt>
      <trkpt lat="44.83129" lon="0.76898">
        <ele>98.4</ele>
        <time>2024-04-07T08:12:52Z</time>
      </trkpt>
      <trkpt lat="44.83128" lon="0.76896">
        <ele>98.7</ele>
        <time>2024-04-07T08:12:53Z</time>
      </trkpt>
      <trkpt lat="44.83125" lon="0.76894">
        <ele>99</ele>
        <time>2024-04-07T08:12:55Z</time>
      </trkpt>
      <trkpt lat="44.83124" lon="0.76893">
        <ele>99.2</ele>
        <time>2024-04-07T08:12:56Z</time>
      </trkpt>
      <trkpt lat="44.83123" lon="0.76892">
        <ele>99.4</ele>
        <time>2024-04-07T08:12:57Z</time>
      </trkpt>
      <trkpt lat="44.83121" lon="0.7689">
        <ele>99.6</ele>
        <time>2024-04-07T08:12:58Z</time>
      </trkpt>
      <trkpt lat="44.83121" lon="0.76889">
        <ele>99.7</ele>
        <time>2024-04-07T08:12:59Z</time>
      </trkpt>
      <trkpt lat="44.8312" lon="0.76886">
        <ele>100.1</ele>
        <time>2024-04-07T08:13:01Z</time>
      </trkpt>
      <trkpt lat="44.8312" lon="0.76884">
        <ele>100.2</ele>
        <time>2024-04-07T08:13:02Z</time>
      </trkpt>
      <trkpt lat="44.8312" lon="0.76882">
        <ele>100.4</ele>
        <time>2024-04-07T08:13:03Z</time>
      </trkpt>
      <trkpt lat="44.83118" lon="0.7688">
        <ele>100.6</ele>
        <time>2024-04-07T08:13:05Z</time>
      </trkpt>
      <trkpt lat="44.83117" lon="0.76877">
        <ele>100.9</ele>
        <time>2024-04-07T08:13:07Z</time>
      </trkpt>
      <trkpt lat="44.83116" lon="0.76875">
        <ele>101.2</ele>
        <time>2024-04-07T08:13:09Z</time>
      </trkpt>
      <trkpt lat="44.83114" lon="0.76871">
        <ele>101.5</ele>
        <time>2024-04-07T08:13:11Z</time>
      </trkpt>
      <trkpt lat="44.83112" lon="0.76868">
        <ele>101.9</ele>
        <time>2024-04-07T08:13:13Z</time>
      </trkpt>
      <trkpt lat="44.83111" lon="0.76866">
        <ele>102.1</ele>
        <time>2024-04-07T08:13:15Z</time>
      </trkpt>
      <trkpt lat="44.83108" lon="0.76863">
        <ele>102.5</ele>
        <time>2024-04-07T08:13:17Z</time>
      </trkpt>
      <trkpt lat="44.83107" lon="0.7686">
        <ele>102.8</ele>
        <time>2024-04-07T08:13:19Z</time>
      </trkpt>
      <trkpt lat="44.83105" lon="0.76858">
        <ele>103.1</ele>
        <time>2024-04-07T08:13:21Z</time>
      </trkpt>
      <trkpt lat="44.83104" lon="0.76855">
        <ele>103.5</ele>
        <time>2024-04-07T08:13:23Z</time>
      </trkpt>
      <trkpt lat="44.83102" lon="0.76852">
        <ele>103.8</ele>
        <time>2024-04-07T08:13:25Z</time>
      </trkpt>
      <trkpt lat="44.831" lon="0.76849">
        <ele>104.2</ele>
        <time>2024-04-07T08:13:27Z</time>
      </trkpt>
      <trkpt lat="44.83099" lon="0.76846">
        <ele>104.5</ele>
        <time>2024-04-07T08:13:29Z</time>
      </trkpt>
      <trkpt lat="44.83097" lon="0.76842">
        <ele>104.8</ele>
        <time>2024-04-07T08:13:31Z</time>
      </trkpt>
      <trkpt lat="44.83096" lon="0.76839">
        <ele>105.2</ele>
        <time>2024-04-07T08:13:33Z</time>
      </trkpt>
      <trkpt lat="44.83094" lon="0.76835">
        <ele>105.5</ele>
        <time>2024-04-07T08:13:35Z</time>
      </trkpt>
      <trkpt lat="44.83093" lon="0.76833">
        <ele>105.7</ele>
        <time>2024-04-07T08:13:36Z</time>
      </trkpt>
      <trkpt lat="44.83092" lon="0.76832">
        <ele>105.8</ele>
        <time>2024-04-07T08:13:37Z</time>
      </trkpt>
      <trkpt lat="44.8309" lon="0.76829">
        <ele>106.2</ele>
        <time>2024-04-07T08:13:39Z</time>
      </trkpt>
      <trkpt lat="44.83089" lon="0.76826">
        <ele>106.5</ele>
        <time>2024-04-07T08:13:41Z</time>
      </trkpt>
      <trkpt lat="44.83086" lon="0.76823">
        <ele>106.9</ele>
        <time>2024-04-07T08:13:43Z</time>
      </trkpt>
      <trkpt lat="44.83085" lon="0.76822">
        <ele>107.1</ele>
        <time>2024-04-07T08:13:44Z</time>
      </trkpt>
      <trkpt lat="44.83084" lon="0.76821">
        <ele>107.3</ele>
        <time>2024-04-07T08:13:45Z</time>
      </trkpt>
      <trkpt lat="44.83082" lon="0.76819">
        <ele>107.6</ele>
        <time>2024-04-07T08:13:47Z</time>
      </trkpt>
      <trkpt lat="44.83081" lon="0.76815">
        <ele>107.9</ele>
        <time>2024-04-07T08:13:49Z</time>
      </trkpt>
      <trkpt lat="44.8308" lon="0.76812">
        <ele>108.3</ele>
        <time>2024-04-07T08:13:51Z</time>
      </trkpt>
      <trkpt lat="44.83078" lon="0.76809">
        <ele>108.7</ele>
        <time>2024-04-07T08:13:53Z</time>
      </trkpt>
      <trkpt lat="44.83077" lon="0.76806">
        <ele>109.1</ele>
        <time>2024-04-07T08:13:55Z</time>
      </trkpt>
      <trkpt lat="44.83076" lon="0.76803">
        <ele>109.5</ele>
        <time>2024-04-07T08:13:57Z</time>
      </trkpt>
      <trkpt lat="44.83075" lon="0.76802">
        <ele>109.8</ele>
        <time>2024-04-07T08:13:58Z</time>
      </trkpt>
      <trkpt lat="44.83074" lon="0.768">
        <ele>110.1</ele>
        <time>2024-04-07T08:13:59Z</time>
      </trkpt>
      <trkpt lat="44.83073" lon="0.76798">
        <ele>110.5</ele>
        <time>2024-04-07T08:14:01Z</time>
      </trkpt>
      <trkpt lat="44.83071" lon="0.76796">
        <ele>111</ele>
        <time>2024-04-07T08:14:03Z</time>
      </trkpt>
      <trkpt lat="44.83069" lon="0.76793">
        <ele>111.5</ele>
        <time>2024-04-07T08:14:05Z</time>
      </trkpt>
      <trkpt lat="44.83067" lon="0.76788">
        <ele>112.3</ele>
        <time>2024-04-07T08:14:07Z</time>
      </trkpt>
      <trkpt lat="44.83066" lon="0.76786">
        <ele>112.6</ele>
        <time>2024-04-07T08:14:08Z</time>
      </trkpt>
      <trkpt lat="44.83065" lon="0.76785">
        <ele>112.8</ele>
        <time>2024-04-07T08:14:09Z</time>
      </trkpt>
      <trkpt lat="44.83065" lon="0.76784">
        <ele>113</ele>
        <time>2024-04-07T08:14:11Z</time>
      </trkpt>
      <trkpt lat="44.82992" lon="0.7665">
        <ele>135.2</ele>
        <time>2024-04-07T08:18:30Z</time>
      </trkpt>
      <trkpt lat="44.82991" lon="0.76648">
        <ele>135.2</ele>
        <time>2024-04-07T08:18:31Z</time>
      </trkpt>
      <trkpt lat="44.8299" lon="0.76646">
        <ele>135.2</ele>
        <time>2024-04-07T08:18:32Z</time>
      </trkpt>
      <trkpt lat="44.8299" lon="0.76644">
        <ele>135.2</ele>
        <time>2024-04-07T08:18:33Z</time>
      </trkpt>
      <trkpt lat="44.82989" lon="0.76642">
        <ele>135.2</ele>
        <time>2024-04-07T08:18:34Z</time>
      </trkpt>
      <trkpt lat="44.82988" lon="0.76641">
        <ele>135.2</ele>
        <time>2024-04-07T08:18:35Z</time>
      </trkpt>
      <trkpt lat="44.82985" lon="0.76636">
        <ele>135.1</ele>
        <time>2024-04-07T08:18:37Z</time>
      </trkpt>
      <trkpt lat="44.82984" lon="0.76633">
        <ele>135.1</ele>
        <time>2024-04-07T08:18:38Z</time>
      </trkpt>
      <trkpt lat="44.82983" lon="0.7663">
        <ele>135</ele>
        <time>2024-04-07T08:18:39Z</time>
      </trkpt>
      <trkpt lat="44.82981" lon="0.76623">
        <ele>134.7</ele>
        <time>2024-04-07T08:18:41Z</time>
      </trkpt>
      <trkpt lat="44.82979" lon="0.76619">
        <ele>134.6</ele>
        <time>2024-04-07T08:18:42Z</time>
      </trkpt>
      <trkpt lat="44.82978" lon="0.76615">
        <ele>134.4</ele>
        <time>2024-04-07T08:18:43Z</time>
      </trkpt>
      <trkpt lat="44.82975" lon="0.76606">
        <ele>134</ele>
        <time>2024-04-07T08:18:45Z</time>
      </trkpt>
      <trkpt lat="44.82973" lon="0.76603">
        <ele>133.8</ele>
        <time>2024-04-07T08:18:46Z</time>
      </trkpt>
      <trkpt lat="44.82971" lon="0.76596">
        <ele>133.5</ele>
        <time>2024-04-07T08:18:47Z</time>
      </trkpt>
      <trkpt lat="44.82968" lon="0.76583">
        <ele>132.6</ele>
        <time>2024-04-07T08:18:49Z</time>
      </trkpt>
      <trkpt lat="44.82967" lon="0.76576">
        <ele>132.1</ele>
        <time>2024-04-07T08:18:50Z</time>
      </trkpt>
      <trkpt lat="44.82966" lon="0.76569">
        <ele>131.5</ele>
        <time>2024-04-07T08:18:51Z</time>
      </trkpt>
      <trkpt lat="44.82962" lon="0.76552">
        <ele>130.1</ele>
        <time>2024-04-07T08:18:53Z</time>
      </trkpt>
      <trkpt lat="44.82957" lon="0.76533">
        <ele>128.2</ele>
        <time>2024-04-07T08:18:55Z</time>
      </trkpt>
      <trkpt lat="44.82955" lon="0.76524">
        <ele>127</ele>
        <time>2024-04-07T08:18:56Z</time>
      </trkpt>
      <trkpt lat="44.82951" lon="0.76514">
        <ele>125.7</ele>
        <time>2024-04-07T08:18:57Z</time>
      </trkpt>
      <trkpt lat="44.82944" lon="0.76494">
        <ele>123</ele>
        <time>2024-04-07T08:18:59Z</time>
      </trkpt>
      <trkpt lat="44.82942" lon="0.76483">
        <ele>121.7</ele>
        <time>2024-04-07T08:19:00Z</time>
      </trkpt>
      <trkpt lat="44.8294" lon="0.76472">
        <ele>120.5</ele>
        <time>2024-04-07T08:19:01Z</time>
      </trkpt>
      <trkpt lat="44.82939" lon="0.76461">
        <ele>119.2</ele>
        <time>2024-04-07T08:19:02Z</time>
      </trkpt>
      <trkpt lat="44.82937" lon="0.76451">
        <ele>118.1</ele>
        <time>2024-04-07T08:19:03Z</time>
      </trkpt>
      <trkpt lat="44.82936" lon="0.76442">
        <ele>117.2</ele>
        <time>2024-04-07T08:19:04Z</time>
      </trkpt>
      <trkpt lat="44.82935" lon="0.76434">
        <ele>116.3</ele>
        <time>2024-04-07T08:19:05Z</time>
      </trkpt>
      <trkpt lat="44.82934" lon="0.76426">
        <ele>115.4</ele>
        <time>2024-04-07T08:19:06Z</time>
      </trkpt>
      <trkpt lat="44.82933" lon="0.76417">
        <ele>114.1</ele>
        <time>2024-04-07T08:19:07Z</time>
      </trkpt>
      <trkpt lat="44.82932" lon="0.764">
        <ele>111.5</ele>
        <time>2024-04-07T08:19:09Z</time>
      </trkpt>
      <trkpt lat="44.82931" lon="0.76394">
        <ele>110.6</ele>
        <time>2024-04-07T08:19:10Z</time>
      </trkpt>
      <trkpt lat="44.82929" lon="0.76391">
        <ele>109.8</ele>
        <time>2024-04-07T08:19:11Z</time>
      </trkpt>
      <trkpt lat="44.82922" lon="0.76387">
        <ele>106.9</ele>
        <time>2024-04-07T08:19:13Z</time>
      </trkpt>
      <trkpt lat="44.82914" lon="0.76386">
        <ele>104.3</ele>
        <time>2024-04-07T08:19:15Z</time>
      </trkpt>
      <trkpt lat="44.82906" lon="0.76389">
        <ele>102</ele>
        <time>2024-04-07T08:19:17Z</time>
      </trkpt>
      <trkpt lat="44.82897" lon="0.76389">
        <ele>99.9</ele>
        <time>2024-04-07T08:19:19Z</time>
      </trkpt>
      <trkpt lat="44.82892" lon="0.76389">
        <ele>98.4</ele>
        <time>2024-04-07T08:19:20Z</time>
      </trkpt>
      <trkpt lat="44.82886" lon="0.76388">
        <ele>96.7</ele>
        <time>2024-04-07T08:19:21Z</time>
      </trkpt>
      <trkpt lat="44.8288" lon="0.76387">
        <ele>95.1</ele>
        <time>2024-04-07T08:19:22Z</time>
      </trkpt>
      <trkpt lat="44.82874" lon="0.76387">
        <ele>93.5</ele>
        <time>2024-04-07T08:19:23Z</time>
      </trkpt>
      <trkpt lat="44.8286" lon="0.76391">
        <ele>91.9</ele>
        <time>2024-04-07T08:19:25Z</time>
      </trkpt>
      <trkpt lat="44.82844" lon="0.76393">
        <ele>90</ele>
        <time>2024-04-07T08:19:27Z</time>
      </trkpt>
      <trkpt lat="44.82828" lon="0.76394">
        <ele>89.1</ele>
        <time>2024-04-07T08:19:29Z</time>
      </trkpt>
      <trkpt lat="44.8281" lon="0.76397">
        <ele>87.8</ele>
        <time>2024-04-07T08:19:31Z</time>
      </trkpt>
      <trkpt lat="44.82793" lon="0.764">
        <ele>87.2</ele>
        <time>2024-04-07T08:19:33Z</time>
      </trkpt>
      <trkpt lat="44.82775" lon="0.76403">
        <ele>87.1</ele>
        <time>2024-04-07T08:19:35Z</time>
      </trkpt>
      <trkpt lat="44.82766" lon="0.76405">
        <ele>86.1</ele>
        <time>2024-04-07T08:19:36Z</time>
      </trkpt>
      <trkpt lat="44.82757" lon="0.76407">
        <ele>85.5</ele>
        <time>2024-04-07T08:19:37Z</time>
      </trkpt>
      <trkpt lat="44.82749" lon="0.76408">
        <ele>84.3</ele>
        <time>2024-04-07T08:19:38Z</time>
      </trkpt>
      <trkpt lat="44.82742" lon="0.76408">
        <ele>82.9</ele>
        <time>2024-04-07T08:19:39Z</time>
      </trkpt>
      <trkpt lat="44.82735" lon="0.76406">
        <ele>81.2</ele>
        <time>2024-04-07T08:19:40Z</time>
      </trkpt>
      <trkpt lat="44.82728" lon="0.76404">
        <ele>79.9</ele>
        <time>2024-04-07T08:19:41Z</time>
      </trkpt>
      <trkpt lat="44.82714" lon="0.76398">
        <ele>78.2</ele>
        <time>2024-04-07T08:19:43Z</time>
      </trkpt>
      <trkpt lat="44.82701" lon="0.76392">
        <ele>78.7</ele>
        <time>2024-04-07T08:19:45Z</time>
      </trkpt>
      <trkpt lat="44.82691" lon="0.76389">
        <ele>79.2</ele>
        <time>2024-04-07T08:19:47Z</time>
      </trkpt>
      <trkpt lat="44.82682" lon="0.76385">
        <ele>79.5</ele>
        <time>2024-04-07T08:19:49Z</time>
      </trkpt>
      <trkpt lat="44.82674" lon="0.76383">
        <ele>79.9</ele>
        <time>2024-04-07T08:19:51Z</time>
      </trkpt>
      <trkpt lat="44.82671" lon="0.76383">
        <ele>80.1</ele>
        <time>2024-04-07T08:19:52Z</time>
      </trkpt>
      <trkpt lat="44.82668" lon="0.76383">
        <ele>80.2</ele>
        <time>2024-04-07T08:19:53Z</time>
      </trkpt>
      <trkpt lat="44.82663" lon="0.76382">
        <ele>80.5</ele>
        <time>2024-04-07T08:19:55Z</time>
      </trkpt>
      <trkpt lat="44.8266" lon="0.76382">
        <ele>80.6</ele>
        <time>2024-04-07T08:19:56Z</time>
      </trkpt>
      <trkpt lat="44.82657" lon="0.76382">
        <ele>80.8</ele>
        <time>2024-04-07T08:19:57Z</time>
      </trkpt>
      <trkpt lat="44.82653" lon="0.76381">
        <ele>81</ele>
        <time>2024-04-07T08:19:59Z</time>
      </trkpt>
      <trkpt lat="44.82649" lon="0.76383">
        <ele>81.2</ele>
        <time>2024-04-07T08:20:01Z</time>
      </trkpt>
      <trkpt lat="44.82647" lon="0.76383">
        <ele>81.3</ele>
        <time>2024-04-07T08:20:02Z</time>
      </trkpt>
      <trkpt lat="44.82645" lon="0.76382">
        <ele>81.4</ele>
        <time>2024-04-07T08:20:03Z</time>
      </trkpt>
      <trkpt lat="44.82641" lon="0.76383">
        <ele>81.6</ele>
        <time>2024-04-07T08:20:05Z</time>
      </trkpt>
      <trkpt lat="44.82637" lon="0.76384">
        <ele>81.8</ele>
        <time>2024-04-07T08:20:07Z</time>
      </trkpt>
      <trkpt lat="44.82632" lon="0.76384">
        <ele>82.1</ele>
        <time>2024-04-07T08:20:09Z</time>
      </trkpt>
      <trkpt lat="44.82628" lon="0.76384">
        <ele>82.3</ele>
        <time>2024-04-07T08:20:11Z</time>
      </trkpt>
      <trkpt lat="44.82623" lon="0.76385">
        <ele>82.5</ele>
        <time>2024-04-07T08:20:13Z</time>
      </trkpt>
      <trkpt lat="44.8262" lon="0.76385">
        <ele>82.7</ele>
        <time>2024-04-07T08:20:14Z</time>
      </trkpt>
      <trkpt lat="44.82617" lon="0.76387">
        <ele>82.8</ele>
        <time>2024-04-07T08:20:15Z</time>
      </trkpt>
      <trkpt lat="44.82616" lon="0.76387">
        <ele>82.9</ele>
        <time>2024-04-07T08:20:16Z</time>
      </trkpt>
      <trkpt lat="44.82614" lon="0.76387">
        <ele>83</ele>
        <time>2024-04-07T08:20:17Z</time>
      </trkpt>
      <trkpt lat="44.8261" lon="0.76389">
        <ele>83.1</ele>
        <time>2024-04-07T08:20:19Z</time>
      </trkpt>
      <trkpt lat="44.82606" lon="0.76389">
        <ele>83.3</ele>
        <time>2024-04-07T08:20:21Z</time>
      </trkpt>
      <trkpt lat="44.82601" lon="0.7639">
        <ele>83.5</ele>
        <time>2024-04-07T08:20:23Z</time>
      </trkpt>
      <trkpt lat="44.82599" lon="0.7639">
        <ele>83.6</ele>
        <time>2024-04-07T08:20:24Z</time>
      </trkpt>
      <trkpt lat="44.82597" lon="0.7639">
        <ele>83.7</ele>
        <time>2024-04-07T08:20:25Z</time>
      </trkpt>
      <trkpt lat="44.82595" lon="0.76391">
        <ele>83.8</ele>
        <time>2024-04-07T08:20:26Z</time>
      </trkpt>
      <trkpt lat="44.82593" lon="0.76392">
        <ele>83.8</ele>
        <time>2024-04-07T08:20:27Z</time>
      </trkpt>
      <trkpt lat="44.82591" lon="0.76392">
        <ele>83.9</ele>
        <time>2024-04-07T08:20:29Z</time>
      </trkpt>
      <trkpt lat="44.82587" lon="0.76391">
        <ele>84.1</ele>
        <time>2024-04-07T08:20:31Z</time>
      </trkpt>
      <trkpt lat="44.82584" lon="0.76391">
        <ele>84.2</ele>
        <time>2024-04-07T08:20:33Z</time>
      </trkpt>
      <trkpt lat="44.82579" lon="0.76391">
        <ele>84.3</ele>
        <time>2024-04-07T08:20:35Z</time>
      </trkpt>
      <trkpt lat="44.82577" lon="0.76391">
        <ele>84.4</ele>
        <time>2024-04-07T08:20:36Z</time>
      </trkpt>
      <trkpt lat="44.82575" lon="0.76392">
        <ele>84.5</ele>
        <time>2024-04-07T08:20:37Z</time>
      </trkpt>
      <trkpt lat="44.8257" lon="0.76393">
        <ele>84.7</ele>
        <time>2024-04-07T08:20:39Z</time>
      </trkpt>
      <trkpt lat="44.82565" lon="0.76394">
        <ele>84.8</ele>
        <time>2024-04-07T08:20:41Z</time>
      </trkpt>
      <trkpt lat="44.82559" lon="0.76395">
        <ele>85</ele>
        <time>2024-04-07T08:20:43Z</time>
      </trkpt>
      <trkpt lat="44.82553" lon="0.76396">
        <ele>85.2</ele>
        <time>2024-04-07T08:20:45Z</time>
      </trkpt>
      <trkpt lat="44.82547" lon="0.76398">
        <ele>85.3</ele>
        <time>2024-04-07T08:20:47Z</time>
      </trkpt>
      <trkpt lat="44.82542" lon="0.764">
        <ele>85.5</ele>
        <time>2024-04-07T08:20:49Z</time>
      </trkpt>
      <trkpt lat="44.82536" lon="0.76403">
        <ele>85.7</ele>
        <time>2024-04-07T08:20:51Z</time>
      </trkpt>
      <trkpt lat="44.8253" lon="0.76406">
        <ele>85.9</ele>
        <time>2024-04-07T08:20:53Z</time>
      </trkpt>
      <trkpt lat="44.82524" lon="0.76407">
        <ele>86</ele>
        <time>2024-04-07T08:20:55Z</time>
      </trkpt>
      <trkpt lat="44.8252" lon="0.76407">
        <ele>86.1</ele>
        <time>2024-04-07T08:20:56Z</time>
      </trkpt>
      <trkpt lat="44.82517" lon="0.76407">
        <ele>86.2</ele>
        <time>2024-04-07T08:20:57Z</time>
      </trkpt>
      <trkpt lat="44.8251" lon="0.76408">
        <ele>86.4</ele>
        <time>2024-04-07T08:20:59Z</time>
      </trkpt>
      <trkpt lat="44.82504" lon="0.76408">
        <ele>86.5</ele>
        <time>2024-04-07T08:21:01Z</time>
      </trkpt>
      <trkpt lat="44.82498" lon="0.76408">
        <ele>86.7</ele>
        <time>2024-04-07T08:21:03Z</time>
      </trkpt>
      <trkpt lat="44.82491" lon="0.76408">
        <ele>86.8</ele>
        <time>2024-04-07T08:21:05Z</time>
      </trkpt>
      <trkpt lat="44.82485" lon="0.76408">
        <ele>86.9</ele>
        <time>2024-04-07T08:21:07Z</time>
      </trkpt>
      <trkpt lat="44.82479" lon="0.76408">
        <ele>87</ele>
        <time>2024-04-07T08:21:09Z</time>
      </trkpt>
      <trkpt lat="44.82472" lon="0.76408">
        <ele>87.1</ele>
        <time>2024-04-07T08:21:11Z</time>
      </trkpt>
      <trkpt lat="44.82466" lon="0.76406">
        <ele>87.3</ele>
        <time>2024-04-07T08:21:13Z</time>
      </trkpt>
      <trkpt lat="44.82462" lon="0.76404">
        <ele>87.3</ele>
        <time>2024-04-07T08:21:14Z</time>
      </trkpt>
      <trkpt lat="44.82459" lon="0.76404">
        <ele>87.4</ele>
        <time>2024-04-07T08:21:15Z</time>
      </trkpt>
      <trkpt lat="44.82452" lon="0.76402">
        <ele>87.5</ele>
        <time>2024-04-07T08:21:17Z</time>
      </trkpt>
      <trkpt lat="44.82445" lon="0.76402">
        <ele>87.6</ele>
        <time>2024-04-07T08:21:19Z</time>
      </trkpt>
      <trkpt lat="44.82439" lon="0.76401">
        <ele>87.7</ele>
        <time>2024-04-07T08:21:21Z</time>
      </trkpt>
      <trkpt lat="44.82436" lon="0.76401">
        <ele>87.7</ele>
        <time>2024-04-07T08:21:22Z</time>
      </trkpt>
      <trkpt lat="44.82433" lon="0.76402">
        <ele>87.8</ele>
        <time>2024-04-07T08:21:23Z</time>
      </trkpt>
      <trkpt lat="44.82427" lon="0.76402">
        <ele>87.9</ele>
        <time>2024-04-07T08:21:25Z</time>
      </trkpt>
      <trkpt lat="44.82421" lon="0.76402">
        <ele>87.9</ele>
        <time>2024-04-07T08:21:27Z</time>
      </trkpt>
      <trkpt lat="44.82415" lon="0.76402">
        <ele>88</ele>
        <time>2024-04-07T08:21:29Z</time>
      </trkpt>
      <trkpt lat="44.82409" lon="0.764">
        <ele>88.1</ele>
        <time>2024-04-07T08:21:31Z</time>
      </trkpt>
      <trkpt lat="44.82403" lon="0.76399">
        <ele>88.3</ele>
        <time>2024-04-07T08:21:33Z</time>
      </trkpt>
      <trkpt lat="44.82397" lon="0.76399">
        <ele>88.4</ele>
        <time>2024-04-07T08:21:35Z</time>
      </trkpt>
      <trkpt lat="44.8239" lon="0.76399">
        <ele>88.5</ele>
        <time>2024-04-07T08:21:37Z</time>
      </trkpt>
      <trkpt lat="44.82387" lon="0.76398">
        <ele>88.5</ele>
        <time>2024-04-07T08:21:38Z</time>
      </trkpt>
      <trkpt lat="44.82385" lon="0.76395">
        <ele>88.6</ele>
        <time>2024-04-07T08:21:39Z</time>
      </trkpt>
      <trkpt lat="44.82384" lon="0.7639">
        <ele>88.8</ele>
        <time>2024-04-07T08:21:40Z</time>
      </trkpt>
      <trkpt lat="44.82384" lon="0.76385">
        <ele>89</ele>
        <time>2024-04-07T08:21:41Z</time>
      </trkpt>
      <trkpt lat="44.82385" lon="0.76375">
        <ele>89.3</ele>
        <time>2024-04-07T08:21:43Z</time>
      </trkpt>
      <trkpt lat="44.82386" lon="0.76366">
        <ele>89.8</ele>
        <time>2024-04-07T08:21:45Z</time>
      </trkpt>
      <trkpt lat="44.82387" lon="0.76362">
        <ele>90.1</ele>
        <time>2024-04-07T08:21:46Z</time>
      </trkpt>
      <trkpt lat="44.82388" lon="0.76358">
        <ele>90.5</ele>
        <time>2024-04-07T08:21:47Z</time>
      </trkpt>
      <trkpt lat="44.82389" lon="0.76351">
        <ele>91.1</ele>
        <time>2024-04-07T08:21:49Z</time>
      </trkpt>
      <trkpt lat="44.82389" lon="0.76346">
        <ele>91.5</ele>
        <time>2024-04-07T08:21:51Z</time>
      </trkpt>
      <trkpt lat="44.8239" lon="0.76344">
        <ele>91.8</ele>
        <time>2024-04-07T08:21:52Z</time>
      </trkpt>
      <trkpt lat="44.8239" lon="0.76342">
        <ele>92</ele>
        <time>2024-04-07T08:21:53Z</time>
      </trkpt>
      <trkpt lat="44.82391" lon="0.76338">
        <ele>92.5</ele>
        <time>2024-04-07T08:21:55Z</time>
      </trkpt>
      <trkpt lat="44.82392" lon="0.76334">
        <ele>93</ele>
        <time>2024-04-07T08:21:57Z</time>
      </trkpt>
      <trkpt lat="44.82393" lon="0.76331">
        <ele>93.5</ele>
        <time>2024-04-07T08:21:59Z</time>
      </trkpt>
      <trkpt lat="44.82393" lon="0.76327">
        <ele>94</ele>
        <time>2024-04-07T08:22:01Z</time>
      </trkpt>
      <trkpt lat="44.82393" lon="0.76323">
        <ele>94.6</ele>
        <time>2024-04-07T08:22:03Z</time>
      </trkpt>
      <trkpt lat="44.82393" lon="0.7632">
        <ele>95</ele>
        <time>2024-04-07T08:22:05Z</time>
      </trkpt>
      <trkpt lat="44.82393" lon="0.76316">
        <ele>95.6</ele>
        <time>2024-04-07T08:22:07Z</time>
      </trkpt>
      <trkpt lat="44.82394" lon="0.76315">
        <ele>95.9</ele>
        <time>2024-04-07T08:22:08Z</time>
      </trkpt>
      <trkpt lat="44.82394" lon="0.76313">
        <ele>96.1</ele>
        <time>2024-04-07T08:22:09Z</time>
      </trkpt>
      <trkpt lat="44.82394" lon="0.76312">
        <ele>96.3</ele>
        <time>2024-04-07T08:22:10Z</time>
      </trkpt>
      <trkpt lat="44.82394" lon="0.7631">
        <ele>96.6</ele>
        <time>2024-04-07T08:22:11Z</time>
      </trkpt>
      <trkpt lat="44.82394" lon="0.76308">
        <ele>97</ele>
        <time>2024-04-07T08:22:12Z</time>
      </trkpt>
      <trkpt lat="44.82394" lon="0.76306">
        <ele>97.2</ele>
        <time>2024-04-07T08:22:13Z</time>
      </trkpt>
      <trkpt lat="44.82394" lon="0.76304">
        <ele>97.6</ele>
        <time>2024-04-07T08:22:15Z</time>
      </trkpt>
      <trkpt lat="44.82393" lon="0.76303">
        <ele>97.9</ele>
        <time>2024-04-07T08:22:16Z</time>
      </trkpt>
      <trkpt lat="44.82393" lon="0.76301">
        <ele>98.1</ele>
        <time>2024-04-07T08:22:17Z</time>
      </trkpt>
      <trkpt lat="44.82392" lon="0.76299">
        <ele>98.5</ele>
        <time>2024-04-07T08:22:19Z</time>
      </trkpt>
      <trkpt lat="44.82391" lon="0.76296">
        <ele>99</ele>
        <time>2024-04-07T08:22:21Z</time>
      </trkpt>
      <trkpt lat="44.82391" lon="0.76295">
        <ele>99.2</ele>
        <time>2024-04-07T08:22:22Z</time>
      </trkpt>
      <trkpt lat="44.82391" lon="0.76293">
        <ele>99.5</ele>
        <time>2024-04-07T08:22:23Z</time>
      </trkpt>
      <trkpt lat="44.82389" lon="0.7629">
        <ele>100.1</ele>
        <time>2024-04-07T08:22:25Z</time>
      </trkpt>
      <trkpt lat="44.82387" lon="0.76286">
        <ele>100.8</ele>
        <time>2024-04-07T08:22:27Z</time>
      </trkpt>
      <trkpt lat="44.82387" lon="0.76286">
        <ele>100.9</ele>
        <time>2024-04-07T08:22:28Z</time>
      </trkpt>
      <trkpt lat="44.82386" lon="0.76284">
        <ele>101.2</ele>
        <time>2024-04-07T08:22:29Z</time>
      </trkpt>
      <trkpt lat="44.82384" lon="0.76282">
        <ele>101.6</ele>
        <time>2024-04-07T08:22:31Z</time>
      </trkpt>
      <trkpt lat="44.82383" lon="0.7628">
        <ele>102.1</ele>
        <time>2024-04-07T08:22:33Z</time>
      </trkpt>
      <trkpt lat="44.82382" lon="0.7628">
        <ele>102.3</ele>
        <time>2024-04-07T08:22:34Z</time>
      </trkpt>
      <trkpt lat="44.82381" lon="0.76279">
        <ele>102.6</ele>
        <time>2024-04-07T08:22:35Z</time>
      </trkpt>
      <trkpt lat="44.82379" lon="0.76276">
        <ele>103.1</ele>
        <time>2024-04-07T08:22:37Z</time>
      </trkpt>
      <trkpt lat="44.82376" lon="0.76273">
        <ele>103.6</ele>
        <time>2024-04-07T08:22:39Z</time>
      </trkpt>
      <trkpt lat="44.82374" lon="0.7627">
        <ele>104.2</ele>
        <time>2024-04-07T08:22:41Z</time>
      </trkpt>
      <trkpt lat="44.82372" lon="0.76268">
        <ele>104.8</ele>
        <time>2024-04-07T08:22:43Z</time>
      </trkpt>
      <trkpt lat="44.8237" lon="0.76265">
        <ele>105.3</ele>
        <time>2024-04-07T08:22:45Z</time>
      </trkpt>
      <trkpt lat="44.82369" lon="0.76263">
        <ele>105.6</ele>
        <time>2024-04-07T08:22:47Z</time>
      </trkpt>
      <trkpt lat="44.82367" lon="0.76262">
        <ele>105.9</ele>
        <time>2024-04-07T08:22:49Z</time>
      </trkpt>
      <trkpt lat="44.82365" lon="0.76261">
        <ele>106.4</ele>
        <time>2024-04-07T08:22:51Z</time>
      </trkpt>
      <trkpt lat="44.82362" lon="0.76258">
        <ele>107</ele>
        <time>2024-04-07T08:22:53Z</time>
      </trkpt>
      <trkpt lat="44.8236" lon="0.76256">
        <ele>107.5</ele>
        <time>2024-04-07T08:22:55Z</time>
      </trkpt>
      <trkpt lat="44.82359" lon="0.76253">
        <ele>107.9</ele>
        <time>2024-04-07T08:22:57Z</time>
      </trkpt>
      <trkpt lat="44.82358" lon="0.7625">
        <ele>108.3</ele>
        <time>2024-04-07T08:22:59Z</time>
      </trkpt>
      <trkpt lat="44.82357" lon="0.76249">
        <ele>108.5</ele>
        <time>2024-04-07T08:23:00Z</time>
      </trkpt>
      <trkpt lat="44.82356" lon="0.76248">
        <ele>108.7</ele>
        <time>2024-04-07T08:23:01Z</time>
      </trkpt>
      <trkpt lat="44.82355" lon="0.76246">
        <ele>109</ele>
        <time>2024-04-07T08:23:02Z</time>
      </trkpt>
      <trkpt lat="44.82354" lon="0.76245">
        <ele>109.3</ele>
        <time>2024-04-07T08:23:03Z</time>
      </trkpt>
      <trkpt lat="44.82353" lon="0.76242">
        <ele>109.8</ele>
        <time>2024-04-07T08:23:05Z</time>
      </trkpt>
      <trkpt lat="44.82352" lon="0.76241">
        <ele>110</ele>
        <time>2024-04-07T08:23:06Z</time>
      </trkpt>
      <trkpt lat="44.82351" lon="0.76239">
        <ele>110.3</ele>
        <time>2024-04-07T08:23:07Z</time>
      </trkpt>
      <trkpt lat="44.8235" lon="0.76237">
        <ele>110.7</ele>
        <time>2024-04-07T08:23:09Z</time>
      </trkpt>
      <trkpt lat="44.82349" lon="0.76235">
        <ele>111</ele>
        <time>2024-04-07T08:23:10Z</time>
      </trkpt>
      <trkpt lat="44.82348" lon="0.76233">
        <ele>111.3</ele>
        <time>2024-04-07T08:23:11Z</time>
      </trkpt>
      <trkpt lat="44.82348" lon="0.76231">
        <ele>111.6</ele>
        <time>2024-04-07T08:23:12Z</time>
      </trkpt>
      <trkpt lat="44.82347" lon="0.7623">
        <ele>111.9</ele>
        <time>2024-04-07T08:23:13Z</time>
      </trkpt>
      <trkpt lat="44.82345" lon="0.76227">
        <ele>112.3</ele>
        <time>2024-04-07T08:23:15Z</time>
      </trkpt>
      <trkpt lat="44.82344" lon="0.76224">
        <ele>112.8</ele>
        <time>2024-04-07T08:23:17Z</time>
      </trkpt>
      <trkpt lat="44.82343" lon="0.76222">
        <ele>113.2</ele>
        <time>2024-04-07T08:23:19Z</time>
      </trkpt>
      <trkpt lat="44.82341" lon="0.76219">
        <ele>113.8</ele>
        <time>2024-04-07T08:23:21Z</time>
      </trkpt>
      <trkpt lat="44.82339" lon="0.76215">
        <ele>114.3</ele>
        <time>2024-04-07T08:23:23Z</time>
      </trkpt>
      <trkpt lat="44.82337" lon="0.76214">
        <ele>114.7</ele>
        <time>2024-04-07T08:23:25Z</time>
      </trkpt>
      <trkpt lat="44.82336" lon="0.7621">
        <ele>115.3</ele>
        <time>2024-04-07T08:23:27Z</time>
      </trkpt>
      <trkpt lat="44.82333" lon="0.76207">
        <ele>115.9</ele>
        <time>2024-04-07T08:23:29Z</time>
      </trkpt>
      <trkpt lat="44.82331" lon="0.76203">
        <ele>116.5</ele>
        <time>2024-04-07T08:23:31Z</time>
      </trkpt>
      <trkpt lat="44.82329" lon="0.76199">
        <ele>117.1</ele>
        <time>2024-04-07T08:23:33Z</time>
      </trkpt>
      <trkpt lat="44.8233" lon="0.76197">
        <ele>117.2</ele>
        <time>2024-04-07T08:23:34Z</time>
      </trkpt>
      <trkpt lat="44.8233" lon="0.76194">
        <ele>117.5</ele>
        <time>2024-04-07T08:23:35Z</time>
      </trkpt>
      <trkpt lat="44.82331" lon="0.76192">
        <ele>117.6</ele>
        <time>2024-04-07T08:23:36Z</time>
      </trkpt>
      <trkpt lat="44.82331" lon="0.76191">
        <ele>117.8</ele>
        <time>2024-04-07T08:23:37Z</time>
      </trkpt>
      <trkpt lat="44.82333" lon="0.76189">
        <ele>118.1</ele>
        <time>2024-04-07T08:23:39Z</time>
      </trkpt>
      <trkpt lat="44.82334" lon="0.76188">
        <ele>118.2</ele>
        <time>2024-04-07T08:23:40Z</time>
      </trkpt>
      <trkpt lat="44.82334" lon="0.76186">
        <ele>118.3</ele>
        <time>2024-04-07T08:23:41Z</time>
      </trkpt>
      <trkpt lat="44.82335" lon="0.76183">
        <ele>118.6</ele>
        <time>2024-04-07T08:23:43Z</time>
      </trkpt>
      <trkpt lat="44.82337" lon="0.76181">
        <ele>118.9</ele>
        <time>2024-04-07T08:23:45Z</time>
      </trkpt>
      <trkpt lat="44.82339" lon="0.76178">
        <ele>119.1</ele>
        <time>2024-04-07T08:23:47Z</time>
      </trkpt>
      <trkpt lat="44.82341" lon="0.76177">
        <ele>119.4</ele>
        <time>2024-04-07T08:23:49Z</time>
      </trkpt>
      <trkpt lat="44.82343" lon="0.76175">
        <ele>119.6</ele>
        <time>2024-04-07T08:23:51Z</time>
      </trkpt>
      <trkpt lat="44.82345" lon="0.76172">
        <ele>119.9</ele>
        <time>2024-04-07T08:23:53Z</time>
      </trkpt>
      <trkpt lat="44.82346" lon="0.76171">
        <ele>120.1</ele>
        <time>2024-04-07T08:23:54Z</time>
      </trkpt>
      <trkpt lat="44.82346" lon="0.7617">
        <ele>120.2</ele>
        <time>2024-04-07T08:23:55Z</time>
      </trkpt>
      <trkpt lat="44.82348" lon="0.76167">
        <ele>120.5</ele>
        <time>2024-04-07T08:23:57Z</time>
      </trkpt>
      <trkpt lat="44.8235" lon="0.76164">
        <ele>120.7</ele>
        <time>2024-04-07T08:23:59Z</time>
      </trkpt>
      <trkpt lat="44.82352" lon="0.76161">
        <ele>121.1</ele>
        <time>2024-04-07T08:24:01Z</time>
      </trkpt>
      <trkpt lat="44.82353" lon="0.76158">
        <ele>121.3</ele>
        <time>2024-04-07T08:24:03Z</time>
      </trkpt>
      <trkpt lat="44.82354" lon="0.76157">
        <ele>121.5</ele>
        <time>2024-04-07T08:24:04Z</time>
      </trkpt>
      <trkpt lat="44.82355" lon="0.76156">
        <ele>121.6</ele>
        <time>2024-04-07T08:24:05Z</time>
      </trkpt>
      <trkpt lat="44.82356" lon="0.76154">
        <ele>121.8</ele>
        <time>2024-04-07T08:24:06Z</time>
      </trkpt>
      <trkpt lat="44.82356" lon="0.76152">
        <ele>122</ele>
        <time>2024-04-07T08:24:07Z</time>
      </trkpt>
      <trkpt lat="44.82358" lon="0.76151">
        <ele>122.2</ele>
        <time>2024-04-07T08:24:09Z</time>
      </trkpt>
      <trkpt lat="44.82359" lon="0.76148">
        <ele>122.5</ele>
        <time>2024-04-07T08:24:11Z</time>
      </trkpt>
      <trkpt lat="44.8236" lon="0.76147">
        <ele>122.7</ele>
        <time>2024-04-07T08:24:13Z</time>
      </trkpt>
      <trkpt lat="44.82361" lon="0.76144">
        <ele>123</ele>
        <time>2024-04-07T08:24:15Z</time>
      </trkpt>
      <trkpt lat="44.82362" lon="0.76142">
        <ele>123.2</ele>
        <time>2024-04-07T08:24:17Z</time>
      </trkpt>
      <trkpt lat="44.82363" lon="0.76139">
        <ele>123.5</ele>
        <time>2024-04-07T08:24:19Z</time>
      </trkpt>
      <trkpt lat="44.82364" lon="0.76136">
        <ele>123.8</ele>
        <time>2024-04-07T08:24:21Z</time>
      </trkpt>
      <trkpt lat="44.82365" lon="0.76134">
        <ele>124.1</ele>
        <time>2024-04-07T08:24:23Z</time>
      </trkpt>
      <trkpt lat="44.82366" lon="0.76131">
        <ele>124.4</ele>
        <time>2024-04-07T08:24:25Z</time>
      </trkpt>
      <trkpt lat="44.82367" lon="0.76129">
        <ele>124.7</ele>
        <time>2024-04-07T08:24:27Z</time>
      </trkpt>
      <trkpt lat="44.82368" lon="0.76126">
        <ele>124.9</ele>
        <time>2024-04-07T08:24:29Z</time>
      </trkpt>
      <trkpt lat="44.82369" lon="0.76124">
        <ele>125.1</ele>
        <time>2024-04-07T08:24:31Z</time>
      </trkpt>
      <trkpt lat="44.82369" lon="0.76121">
        <ele>125.3</ele>
        <time>2024-04-07T08:24:33Z</time>
      </trkpt>
      <trkpt lat="44.8237" lon="0.76118">
        <ele>125.6</ele>
        <time>2024-04-07T08:24:35Z</time>
      </trkpt>
      <trkpt lat="44.82371" lon="0.76115">
        <ele>125.9</ele>
        <time>2024-04-07T08:24:37Z</time>
      </trkpt>
      <trkpt lat="44.82372" lon="0.76112">
        <ele>126.1</ele>
        <time>2024-04-07T08:24:39Z</time>
      </trkpt>
      <trkpt lat="44.82373" lon="0.76109">
        <ele>126.4</ele>
        <time>2024-04-07T08:24:41Z</time>
      </trkpt>
      <trkpt lat="44.82375" lon="0.76106">
        <ele>126.7</ele>
        <time>2024-04-07T08:24:43Z</time>
      </trkpt>
      <trkpt lat="44.82375" lon="0.76103">
        <ele>126.9</ele>
        <time>2024-04-07T08:24:45Z</time>
      </trkpt>
      <trkpt lat="44.82376" lon="0.761">
        <ele>127.2</ele>
        <time>2024-04-07T08:24:47Z</time>
      </trkpt>
      <trkpt lat="44.82377" lon="0.76098">
        <ele>127.4</ele>
        <time>2024-04-07T08:24:49Z</time>
      </trkpt>
      <trkpt lat="44.82377" lon="0.76096">
        <ele>127.5</ele>
        <time>2024-04-07T08:24:50Z</time>
      </trkpt>
      <trkpt lat="44.82378" lon="0.76095">
        <ele>127.6</ele>
        <time>2024-04-07T08:24:51Z</time>
      </trkpt>
      <trkpt lat="44.82378" lon="0.76092">
        <ele>127.8</ele>
        <time>2024-04-07T08:24:53Z</time>
      </trkpt>
      <trkpt lat="44.82379" lon="0.76089">
        <ele>128</ele>
        <time>2024-04-07T08:24:55Z</time>
      </trkpt>
      <trkpt lat="44.82379" lon="0.76086">
        <ele>128.2</ele>
        <time>2024-04-07T08:24:57Z</time>
      </trkpt>
      <trkpt lat="44.8238" lon="0.76083">
        <ele>128.4</ele>
        <time>2024-04-07T08:24:59Z</time>
      </trkpt>
      <trkpt lat="44.82381" lon="0.7608">
        <ele>128.6</ele>
        <time>2024-04-07T08:25:01Z</time>
      </trkpt>
      <trkpt lat="44.82382" lon="0.76077">
        <ele>128.8</ele>
        <time>2024-04-07T08:25:03Z</time>
      </trkpt>
      <trkpt lat="44.82384" lon="0.76074">
        <ele>129</ele>
        <time>2024-04-07T08:25:05Z</time>
      </trkpt>
      <trkpt lat="44.82386" lon="0.76072">
        <ele>129.1</ele>
        <time>2024-04-07T08:25:07Z</time>
      </trkpt>
      <trkpt lat="44.82387" lon="0.76069">
        <ele>129.3</ele>
        <time>2024-04-07T08:25:09Z</time>
      </trkpt>
      <trkpt lat="44.82389" lon="0.76067">
        <ele>129.4</ele>
        <time>2024-04-07T08:25:11Z</time>
      </trkpt>
      <trkpt lat="44.82391" lon="0.76066">
        <ele>129.5</ele>
        <time>2024-04-07T08:25:13Z</time>
      </trkpt>
      <trkpt lat="44.82392" lon="0.76064">
        <ele>129.6</ele>
        <time>2024-04-07T08:25:14Z</time>
      </trkpt>
      <trkpt lat="44.82392" lon="0.76063">
        <ele>129.6</ele>
        <time>2024-04-07T08:25:15Z</time>
      </trkpt>
      <trkpt lat="44.82393" lon="0.76062">
        <ele>129.7</ele>
        <time>2024-04-07T08:25:16Z</time>
      </trkpt>
      <trkpt lat="44.82394" lon="0.76061">
        <ele>129.7</ele>
        <time>2024-04-07T08:25:17Z</time>
      </trkpt>
      <trkpt lat="44.82395" lon="0.7606">
        <ele>129.8</ele>
        <time>2024-04-07T08:25:18Z</time>
      </trkpt>
      <trkpt lat="44.82396" lon="0.76059">
        <ele>129.8</ele>
        <time>2024-04-07T08:25:19Z</time>
      </trkpt>
      <trkpt lat="44.82399" lon="0.76057">
        <ele>129.9</ele>
        <time>2024-04-07T08:25:21Z</time>
      </trkpt>
      <trkpt lat="44.82401" lon="0.76054">
        <ele>130</ele>
        <time>2024-04-07T08:25:23Z</time>
      </trkpt>
      <trkpt lat="44.82402" lon="0.76053">
        <ele>130.1</ele>
        <time>2024-04-07T08:25:24Z</time>
      </trkpt>
      <trkpt lat="44.82403" lon="0.76051">
        <ele>130.2</ele>
        <time>2024-04-07T08:25:25Z</time>
      </trkpt>
      <trkpt lat="44.82405" lon="0.76048">
        <ele>130.4</ele>
        <time>2024-04-07T08:25:27Z</time>
      </trkpt>
      <trkpt lat="44.82406" lon="0.76046">
        <ele>130.4</ele>
        <time>2024-04-07T08:25:28Z</time>
      </trkpt>
      <trkpt lat="44.82406" lon="0.76044">
        <ele>130.5</ele>
        <time>2024-04-07T08:25:29Z</time>
      </trkpt>
      <trkpt lat="44.82408" lon="0.76041">
        <ele>130.7</ele>
        <time>2024-04-07T08:25:31Z</time>
      </trkpt>
      <trkpt lat="44.82409" lon="0.76037">
        <ele>130.9</ele>
        <time>2024-04-07T08:25:33Z</time>
      </trkpt>
      <trkpt lat="44.82411" lon="0.76033">
        <ele>131</ele>
        <time>2024-04-07T08:25:35Z</time>
      </trkpt>
      <trkpt lat="44.82412" lon="0.7603">
        <ele>131.2</ele>
        <time>2024-04-07T08:25:37Z</time>
      </trkpt>
      <trkpt lat="44.82413" lon="0.76026">
        <ele>131.3</ele>
        <time>2024-04-07T08:25:39Z</time>
      </trkpt>
      <trkpt lat="44.82414" lon="0.76023">
        <ele>131.5</ele>
        <time>2024-04-07T08:25:41Z</time>
      </trkpt>
      <trkpt lat="44.82415" lon="0.76019">
        <ele>131.6</ele>
        <time>2024-04-07T08:25:43Z</time>
      </trkpt>
      <trkpt lat="44.82416" lon="0.76016">
        <ele>131.8</ele>
        <time>2024-04-07T08:25:45Z</time>
      </trkpt>
      <trkpt lat="44.82417" lon="0.76013">
        <ele>131.9</ele>
        <time>2024-04-07T08:25:47Z</time>
      </trkpt>
      <trkpt lat="44.82417" lon="0.76012">
        <ele>131.9</ele>
        <time>2024-04-07T08:25:48Z</time>
      </trkpt>
      <trkpt lat="44.82417" lon="0.76012">
        <ele>131.9</ele>
        <time>2024-04-07T08:25:49Z</time>
      </trkpt>
      <trkpt lat="44.82419" lon="0.76005">
        <ele>132.2</ele>
        <time>2024-04-07T08:26:23Z</time>
      </trkpt>
      <trkpt lat="44.8242" lon="0.76003">
        <ele>132.3</ele>
        <time>2024-04-07T08:26:24Z</time>
      </trkpt>
      <trkpt lat="44.8242" lon="0.76001">
        <ele>132.4</ele>
        <time>2024-04-07T08:26:25Z</time>
      </trkpt>
      <trkpt lat="44.82421" lon="0.75997">
        <ele>132.5</ele>
        <time>2024-04-07T08:26:27Z</time>
      </trkpt>
      <trkpt lat="44.82422" lon="0.75993">
        <ele>132.7</ele>
        <time>2024-04-07T08:26:29Z</time>
      </trkpt>
      <trkpt lat="44.82423" lon="0.7599">
        <ele>132.8</ele>
        <time>2024-04-07T08:26:31Z</time>
      </trkpt>
      <trkpt lat="44.82423" lon="0.75986">
        <ele>132.9</ele>
        <time>2024-04-07T08:26:33Z</time>
      </trkpt>
      <trkpt lat="44.82424" lon="0.75982">
        <ele>133</ele>
        <time>2024-04-07T08:26:35Z</time>
      </trkpt>
      <trkpt lat="44.82425" lon="0.75978">
        <ele>133.1</ele>
        <time>2024-04-07T08:26:37Z</time>
      </trkpt>
      <trkpt lat="44.82426" lon="0.75972">
        <ele>133.3</ele>
        <time>2024-04-07T08:26:39Z</time>
      </trkpt>
      <trkpt lat="44.82427" lon="0.75967">
        <ele>133.4</ele>
        <time>2024-04-07T08:26:41Z</time>
      </trkpt>
      <trkpt lat="44.82428" lon="0.75961">
        <ele>133.5</ele>
        <time>2024-04-07T08:26:43Z</time>
      </trkpt>
      <trkpt lat="44.82428" lon="0.75958">
        <ele>133.5</ele>
        <time>2024-04-07T08:26:44Z</time>
      </trkpt>
      <trkpt lat="44.82428" lon="0.75955">
        <ele>133.6</ele>
        <time>2024-04-07T08:26:45Z</time>
      </trkpt>
      <trkpt lat="44.82429" lon="0.75949">
        <ele>133.6</ele>
        <time>2024-04-07T08:26:47Z</time>
      </trkpt>
      <trkpt lat="44.82429" lon="0.75941">
        <ele>133.8</ele>
        <time>2024-04-07T08:26:49Z</time>
      </trkpt>
      <trkpt lat="44.8243" lon="0.75936">
        <ele>133.8</ele>
        <time>2024-04-07T08:26:50Z</time>
      </trkpt>
      <trkpt lat="44.8243" lon="0.75933">
        <ele>134</ele>
        <time>2024-04-07T08:26:51Z</time>
      </trkpt>
      <trkpt lat="44.82433" lon="0.75928">
        <ele>134.3</ele>
        <time>2024-04-07T08:26:53Z</time>
      </trkpt>
      <trkpt lat="44.82435" lon="0.75927">
        <ele>134.5</ele>
        <time>2024-04-07T08:26:54Z</time>
      </trkpt>
      <trkpt lat="44.82438" lon="0.75926">
        <ele>134.6</ele>
        <time>2024-04-07T08:26:55Z</time>
      </trkpt>
      <trkpt lat="44.82442" lon="0.75922">
        <ele>134.9</ele>
        <time>2024-04-07T08:26:57Z</time>
      </trkpt>
      <trkpt lat="44.82445" lon="0.75916">
        <ele>134.6</ele>
        <time>2024-04-07T08:26:59Z</time>
      </trkpt>
      <trkpt lat="44.82446" lon="0.75909">
        <ele>134.2</ele>
        <time>2024-04-07T08:27:01Z</time>
      </trkpt>
      <trkpt lat="44.82447" lon="0.75899">
        <ele>133.7</ele>
        <time>2024-04-07T08:27:03Z</time>
      </trkpt>
      <trkpt lat="44.82448" lon="0.75888">
        <ele>133.1</ele>
        <time>2024-04-07T08:27:05Z</time>
      </trkpt>
      <trkpt lat="44.82449" lon="0.75878">
        <ele>132.4</ele>
        <time>2024-04-07T08:27:07Z</time>
      </trkpt>
      <trkpt lat="44.82449" lon="0.75867">
        <ele>131.7</ele>
        <time>2024-04-07T08:27:09Z</time>
      </trkpt>
      <trkpt lat="44.82451" lon="0.75854">
        <ele>130.7</ele>
        <time>2024-04-07T08:27:11Z</time>
      </trkpt>
      <trkpt lat="44.82453" lon="0.75837">
        <ele>129.5</ele>
        <time>2024-04-07T08:27:13Z</time>
      </trkpt>
      <trkpt lat="44.82456" lon="0.75816">
        <ele>128.1</ele>
        <time>2024-04-07T08:27:15Z</time>
      </trkpt>
      <trkpt lat="44.82459" lon="0.75794">
        <ele>126.6</ele>
        <time>2024-04-07T08:27:17Z</time>
      </trkpt>
      <trkpt lat="44.82464" lon="0.75769">
        <ele>124.6</ele>
        <time>2024-04-07T08:27:19Z</time>
      </trkpt>
      <trkpt lat="44.82466" lon="0.75758">
        <ele>123.8</ele>
        <time>2024-04-07T08:27:20Z</time>
      </trkpt>
      <trkpt lat="44.82468" lon="0.75748">
        <ele>123.1</ele>
        <time>2024-04-07T08:27:21Z</time>
      </trkpt>
      <trkpt lat="44.82472" lon="0.75732">
        <ele>122.2</ele>
        <time>2024-04-07T08:27:23Z</time>
      </trkpt>
      <trkpt lat="44.82474" lon="0.75722">
        <ele>121.6</ele>
        <time>2024-04-07T08:27:25Z</time>
      </trkpt>
      <trkpt lat="44.82478" lon="0.75712">
        <ele>120.6</ele>
        <time>2024-04-07T08:27:27Z</time>
      </trkpt>
      <trkpt lat="44.82484" lon="0.75699">
        <ele>119.3</ele>
        <time>2024-04-07T08:27:29Z</time>
      </trkpt>
      <trkpt lat="44.82493" lon="0.75684">
        <ele>117.4</ele>
        <time>2024-04-07T08:27:31Z</time>
      </trkpt>
      <trkpt lat="44.82504" lon="0.75665">
        <ele>114.6</ele>
        <time>2024-04-07T08:27:33Z</time>
      </trkpt>
      <trkpt lat="44.82511" lon="0.75654">
        <ele>113</ele>
        <time>2024-04-07T08:27:34Z</time>
      </trkpt>
      <trkpt lat="44.82517" lon="0.75643">
        <ele>111.6</ele>
        <time>2024-04-07T08:27:35Z</time>
      </trkpt>
      <trkpt lat="44.82531" lon="0.75618">
        <ele>109.8</ele>
        <time>2024-04-07T08:27:37Z</time>
      </trkpt>
      <trkpt lat="44.82545" lon="0.75595">
        <ele>108.5</ele>
        <time>2024-04-07T08:27:39Z</time>
      </trkpt>
      <trkpt lat="44.82559" lon="0.75572">
        <ele>107.8</ele>
        <time>2024-04-07T08:27:41Z</time>
      </trkpt>
      <trkpt lat="44.82572" lon="0.7555">
        <ele>108</ele>
        <time>2024-04-07T08:27:43Z</time>
      </trkpt>
      <trkpt lat="44.82583" lon="0.75532">
        <ele>108.6</ele>
        <time>2024-04-07T08:27:45Z</time>
      </trkpt>
      <trkpt lat="44.82589" lon="0.75524">
        <ele>108.9</ele>
        <time>2024-04-07T08:27:46Z</time>
      </trkpt>
      <trkpt lat="44.82595" lon="0.75518">
        <ele>109.2</ele>
        <time>2024-04-07T08:27:47Z</time>
      </trkpt>
      <trkpt lat="44.82606" lon="0.75511">
        <ele>109.7</ele>
        <time>2024-04-07T08:27:49Z</time>
      </trkpt>
      <trkpt lat="44.82614" lon="0.75505">
        <ele>110</ele>
        <time>2024-04-07T08:27:51Z</time>
      </trkpt>
      <trkpt lat="44.82621" lon="0.75498">
        <ele>110.3</ele>
        <time>2024-04-07T08:27:53Z</time>
      </trkpt>
      <trkpt lat="44.82626" lon="0.75493">
        <ele>110.5</ele>
        <time>2024-04-07T08:27:55Z</time>
      </trkpt>
      <trkpt lat="44.82631" lon="0.7549">
        <ele>110.5</ele>
        <time>2024-04-07T08:27:57Z</time>
      </trkpt>
      <trkpt lat="44.82635" lon="0.75486">
        <ele>110.6</ele>
        <time>2024-04-07T08:27:59Z</time>
      </trkpt>
      <trkpt lat="44.82638" lon="0.75483">
        <ele>110.6</ele>
        <time>2024-04-07T08:28:00Z</time>
      </trkpt>
      <trkpt lat="44.8264" lon="0.7548">
        <ele>110.6</ele>
        <time>2024-04-07T08:28:01Z</time>
      </trkpt>
      <trkpt lat="44.82646" lon="0.75478">
        <ele>110.5</ele>
        <time>2024-04-07T08:28:03Z</time>
      </trkpt>
      <trkpt lat="44.82649" lon="0.75477">
        <ele>110.5</ele>
        <time>2024-04-07T08:28:04Z</time>
      </trkpt>
      <trkpt lat="44.82653" lon="0.75477">
        <ele>110.3</ele>
        <time>2024-04-07T08:28:05Z</time>
      </trkpt>
      <trkpt lat="44.82659" lon="0.75475">
        <ele>110</ele>
        <time>2024-04-07T08:28:07Z</time>
      </trkpt>
      <trkpt lat="44.82665" lon="0.75473">
        <ele>109.6</ele>
        <time>2024-04-07T08:28:09Z</time>
      </trkpt>
      <trkpt lat="44.82671" lon="0.75472">
        <ele>109.1</ele>
        <time>2024-04-07T08:28:11Z</time>
      </trkpt>
      <trkpt lat="44.82679" lon="0.75463">
        <ele>108.9</ele>
        <time>2024-04-07T08:28:13Z</time>
      </trkpt>
      <trkpt lat="44.82682" lon="0.75455">
        <ele>108.9</ele>
        <time>2024-04-07T08:28:14Z</time>
      </trkpt>
      <trkpt lat="44.82685" lon="0.75446">
        <ele>109</ele>
        <time>2024-04-07T08:28:15Z</time>
      </trkpt>
      <trkpt lat="44.82687" lon="0.75428">
        <ele>109.5</ele>
        <time>2024-04-07T08:28:17Z</time>
      </trkpt>
      <trkpt lat="44.82688" lon="0.7542">
        <ele>109.6</ele>
        <time>2024-04-07T08:28:18Z</time>
      </trkpt>
      <trkpt lat="44.82689" lon="0.75413">
        <ele>109.8</ele>
        <time>2024-04-07T08:28:19Z</time>
      </trkpt>
      <trkpt lat="44.82692" lon="0.75401">
        <ele>110.1</ele>
        <time>2024-04-07T08:28:21Z</time>
      </trkpt>
      <trkpt lat="44.82694" lon="0.75391">
        <ele>110.3</ele>
        <time>2024-04-07T08:28:23Z</time>
      </trkpt>
      <trkpt lat="44.82695" lon="0.75385">
        <ele>110.6</ele>
        <time>2024-04-07T08:28:25Z</time>
      </trkpt>
      <trkpt lat="44.82696" lon="0.75378">
        <ele>110.6</ele>
        <time>2024-04-07T08:28:27Z</time>
      </trkpt>
      <trkpt lat="44.82696" lon="0.75373">
        <ele>111</ele>
        <time>2024-04-07T08:28:29Z</time>
      </trkpt>
      <trkpt lat="44.82696" lon="0.75369">
        <ele>111.2</ele>
        <time>2024-04-07T08:28:31Z</time>
      </trkpt>
      <trkpt lat="44.82695" lon="0.75365">
        <ele>111.4</ele>
        <time>2024-04-07T08:28:33Z</time>
      </trkpt>
      <trkpt lat="44.82695" lon="0.7536">
        <ele>111.7</ele>
        <time>2024-04-07T08:28:35Z</time>
      </trkpt>
      <trkpt lat="44.82693" lon="0.75355">
        <ele>112</ele>
        <time>2024-04-07T08:28:37Z</time>
      </trkpt>
      <trkpt lat="44.82693" lon="0.75353">
        <ele>112.5</ele>
        <time>2024-04-07T08:28:38Z</time>
      </trkpt>
      <trkpt lat="44.82692" lon="0.75352">
        <ele>112.5</ele>
        <time>2024-04-07T08:28:39Z</time>
      </trkpt>
      <trkpt lat="44.8269" lon="0.75349">
        <ele>112.8</ele>
        <time>2024-04-07T08:28:41Z</time>
      </trkpt>
      <trkpt lat="44.82689" lon="0.75347">
        <ele>112.9</ele>
        <time>2024-04-07T08:28:43Z</time>
      </trkpt>
      <trkpt lat="44.82689" lon="0.75346">
        <ele>113.2</ele>
        <time>2024-04-07T08:28:44Z</time>
      </trkpt>
      <trkpt lat="44.82691" lon="0.75295">
        <ele>116.4</ele>
        <time>2024-04-07T08:29:09Z</time>
      </trkpt>
      <trkpt lat="44.82693" lon="0.75295">
        <ele>116.3</ele>
        <time>2024-04-07T08:29:11Z</time>
      </trkpt>
      <trkpt lat="44.82697" lon="0.75293">
        <ele>116.1</ele>
        <time>2024-04-07T08:29:13Z</time>
      </trkpt>
      <trkpt lat="44.82701" lon="0.75292">
        <ele>115.9</ele>
        <time>2024-04-07T08:29:15Z</time>
      </trkpt>
      <trkpt lat="44.82703" lon="0.75292">
        <ele>115.8</ele>
        <time>2024-04-07T08:29:16Z</time>
      </trkpt>
      <trkpt lat="44.82707" lon="0.75292">
        <ele>115.7</ele>
        <time>2024-04-07T08:29:17Z</time>
      </trkpt>
      <trkpt lat="44.82713" lon="0.75292">
        <ele>115.4</ele>
        <time>2024-04-07T08:29:19Z</time>
      </trkpt>
      <trkpt lat="44.82716" lon="0.75293">
        <ele>115.2</ele>
        <time>2024-04-07T08:29:20Z</time>
      </trkpt>
      <trkpt lat="44.82721" lon="0.75294">
        <ele>115</ele>
        <time>2024-04-07T08:29:21Z</time>
      </trkpt>
      <trkpt lat="44.82726" lon="0.75294">
        <ele>114.7</ele>
        <time>2024-04-07T08:29:22Z</time>
      </trkpt>
      <trkpt lat="44.8273" lon="0.75294">
        <ele>114.5</ele>
        <time>2024-04-07T08:29:23Z</time>
      </trkpt>
      <trkpt lat="44.8274" lon="0.75294">
        <ele>114.1</ele>
        <time>2024-04-07T08:29:25Z</time>
      </trkpt>
      <trkpt lat="44.82745" lon="0.75294">
        <ele>113.8</ele>
        <time>2024-04-07T08:29:26Z</time>
      </trkpt>
      <trkpt lat="44.8275" lon="0.75295">
        <ele>113.5</ele>
        <time>2024-04-07T08:29:27Z</time>
      </trkpt>
      <trkpt lat="44.82755" lon="0.75295">
        <ele>113.3</ele>
        <time>2024-04-07T08:29:28Z</time>
      </trkpt>
      <trkpt lat="44.8276" lon="0.75298">
        <ele>113</ele>
        <time>2024-04-07T08:29:29Z</time>
      </trkpt>
      <trkpt lat="44.82766" lon="0.753">
        <ele>112.7</ele>
        <time>2024-04-07T08:29:30Z</time>
      </trkpt>
      <trkpt lat="44.82772" lon="0.75302">
        <ele>112.5</ele>
        <time>2024-04-07T08:29:31Z</time>
      </trkpt>
      <trkpt lat="44.82784" lon="0.75307">
        <ele>111.7</ele>
        <time>2024-04-07T08:29:33Z</time>
      </trkpt>
      <trkpt lat="44.82796" lon="0.75312">
        <ele>110.6</ele>
        <time>2024-04-07T08:29:35Z</time>
      </trkpt>
      <trkpt lat="44.82809" lon="0.75316">
        <ele>108.4</ele>
        <time>2024-04-07T08:29:37Z</time>
      </trkpt>
      <trkpt lat="44.82815" lon="0.75319">
        <ele>107.6</ele>
        <time>2024-04-07T08:29:38Z</time>
      </trkpt>
      <trkpt lat="44.8282" lon="0.75325">
        <ele>106.6</ele>
        <time>2024-04-07T08:29:39Z</time>
      </trkpt>
      <trkpt lat="44.8283" lon="0.75338">
        <ele>104.7</ele>
        <time>2024-04-07T08:29:41Z</time>
      </trkpt>
      <trkpt lat="44.82836" lon="0.75342">
        <ele>103.9</ele>
        <time>2024-04-07T08:29:42Z</time>
      </trkpt>
      <trkpt lat="44.82842" lon="0.75345">
        <ele>102.9</ele>
        <time>2024-04-07T08:29:43Z</time>
      </trkpt>
      <trkpt lat="44.82857" lon="0.75342">
        <ele>101.6</ele>
        <time>2024-04-07T08:29:45Z</time>
      </trkpt>
      <trkpt lat="44.8287" lon="0.75334">
        <ele>99.9</ele>
        <time>2024-04-07T08:29:47Z</time>
      </trkpt>
      <trkpt lat="44.82883" lon="0.75324">
        <ele>99.5</ele>
        <time>2024-04-07T08:29:49Z</time>
      </trkpt>
      <trkpt lat="44.82892" lon="0.7531">
        <ele>99.3</ele>
        <time>2024-04-07T08:29:51Z</time>
      </trkpt>
      <trkpt lat="44.82901" lon="0.75292">
        <ele>99.7</ele>
        <time>2024-04-07T08:29:53Z</time>
      </trkpt>
      <trkpt lat="44.82911" lon="0.75275">
        <ele>100.4</ele>
        <time>2024-04-07T08:29:55Z</time>
      </trkpt>
      <trkpt lat="44.82918" lon="0.75261">
        <ele>100.8</ele>
        <time>2024-04-07T08:29:57Z</time>
      </trkpt>
      <trkpt lat="44.82924" lon="0.75248">
        <ele>100.9</ele>
        <time>2024-04-07T08:29:59Z</time>
      </trkpt>
      <trkpt lat="44.82928" lon="0.75242">
        <ele>100.9</ele>
        <time>2024-04-07T08:30:01Z</time>
      </trkpt>
      <trkpt lat="44.8293" lon="0.75239">
        <ele>100.8</ele>
        <time>2024-04-07T08:30:03Z</time>
      </trkpt>
      <trkpt lat="44.82932" lon="0.75236">
        <ele>100.9</ele>
        <time>2024-04-07T08:30:05Z</time>
      </trkpt>
      <trkpt lat="44.82933" lon="0.75233">
        <ele>100.8</ele>
        <time>2024-04-07T08:30:06Z</time>
      </trkpt>
      <trkpt lat="44.82934" lon="0.7523">
        <ele>100.8</ele>
        <time>2024-04-07T08:30:07Z</time>
      </trkpt>
      <trkpt lat="44.82938" lon="0.75224">
        <ele>100.9</ele>
        <time>2024-04-07T08:30:09Z</time>
      </trkpt>
      <trkpt lat="44.82942" lon="0.75216">
        <ele>100.7</ele>
        <time>2024-04-07T08:30:11Z</time>
      </trkpt>
      <trkpt lat="44.82944" lon="0.75211">
        <ele>100.6</ele>
        <time>2024-04-07T08:30:12Z</time>
      </trkpt>
      <trkpt lat="44.82946" lon="0.75206">
        <ele>100.5</ele>
        <time>2024-04-07T08:30:13Z</time>
      </trkpt>
      <trkpt lat="44.82952" lon="0.75195">
        <ele>99.8</ele>
        <time>2024-04-07T08:30:15Z</time>
      </trkpt>
      <trkpt lat="44.82956" lon="0.75184">
        <ele>99.2</ele>
        <time>2024-04-07T08:30:17Z</time>
      </trkpt>
      <trkpt lat="44.82962" lon="0.75171">
        <ele>98.3</ele>
        <time>2024-04-07T08:30:19Z</time>
      </trkpt>
      <trkpt lat="44.82968" lon="0.75158">
        <ele>97.7</ele>
        <time>2024-04-07T08:30:21Z</time>
      </trkpt>
      <trkpt lat="44.82971" lon="0.75152">
        <ele>97.5</ele>
        <time>2024-04-07T08:30:22Z</time>
      </trkpt>
      <trkpt lat="44.82974" lon="0.75145">
        <ele>97.5</ele>
        <time>2024-04-07T08:30:23Z</time>
      </trkpt>
      <trkpt lat="44.82976" lon="0.75139">
        <ele>97.1</ele>
        <time>2024-04-07T08:30:24Z</time>
      </trkpt>
      <trkpt lat="44.82978" lon="0.75133">
        <ele>97.1</ele>
        <time>2024-04-07T08:30:25Z</time>
      </trkpt>
      <trkpt lat="44.8298" lon="0.75129">
        <ele>97.1</ele>
        <time>2024-04-07T08:30:26Z</time>
      </trkpt>
      <trkpt lat="44.82981" lon="0.75125">
        <ele>96.9</ele>
        <time>2024-04-07T08:30:27Z</time>
      </trkpt>
      <trkpt lat="44.82983" lon="0.7512">
        <ele>96.9</ele>
        <time>2024-04-07T08:30:29Z</time>
      </trkpt>
      <trkpt lat="44.82985" lon="0.75114">
        <ele>96.7</ele>
        <time>2024-04-07T08:30:31Z</time>
      </trkpt>
      <trkpt lat="44.82987" lon="0.75108">
        <ele>96.7</ele>
        <time>2024-04-07T08:30:33Z</time>
      </trkpt>
      <trkpt lat="44.82989" lon="0.75102">
        <ele>96.6</ele>
        <time>2024-04-07T08:30:35Z</time>
      </trkpt>
      <trkpt lat="44.82992" lon="0.75093">
        <ele>96.4</ele>
        <time>2024-04-07T08:30:37Z</time>
      </trkpt>
      <trkpt lat="44.82996" lon="0.75084">
        <ele>96.2</ele>
        <time>2024-04-07T08:30:39Z</time>
      </trkpt>
      <trkpt lat="44.83" lon="0.75074">
        <ele>95.9</ele>
        <time>2024-04-07T08:30:41Z</time>
      </trkpt>
      <trkpt lat="44.83004" lon="0.75065">
        <ele>96.1</ele>
        <time>2024-04-07T08:30:43Z</time>
      </trkpt>
      <trkpt lat="44.83007" lon="0.7506">
        <ele>96.2</ele>
        <time>2024-04-07T08:30:44Z</time>
      </trkpt>
      <trkpt lat="44.83009" lon="0.75055">
        <ele>96</ele>
        <time>2024-04-07T08:30:45Z</time>
      </trkpt>
      <trkpt lat="44.83013" lon="0.75047">
        <ele>96.2</ele>
        <time>2024-04-07T08:30:47Z</time>
      </trkpt>
      <trkpt lat="44.83016" lon="0.75042">
        <ele>95.9</ele>
        <time>2024-04-07T08:30:49Z</time>
      </trkpt>
      <trkpt lat="44.83017" lon="0.75038">
        <ele>95.9</ele>
        <time>2024-04-07T08:30:51Z</time>
      </trkpt>
      <trkpt lat="44.83017" lon="0.75038">
        <ele>95.9</ele>
        <time>2024-04-07T08:30:52Z</time>
      </trkpt>
      <trkpt lat="44.8304" lon="0.74968">
        <ele>95.2</ele>
        <time>2024-04-07T08:32:05Z</time>
      </trkpt>
      <trkpt lat="44.83043" lon="0.74963">
        <ele>95.2</ele>
        <time>2024-04-07T08:32:07Z</time>
      </trkpt>
      <trkpt lat="44.83045" lon="0.74956">
        <ele>95.3</ele>
        <time>2024-04-07T08:32:09Z</time>
      </trkpt>
      <trkpt lat="44.83045" lon="0.74949">
        <ele>95.3</ele>
        <time>2024-04-07T08:32:11Z</time>
      </trkpt>
      <trkpt lat="44.83045" lon="0.74945">
        <ele>95.3</ele>
        <time>2024-04-07T08:32:12Z</time>
      </trkpt>
      <trkpt lat="44.83046" lon="0.7494">
        <ele>95.3</ele>
        <time>2024-04-07T08:32:13Z</time>
      </trkpt>
      <trkpt lat="44.83047" lon="0.74931">
        <ele>95.4</ele>
        <time>2024-04-07T08:32:15Z</time>
      </trkpt>
      <trkpt lat="44.83048" lon="0.74921">
        <ele>95.5</ele>
        <time>2024-04-07T08:32:17Z</time>
      </trkpt>
      <trkpt lat="44.83049" lon="0.74916">
        <ele>95.5</ele>
        <time>2024-04-07T08:32:18Z</time>
      </trkpt>
      <trkpt lat="44.8305" lon="0.7491">
        <ele>95.4</ele>
        <time>2024-04-07T08:32:19Z</time>
      </trkpt>
      <trkpt lat="44.83053" lon="0.74895">
        <ele>95.4</ele>
        <time>2024-04-07T08:32:21Z</time>
      </trkpt>
      <trkpt lat="44.83054" lon="0.74886">
        <ele>95.3</ele>
        <time>2024-04-07T08:32:22Z</time>
      </trkpt>
      <trkpt lat="44.83054" lon="0.74879">
        <ele>95.3</ele>
        <time>2024-04-07T08:32:23Z</time>
      </trkpt>
      <trkpt lat="44.83054" lon="0.74869">
        <ele>95.1</ele>
        <time>2024-04-07T08:32:25Z</time>
      </trkpt>
      <trkpt lat="44.83054" lon="0.74863">
        <ele>95</ele>
        <time>2024-04-07T08:32:27Z</time>
      </trkpt>
      <trkpt lat="44.83053" lon="0.74858">
        <ele>94.9</ele>
        <time>2024-04-07T08:32:29Z</time>
      </trkpt>
      <trkpt lat="44.83053" lon="0.74857">
        <ele>94.9</ele>
        <time>2024-04-07T08:32:30Z</time>
      </trkpt>
      <trkpt lat="44.83053" lon="0.74856">
        <ele>94.8</ele>
        <time>2024-04-07T08:32:31Z</time>
      </trkpt>
      <trkpt lat="44.83053" lon="0.74854">
        <ele>94.8</ele>
        <time>2024-04-07T08:32:33Z</time>
      </trkpt>
      <trkpt lat="44.83054" lon="0.74854">
        <ele>94.8</ele>
        <time>2024-04-07T08:32:34Z</time>
      </trkpt>
      <trkpt lat="44.83054" lon="0.74853">
        <ele>94.7</ele>
        <time>2024-04-07T08:32:35Z</time>
      </trkpt>
      <trkpt lat="44.83056" lon="0.74838">
        <ele>94.3</ele>
        <time>2024-04-07T08:32:42Z</time>
      </trkpt>
      <trkpt lat="44.83057" lon="0.74835">
        <ele>94.3</ele>
        <time>2024-04-07T08:32:43Z</time>
      </trkpt>
      <trkpt lat="44.83059" lon="0.74826">
        <ele>94.1</ele>
        <time>2024-04-07T08:32:45Z</time>
      </trkpt>
      <trkpt lat="44.83061" lon="0.74821">
        <ele>94</ele>
        <time>2024-04-07T08:32:46Z</time>
      </trkpt>
      <trkpt lat="44.83063" lon="0.74815">
        <ele>93.9</ele>
        <time>2024-04-07T08:32:47Z</time>
      </trkpt>
      <trkpt lat="44.83066" lon="0.74809">
        <ele>93.8</ele>
        <time>2024-04-07T08:32:48Z</time>
      </trkpt>
      <trkpt lat="44.83069" lon="0.74803">
        <ele>93.7</ele>
        <time>2024-04-07T08:32:49Z</time>
      </trkpt>
      <trkpt lat="44.83073" lon="0.74797">
        <ele>93.6</ele>
        <time>2024-04-07T08:32:50Z</time>
      </trkpt>
      <trkpt lat="44.83077" lon="0.74789">
        <ele>93.5</ele>
        <time>2024-04-07T08:32:51Z</time>
      </trkpt>
      <trkpt lat="44.83081" lon="0.7478">
        <ele>93.3</ele>
        <time>2024-04-07T08:32:52Z</time>
      </trkpt>
      <trkpt lat="44.83084" lon="0.7477">
        <ele>92.7</ele>
        <time>2024-04-07T08:32:53Z</time>
      </trkpt>
      <trkpt lat="44.83088" lon="0.74759">
        <ele>92.2</ele>
        <time>2024-04-07T08:32:54Z</time>
      </trkpt>
      <trkpt lat="44.83093" lon="0.7475">
        <ele>91.5</ele>
        <time>2024-04-07T08:32:55Z</time>
      </trkpt>
      <trkpt lat="44.83098" lon="0.74743">
        <ele>90.6</ele>
        <time>2024-04-07T08:32:56Z</time>
      </trkpt>
      <trkpt lat="44.83104" lon="0.74735">
        <ele>89.8</ele>
        <time>2024-04-07T08:32:57Z</time>
      </trkpt>
      <trkpt lat="44.83116" lon="0.74721">
        <ele>88.7</ele>
        <time>2024-04-07T08:32:59Z</time>
      </trkpt>
      <trkpt lat="44.83125" lon="0.74706">
        <ele>87.5</ele>
        <time>2024-04-07T08:33:01Z</time>
      </trkpt>
      <trkpt lat="44.83129" lon="0.74698">
        <ele>87.2</ele>
        <time>2024-04-07T08:33:02Z</time>
      </trkpt>
      <trkpt lat="44.83132" lon="0.74691">
        <ele>87</ele>
        <time>2024-04-07T08:33:03Z</time>
      </trkpt>
      <trkpt lat="44.83135" lon="0.74684">
        <ele>86.7</ele>
        <time>2024-04-07T08:33:04Z</time>
      </trkpt>
      <trkpt lat="44.83139" lon="0.74677">
        <ele>86.5</ele>
        <time>2024-04-07T08:33:05Z</time>
      </trkpt>
      <trkpt lat="44.83147" lon="0.74664">
        <ele>86.5</ele>
        <time>2024-04-07T08:33:07Z</time>
      </trkpt>
      <trkpt lat="44.83151" lon="0.74658">
        <ele>86.5</ele>
        <time>2024-04-07T08:33:08Z</time>
      </trkpt>
      <trkpt lat="44.83155" lon="0.74652">
        <ele>86.5</ele>
        <time>2024-04-07T08:33:09Z</time>
      </trkpt>
      <trkpt lat="44.83159" lon="0.74647">
        <ele>86.4</ele>
        <time>2024-04-07T08:33:10Z</time>
      </trkpt>
      <trkpt lat="44.83163" lon="0.74642">
        <ele>86.3</ele>
        <time>2024-04-07T08:33:11Z</time>
      </trkpt>
      <trkpt lat="44.83171" lon="0.74632">
        <ele>85.9</ele>
        <time>2024-04-07T08:33:13Z</time>
      </trkpt>
      <trkpt lat="44.83177" lon="0.74626">
        <ele>85.9</ele>
        <time>2024-04-07T08:33:15Z</time>
      </trkpt>
      <trkpt lat="44.8318" lon="0.74622">
        <ele>85.6</ele>
        <time>2024-04-07T08:33:16Z</time>
      </trkpt>
      <trkpt lat="44.83182" lon="0.74618">
        <ele>85.3</ele>
        <time>2024-04-07T08:33:17Z</time>
      </trkpt>
      <trkpt lat="44.83189" lon="0.7461">
        <ele>84.8</ele>
        <time>2024-04-07T08:33:19Z</time>
      </trkpt>
      <trkpt lat="44.83195" lon="0.74603">
        <ele>84.1</ele>
        <time>2024-04-07T08:33:21Z</time>
      </trkpt>
      <trkpt lat="44.83198" lon="0.74599">
        <ele>83.7</ele>
        <time>2024-04-07T08:33:22Z</time>
      </trkpt>
      <trkpt lat="44.832" lon="0.74596">
        <ele>83.7</ele>
        <time>2024-04-07T08:33:23Z</time>
      </trkpt>
      <trkpt lat="44.83204" lon="0.7459">
        <ele>83</ele>
        <time>2024-04-07T08:33:25Z</time>
      </trkpt>
      <trkpt lat="44.83209" lon="0.74586">
        <ele>82.7</ele>
        <time>2024-04-07T08:33:27Z</time>
      </trkpt>
      <trkpt lat="44.83215" lon="0.7458">
        <ele>82.3</ele>
        <time>2024-04-07T08:33:29Z</time>
      </trkpt>
      <trkpt lat="44.83222" lon="0.74571">
        <ele>81.5</ele>
        <time>2024-04-07T08:33:31Z</time>
      </trkpt>
      <trkpt lat="44.83228" lon="0.74563">
        <ele>80.6</ele>
        <time>2024-04-07T08:33:33Z</time>
      </trkpt>
      <trkpt lat="44.83236" lon="0.74555">
        <ele>79.5</ele>
        <time>2024-04-07T08:33:35Z</time>
      </trkpt>
      <trkpt lat="44.83242" lon="0.74547">
        <ele>78.8</ele>
        <time>2024-04-07T08:33:37Z</time>
      </trkpt>
      <trkpt lat="44.83246" lon="0.74543">
        <ele>78.3</ele>
        <time>2024-04-07T08:33:38Z</time>
      </trkpt>
      <trkpt lat="44.83249" lon="0.7454">
        <ele>78.1</ele>
        <time>2024-04-07T08:33:39Z</time>
      </trkpt>
      <trkpt lat="44.83254" lon="0.74535">
        <ele>76.9</ele>
        <time>2024-04-07T08:33:41Z</time>
      </trkpt>
      <trkpt lat="44.83257" lon="0.74533">
        <ele>76.6</ele>
        <time>2024-04-07T08:33:42Z</time>
      </trkpt>
      <trkpt lat="44.83259" lon="0.74532">
        <ele>76.2</ele>
        <time>2024-04-07T08:33:43Z</time>
      </trkpt>
      <trkpt lat="44.83261" lon="0.74526">
        <ele>75.9</ele>
        <time>2024-04-07T08:33:45Z</time>
      </trkpt>
      <trkpt lat="44.83262" lon="0.7452">
        <ele>75.8</ele>
        <time>2024-04-07T08:33:47Z</time>
      </trkpt>
      <trkpt lat="44.83261" lon="0.74514">
        <ele>75.5</ele>
        <time>2024-04-07T08:33:49Z</time>
      </trkpt>
      <trkpt lat="44.8326" lon="0.74513">
        <ele>75.5</ele>
        <time>2024-04-07T08:33:50Z</time>
      </trkpt>
      <trkpt lat="44.83259" lon="0.74513">
        <ele>75.8</ele>
        <time>2024-04-07T08:33:51Z</time>
      </trkpt>
      <trkpt lat="44.83258" lon="0.74508">
        <ele>75.7</ele>
        <time>2024-04-07T08:33:52Z</time>
      </trkpt>
      <trkpt lat="44.83258" lon="0.74504">
        <ele>75.6</ele>
        <time>2024-04-07T08:33:53Z</time>
      </trkpt>
      <trkpt lat="44.83257" lon="0.74502">
        <ele>75.6</ele>
        <time>2024-04-07T08:33:54Z</time>
      </trkpt>
      <trkpt lat="44.83256" lon="0.74502">
        <ele>75.9</ele>
        <time>2024-04-07T08:33:55Z</time>
      </trkpt>
      <trkpt lat="44.83255" lon="0.74499">
        <ele>75.8</ele>
        <time>2024-04-07T08:33:56Z</time>
      </trkpt>
      <trkpt lat="44.83254" lon="0.74496">
        <ele>75.8</ele>
        <time>2024-04-07T08:33:57Z</time>
      </trkpt>
      <trkpt lat="44.83253" lon="0.74492">
        <ele>76.3</ele>
        <time>2024-04-07T08:33:58Z</time>
      </trkpt>
      <trkpt lat="44.83252" lon="0.74489">
        <ele>76.2</ele>
        <time>2024-04-07T08:33:59Z</time>
      </trkpt>
      <trkpt lat="44.83251" lon="0.74484">
        <ele>76.3</ele>
        <time>2024-04-07T08:34:00Z</time>
      </trkpt>
      <trkpt lat="44.8325" lon="0.74479">
        <ele>77.5</ele>
        <time>2024-04-07T08:34:01Z</time>
      </trkpt>
      <trkpt lat="44.83249" lon="0.74477">
        <ele>77.4</ele>
        <time>2024-04-07T08:34:02Z</time>
      </trkpt>
      <trkpt lat="44.83249" lon="0.74475">
        <ele>77.7</ele>
        <time>2024-04-07T08:34:03Z</time>
      </trkpt>
      <trkpt lat="44.83206" lon="0.74444">
        <ele>84.7</ele>
        <time>2024-04-07T08:34:31Z</time>
      </trkpt>
      <trkpt lat="44.83204" lon="0.74444">
        <ele>85</ele>
        <time>2024-04-07T08:34:33Z</time>
      </trkpt>
      <trkpt lat="44.83202" lon="0.74444">
        <ele>85</ele>
        <time>2024-04-07T08:34:34Z</time>
      </trkpt>
      <trkpt lat="44.832" lon="0.74443">
        <ele>85.3</ele>
        <time>2024-04-07T08:34:35Z</time>
      </trkpt>
      <trkpt lat="44.83197" lon="0.74444">
        <ele>85.6</ele>
        <time>2024-04-07T08:34:37Z</time>
      </trkpt>
      <trkpt lat="44.83195" lon="0.74444">
        <ele>86</ele>
        <time>2024-04-07T08:34:39Z</time>
      </trkpt>
      <trkpt lat="44.83192" lon="0.74445">
        <ele>86.3</ele>
        <time>2024-04-07T08:34:41Z</time>
      </trkpt>
      <trkpt lat="44.83189" lon="0.74444">
        <ele>86.7</ele>
        <time>2024-04-07T08:34:43Z</time>
      </trkpt>
      <trkpt lat="44.83186" lon="0.74443">
        <ele>86.7</ele>
        <time>2024-04-07T08:34:45Z</time>
      </trkpt>
      <trkpt lat="44.83185" lon="0.74442">
        <ele>87</ele>
        <time>2024-04-07T08:34:46Z</time>
      </trkpt>
      <trkpt lat="44.83184" lon="0.74441">
        <ele>86.9</ele>
        <time>2024-04-07T08:34:47Z</time>
      </trkpt>
      <trkpt lat="44.83183" lon="0.7444">
        <ele>87.6</ele>
        <time>2024-04-07T08:34:48Z</time>
      </trkpt>
      <trkpt lat="44.83182" lon="0.74441">
        <ele>87.6</ele>
        <time>2024-04-07T08:34:49Z</time>
      </trkpt>
      <trkpt lat="44.83179" lon="0.74442">
        <ele>87.5</ele>
        <time>2024-04-07T08:34:51Z</time>
      </trkpt>
      <trkpt lat="44.83177" lon="0.74441">
        <ele>87.5</ele>
        <time>2024-04-07T08:34:52Z</time>
      </trkpt>
      <trkpt lat="44.83176" lon="0.74442">
        <ele>87.8</ele>
        <time>2024-04-07T08:34:53Z</time>
      </trkpt>
      <trkpt lat="44.83174" lon="0.74444">
        <ele>88.1</ele>
        <time>2024-04-07T08:34:54Z</time>
      </trkpt>
      <trkpt lat="44.83173" lon="0.74447">
        <ele>87.7</ele>
        <time>2024-04-07T08:34:55Z</time>
      </trkpt>
      <trkpt lat="44.83173" lon="0.74447">
        <ele>87.6</ele>
        <time>2024-04-07T08:34:56Z</time>
      </trkpt>
      <trkpt lat="44.83049" lon="0.74429">
        <ele>103.8</ele>
        <time>2024-04-07T08:37:59Z</time>
      </trkpt>
      <trkpt lat="44.83045" lon="0.74429">
        <ele>104.1</ele>
        <time>2024-04-07T08:38:01Z</time>
      </trkpt>
      <trkpt lat="44.83042" lon="0.74429">
        <ele>104.3</ele>
        <time>2024-04-07T08:38:03Z</time>
      </trkpt>
      <trkpt lat="44.83038" lon="0.74431">
        <ele>104.5</ele>
        <time>2024-04-07T08:38:05Z</time>
      </trkpt>
      <trkpt lat="44.83034" lon="0.74431">
        <ele>104.9</ele>
        <time>2024-04-07T08:38:07Z</time>
      </trkpt>
      <trkpt lat="44.83029" lon="0.74431">
        <ele>105.1</ele>
        <time>2024-04-07T08:38:09Z</time>
      </trkpt>
      <trkpt lat="44.83026" lon="0.74431">
        <ele>105.3</ele>
        <time>2024-04-07T08:38:10Z</time>
      </trkpt>
      <trkpt lat="44.83023" lon="0.74431">
        <ele>105.5</ele>
        <time>2024-04-07T08:38:11Z</time>
      </trkpt>
      <trkpt lat="44.83019" lon="0.74434">
        <ele>105.8</ele>
        <time>2024-04-07T08:38:13Z</time>
      </trkpt>
      <trkpt lat="44.83017" lon="0.74435">
        <ele>106</ele>
        <time>2024-04-07T08:38:14Z</time>
      </trkpt>
      <trkpt lat="44.83015" lon="0.74436">
        <ele>106.1</ele>
        <time>2024-04-07T08:38:15Z</time>
      </trkpt>
      <trkpt lat="44.8301" lon="0.74439">
        <ele>106.5</ele>
        <time>2024-04-07T08:38:17Z</time>
      </trkpt>
      <trkpt lat="44.83008" lon="0.7444">
        <ele>106.6</ele>
        <time>2024-04-07T08:38:18Z</time>
      </trkpt>
      <trkpt lat="44.83006" lon="0.7444">
        <ele>106.8</ele>
        <time>2024-04-07T08:38:19Z</time>
      </trkpt>
      <trkpt lat="44.83004" lon="0.74441">
        <ele>106.8</ele>
        <time>2024-04-07T08:38:20Z</time>
      </trkpt>
      <trkpt lat="44.83001" lon="0.74442">
        <ele>107.2</ele>
        <time>2024-04-07T08:38:21Z</time>
      </trkpt>
      <trkpt lat="44.82999" lon="0.74444">
        <ele>107.3</ele>
        <time>2024-04-07T08:38:22Z</time>
      </trkpt>
      <trkpt lat="44.82998" lon="0.74447">
        <ele>107.5</ele>
        <time>2024-04-07T08:38:23Z</time>
      </trkpt>
      <trkpt lat="44.82996" lon="0.7445">
        <ele>107.6</ele>
        <time>2024-04-07T08:38:25Z</time>
      </trkpt>
      <trkpt lat="44.82995" lon="0.74452">
        <ele>107.7</ele>
        <time>2024-04-07T08:38:27Z</time>
      </trkpt>
      <trkpt lat="44.82995" lon="0.74455">
        <ele>107.8</ele>
        <time>2024-04-07T08:38:29Z</time>
      </trkpt>
      <trkpt lat="44.82994" lon="0.74456">
        <ele>107.9</ele>
        <time>2024-04-07T08:38:31Z</time>
      </trkpt>
      <trkpt lat="44.82993" lon="0.74458">
        <ele>108</ele>
        <time>2024-04-07T08:38:33Z</time>
      </trkpt>
      <trkpt lat="44.82992" lon="0.74459">
        <ele>108</ele>
        <time>2024-04-07T08:38:34Z</time>
      </trkpt>
      <trkpt lat="44.82991" lon="0.74461">
        <ele>108.1</ele>
        <time>2024-04-07T08:38:35Z</time>
      </trkpt>
      <trkpt lat="44.8299" lon="0.74462">
        <ele>108.2</ele>
        <time>2024-04-07T08:38:36Z</time>
      </trkpt>
      <trkpt lat="44.82989" lon="0.74464">
        <ele>108.3</ele>
        <time>2024-04-07T08:38:37Z</time>
      </trkpt>
      <trkpt lat="44.82988" lon="0.74464">
        <ele>108.3</ele>
        <time>2024-04-07T08:38:38Z</time>
      </trkpt>
      <trkpt lat="44.82987" lon="0.74465">
        <ele>108.4</ele>
        <time>2024-04-07T08:38:39Z</time>
      </trkpt>
      <trkpt lat="44.82986" lon="0.74467">
        <ele>108.5</ele>
        <time>2024-04-07T08:38:40Z</time>
      </trkpt>
      <trkpt lat="44.82984" lon="0.74468">
        <ele>108.6</ele>
        <time>2024-04-07T08:38:41Z</time>
      </trkpt>
      <trkpt lat="44.82983" lon="0.74471">
        <ele>108.7</ele>
        <time>2024-04-07T08:38:43Z</time>
      </trkpt>
      <trkpt lat="44.82981" lon="0.74474">
        <ele>108.9</ele>
        <time>2024-04-07T08:38:45Z</time>
      </trkpt>
      <trkpt lat="44.82979" lon="0.74477">
        <ele>109.1</ele>
        <time>2024-04-07T08:38:47Z</time>
      </trkpt>
      <trkpt lat="44.82979" lon="0.74479">
        <ele>109.1</ele>
        <time>2024-04-07T08:38:48Z</time>
      </trkpt>
      <trkpt lat="44.82978" lon="0.74481">
        <ele>109.2</ele>
        <time>2024-04-07T08:38:49Z</time>
      </trkpt>
      <trkpt lat="44.82975" lon="0.74483">
        <ele>109.4</ele>
        <time>2024-04-07T08:38:51Z</time>
      </trkpt>
      <trkpt lat="44.82973" lon="0.74486">
        <ele>109.6</ele>
        <time>2024-04-07T08:38:53Z</time>
      </trkpt>
      <trkpt lat="44.8297" lon="0.7449">
        <ele>109.9</ele>
        <time>2024-04-07T08:38:55Z</time>
      </trkpt>
      <trkpt lat="44.82968" lon="0.74494">
        <ele>110.2</ele>
        <time>2024-04-07T08:38:57Z</time>
      </trkpt>
      <trkpt lat="44.82965" lon="0.74496">
        <ele>110.4</ele>
        <time>2024-04-07T08:38:59Z</time>
      </trkpt>
      <trkpt lat="44.82962" lon="0.745">
        <ele>110.7</ele>
        <time>2024-04-07T08:39:01Z</time>
      </trkpt>
      <trkpt lat="44.8296" lon="0.74503">
        <ele>110.9</ele>
        <time>2024-04-07T08:39:02Z</time>
      </trkpt>
      <trkpt lat="44.82959" lon="0.74505">
        <ele>111.1</ele>
        <time>2024-04-07T08:39:03Z</time>
      </trkpt>
      <trkpt lat="44.82955" lon="0.74509">
        <ele>111.5</ele>
        <time>2024-04-07T08:39:05Z</time>
      </trkpt>
      <trkpt lat="44.82952" lon="0.74512">
        <ele>111.8</ele>
        <time>2024-04-07T08:39:07Z</time>
      </trkpt>
      <trkpt lat="44.82949" lon="0.74515">
        <ele>112.2</ele>
        <time>2024-04-07T08:39:09Z</time>
      </trkpt>
      <trkpt lat="44.82946" lon="0.74519">
        <ele>112.5</ele>
        <time>2024-04-07T08:39:11Z</time>
      </trkpt>
      <trkpt lat="44.82944" lon="0.74523">
        <ele>112.8</ele>
        <time>2024-04-07T08:39:13Z</time>
      </trkpt>
      <trkpt lat="44.82942" lon="0.74526">
        <ele>113.1</ele>
        <time>2024-04-07T08:39:15Z</time>
      </trkpt>
      <trkpt lat="44.8294" lon="0.74529">
        <ele>113.4</ele>
        <time>2024-04-07T08:39:17Z</time>
      </trkpt>
      <trkpt lat="44.82939" lon="0.74531">
        <ele>113.6</ele>
        <time>2024-04-07T08:39:18Z</time>
      </trkpt>
      <trkpt lat="44.82937" lon="0.74533">
        <ele>113.9</ele>
        <time>2024-04-07T08:39:19Z</time>
      </trkpt>
      <trkpt lat="44.82935" lon="0.74536">
        <ele>114.2</ele>
        <time>2024-04-07T08:39:21Z</time>
      </trkpt>
      <trkpt lat="44.82932" lon="0.74541">
        <ele>114.7</ele>
        <time>2024-04-07T08:39:23Z</time>
      </trkpt>
      <trkpt lat="44.8293" lon="0.74545">
        <ele>115</ele>
        <time>2024-04-07T08:39:25Z</time>
      </trkpt>
      <trkpt lat="44.82927" lon="0.74549">
        <ele>115.5</ele>
        <time>2024-04-07T08:39:27Z</time>
      </trkpt>
      <trkpt lat="44.82926" lon="0.7455">
        <ele>115.6</ele>
        <time>2024-04-07T08:39:28Z</time>
      </trkpt>
      <trkpt lat="44.82925" lon="0.7455">
        <ele>115.7</ele>
        <time>2024-04-07T08:39:29Z</time>
      </trkpt>
      <trkpt lat="44.82921" lon="0.74555">
        <ele>116.2</ele>
        <time>2024-04-07T08:39:31Z</time>
      </trkpt>
      <trkpt lat="44.82918" lon="0.74559">
        <ele>116.7</ele>
        <time>2024-04-07T08:39:33Z</time>
      </trkpt>
      <trkpt lat="44.82915" lon="0.74561">
        <ele>117</ele>
        <time>2024-04-07T08:39:34Z</time>
      </trkpt>
      <trkpt lat="44.82913" lon="0.74563">
        <ele>117.2</ele>
        <time>2024-04-07T08:39:35Z</time>
      </trkpt>
      <trkpt lat="44.82911" lon="0.74564">
        <ele>117.4</ele>
        <time>2024-04-07T08:39:36Z</time>
      </trkpt>
      <trkpt lat="44.82909" lon="0.74566">
        <ele>117.6</ele>
        <time>2024-04-07T08:39:37Z</time>
      </trkpt>
      <trkpt lat="44.82906" lon="0.74568">
        <ele>117.8</ele>
        <time>2024-04-07T08:39:39Z</time>
      </trkpt>
      <trkpt lat="44.82904" lon="0.7457">
        <ele>118</ele>
        <time>2024-04-07T08:39:40Z</time>
      </trkpt>
      <trkpt lat="44.82903" lon="0.74571">
        <ele>118.1</ele>
        <time>2024-04-07T08:39:41Z</time>
      </trkpt>
      <trkpt lat="44.829" lon="0.74573">
        <ele>118.4</ele>
        <time>2024-04-07T08:39:43Z</time>
      </trkpt>
      <trkpt lat="44.82898" lon="0.74577">
        <ele>118.7</ele>
        <time>2024-04-07T08:39:45Z</time>
      </trkpt>
      <trkpt lat="44.82896" lon="0.74579">
        <ele>118.9</ele>
        <time>2024-04-07T08:39:46Z</time>
      </trkpt>
      <trkpt lat="44.82894" lon="0.7458">
        <ele>119.1</ele>
        <time>2024-04-07T08:39:47Z</time>
      </trkpt>
      <trkpt lat="44.82891" lon="0.74581">
        <ele>119.4</ele>
        <time>2024-04-07T08:39:49Z</time>
      </trkpt>
      <trkpt lat="44.82887" lon="0.74586">
        <ele>119.8</ele>
        <time>2024-04-07T08:39:51Z</time>
      </trkpt>
      <trkpt lat="44.82885" lon="0.74587">
        <ele>120</ele>
        <time>2024-04-07T08:39:52Z</time>
      </trkpt>
      <trkpt lat="44.82883" lon="0.74588">
        <ele>120.2</ele>
        <time>2024-04-07T08:39:53Z</time>
      </trkpt>
      <trkpt lat="44.82881" lon="0.7459">
        <ele>120.4</ele>
        <time>2024-04-07T08:39:54Z</time>
      </trkpt>
      <trkpt lat="44.82879" lon="0.74592">
        <ele>120.6</ele>
        <time>2024-04-07T08:39:55Z</time>
      </trkpt>
      <trkpt lat="44.82875" lon="0.74593">
        <ele>120.9</ele>
        <time>2024-04-07T08:39:57Z</time>
      </trkpt>
      <trkpt lat="44.82873" lon="0.74595">
        <ele>121.2</ele>
        <time>2024-04-07T08:39:59Z</time>
      </trkpt>
      <trkpt lat="44.8287" lon="0.74596">
        <ele>121.4</ele>
        <time>2024-04-07T08:40:01Z</time>
      </trkpt>
      <trkpt lat="44.82868" lon="0.74598">
        <ele>121.7</ele>
        <time>2024-04-07T08:40:03Z</time>
      </trkpt>
      <trkpt lat="44.82865" lon="0.74599">
        <ele>121.9</ele>
        <time>2024-04-07T08:40:05Z</time>
      </trkpt>
      <trkpt lat="44.82862" lon="0.746">
        <ele>122.2</ele>
        <time>2024-04-07T08:40:07Z</time>
      </trkpt>
      <trkpt lat="44.8286" lon="0.74602">
        <ele>122.4</ele>
        <time>2024-04-07T08:40:08Z</time>
      </trkpt>
      <trkpt lat="44.82859" lon="0.74603">
        <ele>122.6</ele>
        <time>2024-04-07T08:40:09Z</time>
      </trkpt>
      <trkpt lat="44.82856" lon="0.74605">
        <ele>122.9</ele>
        <time>2024-04-07T08:40:11Z</time>
      </trkpt>
      <trkpt lat="44.82852" lon="0.7461">
        <ele>123.4</ele>
        <time>2024-04-07T08:40:13Z</time>
      </trkpt>
      <trkpt lat="44.82848" lon="0.74613">
        <ele>123.8</ele>
        <time>2024-04-07T08:40:15Z</time>
      </trkpt>
      <trkpt lat="44.82845" lon="0.74615">
        <ele>124.1</ele>
        <time>2024-04-07T08:40:17Z</time>
      </trkpt>
      <trkpt lat="44.82844" lon="0.74617">
        <ele>124.2</ele>
        <time>2024-04-07T08:40:18Z</time>
      </trkpt>
      <trkpt lat="44.82842" lon="0.74619">
        <ele>124.4</ele>
        <time>2024-04-07T08:40:19Z</time>
      </trkpt>
      <trkpt lat="44.82839" lon="0.74621">
        <ele>124.7</ele>
        <time>2024-04-07T08:40:21Z</time>
      </trkpt>
      <trkpt lat="44.82836" lon="0.74624">
        <ele>125.1</ele>
        <time>2024-04-07T08:40:23Z</time>
      </trkpt>
      <trkpt lat="44.82832" lon="0.74627">
        <ele>125.5</ele>
        <time>2024-04-07T08:40:25Z</time>
      </trkpt>
      <trkpt lat="44.82829" lon="0.74629">
        <ele>125.8</ele>
        <time>2024-04-07T08:40:27Z</time>
      </trkpt>
      <trkpt lat="44.82826" lon="0.74631">
        <ele>126.1</ele>
        <time>2024-04-07T08:40:29Z</time>
      </trkpt>
      <trkpt lat="44.82823" lon="0.74634">
        <ele>126.5</ele>
        <time>2024-04-07T08:40:31Z</time>
      </trkpt>
      <trkpt lat="44.8282" lon="0.74636">
        <ele>126.9</ele>
        <time>2024-04-07T08:40:33Z</time>
      </trkpt>
      <trkpt lat="44.82817" lon="0.74638">
        <ele>127.2</ele>
        <time>2024-04-07T08:40:35Z</time>
      </trkpt>
      <trkpt lat="44.82816" lon="0.74638">
        <ele>127.3</ele>
        <time>2024-04-07T08:40:36Z</time>
      </trkpt>
      <trkpt lat="44.82815" lon="0.7464">
        <ele>127.5</ele>
        <time>2024-04-07T08:40:37Z</time>
      </trkpt>
      <trkpt lat="44.82812" lon="0.74644">
        <ele>127.8</ele>
        <time>2024-04-07T08:40:39Z</time>
      </trkpt>
      <trkpt lat="44.82811" lon="0.74644">
        <ele>127.9</ele>
        <time>2024-04-07T08:40:40Z</time>
      </trkpt>
      <trkpt lat="44.8281" lon="0.74645">
        <ele>128</ele>
        <time>2024-04-07T08:40:41Z</time>
      </trkpt>
      <trkpt lat="44.82809" lon="0.74646">
        <ele>128.1</ele>
        <time>2024-04-07T08:40:42Z</time>
      </trkpt>
      <trkpt lat="44.82808" lon="0.74647">
        <ele>128.2</ele>
        <time>2024-04-07T08:40:43Z</time>
      </trkpt>
      <trkpt lat="44.82805" lon="0.74649">
        <ele>128.5</ele>
        <time>2024-04-07T08:40:45Z</time>
      </trkpt>
      <trkpt lat="44.82802" lon="0.74651">
        <ele>128.8</ele>
        <time>2024-04-07T08:40:47Z</time>
      </trkpt>
      <trkpt lat="44.82798" lon="0.74652">
        <ele>129.1</ele>
        <time>2024-04-07T08:40:49Z</time>
      </trkpt>
      <trkpt lat="44.82795" lon="0.74656">
        <ele>129.5</ele>
        <time>2024-04-07T08:40:51Z</time>
      </trkpt>
      <trkpt lat="44.82793" lon="0.74658">
        <ele>129.7</ele>
        <time>2024-04-07T08:40:52Z</time>
      </trkpt>
      <trkpt lat="44.82792" lon="0.7466">
        <ele>129.8</ele>
        <time>2024-04-07T08:40:53Z</time>
      </trkpt>
      <trkpt lat="44.82789" lon="0.74664">
        <ele>130.2</ele>
        <time>2024-04-07T08:40:55Z</time>
      </trkpt>
      <trkpt lat="44.82785" lon="0.7467">
        <ele>130.7</ele>
        <time>2024-04-07T08:40:57Z</time>
      </trkpt>
      <trkpt lat="44.82781" lon="0.74673">
        <ele>131</ele>
        <time>2024-04-07T08:40:59Z</time>
      </trkpt>
      <trkpt lat="44.82779" lon="0.74677">
        <ele>131.3</ele>
        <time>2024-04-07T08:41:01Z</time>
      </trkpt>
      <trkpt lat="44.82775" lon="0.74681">
        <ele>131.6</ele>
        <time>2024-04-07T08:41:03Z</time>
      </trkpt>
      <trkpt lat="44.82772" lon="0.74684">
        <ele>131.9</ele>
        <time>2024-04-07T08:41:05Z</time>
      </trkpt>
      <trkpt lat="44.82767" lon="0.74687">
        <ele>132.1</ele>
        <time>2024-04-07T08:41:07Z</time>
      </trkpt>
      <trkpt lat="44.82763" lon="0.74688">
        <ele>132.3</ele>
        <time>2024-04-07T08:41:09Z</time>
      </trkpt>
      <trkpt lat="44.82759" lon="0.74692">
        <ele>132.4</ele>
        <time>2024-04-07T08:41:11Z</time>
      </trkpt>
      <trkpt lat="44.82755" lon="0.74695">
        <ele>132.4</ele>
        <time>2024-04-07T08:41:13Z</time>
      </trkpt>
      <trkpt lat="44.82753" lon="0.74697">
        <ele>132.4</ele>
        <time>2024-04-07T08:41:14Z</time>
      </trkpt>
      <trkpt lat="44.82751" lon="0.74698">
        <ele>132.4</ele>
        <time>2024-04-07T08:41:15Z</time>
      </trkpt>
      <trkpt lat="44.82747" lon="0.74701">
        <ele>132.4</ele>
        <time>2024-04-07T08:41:17Z</time>
      </trkpt>
      <trkpt lat="44.82744" lon="0.74705">
        <ele>132.3</ele>
        <time>2024-04-07T08:41:19Z</time>
      </trkpt>
      <trkpt lat="44.82742" lon="0.74707">
        <ele>132.2</ele>
        <time>2024-04-07T08:41:20Z</time>
      </trkpt>
      <trkpt lat="44.82741" lon="0.74709">
        <ele>132.1</ele>
        <time>2024-04-07T08:41:21Z</time>
      </trkpt>
      <trkpt lat="44.82737" lon="0.74715">
        <ele>132</ele>
        <time>2024-04-07T08:41:23Z</time>
      </trkpt>
      <trkpt lat="44.82734" lon="0.74721">
        <ele>131.7</ele>
        <time>2024-04-07T08:41:25Z</time>
      </trkpt>
      <trkpt lat="44.8273" lon="0.74727">
        <ele>131.5</ele>
        <time>2024-04-07T08:41:27Z</time>
      </trkpt>
      <trkpt lat="44.82725" lon="0.74735">
        <ele>131.1</ele>
        <time>2024-04-07T08:41:29Z</time>
      </trkpt>
      <trkpt lat="44.82719" lon="0.74745">
        <ele>130.6</ele>
        <time>2024-04-07T08:41:31Z</time>
      </trkpt>
      <trkpt lat="44.82716" lon="0.7475">
        <ele>130.3</ele>
        <time>2024-04-07T08:41:32Z</time>
      </trkpt>
      <trkpt lat="44.82714" lon="0.74757">
        <ele>130</ele>
        <time>2024-04-07T08:41:33Z</time>
      </trkpt>
      <trkpt lat="44.82709" lon="0.74771">
        <ele>129.4</ele>
        <time>2024-04-07T08:41:35Z</time>
      </trkpt>
      <trkpt lat="44.82704" lon="0.74785">
        <ele>128.8</ele>
        <time>2024-04-07T08:41:37Z</time>
      </trkpt>
      <trkpt lat="44.82699" lon="0.748">
        <ele>128.1</ele>
        <time>2024-04-07T08:41:39Z</time>
      </trkpt>
      <trkpt lat="44.82697" lon="0.74809">
        <ele>127.6</ele>
        <time>2024-04-07T08:41:40Z</time>
      </trkpt>
      <trkpt lat="44.82694" lon="0.74818">
        <ele>127</ele>
        <time>2024-04-07T08:41:41Z</time>
      </trkpt>
      <trkpt lat="44.82688" lon="0.74839">
        <ele>125.8</ele>
        <time>2024-04-07T08:41:43Z</time>
      </trkpt>
      <trkpt lat="44.82681" lon="0.74858">
        <ele>124.9</ele>
        <time>2024-04-07T08:41:45Z</time>
      </trkpt>
      <trkpt lat="44.82678" lon="0.74868">
        <ele>124.6</ele>
        <time>2024-04-07T08:41:46Z</time>
      </trkpt>
      <trkpt lat="44.82675" lon="0.74878">
        <ele>124.4</ele>
        <time>2024-04-07T08:41:47Z</time>
      </trkpt>
      <trkpt lat="44.82668" lon="0.74896">
        <ele>124.2</ele>
        <time>2024-04-07T08:41:49Z</time>
      </trkpt>
      <trkpt lat="44.82665" lon="0.74904">
        <ele>124.3</ele>
        <time>2024-04-07T08:41:50Z</time>
      </trkpt>
      <trkpt lat="44.82662" lon="0.74911">
        <ele>124.5</ele>
        <time>2024-04-07T08:41:51Z</time>
      </trkpt>
      <trkpt lat="44.82656" lon="0.74921">
        <ele>125</ele>
        <time>2024-04-07T08:41:53Z</time>
      </trkpt>
      <trkpt lat="44.82654" lon="0.74925">
        <ele>125.2</ele>
        <time>2024-04-07T08:41:54Z</time>
      </trkpt>
      <trkpt lat="44.82652" lon="0.74926">
        <ele>125.4</ele>
        <time>2024-04-07T08:41:55Z</time>
      </trkpt>
      <trkpt lat="44.82648" lon="0.7493">
        <ele>125.8</ele>
        <time>2024-04-07T08:41:57Z</time>
      </trkpt>
      <trkpt lat="44.82646" lon="0.74933">
        <ele>126.1</ele>
        <time>2024-04-07T08:41:59Z</time>
      </trkpt>
      <trkpt lat="44.82643" lon="0.74935">
        <ele>126.3</ele>
        <time>2024-04-07T08:42:01Z</time>
      </trkpt>
      <trkpt lat="44.82642" lon="0.74936">
        <ele>126.5</ele>
        <time>2024-04-07T08:42:02Z</time>
      </trkpt>
      <trkpt lat="44.8264" lon="0.74936">
        <ele>126.7</ele>
        <time>2024-04-07T08:42:03Z</time>
      </trkpt>
      <trkpt lat="44.82637" lon="0.74937">
        <ele>127</ele>
        <time>2024-04-07T08:42:05Z</time>
      </trkpt>
      <trkpt lat="44.82634" lon="0.74939">
        <ele>127.3</ele>
        <time>2024-04-07T08:42:07Z</time>
      </trkpt>
      <trkpt lat="44.82633" lon="0.74941">
        <ele>127.5</ele>
        <time>2024-04-07T08:42:09Z</time>
      </trkpt>
      <trkpt lat="44.82633" lon="0.74943">
        <ele>127.7</ele>
        <time>2024-04-07T08:42:10Z</time>
      </trkpt>
      <trkpt lat="44.82633" lon="0.74944">
        <ele>127.8</ele>
        <time>2024-04-07T08:42:11Z</time>
      </trkpt>
      <trkpt lat="44.82634" lon="0.74947">
        <ele>128</ele>
        <time>2024-04-07T08:42:13Z</time>
      </trkpt>
      <trkpt lat="44.82635" lon="0.7495">
        <ele>128.3</ele>
        <time>2024-04-07T08:42:15Z</time>
      </trkpt>
      <trkpt lat="44.82635" lon="0.74952">
        <ele>128.4</ele>
        <time>2024-04-07T08:42:16Z</time>
      </trkpt>
      <trkpt lat="44.82636" lon="0.74954">
        <ele>128.5</ele>
        <time>2024-04-07T08:42:17Z</time>
      </trkpt>
      <trkpt lat="44.82637" lon="0.74958">
        <ele>128.7</ele>
        <time>2024-04-07T08:42:19Z</time>
      </trkpt>
      <trkpt lat="44.82638" lon="0.74963">
        <ele>128.9</ele>
        <time>2024-04-07T08:42:21Z</time>
      </trkpt>
      <trkpt lat="44.82637" lon="0.74967">
        <ele>129</ele>
        <time>2024-04-07T08:42:23Z</time>
      </trkpt>
      <trkpt lat="44.82635" lon="0.7497">
        <ele>129.1</ele>
        <time>2024-04-07T08:42:25Z</time>
      </trkpt>
      <trkpt lat="44.82632" lon="0.74974">
        <ele>129.3</ele>
        <time>2024-04-07T08:42:27Z</time>
      </trkpt>
      <trkpt lat="44.82631" lon="0.74979">
        <ele>129.4</ele>
        <time>2024-04-07T08:42:29Z</time>
      </trkpt>
      <trkpt lat="44.82629" lon="0.74981">
        <ele>129.4</ele>
        <time>2024-04-07T08:42:30Z</time>
      </trkpt>
      <trkpt lat="44.82628" lon="0.74984">
        <ele>129.5</ele>
        <time>2024-04-07T08:42:31Z</time>
      </trkpt>
      <trkpt lat="44.82628" lon="0.74987">
        <ele>129.5</ele>
        <time>2024-04-07T08:42:32Z</time>
      </trkpt>
      <trkpt lat="44.82628" lon="0.7499">
        <ele>129.5</ele>
        <time>2024-04-07T08:42:33Z</time>
      </trkpt>
      <trkpt lat="44.82629" lon="0.74993">
        <ele>129.6</ele>
        <time>2024-04-07T08:42:34Z</time>
      </trkpt>
      <trkpt lat="44.8263" lon="0.74996">
        <ele>129.6</ele>
        <time>2024-04-07T08:42:35Z</time>
      </trkpt>
      <trkpt lat="44.82632" lon="0.75003">
        <ele>129.7</ele>
        <time>2024-04-07T08:42:37Z</time>
      </trkpt>
      <trkpt lat="44.82635" lon="0.75009">
        <ele>129.8</ele>
        <time>2024-04-07T08:42:39Z</time>
      </trkpt>
      <trkpt lat="44.82639" lon="0.75016">
        <ele>130</ele>
        <time>2024-04-07T08:42:41Z</time>
      </trkpt>
      <trkpt lat="44.82641" lon="0.75023">
        <ele>130.1</ele>
        <time>2024-04-07T08:42:43Z</time>
      </trkpt>
      <trkpt lat="44.82644" lon="0.7503">
        <ele>130.3</ele>
        <time>2024-04-07T08:42:45Z</time>
      </trkpt>
      <trkpt lat="44.82647" lon="0.75036">
        <ele>130.5</ele>
        <time>2024-04-07T08:42:47Z</time>
      </trkpt>
      <trkpt lat="44.82651" lon="0.75043">
        <ele>130.6</ele>
        <time>2024-04-07T08:42:49Z</time>
      </trkpt>
      <trkpt lat="44.82653" lon="0.75049">
        <ele>130.8</ele>
        <time>2024-04-07T08:42:51Z</time>
      </trkpt>
      <trkpt lat="44.82655" lon="0.75055">
        <ele>130.9</ele>
        <time>2024-04-07T08:42:53Z</time>
      </trkpt>
      <trkpt lat="44.82657" lon="0.75063">
        <ele>131</ele>
        <time>2024-04-07T08:42:55Z</time>
      </trkpt>
      <trkpt lat="44.82655" lon="0.75069">
        <ele>131.1</ele>
        <time>2024-04-07T08:42:57Z</time>
      </trkpt>
      <trkpt lat="44.82653" lon="0.75072">
        <ele>130.8</ele>
        <time>2024-04-07T08:42:58Z</time>
      </trkpt>
      <trkpt lat="44.8265" lon="0.75075">
        <ele>130.7</ele>
        <time>2024-04-07T08:42:59Z</time>
      </trkpt>
      <trkpt lat="44.82643" lon="0.7508">
        <ele>130.5</ele>
        <time>2024-04-07T08:43:01Z</time>
      </trkpt>
      <trkpt lat="44.82636" lon="0.75085">
        <ele>130.3</ele>
        <time>2024-04-07T08:43:03Z</time>
      </trkpt>
      <trkpt lat="44.82628" lon="0.75091">
        <ele>130.2</ele>
        <time>2024-04-07T08:43:05Z</time>
      </trkpt>
      <trkpt lat="44.8262" lon="0.75096">
        <ele>130.1</ele>
        <time>2024-04-07T08:43:07Z</time>
      </trkpt>
      <trkpt lat="44.82613" lon="0.75102">
        <ele>130.1</ele>
        <time>2024-04-07T08:43:09Z</time>
      </trkpt>
      <trkpt lat="44.82605" lon="0.75107">
        <ele>130</ele>
        <time>2024-04-07T08:43:11Z</time>
      </trkpt>
      <trkpt lat="44.82598" lon="0.75112">
        <ele>130</ele>
        <time>2024-04-07T08:43:13Z</time>
      </trkpt>
      <trkpt lat="44.8259" lon="0.75118">
        <ele>129.9</ele>
        <time>2024-04-07T08:43:15Z</time>
      </trkpt>
      <trkpt lat="44.82582" lon="0.75124">
        <ele>129.9</ele>
        <time>2024-04-07T08:43:17Z</time>
      </trkpt>
      <trkpt lat="44.82574" lon="0.7513">
        <ele>130</ele>
        <time>2024-04-07T08:43:19Z</time>
      </trkpt>
      <trkpt lat="44.82568" lon="0.75137">
        <ele>130</ele>
        <time>2024-04-07T08:43:21Z</time>
      </trkpt>
      <trkpt lat="44.82562" lon="0.75144">
        <ele>130.2</ele>
        <time>2024-04-07T08:43:23Z</time>
      </trkpt>
      <trkpt lat="44.82556" lon="0.75153">
        <ele>130.3</ele>
        <time>2024-04-07T08:43:25Z</time>
      </trkpt>
      <trkpt lat="44.82551" lon="0.75161">
        <ele>130.5</ele>
        <time>2024-04-07T08:43:27Z</time>
      </trkpt>
      <trkpt lat="44.82546" lon="0.7517">
        <ele>130.6</ele>
        <time>2024-04-07T08:43:29Z</time>
      </trkpt>
      <trkpt lat="44.8254" lon="0.75177">
        <ele>130.7</ele>
        <time>2024-04-07T08:43:31Z</time>
      </trkpt>
      <trkpt lat="44.82535" lon="0.75184">
        <ele>130.7</ele>
        <time>2024-04-07T08:43:33Z</time>
      </trkpt>
      <trkpt lat="44.82532" lon="0.75188">
        <ele>130.7</ele>
        <time>2024-04-07T08:43:34Z</time>
      </trkpt>
      <trkpt lat="44.82529" lon="0.75191">
        <ele>130.7</ele>
        <time>2024-04-07T08:43:35Z</time>
      </trkpt>
      <trkpt lat="44.82524" lon="0.75194">
        <ele>130.7</ele>
        <time>2024-04-07T08:43:37Z</time>
      </trkpt>
      <trkpt lat="44.82521" lon="0.75197">
        <ele>130.7</ele>
        <time>2024-04-07T08:43:38Z</time>
      </trkpt>
      <trkpt lat="44.82517" lon="0.75199">
        <ele>130.7</ele>
        <time>2024-04-07T08:43:39Z</time>
      </trkpt>
      <trkpt lat="44.8251" lon="0.75202">
        <ele>130.6</ele>
        <time>2024-04-07T08:43:41Z</time>
      </trkpt>
      <trkpt lat="44.82506" lon="0.75203">
        <ele>130.6</ele>
        <time>2024-04-07T08:43:42Z</time>
      </trkpt>
      <trkpt lat="44.82502" lon="0.75204">
        <ele>130.5</ele>
        <time>2024-04-07T08:43:43Z</time>
      </trkpt>
      <trkpt lat="44.82493" lon="0.75206">
        <ele>130.4</ele>
        <time>2024-04-07T08:43:45Z</time>
      </trkpt>
      <trkpt lat="44.82484" lon="0.75207">
        <ele>130.2</ele>
        <time>2024-04-07T08:43:47Z</time>
      </trkpt>
      <trkpt lat="44.82479" lon="0.75208">
        <ele>130.1</ele>
        <time>2024-04-07T08:43:48Z</time>
      </trkpt>
      <trkpt lat="44.82474" lon="0.75209">
        <ele>129.9</ele>
        <time>2024-04-07T08:43:49Z</time>
      </trkpt>
      <trkpt lat="44.82465" lon="0.75211">
        <ele>129.6</ele>
        <time>2024-04-07T08:43:51Z</time>
      </trkpt>
      <trkpt lat="44.82455" lon="0.75213">
        <ele>129.3</ele>
        <time>2024-04-07T08:43:53Z</time>
      </trkpt>
      <trkpt lat="44.82444" lon="0.75215">
        <ele>128.9</ele>
        <time>2024-04-07T08:43:55Z</time>
      </trkpt>
      <trkpt lat="44.82433" lon="0.75217">
        <ele>128.6</ele>
        <time>2024-04-07T08:43:57Z</time>
      </trkpt>
      <trkpt lat="44.82422" lon="0.75218">
        <ele>128.4</ele>
        <time>2024-04-07T08:43:59Z</time>
      </trkpt>
      <trkpt lat="44.82412" lon="0.7522">
        <ele>128.2</ele>
        <time>2024-04-07T08:44:01Z</time>
      </trkpt>
      <trkpt lat="44.82405" lon="0.75223">
        <ele>128</ele>
        <time>2024-04-07T08:44:03Z</time>
      </trkpt>
      <trkpt lat="44.82402" lon="0.75224">
        <ele>127.9</ele>
        <time>2024-04-07T08:44:04Z</time>
      </trkpt>
      <trkpt lat="44.824" lon="0.75226">
        <ele>127.9</ele>
        <time>2024-04-07T08:44:05Z</time>
      </trkpt>
      <trkpt lat="44.82395" lon="0.75231">
        <ele>127.7</ele>
        <time>2024-04-07T08:44:07Z</time>
      </trkpt>
      <trkpt lat="44.82392" lon="0.75236">
        <ele>127.6</ele>
        <time>2024-04-07T08:44:08Z</time>
      </trkpt>
      <trkpt lat="44.82388" lon="0.7524">
        <ele>127.4</ele>
        <time>2024-04-07T08:44:09Z</time>
      </trkpt>
      <trkpt lat="44.82385" lon="0.75245">
        <ele>127.4</ele>
        <time>2024-04-07T08:44:10Z</time>
      </trkpt>
      <trkpt lat="44.82381" lon="0.75248">
        <ele>127.4</ele>
        <time>2024-04-07T08:44:11Z</time>
      </trkpt>
      <trkpt lat="44.82374" lon="0.75255">
        <ele>127.4</ele>
        <time>2024-04-07T08:44:13Z</time>
      </trkpt>
      <trkpt lat="44.82371" lon="0.75259">
        <ele>127.4</ele>
        <time>2024-04-07T08:44:14Z</time>
      </trkpt>
      <trkpt lat="44.82367" lon="0.75262">
        <ele>127.4</ele>
        <time>2024-04-07T08:44:15Z</time>
      </trkpt>
      <trkpt lat="44.8236" lon="0.75268">
        <ele>127.3</ele>
        <time>2024-04-07T08:44:17Z</time>
      </trkpt>
      <trkpt lat="44.82353" lon="0.75275">
        <ele>127.1</ele>
        <time>2024-04-07T08:44:19Z</time>
      </trkpt>
      <trkpt lat="44.8235" lon="0.75278">
        <ele>127</ele>
        <time>2024-04-07T08:44:20Z</time>
      </trkpt>
      <trkpt lat="44.82346" lon="0.75281">
        <ele>126.9</ele>
        <time>2024-04-07T08:44:21Z</time>
      </trkpt>
      <trkpt lat="44.82342" lon="0.75284">
        <ele>126.7</ele>
        <time>2024-04-07T08:44:22Z</time>
      </trkpt>
      <trkpt lat="44.82338" lon="0.75287">
        <ele>126.6</ele>
        <time>2024-04-07T08:44:23Z</time>
      </trkpt>
      <trkpt lat="44.82333" lon="0.7529">
        <ele>126.4</ele>
        <time>2024-04-07T08:44:24Z</time>
      </trkpt>
      <trkpt lat="44.82328" lon="0.75292">
        <ele>126.2</ele>
        <time>2024-04-07T08:44:25Z</time>
      </trkpt>
      <trkpt lat="44.82323" lon="0.75294">
        <ele>126</ele>
        <time>2024-04-07T08:44:26Z</time>
      </trkpt>
      <trkpt lat="44.82317" lon="0.75295">
        <ele>125.7</ele>
        <time>2024-04-07T08:44:27Z</time>
      </trkpt>
      <trkpt lat="44.82306" lon="0.75298">
        <ele>125.4</ele>
        <time>2024-04-07T08:44:29Z</time>
      </trkpt>
      <trkpt lat="44.82294" lon="0.753">
        <ele>124.9</ele>
        <time>2024-04-07T08:44:31Z</time>
      </trkpt>
      <trkpt lat="44.82289" lon="0.75302">
        <ele>124.7</ele>
        <time>2024-04-07T08:44:32Z</time>
      </trkpt>
      <trkpt lat="44.82283" lon="0.75302">
        <ele>124.5</ele>
        <time>2024-04-07T08:44:33Z</time>
      </trkpt>
      <trkpt lat="44.82271" lon="0.75304">
        <ele>124.2</ele>
        <time>2024-04-07T08:44:35Z</time>
      </trkpt>
      <trkpt lat="44.82259" lon="0.75306">
        <ele>123.9</ele>
        <time>2024-04-07T08:44:37Z</time>
      </trkpt>
      <trkpt lat="44.82246" lon="0.75309">
        <ele>123.8</ele>
        <time>2024-04-07T08:44:39Z</time>
      </trkpt>
      <trkpt lat="44.82234" lon="0.75312">
        <ele>123.8</ele>
        <time>2024-04-07T08:44:41Z</time>
      </trkpt>
      <trkpt lat="44.82221" lon="0.75315">
        <ele>123.8</ele>
        <time>2024-04-07T08:44:43Z</time>
      </trkpt>
      <trkpt lat="44.8221" lon="0.75317">
        <ele>123.9</ele>
        <time>2024-04-07T08:44:45Z</time>
      </trkpt>
      <trkpt lat="44.82201" lon="0.75318">
        <ele>124</ele>
        <time>2024-04-07T08:44:47Z</time>
      </trkpt>
      <trkpt lat="44.82191" lon="0.7532">
        <ele>124.3</ele>
        <time>2024-04-07T08:44:49Z</time>
      </trkpt>
      <trkpt lat="44.82188" lon="0.7532">
        <ele>124.3</ele>
        <time>2024-04-07T08:44:50Z</time>
      </trkpt>
      <trkpt lat="44.82185" lon="0.75318">
        <ele>124.4</ele>
        <time>2024-04-07T08:44:51Z</time>
      </trkpt>
      <trkpt lat="44.82182" lon="0.75313">
        <ele>124.6</ele>
        <time>2024-04-07T08:44:53Z</time>
      </trkpt>
      <trkpt lat="44.8218" lon="0.75308">
        <ele>124.8</ele>
        <time>2024-04-07T08:44:55Z</time>
      </trkpt>
      <trkpt lat="44.82177" lon="0.75302">
        <ele>125.1</ele>
        <time>2024-04-07T08:44:57Z</time>
      </trkpt>
      <trkpt lat="44.82176" lon="0.75299">
        <ele>125.2</ele>
        <time>2024-04-07T08:44:58Z</time>
      </trkpt>
      <trkpt lat="44.82174" lon="0.75297">
        <ele>125.3</ele>
        <time>2024-04-07T08:44:59Z</time>
      </trkpt>
      <trkpt lat="44.82171" lon="0.75292">
        <ele>125.6</ele>
        <time>2024-04-07T08:45:01Z</time>
      </trkpt>
      <trkpt lat="44.82167" lon="0.75289">
        <ele>125.9</ele>
        <time>2024-04-07T08:45:03Z</time>
      </trkpt>
      <trkpt lat="44.82165" lon="0.75287">
        <ele>126</ele>
        <time>2024-04-07T08:45:04Z</time>
      </trkpt>
      <trkpt lat="44.82164" lon="0.75285">
        <ele>126.1</ele>
        <time>2024-04-07T08:45:05Z</time>
      </trkpt>
      <trkpt lat="44.82162" lon="0.75284">
        <ele>126.3</ele>
        <time>2024-04-07T08:45:06Z</time>
      </trkpt>
      <trkpt lat="44.8216" lon="0.75284">
        <ele>126.4</ele>
        <time>2024-04-07T08:45:07Z</time>
      </trkpt>
      <trkpt lat="44.82156" lon="0.75282">
        <ele>126.6</ele>
        <time>2024-04-07T08:45:09Z</time>
      </trkpt>
      <trkpt lat="44.82155" lon="0.75281">
        <ele>126.7</ele>
        <time>2024-04-07T08:45:10Z</time>
      </trkpt>
      <trkpt lat="44.82153" lon="0.75281">
        <ele>126.8</ele>
        <time>2024-04-07T08:45:11Z</time>
      </trkpt>
      <trkpt lat="44.8215" lon="0.7528">
        <ele>127.1</ele>
        <time>2024-04-07T08:45:13Z</time>
      </trkpt>
      <trkpt lat="44.82148" lon="0.7528">
        <ele>127.2</ele>
        <time>2024-04-07T08:45:14Z</time>
      </trkpt>
      <trkpt lat="44.82146" lon="0.7528">
        <ele>127.4</ele>
        <time>2024-04-07T08:45:15Z</time>
      </trkpt>
      <trkpt lat="44.82141" lon="0.7528">
        <ele>127.7</ele>
        <time>2024-04-07T08:45:17Z</time>
      </trkpt>
      <trkpt lat="44.82136" lon="0.75281">
        <ele>128</ele>
        <time>2024-04-07T08:45:19Z</time>
      </trkpt>
      <trkpt lat="44.82131" lon="0.75283">
        <ele>128.3</ele>
        <time>2024-04-07T08:45:21Z</time>
      </trkpt>
      <trkpt lat="44.82127" lon="0.75284">
        <ele>128.6</ele>
        <time>2024-04-07T08:45:23Z</time>
      </trkpt>
      <trkpt lat="44.82125" lon="0.75285">
        <ele>128.7</ele>
        <time>2024-04-07T08:45:24Z</time>
      </trkpt>
      <trkpt lat="44.82123" lon="0.75285">
        <ele>128.8</ele>
        <time>2024-04-07T08:45:25Z</time>
      </trkpt>
      <trkpt lat="44.82122" lon="0.75284">
        <ele>128.9</ele>
        <time>2024-04-07T08:45:26Z</time>
      </trkpt>
      <trkpt lat="44.82119" lon="0.75285">
        <ele>129</ele>
        <time>2024-04-07T08:45:27Z</time>
      </trkpt>
      <trkpt lat="44.82117" lon="0.75285">
        <ele>129.1</ele>
        <time>2024-04-07T08:45:28Z</time>
      </trkpt>
      <trkpt lat="44.82114" lon="0.75285">
        <ele>129.3</ele>
        <time>2024-04-07T08:45:29Z</time>
      </trkpt>
      <trkpt lat="44.82111" lon="0.75286">
        <ele>129.4</ele>
        <time>2024-04-07T08:45:30Z</time>
      </trkpt>
      <trkpt lat="44.82108" lon="0.75286">
        <ele>129.6</ele>
        <time>2024-04-07T08:45:31Z</time>
      </trkpt>
      <trkpt lat="44.82106" lon="0.75287">
        <ele>129.7</ele>
        <time>2024-04-07T08:45:32Z</time>
      </trkpt>
      <trkpt lat="44.82103" lon="0.75287">
        <ele>129.9</ele>
        <time>2024-04-07T08:45:33Z</time>
      </trkpt>
      <trkpt lat="44.82101" lon="0.75288">
        <ele>130</ele>
        <time>2024-04-07T08:45:34Z</time>
      </trkpt>
      <trkpt lat="44.82098" lon="0.75288">
        <ele>130.1</ele>
        <time>2024-04-07T08:45:35Z</time>
      </trkpt>
      <trkpt lat="44.82096" lon="0.75289">
        <ele>130.2</ele>
        <time>2024-04-07T08:45:36Z</time>
      </trkpt>
      <trkpt lat="44.82094" lon="0.75289">
        <ele>130.4</ele>
        <time>2024-04-07T08:45:37Z</time>
      </trkpt>
      <trkpt lat="44.82089" lon="0.75289">
        <ele>130.6</ele>
        <time>2024-04-07T08:45:39Z</time>
      </trkpt>
      <trkpt lat="44.82084" lon="0.75289">
        <ele>130.9</ele>
        <time>2024-04-07T08:45:41Z</time>
      </trkpt>
      <trkpt lat="44.8208" lon="0.75291">
        <ele>131.2</ele>
        <time>2024-04-07T08:45:43Z</time>
      </trkpt>
      <trkpt lat="44.82075" lon="0.75292">
        <ele>131.5</ele>
        <time>2024-04-07T08:45:45Z</time>
      </trkpt>
      <trkpt lat="44.82072" lon="0.75291">
        <ele>131.8</ele>
        <time>2024-04-07T08:45:47Z</time>
      </trkpt>
      <trkpt lat="44.82071" lon="0.7529">
        <ele>131.9</ele>
        <time>2024-04-07T08:45:48Z</time>
      </trkpt>
      <trkpt lat="44.82069" lon="0.7529">
        <ele>132</ele>
        <time>2024-04-07T08:45:49Z</time>
      </trkpt>
      <trkpt lat="44.82066" lon="0.7529">
        <ele>132.2</ele>
        <time>2024-04-07T08:45:51Z</time>
      </trkpt>
      <trkpt lat="44.82063" lon="0.75291">
        <ele>132.5</ele>
        <time>2024-04-07T08:45:53Z</time>
      </trkpt>
      <trkpt lat="44.8206" lon="0.75292">
        <ele>132.8</ele>
        <time>2024-04-07T08:45:55Z</time>
      </trkpt>
      <trkpt lat="44.82058" lon="0.75292">
        <ele>132.9</ele>
        <time>2024-04-07T08:45:56Z</time>
      </trkpt>
      <trkpt lat="44.82057" lon="0.75291">
        <ele>133.1</ele>
        <time>2024-04-07T08:45:57Z</time>
      </trkpt>
      <trkpt lat="44.82054" lon="0.75292">
        <ele>133.3</ele>
        <time>2024-04-07T08:45:59Z</time>
      </trkpt>
      <trkpt lat="44.8205" lon="0.75293">
        <ele>133.6</ele>
        <time>2024-04-07T08:46:01Z</time>
      </trkpt>
      <trkpt lat="44.82047" lon="0.75294">
        <ele>133.9</ele>
        <time>2024-04-07T08:46:03Z</time>
      </trkpt>
      <trkpt lat="44.82043" lon="0.75295">
        <ele>134.2</ele>
        <time>2024-04-07T08:46:05Z</time>
      </trkpt>
      <trkpt lat="44.82039" lon="0.75297">
        <ele>134.5</ele>
        <time>2024-04-07T08:46:07Z</time>
      </trkpt>
      <trkpt lat="44.82035" lon="0.75298">
        <ele>134.8</ele>
        <time>2024-04-07T08:46:09Z</time>
      </trkpt>
      <trkpt lat="44.8203" lon="0.75299">
        <ele>135.1</ele>
        <time>2024-04-07T08:46:11Z</time>
      </trkpt>
      <trkpt lat="44.82028" lon="0.75299">
        <ele>135.3</ele>
        <time>2024-04-07T08:46:12Z</time>
      </trkpt>
      <trkpt lat="44.82026" lon="0.753">
        <ele>135.4</ele>
        <time>2024-04-07T08:46:13Z</time>
      </trkpt>
      <trkpt lat="44.82021" lon="0.75302">
        <ele>135.7</ele>
        <time>2024-04-07T08:46:15Z</time>
      </trkpt>
      <trkpt lat="44.8202" lon="0.75303">
        <ele>135.8</ele>
        <time>2024-04-07T08:46:16Z</time>
      </trkpt>
      <trkpt lat="44.82019" lon="0.75304">
        <ele>135.8</ele>
        <time>2024-04-07T08:46:17Z</time>
      </trkpt>
      <trkpt lat="44.82015" lon="0.75304">
        <ele>136</ele>
        <time>2024-04-07T08:46:19Z</time>
      </trkpt>
      <trkpt lat="44.8201" lon="0.75307">
        <ele>136.4</ele>
        <time>2024-04-07T08:46:21Z</time>
      </trkpt>
      <trkpt lat="44.82005" lon="0.7531">
        <ele>136.8</ele>
        <time>2024-04-07T08:46:23Z</time>
      </trkpt>
      <trkpt lat="44.82002" lon="0.75311">
        <ele>137</ele>
        <time>2024-04-07T08:46:25Z</time>
      </trkpt>
      <trkpt lat="44.82" lon="0.75311">
        <ele>137.2</ele>
        <time>2024-04-07T08:46:26Z</time>
      </trkpt>
      <trkpt lat="44.81998" lon="0.75311">
        <ele>137.3</ele>
        <time>2024-04-07T08:46:27Z</time>
      </trkpt>
      <trkpt lat="44.81996" lon="0.75311">
        <ele>137.4</ele>
        <time>2024-04-07T08:46:28Z</time>
      </trkpt>
      <trkpt lat="44.81994" lon="0.75313">
        <ele>137.6</ele>
        <time>2024-04-07T08:46:29Z</time>
      </trkpt>
      <trkpt lat="44.81989" lon="0.75316">
        <ele>138</ele>
        <time>2024-04-07T08:46:31Z</time>
      </trkpt>
      <trkpt lat="44.81987" lon="0.75316">
        <ele>138.2</ele>
        <time>2024-04-07T08:46:33Z</time>
      </trkpt>
      <trkpt lat="44.81985" lon="0.75316">
        <ele>138.4</ele>
        <time>2024-04-07T08:46:34Z</time>
      </trkpt>
      <trkpt lat="44.81983" lon="0.75315">
        <ele>138.5</ele>
        <time>2024-04-07T08:46:35Z</time>
      </trkpt>
      <trkpt lat="44.81979" lon="0.75317">
        <ele>138.8</ele>
        <time>2024-04-07T08:46:37Z</time>
      </trkpt>
      <trkpt lat="44.81978" lon="0.75317">
        <ele>138.9</ele>
        <time>2024-04-07T08:46:38Z</time>
      </trkpt>
      <trkpt lat="44.81976" lon="0.75318">
        <ele>139</ele>
        <time>2024-04-07T08:46:39Z</time>
      </trkpt>
      <trkpt lat="44.81972" lon="0.75319">
        <ele>139.3</ele>
        <time>2024-04-07T08:46:41Z</time>
      </trkpt>
      <trkpt lat="44.81971" lon="0.75319">
        <ele>139.5</ele>
        <time>2024-04-07T08:46:42Z</time>
      </trkpt>
      <trkpt lat="44.81969" lon="0.75319">
        <ele>139.6</ele>
        <time>2024-04-07T08:46:43Z</time>
      </trkpt>
      <trkpt lat="44.81966" lon="0.75321">
        <ele>139.9</ele>
        <time>2024-04-07T08:46:45Z</time>
      </trkpt>
      <trkpt lat="44.81963" lon="0.7532">
        <ele>140.1</ele>
        <time>2024-04-07T08:46:47Z</time>
      </trkpt>
      <trkpt lat="44.81961" lon="0.7532">
        <ele>140.3</ele>
        <time>2024-04-07T08:46:48Z</time>
      </trkpt>
      <trkpt lat="44.81959" lon="0.75321">
        <ele>140.4</ele>
        <time>2024-04-07T08:46:49Z</time>
      </trkpt>
      <trkpt lat="44.81955" lon="0.75321">
        <ele>140.7</ele>
        <time>2024-04-07T08:46:51Z</time>
      </trkpt>
      <trkpt lat="44.81952" lon="0.75322">
        <ele>141</ele>
        <time>2024-04-07T08:46:53Z</time>
      </trkpt>
      <trkpt lat="44.81948" lon="0.75323">
        <ele>141.3</ele>
        <time>2024-04-07T08:46:55Z</time>
      </trkpt>
      <trkpt lat="44.81943" lon="0.75326">
        <ele>141.7</ele>
        <time>2024-04-07T08:46:57Z</time>
      </trkpt>
      <trkpt lat="44.81939" lon="0.75327">
        <ele>141.9</ele>
        <time>2024-04-07T08:46:59Z</time>
      </trkpt>
      <trkpt lat="44.81935" lon="0.75329">
        <ele>142.1</ele>
        <time>2024-04-07T08:47:01Z</time>
      </trkpt>
      <trkpt lat="44.81932" lon="0.75329">
        <ele>142.4</ele>
        <time>2024-04-07T08:47:03Z</time>
      </trkpt>
      <trkpt lat="44.81929" lon="0.7533">
        <ele>142.6</ele>
        <time>2024-04-07T08:47:05Z</time>
      </trkpt>
      <trkpt lat="44.81925" lon="0.75331">
        <ele>142.8</ele>
        <time>2024-04-07T08:47:07Z</time>
      </trkpt>
      <trkpt lat="44.81921" lon="0.75331">
        <ele>143</ele>
        <time>2024-04-07T08:47:09Z</time>
      </trkpt>
      <trkpt lat="44.81919" lon="0.7533">
        <ele>143.2</ele>
        <time>2024-04-07T08:47:11Z</time>
      </trkpt>
      <trkpt lat="44.81916" lon="0.7533">
        <ele>143.3</ele>
        <time>2024-04-07T08:47:13Z</time>
      </trkpt>
      <trkpt lat="44.81914" lon="0.75331">
        <ele>143.3</ele>
        <time>2024-04-07T08:47:15Z</time>
      </trkpt>
      <trkpt lat="44.81912" lon="0.75331">
        <ele>143.5</ele>
        <time>2024-04-07T08:47:17Z</time>
      </trkpt>
      <trkpt lat="44.8191" lon="0.75332">
        <ele>143.5</ele>
        <time>2024-04-07T08:47:18Z</time>
      </trkpt>
      <trkpt lat="44.81909" lon="0.75332">
        <ele>143.6</ele>
        <time>2024-04-07T08:47:19Z</time>
      </trkpt>
      <trkpt lat="44.81906" lon="0.75334">
        <ele>143.7</ele>
        <time>2024-04-07T08:47:21Z</time>
      </trkpt>
      <trkpt lat="44.81905" lon="0.75335">
        <ele>143.7</ele>
        <time>2024-04-07T08:47:23Z</time>
      </trkpt>
      <trkpt lat="44.81904" lon="0.75336">
        <ele>143.8</ele>
        <time>2024-04-07T08:47:24Z</time>
      </trkpt>
      <trkpt lat="44.81903" lon="0.75337">
        <ele>143.8</ele>
        <time>2024-04-07T08:47:25Z</time>
      </trkpt>
      <trkpt lat="44.81901" lon="0.75339">
        <ele>143.9</ele>
        <time>2024-04-07T08:47:27Z</time>
      </trkpt>
      <trkpt lat="44.81899" lon="0.7534">
        <ele>143.9</ele>
        <time>2024-04-07T08:47:29Z</time>
      </trkpt>
      <trkpt lat="44.81898" lon="0.75342">
        <ele>144</ele>
        <time>2024-04-07T08:47:30Z</time>
      </trkpt>
      <trkpt lat="44.81898" lon="0.75343">
        <ele>144</ele>
        <time>2024-04-07T08:47:31Z</time>
      </trkpt>
      <trkpt lat="44.81896" lon="0.75344">
        <ele>144</ele>
        <time>2024-04-07T08:47:33Z</time>
      </trkpt>
      <trkpt lat="44.81894" lon="0.75346">
        <ele>144.1</ele>
        <time>2024-04-07T08:47:35Z</time>
      </trkpt>
      <trkpt lat="44.81893" lon="0.75348">
        <ele>144.1</ele>
        <time>2024-04-07T08:47:37Z</time>
      </trkpt>
      <trkpt lat="44.81892" lon="0.75349">
        <ele>144.1</ele>
        <time>2024-04-07T08:47:38Z</time>
      </trkpt>
      <trkpt lat="44.81892" lon="0.75349">
        <ele>144.2</ele>
        <time>2024-04-07T08:47:39Z</time>
      </trkpt>
      <trkpt lat="44.81891" lon="0.7535">
        <ele>144.2</ele>
        <time>2024-04-07T08:47:41Z</time>
      </trkpt>
      <trkpt lat="44.81891" lon="0.75353">
        <ele>144.2</ele>
        <time>2024-04-07T08:47:43Z</time>
      </trkpt>
      <trkpt lat="44.81891" lon="0.75354">
        <ele>144.2</ele>
        <time>2024-04-07T08:47:44Z</time>
      </trkpt>
      <trkpt lat="44.81891" lon="0.75357">
        <ele>144.2</ele>
        <time>2024-04-07T08:47:45Z</time>
      </trkpt>
      <trkpt lat="44.8189" lon="0.7536">
        <ele>144.2</ele>
        <time>2024-04-07T08:47:47Z</time>
      </trkpt>
      <trkpt lat="44.8189" lon="0.75363">
        <ele>144.2</ele>
        <time>2024-04-07T08:47:49Z</time>
      </trkpt>
      <trkpt lat="44.8189" lon="0.75367">
        <ele>144.2</ele>
        <time>2024-04-07T08:47:51Z</time>
      </trkpt>
      <trkpt lat="44.8189" lon="0.75369">
        <ele>144.2</ele>
        <time>2024-04-07T08:47:52Z</time>
      </trkpt>
      <trkpt lat="44.81889" lon="0.7537">
        <ele>144.2</ele>
        <time>2024-04-07T08:47:53Z</time>
      </trkpt>
      <trkpt lat="44.81888" lon="0.75373">
        <ele>144.2</ele>
        <time>2024-04-07T08:47:55Z</time>
      </trkpt>
      <trkpt lat="44.81886" lon="0.75376">
        <ele>144.2</ele>
        <time>2024-04-07T08:47:57Z</time>
      </trkpt>
      <trkpt lat="44.81885" lon="0.75378">
        <ele>144.2</ele>
        <time>2024-04-07T08:47:58Z</time>
      </trkpt>
      <trkpt lat="44.81884" lon="0.7538">
        <ele>144.2</ele>
        <time>2024-04-07T08:47:59Z</time>
      </trkpt>
      <trkpt lat="44.81884" lon="0.75382">
        <ele>144.2</ele>
        <time>2024-04-07T08:48:00Z</time>
      </trkpt>
      <trkpt lat="44.81884" lon="0.75384">
        <ele>144.2</ele>
        <time>2024-04-07T08:48:01Z</time>
      </trkpt>
      <trkpt lat="44.81884" lon="0.75389">
        <ele>144.2</ele>
        <time>2024-04-07T08:48:03Z</time>
      </trkpt>
      <trkpt lat="44.81884" lon="0.75394">
        <ele>144.2</ele>
        <time>2024-04-07T08:48:05Z</time>
      </trkpt>
      <trkpt lat="44.81882" lon="0.75399">
        <ele>144.2</ele>
        <time>2024-04-07T08:48:07Z</time>
      </trkpt>
      <trkpt lat="44.81881" lon="0.75401">
        <ele>144.3</ele>
        <time>2024-04-07T08:48:08Z</time>
      </trkpt>
      <trkpt lat="44.8188" lon="0.75403">
        <ele>144.3</ele>
        <time>2024-04-07T08:48:09Z</time>
      </trkpt>
      <trkpt lat="44.81878" lon="0.75407">
        <ele>144.4</ele>
        <time>2024-04-07T08:48:11Z</time>
      </trkpt>
      <trkpt lat="44.81876" lon="0.75411">
        <ele>144.6</ele>
        <time>2024-04-07T08:48:13Z</time>
      </trkpt>
      <trkpt lat="44.81874" lon="0.75415">
        <ele>144.7</ele>
        <time>2024-04-07T08:48:15Z</time>
      </trkpt>
      <trkpt lat="44.81872" lon="0.75417">
        <ele>144.8</ele>
        <time>2024-04-07T08:48:17Z</time>
      </trkpt>
      <trkpt lat="44.8187" lon="0.75422">
        <ele>144.9</ele>
        <time>2024-04-07T08:48:19Z</time>
      </trkpt>
      <trkpt lat="44.81867" lon="0.75427">
        <ele>145.1</ele>
        <time>2024-04-07T08:48:21Z</time>
      </trkpt>
      <trkpt lat="44.81865" lon="0.75429">
        <ele>145.2</ele>
        <time>2024-04-07T08:48:22Z</time>
      </trkpt>
      <trkpt lat="44.81863" lon="0.75431">
        <ele>145.2</ele>
        <time>2024-04-07T08:48:23Z</time>
      </trkpt>
      <trkpt lat="44.8186" lon="0.75434">
        <ele>145.4</ele>
        <time>2024-04-07T08:48:25Z</time>
      </trkpt>
      <trkpt lat="44.81857" lon="0.75439">
        <ele>145.5</ele>
        <time>2024-04-07T08:48:27Z</time>
      </trkpt>
      <trkpt lat="44.81854" lon="0.75443">
        <ele>145.7</ele>
        <time>2024-04-07T08:48:29Z</time>
      </trkpt>
      <trkpt lat="44.81852" lon="0.75449">
        <ele>145.9</ele>
        <time>2024-04-07T08:48:31Z</time>
      </trkpt>
      <trkpt lat="44.81849" lon="0.75454">
        <ele>146.1</ele>
        <time>2024-04-07T08:48:33Z</time>
      </trkpt>
      <trkpt lat="44.81848" lon="0.75455">
        <ele>146.1</ele>
        <time>2024-04-07T08:48:34Z</time>
      </trkpt>
      <trkpt lat="44.81847" lon="0.75457">
        <ele>146.2</ele>
        <time>2024-04-07T08:48:35Z</time>
      </trkpt>
      <trkpt lat="44.81846" lon="0.7546">
        <ele>146.3</ele>
        <time>2024-04-07T08:48:36Z</time>
      </trkpt>
      <trkpt lat="44.81844" lon="0.75462">
        <ele>146.4</ele>
        <time>2024-04-07T08:48:37Z</time>
      </trkpt>
      <trkpt lat="44.81841" lon="0.75465">
        <ele>146.6</ele>
        <time>2024-04-07T08:48:39Z</time>
      </trkpt>
      <trkpt lat="44.81837" lon="0.75468">
        <ele>146.7</ele>
        <time>2024-04-07T08:48:41Z</time>
      </trkpt>
      <trkpt lat="44.81834" lon="0.7547">
        <ele>146.8</ele>
        <time>2024-04-07T08:48:43Z</time>
      </trkpt>
      <trkpt lat="44.81831" lon="0.75473">
        <ele>146.9</ele>
        <time>2024-04-07T08:48:45Z</time>
      </trkpt>
      <trkpt lat="44.81827" lon="0.75476">
        <ele>146.9</ele>
        <time>2024-04-07T08:48:47Z</time>
      </trkpt>
      <trkpt lat="44.81825" lon="0.75479">
        <ele>147</ele>
        <time>2024-04-07T08:48:48Z</time>
      </trkpt>
      <trkpt lat="44.81823" lon="0.7548">
        <ele>147</ele>
        <time>2024-04-07T08:48:49Z</time>
      </trkpt>
      <trkpt lat="44.8182" lon="0.75484">
        <ele>147.1</ele>
        <time>2024-04-07T08:48:51Z</time>
      </trkpt>
      <trkpt lat="44.81818" lon="0.75485">
        <ele>147.1</ele>
        <time>2024-04-07T08:48:52Z</time>
      </trkpt>
      <trkpt lat="44.81816" lon="0.75486">
        <ele>147.1</ele>
        <time>2024-04-07T08:48:53Z</time>
      </trkpt>
      <trkpt lat="44.81813" lon="0.75487">
        <ele>147.1</ele>
        <time>2024-04-07T08:48:54Z</time>
      </trkpt>
      <trkpt lat="44.8181" lon="0.7549">
        <ele>147.2</ele>
        <time>2024-04-07T08:48:55Z</time>
      </trkpt>
      <trkpt lat="44.81806" lon="0.7549">
        <ele>147.1</ele>
        <time>2024-04-07T08:48:56Z</time>
      </trkpt>
      <trkpt lat="44.81803" lon="0.75491">
        <ele>147.1</ele>
        <time>2024-04-07T08:48:57Z</time>
      </trkpt>
      <trkpt lat="44.81795" lon="0.75493">
        <ele>146.7</ele>
        <time>2024-04-07T08:48:59Z</time>
      </trkpt>
      <trkpt lat="44.81786" lon="0.75496">
        <ele>146.2</ele>
        <time>2024-04-07T08:49:01Z</time>
      </trkpt>
      <trkpt lat="44.8178" lon="0.75498">
        <ele>145.9</ele>
        <time>2024-04-07T08:49:02Z</time>
      </trkpt>
      <trkpt lat="44.81775" lon="0.75499">
        <ele>145.6</ele>
        <time>2024-04-07T08:49:03Z</time>
      </trkpt>
      <trkpt lat="44.81764" lon="0.75502">
        <ele>145.3</ele>
        <time>2024-04-07T08:49:05Z</time>
      </trkpt>
      <trkpt lat="44.81759" lon="0.75504">
        <ele>145.3</ele>
        <time>2024-04-07T08:49:06Z</time>
      </trkpt>
      <trkpt lat="44.81756" lon="0.75505">
        <ele>145.3</ele>
        <time>2024-04-07T08:49:07Z</time>
      </trkpt>
      <trkpt lat="44.81753" lon="0.75506">
        <ele>145.4</ele>
        <time>2024-04-07T08:49:08Z</time>
      </trkpt>
      <trkpt lat="44.8175" lon="0.75507">
        <ele>145.4</ele>
        <time>2024-04-07T08:49:09Z</time>
      </trkpt>
      <trkpt lat="44.81748" lon="0.75508">
        <ele>145.5</ele>
        <time>2024-04-07T08:49:10Z</time>
      </trkpt>
      <trkpt lat="44.81745" lon="0.75509">
        <ele>145.6</ele>
        <time>2024-04-07T08:49:11Z</time>
      </trkpt>
      <trkpt lat="44.81741" lon="0.75511">
        <ele>145.9</ele>
        <time>2024-04-07T08:49:13Z</time>
      </trkpt>
      <trkpt lat="44.81738" lon="0.75512">
        <ele>146.1</ele>
        <time>2024-04-07T08:49:14Z</time>
      </trkpt>
      <trkpt lat="44.81736" lon="0.75514">
        <ele>146.2</ele>
        <time>2024-04-07T08:49:15Z</time>
      </trkpt>
      <trkpt lat="44.81731" lon="0.75516">
        <ele>146.6</ele>
        <time>2024-04-07T08:49:17Z</time>
      </trkpt>
      <trkpt lat="44.81725" lon="0.75514">
        <ele>146.9</ele>
        <time>2024-04-07T08:49:19Z</time>
      </trkpt>
      <trkpt lat="44.81723" lon="0.75513">
        <ele>147</ele>
        <time>2024-04-07T08:49:20Z</time>
      </trkpt>
      <trkpt lat="44.8172" lon="0.75512">
        <ele>147.1</ele>
        <time>2024-04-07T08:49:21Z</time>
      </trkpt>
      <trkpt lat="44.81715" lon="0.7551">
        <ele>147.2</ele>
        <time>2024-04-07T08:49:23Z</time>
      </trkpt>
      <trkpt lat="44.81711" lon="0.75509">
        <ele>147.3</ele>
        <time>2024-04-07T08:49:25Z</time>
      </trkpt>
      <trkpt lat="44.81709" lon="0.75509">
        <ele>147.3</ele>
        <time>2024-04-07T08:49:26Z</time>
      </trkpt>
      <trkpt lat="44.81707" lon="0.7551">
        <ele>147.3</ele>
        <time>2024-04-07T08:49:27Z</time>
      </trkpt>
      <trkpt lat="44.817" lon="0.75511">
        <ele>147.4</ele>
        <time>2024-04-07T08:49:29Z</time>
      </trkpt>
      <trkpt lat="44.81694" lon="0.75513">
        <ele>147.4</ele>
        <time>2024-04-07T08:49:31Z</time>
      </trkpt>
      <trkpt lat="44.81688" lon="0.75517">
        <ele>147.5</ele>
        <time>2024-04-07T08:49:33Z</time>
      </trkpt>
      <trkpt lat="44.81679" lon="0.75524">
        <ele>147.4</ele>
        <time>2024-04-07T08:49:35Z</time>
      </trkpt>
      <trkpt lat="44.81669" lon="0.75529">
        <ele>147.3</ele>
        <time>2024-04-07T08:49:37Z</time>
      </trkpt>
      <trkpt lat="44.8166" lon="0.75534">
        <ele>147</ele>
        <time>2024-04-07T08:49:39Z</time>
      </trkpt>
      <trkpt lat="44.81651" lon="0.75537">
        <ele>146.8</ele>
        <time>2024-04-07T08:49:41Z</time>
      </trkpt>
      <trkpt lat="44.81641" lon="0.75539">
        <ele>146.6</ele>
        <time>2024-04-07T08:49:43Z</time>
      </trkpt>
      <trkpt lat="44.81631" lon="0.75541">
        <ele>146.5</ele>
        <time>2024-04-07T08:49:45Z</time>
      </trkpt>
      <trkpt lat="44.81621" lon="0.75542">
        <ele>146.5</ele>
        <time>2024-04-07T08:49:47Z</time>
      </trkpt>
      <trkpt lat="44.81612" lon="0.75543">
        <ele>146.6</ele>
        <time>2024-04-07T08:49:49Z</time>
      </trkpt>
      <trkpt lat="44.81603" lon="0.75543">
        <ele>146.6</ele>
        <time>2024-04-07T08:49:51Z</time>
      </trkpt>
      <trkpt lat="44.81595" lon="0.75544">
        <ele>146.7</ele>
        <time>2024-04-07T08:49:53Z</time>
      </trkpt>
      <trkpt lat="44.81586" lon="0.75545">
        <ele>146.8</ele>
        <time>2024-04-07T08:49:55Z</time>
      </trkpt>
      <trkpt lat="44.81577" lon="0.75546">
        <ele>146.8</ele>
        <time>2024-04-07T08:49:57Z</time>
      </trkpt>
      <trkpt lat="44.81568" lon="0.75547">
        <ele>146.9</ele>
        <time>2024-04-07T08:49:59Z</time>
      </trkpt>
      <trkpt lat="44.81561" lon="0.75549">
        <ele>146.9</ele>
        <time>2024-04-07T08:50:01Z</time>
      </trkpt>
      <trkpt lat="44.81557" lon="0.75548">
        <ele>146.9</ele>
        <time>2024-04-07T08:50:02Z</time>
      </trkpt>
      <trkpt lat="44.81554" lon="0.7555">
        <ele>147</ele>
        <time>2024-04-07T08:50:03Z</time>
      </trkpt>
      <trkpt lat="44.81548" lon="0.75553">
        <ele>147</ele>
        <time>2024-04-07T08:50:05Z</time>
      </trkpt>
      <trkpt lat="44.81544" lon="0.75556">
        <ele>147</ele>
        <time>2024-04-07T08:50:07Z</time>
      </trkpt>
      <trkpt lat="44.81543" lon="0.75557">
        <ele>147</ele>
        <time>2024-04-07T08:50:08Z</time>
      </trkpt>
      <trkpt lat="44.81542" lon="0.75559">
        <ele>147</ele>
        <time>2024-04-07T08:50:09Z</time>
      </trkpt>
      <trkpt lat="44.81537" lon="0.7556">
        <ele>147</ele>
        <time>2024-04-07T08:50:11Z</time>
      </trkpt>
      <trkpt lat="44.81532" lon="0.75561">
        <ele>147</ele>
        <time>2024-04-07T08:50:13Z</time>
      </trkpt>
      <trkpt lat="44.81526" lon="0.75563">
        <ele>147</ele>
        <time>2024-04-07T08:50:15Z</time>
      </trkpt>
      <trkpt lat="44.81522" lon="0.75564">
        <ele>147.1</ele>
        <time>2024-04-07T08:50:17Z</time>
      </trkpt>
      <trkpt lat="44.81516" lon="0.75565">
        <ele>147.1</ele>
        <time>2024-04-07T08:50:19Z</time>
      </trkpt>
      <trkpt lat="44.81512" lon="0.75566">
        <ele>147.2</ele>
        <time>2024-04-07T08:50:21Z</time>
      </trkpt>
      <trkpt lat="44.81508" lon="0.75569">
        <ele>147.2</ele>
        <time>2024-04-07T08:50:23Z</time>
      </trkpt>
      <trkpt lat="44.81506" lon="0.75571">
        <ele>147.3</ele>
        <time>2024-04-07T08:50:25Z</time>
      </trkpt>
      <trkpt lat="44.81504" lon="0.75575">
        <ele>147.3</ele>
        <time>2024-04-07T08:50:27Z</time>
      </trkpt>
      <trkpt lat="44.81504" lon="0.75575">
        <ele>147.3</ele>
        <time>2024-04-07T08:50:28Z</time>
      </trkpt>
      <trkpt lat="44.815" lon="0.75577">
        <ele>147.4</ele>
        <time>2024-04-07T08:50:32Z</time>
      </trkpt>
      <trkpt lat="44.81498" lon="0.75579">
        <ele>147.4</ele>
        <time>2024-04-07T08:50:33Z</time>
      </trkpt>
      <trkpt lat="44.81492" lon="0.75582">
        <ele>147.5</ele>
        <time>2024-04-07T08:50:35Z</time>
      </trkpt>
      <trkpt lat="44.81486" lon="0.75587">
        <ele>147.5</ele>
        <time>2024-04-07T08:50:37Z</time>
      </trkpt>
      <trkpt lat="44.8148" lon="0.75591">
        <ele>147.5</ele>
        <time>2024-04-07T08:50:39Z</time>
      </trkpt>
      <trkpt lat="44.81475" lon="0.75594">
        <ele>147.4</ele>
        <time>2024-04-07T08:50:41Z</time>
      </trkpt>
      <trkpt lat="44.81472" lon="0.75596">
        <ele>147.4</ele>
        <time>2024-04-07T08:50:42Z</time>
      </trkpt>
      <trkpt lat="44.81468" lon="0.75599">
        <ele>147.4</ele>
        <time>2024-04-07T08:50:43Z</time>
      </trkpt>
      <trkpt lat="44.81463" lon="0.75603">
        <ele>147.3</ele>
        <time>2024-04-07T08:50:45Z</time>
      </trkpt>
      <trkpt lat="44.81458" lon="0.75607">
        <ele>147.2</ele>
        <time>2024-04-07T08:50:47Z</time>
      </trkpt>
      <trkpt lat="44.81453" lon="0.7561">
        <ele>147.1</ele>
        <time>2024-04-07T08:50:49Z</time>
      </trkpt>
      <trkpt lat="44.81446" lon="0.75615">
        <ele>147</ele>
        <time>2024-04-07T08:50:51Z</time>
      </trkpt>
      <trkpt lat="44.81439" lon="0.75618">
        <ele>146.8</ele>
        <time>2024-04-07T08:50:53Z</time>
      </trkpt>
      <trkpt lat="44.81432" lon="0.75623">
        <ele>146.7</ele>
        <time>2024-04-07T08:50:55Z</time>
      </trkpt>
      <trkpt lat="44.81426" lon="0.75627">
        <ele>146.5</ele>
        <time>2024-04-07T08:50:57Z</time>
      </trkpt>
      <trkpt lat="44.81417" lon="0.75633">
        <ele>146.3</ele>
        <time>2024-04-07T08:50:59Z</time>
      </trkpt>
      <trkpt lat="44.8141" lon="0.75638">
        <ele>146.2</ele>
        <time>2024-04-07T08:51:01Z</time>
      </trkpt>
      <trkpt lat="44.81401" lon="0.75645">
        <ele>146.1</ele>
        <time>2024-04-07T08:51:03Z</time>
      </trkpt>
      <trkpt lat="44.81391" lon="0.7565">
        <ele>146</ele>
        <time>2024-04-07T08:51:05Z</time>
      </trkpt>
      <trkpt lat="44.81386" lon="0.75651">
        <ele>146</ele>
        <time>2024-04-07T08:51:06Z</time>
      </trkpt>
      <trkpt lat="44.8138" lon="0.75653">
        <ele>146</ele>
        <time>2024-04-07T08:51:07Z</time>
      </trkpt>
      <trkpt lat="44.8137" lon="0.75656">
        <ele>146.1</ele>
        <time>2024-04-07T08:51:09Z</time>
      </trkpt>
      <trkpt lat="44.81361" lon="0.75658">
        <ele>146.3</ele>
        <time>2024-04-07T08:51:11Z</time>
      </trkpt>
      <trkpt lat="44.81354" lon="0.7566">
        <ele>146.6</ele>
        <time>2024-04-07T08:51:13Z</time>
      </trkpt>
      <trkpt lat="44.81348" lon="0.75664">
        <ele>146.9</ele>
        <time>2024-04-07T08:51:15Z</time>
      </trkpt>
      <trkpt lat="44.81343" lon="0.75665">
        <ele>147.1</ele>
        <time>2024-04-07T08:51:17Z</time>
      </trkpt>
      <trkpt lat="44.8134" lon="0.75665">
        <ele>147.3</ele>
        <time>2024-04-07T08:51:18Z</time>
      </trkpt>
      <trkpt lat="44.81338" lon="0.75665">
        <ele>147.4</ele>
        <time>2024-04-07T08:51:19Z</time>
      </trkpt>
      <trkpt lat="44.81333" lon="0.75666">
        <ele>147.7</ele>
        <time>2024-04-07T08:51:21Z</time>
      </trkpt>
      <trkpt lat="44.81329" lon="0.75668">
        <ele>147.9</ele>
        <time>2024-04-07T08:51:23Z</time>
      </trkpt>
      <trkpt lat="44.81326" lon="0.75668">
        <ele>148.1</ele>
        <time>2024-04-07T08:51:24Z</time>
      </trkpt>
      <trkpt lat="44.81323" lon="0.75671">
        <ele>148.3</ele>
        <time>2024-04-07T08:51:25Z</time>
      </trkpt>
      <trkpt lat="44.81321" lon="0.75671">
        <ele>148.4</ele>
        <time>2024-04-07T08:51:26Z</time>
      </trkpt>
      <trkpt lat="44.81319" lon="0.75672">
        <ele>148.5</ele>
        <time>2024-04-07T08:51:27Z</time>
      </trkpt>
      <trkpt lat="44.81314" lon="0.75674">
        <ele>148.8</ele>
        <time>2024-04-07T08:51:29Z</time>
      </trkpt>
      <trkpt lat="44.8131" lon="0.75674">
        <ele>149.1</ele>
        <time>2024-04-07T08:51:31Z</time>
      </trkpt>
      <trkpt lat="44.81303" lon="0.75675">
        <ele>149.3</ele>
        <time>2024-04-07T08:51:33Z</time>
      </trkpt>
      <trkpt lat="44.81296" lon="0.75676">
        <ele>149.4</ele>
        <time>2024-04-07T08:51:35Z</time>
      </trkpt>
      <trkpt lat="44.81288" lon="0.75677">
        <ele>149.4</ele>
        <time>2024-04-07T08:51:37Z</time>
      </trkpt>
      <trkpt lat="44.81279" lon="0.75674">
        <ele>149.1</ele>
        <time>2024-04-07T08:51:39Z</time>
      </trkpt>
      <trkpt lat="44.81269" lon="0.75669">
        <ele>148.6</ele>
        <time>2024-04-07T08:51:41Z</time>
      </trkpt>
      <trkpt lat="44.81265" lon="0.75666">
        <ele>148.4</ele>
        <time>2024-04-07T08:51:42Z</time>
      </trkpt>
      <trkpt lat="44.81261" lon="0.75665">
        <ele>148.2</ele>
        <time>2024-04-07T08:51:43Z</time>
      </trkpt>
      <trkpt lat="44.81252" lon="0.75668">
        <ele>147.6</ele>
        <time>2024-04-07T08:51:45Z</time>
      </trkpt>
      <trkpt lat="44.81248" lon="0.75671">
        <ele>147.4</ele>
        <time>2024-04-07T08:51:46Z</time>
      </trkpt>
      <trkpt lat="44.81245" lon="0.75675">
        <ele>147.1</ele>
        <time>2024-04-07T08:51:47Z</time>
      </trkpt>
      <trkpt lat="44.81242" lon="0.75682">
        <ele>146.8</ele>
        <time>2024-04-07T08:51:49Z</time>
      </trkpt>
      <trkpt lat="44.81239" lon="0.75686">
        <ele>146.5</ele>
        <time>2024-04-07T08:51:50Z</time>
      </trkpt>
      <trkpt lat="44.81236" lon="0.7569">
        <ele>146.3</ele>
        <time>2024-04-07T08:51:51Z</time>
      </trkpt>
      <trkpt lat="44.81226" lon="0.75695">
        <ele>146</ele>
        <time>2024-04-07T08:51:53Z</time>
      </trkpt>
      <trkpt lat="44.81215" lon="0.75702">
        <ele>145.6</ele>
        <time>2024-04-07T08:51:55Z</time>
      </trkpt>
      <trkpt lat="44.81213" lon="0.75703">
        <ele>145.5</ele>
        <time>2024-04-07T08:51:56Z</time>
      </trkpt>
      <trkpt lat="44.81211" lon="0.75704">
        <ele>145.4</ele>
        <time>2024-04-07T08:51:57Z</time>
      </trkpt>
      <trkpt lat="44.81205" lon="0.7571">
        <ele>145.2</ele>
        <time>2024-04-07T08:51:59Z</time>
      </trkpt>
      <trkpt lat="44.81199" lon="0.75716">
        <ele>145</ele>
        <time>2024-04-07T08:52:01Z</time>
      </trkpt>
      <trkpt lat="44.81196" lon="0.7572">
        <ele>145</ele>
        <time>2024-04-07T08:52:02Z</time>
      </trkpt>
      <trkpt lat="44.81193" lon="0.75724">
        <ele>144.9</ele>
        <time>2024-04-07T08:52:03Z</time>
      </trkpt>
      <trkpt lat="44.81186" lon="0.75729">
        <ele>144.7</ele>
        <time>2024-04-07T08:52:05Z</time>
      </trkpt>
      <trkpt lat="44.81178" lon="0.75737">
        <ele>144.7</ele>
        <time>2024-04-07T08:52:07Z</time>
      </trkpt>
      <trkpt lat="44.81171" lon="0.75748">
        <ele>144.6</ele>
        <time>2024-04-07T08:52:09Z</time>
      </trkpt>
      <trkpt lat="44.81163" lon="0.75758">
        <ele>144.6</ele>
        <time>2024-04-07T08:52:11Z</time>
      </trkpt>
      <trkpt lat="44.81159" lon="0.75762">
        <ele>144.6</ele>
        <time>2024-04-07T08:52:12Z</time>
      </trkpt>
      <trkpt lat="44.81155" lon="0.75767">
        <ele>144.5</ele>
        <time>2024-04-07T08:52:13Z</time>
      </trkpt>
      <trkpt lat="44.81148" lon="0.75773">
        <ele>144.5</ele>
        <time>2024-04-07T08:52:15Z</time>
      </trkpt>
      <trkpt lat="44.81144" lon="0.75775">
        <ele>144.5</ele>
        <time>2024-04-07T08:52:16Z</time>
      </trkpt>
      <trkpt lat="44.8114" lon="0.75779">
        <ele>144.5</ele>
        <time>2024-04-07T08:52:17Z</time>
      </trkpt>
      <trkpt lat="44.81133" lon="0.75784">
        <ele>144.5</ele>
        <time>2024-04-07T08:52:19Z</time>
      </trkpt>
      <trkpt lat="44.81125" lon="0.7579">
        <ele>144.5</ele>
        <time>2024-04-07T08:52:21Z</time>
      </trkpt>
      <trkpt lat="44.81117" lon="0.75795">
        <ele>144.5</ele>
        <time>2024-04-07T08:52:23Z</time>
      </trkpt>
      <trkpt lat="44.81109" lon="0.758">
        <ele>144.6</ele>
        <time>2024-04-07T08:52:25Z</time>
      </trkpt>
      <trkpt lat="44.81101" lon="0.75804">
        <ele>144.6</ele>
        <time>2024-04-07T08:52:27Z</time>
      </trkpt>
      <trkpt lat="44.81094" lon="0.75807">
        <ele>144.6</ele>
        <time>2024-04-07T08:52:29Z</time>
      </trkpt>
      <trkpt lat="44.81087" lon="0.75811">
        <ele>144.7</ele>
        <time>2024-04-07T08:52:31Z</time>
      </trkpt>
      <trkpt lat="44.8108" lon="0.75814">
        <ele>144.7</ele>
        <time>2024-04-07T08:52:33Z</time>
      </trkpt>
      <trkpt lat="44.81073" lon="0.75817">
        <ele>144.8</ele>
        <time>2024-04-07T08:52:35Z</time>
      </trkpt>
      <trkpt lat="44.81069" lon="0.75818">
        <ele>144.8</ele>
        <time>2024-04-07T08:52:36Z</time>
      </trkpt>
      <trkpt lat="44.81065" lon="0.75819">
        <ele>144.9</ele>
        <time>2024-04-07T08:52:37Z</time>
      </trkpt>
      <trkpt lat="44.81058" lon="0.75823">
        <ele>145</ele>
        <time>2024-04-07T08:52:39Z</time>
      </trkpt>
      <trkpt lat="44.81051" lon="0.75826">
        <ele>145.1</ele>
        <time>2024-04-07T08:52:41Z</time>
      </trkpt>
      <trkpt lat="44.81043" lon="0.7583">
        <ele>145.3</ele>
        <time>2024-04-07T08:52:43Z</time>
      </trkpt>
      <trkpt lat="44.81037" lon="0.75834">
        <ele>145.4</ele>
        <time>2024-04-07T08:52:45Z</time>
      </trkpt>
      <trkpt lat="44.81031" lon="0.75839">
        <ele>145.6</ele>
        <time>2024-04-07T08:52:47Z</time>
      </trkpt>
      <trkpt lat="44.81029" lon="0.75843">
        <ele>145.7</ele>
        <time>2024-04-07T08:52:48Z</time>
      </trkpt>
      <trkpt lat="44.81028" lon="0.75848">
        <ele>145.8</ele>
        <time>2024-04-07T08:52:49Z</time>
      </trkpt>
      <trkpt lat="44.81024" lon="0.75855">
        <ele>146.1</ele>
        <time>2024-04-07T08:52:51Z</time>
      </trkpt>
      <trkpt lat="44.8102" lon="0.75862">
        <ele>146.3</ele>
        <time>2024-04-07T08:52:53Z</time>
      </trkpt>
      <trkpt lat="44.81017" lon="0.75866">
        <ele>146.5</ele>
        <time>2024-04-07T08:52:54Z</time>
      </trkpt>
      <trkpt lat="44.81015" lon="0.75869">
        <ele>146.6</ele>
        <time>2024-04-07T08:52:55Z</time>
      </trkpt>
      <trkpt lat="44.8101" lon="0.75876">
        <ele>146.9</ele>
        <time>2024-04-07T08:52:57Z</time>
      </trkpt>
      <trkpt lat="44.81006" lon="0.75882">
        <ele>147.1</ele>
        <time>2024-04-07T08:52:59Z</time>
      </trkpt>
      <trkpt lat="44.81004" lon="0.75885">
        <ele>147.3</ele>
        <time>2024-04-07T08:53:00Z</time>
      </trkpt>
      <trkpt lat="44.81001" lon="0.75888">
        <ele>147.4</ele>
        <time>2024-04-07T08:53:01Z</time>
      </trkpt>
      <trkpt lat="44.80997" lon="0.75895">
        <ele>147.7</ele>
        <time>2024-04-07T08:53:03Z</time>
      </trkpt>
      <trkpt lat="44.80992" lon="0.75901">
        <ele>148</ele>
        <time>2024-04-07T08:53:05Z</time>
      </trkpt>
      <trkpt lat="44.80989" lon="0.75905">
        <ele>148.1</ele>
        <time>2024-04-07T08:53:06Z</time>
      </trkpt>
      <trkpt lat="44.80986" lon="0.75908">
        <ele>148.3</ele>
        <time>2024-04-07T08:53:07Z</time>
      </trkpt>
      <trkpt lat="44.80984" lon="0.75911">
        <ele>148.4</ele>
        <time>2024-04-07T08:53:08Z</time>
      </trkpt>
      <trkpt lat="44.80981" lon="0.75914">
        <ele>148.5</ele>
        <time>2024-04-07T08:53:09Z</time>
      </trkpt>
      <trkpt lat="44.80976" lon="0.75921">
        <ele>148.7</ele>
        <time>2024-04-07T08:53:11Z</time>
      </trkpt>
      <trkpt lat="44.80971" lon="0.75928">
        <ele>149</ele>
        <time>2024-04-07T08:53:13Z</time>
      </trkpt>
      <trkpt lat="44.80966" lon="0.75935">
        <ele>149.2</ele>
        <time>2024-04-07T08:53:15Z</time>
      </trkpt>
      <trkpt lat="44.80961" lon="0.75942">
        <ele>149.4</ele>
        <time>2024-04-07T08:53:17Z</time>
      </trkpt>
      <trkpt lat="44.80959" lon="0.75946">
        <ele>149.5</ele>
        <time>2024-04-07T08:53:18Z</time>
      </trkpt>
      <trkpt lat="44.80956" lon="0.75949">
        <ele>149.6</ele>
        <time>2024-04-07T08:53:19Z</time>
      </trkpt>
      <trkpt lat="44.80951" lon="0.75956">
        <ele>149.8</ele>
        <time>2024-04-07T08:53:21Z</time>
      </trkpt>
      <trkpt lat="44.80946" lon="0.75962">
        <ele>150</ele>
        <time>2024-04-07T08:53:23Z</time>
      </trkpt>
      <trkpt lat="44.80941" lon="0.75969">
        <ele>150.1</ele>
        <time>2024-04-07T08:53:25Z</time>
      </trkpt>
      <trkpt lat="44.80936" lon="0.75975">
        <ele>150.3</ele>
        <time>2024-04-07T08:53:27Z</time>
      </trkpt>
      <trkpt lat="44.80932" lon="0.75982">
        <ele>150.4</ele>
        <time>2024-04-07T08:53:29Z</time>
      </trkpt>
      <trkpt lat="44.80926" lon="0.75988">
        <ele>150.6</ele>
        <time>2024-04-07T08:53:31Z</time>
      </trkpt>
      <trkpt lat="44.80921" lon="0.75995">
        <ele>150.8</ele>
        <time>2024-04-07T08:53:33Z</time>
      </trkpt>
      <trkpt lat="44.80917" lon="0.76001">
        <ele>150.9</ele>
        <time>2024-04-07T08:53:35Z</time>
      </trkpt>
      <trkpt lat="44.80911" lon="0.76006">
        <ele>151.2</ele>
        <time>2024-04-07T08:53:37Z</time>
      </trkpt>
      <trkpt lat="44.80906" lon="0.76011">
        <ele>151.3</ele>
        <time>2024-04-07T08:53:39Z</time>
      </trkpt>
      <trkpt lat="44.80902" lon="0.76016">
        <ele>151.5</ele>
        <time>2024-04-07T08:53:41Z</time>
      </trkpt>
      <trkpt lat="44.809" lon="0.76019">
        <ele>151.6</ele>
        <time>2024-04-07T08:53:42Z</time>
      </trkpt>
      <trkpt lat="44.80898" lon="0.7602">
        <ele>151.7</ele>
        <time>2024-04-07T08:53:43Z</time>
      </trkpt>
      <trkpt lat="44.80895" lon="0.76024">
        <ele>151.8</ele>
        <time>2024-04-07T08:53:45Z</time>
      </trkpt>
      <trkpt lat="44.80892" lon="0.76028">
        <ele>152</ele>
        <time>2024-04-07T08:53:47Z</time>
      </trkpt>
      <trkpt lat="44.8089" lon="0.76031">
        <ele>152.1</ele>
        <time>2024-04-07T08:53:49Z</time>
      </trkpt>
      <trkpt lat="44.80887" lon="0.76034">
        <ele>152.2</ele>
        <time>2024-04-07T08:53:51Z</time>
      </trkpt>
      <trkpt lat="44.80886" lon="0.76035">
        <ele>152.3</ele>
        <time>2024-04-07T08:53:52Z</time>
      </trkpt>
      <trkpt lat="44.80884" lon="0.76036">
        <ele>152.4</ele>
        <time>2024-04-07T08:53:53Z</time>
      </trkpt>
      <trkpt lat="44.8088" lon="0.76039">
        <ele>152.6</ele>
        <time>2024-04-07T08:53:55Z</time>
      </trkpt>
      <trkpt lat="44.80876" lon="0.76042">
        <ele>152.9</ele>
        <time>2024-04-07T08:53:57Z</time>
      </trkpt>
      <trkpt lat="44.80874" lon="0.76044">
        <ele>153</ele>
        <time>2024-04-07T08:53:58Z</time>
      </trkpt>
      <trkpt lat="44.80872" lon="0.76046">
        <ele>153.1</ele>
        <time>2024-04-07T08:53:59Z</time>
      </trkpt>
      <trkpt lat="44.80867" lon="0.7605">
        <ele>153.4</ele>
        <time>2024-04-07T08:54:01Z</time>
      </trkpt>
      <trkpt lat="44.80862" lon="0.76056">
        <ele>153.7</ele>
        <time>2024-04-07T08:54:03Z</time>
      </trkpt>
      <trkpt lat="44.80857" lon="0.76061">
        <ele>153.9</ele>
        <time>2024-04-07T08:54:05Z</time>
      </trkpt>
      <trkpt lat="44.80852" lon="0.76066">
        <ele>154.1</ele>
        <time>2024-04-07T08:54:07Z</time>
      </trkpt>
      <trkpt lat="44.80846" lon="0.76076">
        <ele>154.2</ele>
        <time>2024-04-07T08:54:09Z</time>
      </trkpt>
      <trkpt lat="44.8084" lon="0.76085">
        <ele>154.2</ele>
        <time>2024-04-07T08:54:11Z</time>
      </trkpt>
      <trkpt lat="44.80834" lon="0.76091">
        <ele>154</ele>
        <time>2024-04-07T08:54:13Z</time>
      </trkpt>
      <trkpt lat="44.80831" lon="0.76096">
        <ele>153.9</ele>
        <time>2024-04-07T08:54:14Z</time>
      </trkpt>
      <trkpt lat="44.80822" lon="0.76103">
        <ele>153.4</ele>
        <time>2024-04-07T08:54:15Z</time>
      </trkpt>
      <trkpt lat="44.80815" lon="0.76114">
        <ele>152.7</ele>
        <time>2024-04-07T08:54:17Z</time>
      </trkpt>
      <trkpt lat="44.8081" lon="0.76122">
        <ele>152.1</ele>
        <time>2024-04-07T08:54:18Z</time>
      </trkpt>
      <trkpt lat="44.80805" lon="0.76129">
        <ele>151.4</ele>
        <time>2024-04-07T08:54:19Z</time>
      </trkpt>
      <trkpt lat="44.80792" lon="0.76147">
        <ele>149.7</ele>
        <time>2024-04-07T08:54:21Z</time>
      </trkpt>
      <trkpt lat="44.80779" lon="0.76167">
        <ele>148.3</ele>
        <time>2024-04-07T08:54:23Z</time>
      </trkpt>
      <trkpt lat="44.80768" lon="0.76181">
        <ele>147.2</ele>
        <time>2024-04-07T08:54:25Z</time>
      </trkpt>
      <trkpt lat="44.80756" lon="0.762">
        <ele>146</ele>
        <time>2024-04-07T08:54:27Z</time>
      </trkpt>
      <trkpt lat="44.80744" lon="0.76218">
        <ele>145</ele>
        <time>2024-04-07T08:54:29Z</time>
      </trkpt>
      <trkpt lat="44.80733" lon="0.76236">
        <ele>144.4</ele>
        <time>2024-04-07T08:54:31Z</time>
      </trkpt>
      <trkpt lat="44.80722" lon="0.76251">
        <ele>144.2</ele>
        <time>2024-04-07T08:54:33Z</time>
      </trkpt>
      <trkpt lat="44.80713" lon="0.76264">
        <ele>144.1</ele>
        <time>2024-04-07T08:54:35Z</time>
      </trkpt>
      <trkpt lat="44.80709" lon="0.76269">
        <ele>144</ele>
        <time>2024-04-07T08:54:36Z</time>
      </trkpt>
      <trkpt lat="44.80705" lon="0.76274">
        <ele>144</ele>
        <time>2024-04-07T08:54:37Z</time>
      </trkpt>
      <trkpt lat="44.80702" lon="0.76279">
        <ele>144</ele>
        <time>2024-04-07T08:54:38Z</time>
      </trkpt>
      <trkpt lat="44.80699" lon="0.76284">
        <ele>144</ele>
        <time>2024-04-07T08:54:39Z</time>
      </trkpt>
      <trkpt lat="44.80696" lon="0.76289">
        <ele>144</ele>
        <time>2024-04-07T08:54:40Z</time>
      </trkpt>
      <trkpt lat="44.80694" lon="0.76294">
        <ele>144</ele>
        <time>2024-04-07T08:54:41Z</time>
      </trkpt>
      <trkpt lat="44.80689" lon="0.76304">
        <ele>144.1</ele>
        <time>2024-04-07T08:54:43Z</time>
      </trkpt>
      <trkpt lat="44.80685" lon="0.76312">
        <ele>144.1</ele>
        <time>2024-04-07T08:54:45Z</time>
      </trkpt>
      <trkpt lat="44.80681" lon="0.76321">
        <ele>144.2</ele>
        <time>2024-04-07T08:54:47Z</time>
      </trkpt>
      <trkpt lat="44.80677" lon="0.76329">
        <ele>144.2</ele>
        <time>2024-04-07T08:54:49Z</time>
      </trkpt>
      <trkpt lat="44.80675" lon="0.76333">
        <ele>144.3</ele>
        <time>2024-04-07T08:54:50Z</time>
      </trkpt>
      <trkpt lat="44.80673" lon="0.76336">
        <ele>144.3</ele>
        <time>2024-04-07T08:54:51Z</time>
      </trkpt>
      <trkpt lat="44.80668" lon="0.76342">
        <ele>144.4</ele>
        <time>2024-04-07T08:54:53Z</time>
      </trkpt>
      <trkpt lat="44.80666" lon="0.76345">
        <ele>144.4</ele>
        <time>2024-04-07T08:54:54Z</time>
      </trkpt>
      <trkpt lat="44.80664" lon="0.76347">
        <ele>144.4</ele>
        <time>2024-04-07T08:54:55Z</time>
      </trkpt>
      <trkpt lat="44.80663" lon="0.76349">
        <ele>144.5</ele>
        <time>2024-04-07T08:54:56Z</time>
      </trkpt>
      <trkpt lat="44.80661" lon="0.76351">
        <ele>144.5</ele>
        <time>2024-04-07T08:54:57Z</time>
      </trkpt>
      <trkpt lat="44.80658" lon="0.76355">
        <ele>144.5</ele>
        <time>2024-04-07T08:54:59Z</time>
      </trkpt>
      <trkpt lat="44.80655" lon="0.76358">
        <ele>144.6</ele>
        <time>2024-04-07T08:55:00Z</time>
      </trkpt>
      <trkpt lat="44.80654" lon="0.76361">
        <ele>144.6</ele>
        <time>2024-04-07T08:55:01Z</time>
      </trkpt>
      <trkpt lat="44.80651" lon="0.76367">
        <ele>144.6</ele>
        <time>2024-04-07T08:55:03Z</time>
      </trkpt>
      <trkpt lat="44.80648" lon="0.76374">
        <ele>144.6</ele>
        <time>2024-04-07T08:55:05Z</time>
      </trkpt>
      <trkpt lat="44.80645" lon="0.7638">
        <ele>144.6</ele>
        <time>2024-04-07T08:55:07Z</time>
      </trkpt>
      <trkpt lat="44.80641" lon="0.76388">
        <ele>144.6</ele>
        <time>2024-04-07T08:55:09Z</time>
      </trkpt>
      <trkpt lat="44.80638" lon="0.76395">
        <ele>144.6</ele>
        <time>2024-04-07T08:55:11Z</time>
      </trkpt>
      <trkpt lat="44.80634" lon="0.76403">
        <ele>144.6</ele>
        <time>2024-04-07T08:55:13Z</time>
      </trkpt>
      <trkpt lat="44.8063" lon="0.76412">
        <ele>144.6</ele>
        <time>2024-04-07T08:55:15Z</time>
      </trkpt>
      <trkpt lat="44.80628" lon="0.76416">
        <ele>144.6</ele>
        <time>2024-04-07T08:55:16Z</time>
      </trkpt>
      <trkpt lat="44.80626" lon="0.76421">
        <ele>144.6</ele>
        <time>2024-04-07T08:55:17Z</time>
      </trkpt>
      <trkpt lat="44.80622" lon="0.76429">
        <ele>144.7</ele>
        <time>2024-04-07T08:55:19Z</time>
      </trkpt>
      <trkpt lat="44.8062" lon="0.76441">
        <ele>144.7</ele>
        <time>2024-04-07T08:55:21Z</time>
      </trkpt>
      <trkpt lat="44.80617" lon="0.76451">
        <ele>144.7</ele>
        <time>2024-04-07T08:55:23Z</time>
      </trkpt>
      <trkpt lat="44.80617" lon="0.76463">
        <ele>144.6</ele>
        <time>2024-04-07T08:55:25Z</time>
      </trkpt>
      <trkpt lat="44.80618" lon="0.76468">
        <ele>144.6</ele>
        <time>2024-04-07T08:55:26Z</time>
      </trkpt>
      <trkpt lat="44.8062" lon="0.76473">
        <ele>144.6</ele>
        <time>2024-04-07T08:55:27Z</time>
      </trkpt>
      <trkpt lat="44.80625" lon="0.76482">
        <ele>144.7</ele>
        <time>2024-04-07T08:55:29Z</time>
      </trkpt>
      <trkpt lat="44.80628" lon="0.76486">
        <ele>144.7</ele>
        <time>2024-04-07T08:55:30Z</time>
      </trkpt>
      <trkpt lat="44.80631" lon="0.76489">
        <ele>144.7</ele>
        <time>2024-04-07T08:55:31Z</time>
      </trkpt>
      <trkpt lat="44.80636" lon="0.76496">
        <ele>144.7</ele>
        <time>2024-04-07T08:55:33Z</time>
      </trkpt>
      <trkpt lat="44.80642" lon="0.76503">
        <ele>144.7</ele>
        <time>2024-04-07T08:55:35Z</time>
      </trkpt>
      <trkpt lat="44.80648" lon="0.76512">
        <ele>144.7</ele>
        <time>2024-04-07T08:55:37Z</time>
      </trkpt>
      <trkpt lat="44.80651" lon="0.76517">
        <ele>144.7</ele>
        <time>2024-04-07T08:55:38Z</time>
      </trkpt>
      <trkpt lat="44.80654" lon="0.76522">
        <ele>144.7</ele>
        <time>2024-04-07T08:55:39Z</time>
      </trkpt>
      <trkpt lat="44.80657" lon="0.76526">
        <ele>144.8</ele>
        <time>2024-04-07T08:55:40Z</time>
      </trkpt>
      <trkpt lat="44.8066" lon="0.76531">
        <ele>144.8</ele>
        <time>2024-04-07T08:55:41Z</time>
      </trkpt>
      <trkpt lat="44.80663" lon="0.76537">
        <ele>144.8</ele>
        <time>2024-04-07T08:55:42Z</time>
      </trkpt>
      <trkpt lat="44.80665" lon="0.76542">
        <ele>144.8</ele>
        <time>2024-04-07T08:55:43Z</time>
      </trkpt>
      <trkpt lat="44.80668" lon="0.76547">
        <ele>144.8</ele>
        <time>2024-04-07T08:55:44Z</time>
      </trkpt>
      <trkpt lat="44.80669" lon="0.76552">
        <ele>144.9</ele>
        <time>2024-04-07T08:55:45Z</time>
      </trkpt>
      <trkpt lat="44.80671" lon="0.76558">
        <ele>144.9</ele>
        <time>2024-04-07T08:55:46Z</time>
      </trkpt>
      <trkpt lat="44.80672" lon="0.76564">
        <ele>144.9</ele>
        <time>2024-04-07T08:55:47Z</time>
      </trkpt>
      <trkpt lat="44.80673" lon="0.76571">
        <ele>145</ele>
        <time>2024-04-07T08:55:48Z</time>
      </trkpt>
      <trkpt lat="44.80674" lon="0.76577">
        <ele>145</ele>
        <time>2024-04-07T08:55:49Z</time>
      </trkpt>
      <trkpt lat="44.80676" lon="0.76589">
        <ele>145.1</ele>
        <time>2024-04-07T08:55:51Z</time>
      </trkpt>
      <trkpt lat="44.80678" lon="0.76601">
        <ele>145.3</ele>
        <time>2024-04-07T08:55:53Z</time>
      </trkpt>
      <trkpt lat="44.80682" lon="0.76613">
        <ele>145.4</ele>
        <time>2024-04-07T08:55:55Z</time>
      </trkpt>
      <trkpt lat="44.80684" lon="0.76624">
        <ele>145.6</ele>
        <time>2024-04-07T08:55:57Z</time>
      </trkpt>
      <trkpt lat="44.80686" lon="0.76629">
        <ele>145.7</ele>
        <time>2024-04-07T08:55:58Z</time>
      </trkpt>
      <trkpt lat="44.80689" lon="0.76634">
        <ele>145.8</ele>
        <time>2024-04-07T08:55:59Z</time>
      </trkpt>
      <trkpt lat="44.80691" lon="0.76639">
        <ele>145.9</ele>
        <time>2024-04-07T08:56:00Z</time>
      </trkpt>
      <trkpt lat="44.80693" lon="0.76645">
        <ele>146.1</ele>
        <time>2024-04-07T08:56:01Z</time>
      </trkpt>
      <trkpt lat="44.80697" lon="0.76654">
        <ele>146.4</ele>
        <time>2024-04-07T08:56:03Z</time>
      </trkpt>
      <trkpt lat="44.80701" lon="0.76664">
        <ele>146.6</ele>
        <time>2024-04-07T08:56:05Z</time>
      </trkpt>
      <trkpt lat="44.80702" lon="0.76669">
        <ele>146.8</ele>
        <time>2024-04-07T08:56:06Z</time>
      </trkpt>
      <trkpt lat="44.80704" lon="0.76674">
        <ele>146.9</ele>
        <time>2024-04-07T08:56:07Z</time>
      </trkpt>
      <trkpt lat="44.80707" lon="0.76684">
        <ele>147.2</ele>
        <time>2024-04-07T08:56:09Z</time>
      </trkpt>
      <trkpt lat="44.80709" lon="0.76694">
        <ele>147.4</ele>
        <time>2024-04-07T08:56:11Z</time>
      </trkpt>
      <trkpt lat="44.80711" lon="0.76704">
        <ele>147.6</ele>
        <time>2024-04-07T08:56:13Z</time>
      </trkpt>
      <trkpt lat="44.80712" lon="0.76709">
        <ele>147.7</ele>
        <time>2024-04-07T08:56:14Z</time>
      </trkpt>
      <trkpt lat="44.80714" lon="0.76714">
        <ele>147.9</ele>
        <time>2024-04-07T08:56:15Z</time>
      </trkpt>
      <trkpt lat="44.80716" lon="0.76724">
        <ele>148.1</ele>
        <time>2024-04-07T08:56:17Z</time>
      </trkpt>
      <trkpt lat="44.8072" lon="0.76733">
        <ele>148.3</ele>
        <time>2024-04-07T08:56:19Z</time>
      </trkpt>
      <trkpt lat="44.80722" lon="0.76745">
        <ele>148.5</ele>
        <time>2024-04-07T08:56:21Z</time>
      </trkpt>
      <trkpt lat="44.80723" lon="0.76756">
        <ele>148.7</ele>
        <time>2024-04-07T08:56:23Z</time>
      </trkpt>
      <trkpt lat="44.80725" lon="0.76768">
        <ele>148.9</ele>
        <time>2024-04-07T08:56:25Z</time>
      </trkpt>
      <trkpt lat="44.80727" lon="0.76778">
        <ele>149</ele>
        <time>2024-04-07T08:56:27Z</time>
      </trkpt>
      <trkpt lat="44.80727" lon="0.76784">
        <ele>149.1</ele>
        <time>2024-04-07T08:56:28Z</time>
      </trkpt>
      <trkpt lat="44.80727" lon="0.7679">
        <ele>149.2</ele>
        <time>2024-04-07T08:56:29Z</time>
      </trkpt>
      <trkpt lat="44.80729" lon="0.76802">
        <ele>149.4</ele>
        <time>2024-04-07T08:56:31Z</time>
      </trkpt>
      <trkpt lat="44.8073" lon="0.76814">
        <ele>149.7</ele>
        <time>2024-04-07T08:56:33Z</time>
      </trkpt>
      <trkpt lat="44.8073" lon="0.76825">
        <ele>149.9</ele>
        <time>2024-04-07T08:56:35Z</time>
      </trkpt>
      <trkpt lat="44.80731" lon="0.76836">
        <ele>150.1</ele>
        <time>2024-04-07T08:56:37Z</time>
      </trkpt>
      <trkpt lat="44.80732" lon="0.76846">
        <ele>150.3</ele>
        <time>2024-04-07T08:56:39Z</time>
      </trkpt>
      <trkpt lat="44.80734" lon="0.76857">
        <ele>150.5</ele>
        <time>2024-04-07T08:56:41Z</time>
      </trkpt>
      <trkpt lat="44.80735" lon="0.76868">
        <ele>150.8</ele>
        <time>2024-04-07T08:56:43Z</time>
      </trkpt>
      <trkpt lat="44.80736" lon="0.76879">
        <ele>151</ele>
        <time>2024-04-07T08:56:45Z</time>
      </trkpt>
      <trkpt lat="44.80738" lon="0.7689">
        <ele>151.1</ele>
        <time>2024-04-07T08:56:47Z</time>
      </trkpt>
      <trkpt lat="44.80739" lon="0.769">
        <ele>151.3</ele>
        <time>2024-04-07T08:56:49Z</time>
      </trkpt>
      <trkpt lat="44.8074" lon="0.7691">
        <ele>151.5</ele>
        <time>2024-04-07T08:56:51Z</time>
      </trkpt>
      <trkpt lat="44.80741" lon="0.76921">
        <ele>151.7</ele>
        <time>2024-04-07T08:56:53Z</time>
      </trkpt>
      <trkpt lat="44.80742" lon="0.7693">
        <ele>152</ele>
        <time>2024-04-07T08:56:55Z</time>
      </trkpt>
      <trkpt lat="44.80743" lon="0.7694">
        <ele>152.2</ele>
        <time>2024-04-07T08:56:57Z</time>
      </trkpt>
      <trkpt lat="44.80743" lon="0.7695">
        <ele>152.4</ele>
        <time>2024-04-07T08:56:59Z</time>
      </trkpt>
      <trkpt lat="44.80742" lon="0.7696">
        <ele>152.7</ele>
        <time>2024-04-07T08:57:01Z</time>
      </trkpt>
      <trkpt lat="44.8074" lon="0.76969">
        <ele>152.9</ele>
        <time>2024-04-07T08:57:03Z</time>
      </trkpt>
      <trkpt lat="44.80738" lon="0.76979">
        <ele>153.2</ele>
        <time>2024-04-07T08:57:05Z</time>
      </trkpt>
      <trkpt lat="44.80737" lon="0.76984">
        <ele>153.3</ele>
        <time>2024-04-07T08:57:06Z</time>
      </trkpt>
      <trkpt lat="44.80736" lon="0.76988">
        <ele>153.4</ele>
        <time>2024-04-07T08:57:07Z</time>
      </trkpt>
      <trkpt lat="44.80735" lon="0.76997">
        <ele>153.7</ele>
        <time>2024-04-07T08:57:09Z</time>
      </trkpt>
      <trkpt lat="44.80734" lon="0.77006">
        <ele>153.9</ele>
        <time>2024-04-07T08:57:11Z</time>
      </trkpt>
      <trkpt lat="44.80735" lon="0.77015">
        <ele>154.1</ele>
        <time>2024-04-07T08:57:13Z</time>
      </trkpt>
      <trkpt lat="44.80738" lon="0.77024">
        <ele>154.4</ele>
        <time>2024-04-07T08:57:15Z</time>
      </trkpt>
      <trkpt lat="44.80742" lon="0.77031">
        <ele>154.6</ele>
        <time>2024-04-07T08:57:17Z</time>
      </trkpt>
      <trkpt lat="44.80747" lon="0.77037">
        <ele>154.9</ele>
        <time>2024-04-07T08:57:19Z</time>
      </trkpt>
      <trkpt lat="44.80753" lon="0.77041">
        <ele>155.1</ele>
        <time>2024-04-07T08:57:21Z</time>
      </trkpt>
      <trkpt lat="44.80759" lon="0.77043">
        <ele>155.4</ele>
        <time>2024-04-07T08:57:23Z</time>
      </trkpt>
      <trkpt lat="44.80762" lon="0.77043">
        <ele>155.6</ele>
        <time>2024-04-07T08:57:24Z</time>
      </trkpt>
      <trkpt lat="44.80766" lon="0.77043">
        <ele>155.7</ele>
        <time>2024-04-07T08:57:25Z</time>
      </trkpt>
      <trkpt lat="44.80772" lon="0.77043">
        <ele>156</ele>
        <time>2024-04-07T08:57:27Z</time>
      </trkpt>
      <trkpt lat="44.80779" lon="0.77043">
        <ele>156.3</ele>
        <time>2024-04-07T08:57:29Z</time>
      </trkpt>
      <trkpt lat="44.80785" lon="0.77043">
        <ele>156.6</ele>
        <time>2024-04-07T08:57:31Z</time>
      </trkpt>
      <trkpt lat="44.80792" lon="0.77042">
        <ele>156.9</ele>
        <time>2024-04-07T08:57:33Z</time>
      </trkpt>
      <trkpt lat="44.80795" lon="0.77042">
        <ele>157.1</ele>
        <time>2024-04-07T08:57:34Z</time>
      </trkpt>
      <trkpt lat="44.80798" lon="0.77042">
        <ele>157.2</ele>
        <time>2024-04-07T08:57:35Z</time>
      </trkpt>
      <trkpt lat="44.80804" lon="0.77044">
        <ele>157.5</ele>
        <time>2024-04-07T08:57:37Z</time>
      </trkpt>
      <trkpt lat="44.80805" lon="0.77048">
        <ele>157.7</ele>
        <time>2024-04-07T08:57:38Z</time>
      </trkpt>
      <trkpt lat="44.80805" lon="0.77051">
        <ele>158.3</ele>
        <time>2024-04-07T08:57:39Z</time>
      </trkpt>
      <trkpt lat="44.80801" lon="0.77055">
        <ele>158.3</ele>
        <time>2024-04-07T08:57:41Z</time>
      </trkpt>
      <trkpt lat="44.80796" lon="0.77059">
        <ele>158.3</ele>
        <time>2024-04-07T08:57:43Z</time>
      </trkpt>
      <trkpt lat="44.80791" lon="0.77064">
        <ele>158.3</ele>
        <time>2024-04-07T08:57:45Z</time>
      </trkpt>
      <trkpt lat="44.80786" lon="0.7707">
        <ele>158.3</ele>
        <time>2024-04-07T08:57:47Z</time>
      </trkpt>
      <trkpt lat="44.80781" lon="0.77075">
        <ele>158.3</ele>
        <time>2024-04-07T08:57:49Z</time>
      </trkpt>
      <trkpt lat="44.80776" lon="0.77081">
        <ele>158.3</ele>
        <time>2024-04-07T08:57:51Z</time>
      </trkpt>
      <trkpt lat="44.80771" lon="0.77087">
        <ele>158.4</ele>
        <time>2024-04-07T08:57:53Z</time>
      </trkpt>
      <trkpt lat="44.80767" lon="0.77093">
        <ele>158.5</ele>
        <time>2024-04-07T08:57:55Z</time>
      </trkpt>
      <trkpt lat="44.80762" lon="0.771">
        <ele>158.5</ele>
        <time>2024-04-07T08:57:57Z</time>
      </trkpt>
      <trkpt lat="44.80757" lon="0.77106">
        <ele>158.6</ele>
        <time>2024-04-07T08:57:59Z</time>
      </trkpt>
      <trkpt lat="44.80752" lon="0.77111">
        <ele>158.6</ele>
        <time>2024-04-07T08:58:01Z</time>
      </trkpt>
      <trkpt lat="44.80747" lon="0.77116">
        <ele>158.7</ele>
        <time>2024-04-07T08:58:03Z</time>
      </trkpt>
      <trkpt lat="44.80745" lon="0.77118">
        <ele>158.7</ele>
        <time>2024-04-07T08:58:04Z</time>
      </trkpt>
      <trkpt lat="44.80743" lon="0.7712">
        <ele>158.7</ele>
        <time>2024-04-07T08:58:05Z</time>
      </trkpt>
      <trkpt lat="44.80739" lon="0.77124">
        <ele>158.7</ele>
        <time>2024-04-07T08:58:07Z</time>
      </trkpt>
      <trkpt lat="44.80734" lon="0.77128">
        <ele>158.7</ele>
        <time>2024-04-07T08:58:09Z</time>
      </trkpt>
      <trkpt lat="44.80732" lon="0.7713">
        <ele>158.8</ele>
        <time>2024-04-07T08:58:10Z</time>
      </trkpt>
      <trkpt lat="44.80729" lon="0.77132">
        <ele>158.8</ele>
        <time>2024-04-07T08:58:11Z</time>
      </trkpt>
      <trkpt lat="44.80727" lon="0.77134">
        <ele>158.8</ele>
        <time>2024-04-07T08:58:12Z</time>
      </trkpt>
      <trkpt lat="44.80725" lon="0.77135">
        <ele>158.8</ele>
        <time>2024-04-07T08:58:13Z</time>
      </trkpt>
      <trkpt lat="44.8072" lon="0.77138">
        <ele>158.9</ele>
        <time>2024-04-07T08:58:15Z</time>
      </trkpt>
      <trkpt lat="44.80717" lon="0.77144">
        <ele>159.4</ele>
        <time>2024-04-07T08:58:17Z</time>
      </trkpt>
      <trkpt lat="44.80715" lon="0.7715">
        <ele>159.8</ele>
        <time>2024-04-07T08:58:19Z</time>
      </trkpt>
      <trkpt lat="44.80715" lon="0.77158">
        <ele>160.2</ele>
        <time>2024-04-07T08:58:21Z</time>
      </trkpt>
      <trkpt lat="44.80716" lon="0.77161">
        <ele>160.3</ele>
        <time>2024-04-07T08:58:22Z</time>
      </trkpt>
      <trkpt lat="44.80716" lon="0.77165">
        <ele>160.5</ele>
        <time>2024-04-07T08:58:23Z</time>
      </trkpt>
      <trkpt lat="44.80718" lon="0.77172">
        <ele>160.8</ele>
        <time>2024-04-07T08:58:25Z</time>
      </trkpt>
      <trkpt lat="44.80719" lon="0.77179">
        <ele>161.1</ele>
        <time>2024-04-07T08:58:27Z</time>
      </trkpt>
      <trkpt lat="44.80721" lon="0.77186">
        <ele>161.3</ele>
        <time>2024-04-07T08:58:29Z</time>
      </trkpt>
      <trkpt lat="44.80722" lon="0.77193">
        <ele>161.5</ele>
        <time>2024-04-07T08:58:31Z</time>
      </trkpt>
      <trkpt lat="44.80723" lon="0.77199">
        <ele>161.7</ele>
        <time>2024-04-07T08:58:33Z</time>
      </trkpt>
      <trkpt lat="44.80725" lon="0.77206">
        <ele>161.9</ele>
        <time>2024-04-07T08:58:35Z</time>
      </trkpt>
      <trkpt lat="44.80726" lon="0.77213">
        <ele>162</ele>
        <time>2024-04-07T08:58:37Z</time>
      </trkpt>
      <trkpt lat="44.80728" lon="0.7722">
        <ele>162.1</ele>
        <time>2024-04-07T08:58:39Z</time>
      </trkpt>
      <trkpt lat="44.80729" lon="0.77227">
        <ele>162.1</ele>
        <time>2024-04-07T08:58:41Z</time>
      </trkpt>
      <trkpt lat="44.8073" lon="0.77234">
        <ele>162.1</ele>
        <time>2024-04-07T08:58:43Z</time>
      </trkpt>
      <trkpt lat="44.8073" lon="0.77241">
        <ele>162</ele>
        <time>2024-04-07T08:58:45Z</time>
      </trkpt>
      <trkpt lat="44.80732" lon="0.77249">
        <ele>161.9</ele>
        <time>2024-04-07T08:58:47Z</time>
      </trkpt>
      <trkpt lat="44.80732" lon="0.77253">
        <ele>161.9</ele>
        <time>2024-04-07T08:58:49Z</time>
      </trkpt>
      <trkpt lat="44.80733" lon="0.77259">
        <ele>161.7</ele>
        <time>2024-04-07T08:58:51Z</time>
      </trkpt>
      <trkpt lat="44.80734" lon="0.77266">
        <ele>161.5</ele>
        <time>2024-04-07T08:58:53Z</time>
      </trkpt>
      <trkpt lat="44.80736" lon="0.77273">
        <ele>161.3</ele>
        <time>2024-04-07T08:58:55Z</time>
      </trkpt>
      <trkpt lat="44.80738" lon="0.77281">
        <ele>161</ele>
        <time>2024-04-07T08:58:57Z</time>
      </trkpt>
      <trkpt lat="44.8074" lon="0.77287">
        <ele>160.8</ele>
        <time>2024-04-07T08:58:59Z</time>
      </trkpt>
      <trkpt lat="44.80742" lon="0.77296">
        <ele>160.4</ele>
        <time>2024-04-07T08:59:01Z</time>
      </trkpt>
      <trkpt lat="44.80745" lon="0.77307">
        <ele>159.8</ele>
        <time>2024-04-07T08:59:03Z</time>
      </trkpt>
      <trkpt lat="44.80746" lon="0.77312">
        <ele>159.5</ele>
        <time>2024-04-07T08:59:04Z</time>
      </trkpt>
      <trkpt lat="44.80748" lon="0.77318">
        <ele>159.1</ele>
        <time>2024-04-07T08:59:05Z</time>
      </trkpt>
      <trkpt lat="44.80751" lon="0.7733">
        <ele>158.2</ele>
        <time>2024-04-07T08:59:07Z</time>
      </trkpt>
      <trkpt lat="44.80756" lon="0.77344">
        <ele>157.1</ele>
        <time>2024-04-07T08:59:09Z</time>
      </trkpt>
      <trkpt lat="44.80758" lon="0.77351">
        <ele>156.7</ele>
        <time>2024-04-07T08:59:10Z</time>
      </trkpt>
      <trkpt lat="44.8076" lon="0.77357">
        <ele>156.3</ele>
        <time>2024-04-07T08:59:11Z</time>
      </trkpt>
      <trkpt lat="44.80765" lon="0.77369">
        <ele>155.5</ele>
        <time>2024-04-07T08:59:13Z</time>
      </trkpt>
      <trkpt lat="44.80771" lon="0.77381">
        <ele>154.5</ele>
        <time>2024-04-07T08:59:15Z</time>
      </trkpt>
      <trkpt lat="44.80776" lon="0.77393">
        <ele>153.7</ele>
        <time>2024-04-07T08:59:17Z</time>
      </trkpt>
      <trkpt lat="44.80781" lon="0.77406">
        <ele>152.9</ele>
        <time>2024-04-07T08:59:19Z</time>
      </trkpt>
      <trkpt lat="44.80783" lon="0.77412">
        <ele>152.5</ele>
        <time>2024-04-07T08:59:20Z</time>
      </trkpt>
      <trkpt lat="44.80785" lon="0.77418">
        <ele>152</ele>
        <time>2024-04-07T08:59:21Z</time>
      </trkpt>
      <trkpt lat="44.80787" lon="0.77424">
        <ele>151.5</ele>
        <time>2024-04-07T08:59:22Z</time>
      </trkpt>
      <trkpt lat="44.80789" lon="0.7743">
        <ele>151.1</ele>
        <time>2024-04-07T08:59:23Z</time>
      </trkpt>
      <trkpt lat="44.80795" lon="0.77441">
        <ele>150.1</ele>
        <time>2024-04-07T08:59:25Z</time>
      </trkpt>
      <trkpt lat="44.80803" lon="0.77451">
        <ele>149.2</ele>
        <time>2024-04-07T08:59:27Z</time>
      </trkpt>
      <trkpt lat="44.80812" lon="0.77456">
        <ele>148.6</ele>
        <time>2024-04-07T08:59:29Z</time>
      </trkpt>
      <trkpt lat="44.80822" lon="0.77458">
        <ele>148.3</ele>
        <time>2024-04-07T08:59:31Z</time>
      </trkpt>
      <trkpt lat="44.80827" lon="0.77459">
        <ele>148.1</ele>
        <time>2024-04-07T08:59:32Z</time>
      </trkpt>
      <trkpt lat="44.80831" lon="0.77458">
        <ele>147.9</ele>
        <time>2024-04-07T08:59:33Z</time>
      </trkpt>
      <trkpt lat="44.80835" lon="0.77458">
        <ele>147.7</ele>
        <time>2024-04-07T08:59:34Z</time>
      </trkpt>
      <trkpt lat="44.80839" lon="0.77458">
        <ele>147.6</ele>
        <time>2024-04-07T08:59:35Z</time>
      </trkpt>
      <trkpt lat="44.80842" lon="0.77458">
        <ele>147.5</ele>
        <time>2024-04-07T08:59:36Z</time>
      </trkpt>
      <trkpt lat="44.80845" lon="0.77457">
        <ele>147.4</ele>
        <time>2024-04-07T08:59:37Z</time>
      </trkpt>
      <trkpt lat="44.80852" lon="0.77455">
        <ele>147.3</ele>
        <time>2024-04-07T08:59:39Z</time>
      </trkpt>
      <trkpt lat="44.80855" lon="0.77454">
        <ele>147.3</ele>
        <time>2024-04-07T08:59:40Z</time>
      </trkpt>
      <trkpt lat="44.80857" lon="0.77453">
        <ele>147.2</ele>
        <time>2024-04-07T08:59:41Z</time>
      </trkpt>
      <trkpt lat="44.80862" lon="0.77451">
        <ele>147.2</ele>
        <time>2024-04-07T08:59:43Z</time>
      </trkpt>
      <trkpt lat="44.80868" lon="0.77448">
        <ele>147.1</ele>
        <time>2024-04-07T08:59:45Z</time>
      </trkpt>
      <trkpt lat="44.80873" lon="0.77446">
        <ele>146.9</ele>
        <time>2024-04-07T08:59:47Z</time>
      </trkpt>
      <trkpt lat="44.80877" lon="0.77446">
        <ele>146.7</ele>
        <time>2024-04-07T08:59:49Z</time>
      </trkpt>
      <trkpt lat="44.80878" lon="0.77447">
        <ele>146.6</ele>
        <time>2024-04-07T08:59:51Z</time>
      </trkpt>
      <trkpt lat="44.80878" lon="0.77447">
        <ele>146.6</ele>
        <time>2024-04-07T08:59:53Z</time>
      </trkpt>
      <trkpt lat="44.80881" lon="0.77452">
        <ele>146.4</ele>
        <time>2024-04-07T09:00:21Z</time>
      </trkpt>
      <trkpt lat="44.80885" lon="0.77459">
        <ele>146.1</ele>
        <time>2024-04-07T09:00:23Z</time>
      </trkpt>
      <trkpt lat="44.80892" lon="0.77468">
        <ele>145.5</ele>
        <time>2024-04-07T09:00:25Z</time>
      </trkpt>
      <trkpt lat="44.80899" lon="0.77477">
        <ele>144.7</ele>
        <time>2024-04-07T09:00:27Z</time>
      </trkpt>
      <trkpt lat="44.80907" lon="0.77487">
        <ele>143.9</ele>
        <time>2024-04-07T09:00:29Z</time>
      </trkpt>
      <trkpt lat="44.8091" lon="0.77491">
        <ele>143.4</ele>
        <time>2024-04-07T09:00:30Z</time>
      </trkpt>
      <trkpt lat="44.80914" lon="0.77497">
        <ele>143</ele>
        <time>2024-04-07T09:00:31Z</time>
      </trkpt>
      <trkpt lat="44.80918" lon="0.77502">
        <ele>142.6</ele>
        <time>2024-04-07T09:00:32Z</time>
      </trkpt>
      <trkpt lat="44.80922" lon="0.77507">
        <ele>142.2</ele>
        <time>2024-04-07T09:00:33Z</time>
      </trkpt>
      <trkpt lat="44.80929" lon="0.77519">
        <ele>141.4</ele>
        <time>2024-04-07T09:00:35Z</time>
      </trkpt>
      <trkpt lat="44.80933" lon="0.77525">
        <ele>141</ele>
        <time>2024-04-07T09:00:36Z</time>
      </trkpt>
      <trkpt lat="44.80936" lon="0.77532">
        <ele>140.5</ele>
        <time>2024-04-07T09:00:37Z</time>
      </trkpt>
      <trkpt lat="44.80938" lon="0.7754">
        <ele>140.1</ele>
        <time>2024-04-07T09:00:38Z</time>
      </trkpt>
      <trkpt lat="44.8094" lon="0.77548">
        <ele>139.6</ele>
        <time>2024-04-07T09:00:39Z</time>
      </trkpt>
      <trkpt lat="44.80943" lon="0.77565">
        <ele>138.5</ele>
        <time>2024-04-07T09:00:41Z</time>
      </trkpt>
      <trkpt lat="44.80944" lon="0.77583">
        <ele>137.4</ele>
        <time>2024-04-07T09:00:43Z</time>
      </trkpt>
      <trkpt lat="44.80946" lon="0.776">
        <ele>136.3</ele>
        <time>2024-04-07T09:00:45Z</time>
      </trkpt>
      <trkpt lat="44.80947" lon="0.77615">
        <ele>135.3</ele>
        <time>2024-04-07T09:00:47Z</time>
      </trkpt>
      <trkpt lat="44.80949" lon="0.7763">
        <ele>134.3</ele>
        <time>2024-04-07T09:00:49Z</time>
      </trkpt>
      <trkpt lat="44.8095" lon="0.77644">
        <ele>133.3</ele>
        <time>2024-04-07T09:00:51Z</time>
      </trkpt>
      <trkpt lat="44.8095" lon="0.77657">
        <ele>132.4</ele>
        <time>2024-04-07T09:00:53Z</time>
      </trkpt>
      <trkpt lat="44.80951" lon="0.77669">
        <ele>131.6</ele>
        <time>2024-04-07T09:00:55Z</time>
      </trkpt>
      <trkpt lat="44.80953" lon="0.77682">
        <ele>130.7</ele>
        <time>2024-04-07T09:00:57Z</time>
      </trkpt>
      <trkpt lat="44.80954" lon="0.77698">
        <ele>129.7</ele>
        <time>2024-04-07T09:00:59Z</time>
      </trkpt>
      <trkpt lat="44.80955" lon="0.77706">
        <ele>129.2</ele>
        <time>2024-04-07T09:01:00Z</time>
      </trkpt>
      <trkpt lat="44.80955" lon="0.77715">
        <ele>128.6</ele>
        <time>2024-04-07T09:01:01Z</time>
      </trkpt>
      <trkpt lat="44.80957" lon="0.77732">
        <ele>127.7</ele>
        <time>2024-04-07T09:01:03Z</time>
      </trkpt>
      <trkpt lat="44.80958" lon="0.77747">
        <ele>127</ele>
        <time>2024-04-07T09:01:05Z</time>
      </trkpt>
      <trkpt lat="44.80958" lon="0.77755">
        <ele>126.7</ele>
        <time>2024-04-07T09:01:06Z</time>
      </trkpt>
      <trkpt lat="44.80959" lon="0.77763">
        <ele>126.4</ele>
        <time>2024-04-07T09:01:07Z</time>
      </trkpt>
      <trkpt lat="44.8096" lon="0.7778">
        <ele>125.9</ele>
        <time>2024-04-07T09:01:09Z</time>
      </trkpt>
      <trkpt lat="44.80962" lon="0.77796">
        <ele>125.5</ele>
        <time>2024-04-07T09:01:11Z</time>
      </trkpt>
      <trkpt lat="44.80964" lon="0.77811">
        <ele>125.3</ele>
        <time>2024-04-07T09:01:13Z</time>
      </trkpt>
      <trkpt lat="44.80965" lon="0.77819">
        <ele>125.2</ele>
        <time>2024-04-07T09:01:14Z</time>
      </trkpt>
      <trkpt lat="44.80967" lon="0.77826">
        <ele>125.2</ele>
        <time>2024-04-07T09:01:15Z</time>
      </trkpt>
      <trkpt lat="44.8097" lon="0.77839">
        <ele>125.1</ele>
        <time>2024-04-07T09:01:17Z</time>
      </trkpt>
      <trkpt lat="44.80975" lon="0.77852">
        <ele>125.1</ele>
        <time>2024-04-07T09:01:19Z</time>
      </trkpt>
      <trkpt lat="44.80978" lon="0.77858">
        <ele>125.1</ele>
        <time>2024-04-07T09:01:20Z</time>
      </trkpt>
      <trkpt lat="44.80981" lon="0.77864">
        <ele>125.1</ele>
        <time>2024-04-07T09:01:21Z</time>
      </trkpt>
      <trkpt lat="44.80987" lon="0.77875">
        <ele>125.3</ele>
        <time>2024-04-07T09:01:23Z</time>
      </trkpt>
      <trkpt lat="44.80995" lon="0.77884">
        <ele>125.5</ele>
        <time>2024-04-07T09:01:25Z</time>
      </trkpt>
      <trkpt lat="44.81" lon="0.77888">
        <ele>125.7</ele>
        <time>2024-04-07T09:01:26Z</time>
      </trkpt>
      <trkpt lat="44.81004" lon="0.77892">
        <ele>125.9</ele>
        <time>2024-04-07T09:01:27Z</time>
      </trkpt>
      <trkpt lat="44.81009" lon="0.77895">
        <ele>126.1</ele>
        <time>2024-04-07T09:01:28Z</time>
      </trkpt>
      <trkpt lat="44.81013" lon="0.77898">
        <ele>126.3</ele>
        <time>2024-04-07T09:01:29Z</time>
      </trkpt>
      <trkpt lat="44.81021" lon="0.77905">
        <ele>126.8</ele>
        <time>2024-04-07T09:01:31Z</time>
      </trkpt>
      <trkpt lat="44.81024" lon="0.77909">
        <ele>127</ele>
        <time>2024-04-07T09:01:32Z</time>
      </trkpt>
      <trkpt lat="44.81027" lon="0.77912">
        <ele>127.2</ele>
        <time>2024-04-07T09:01:33Z</time>
      </trkpt>
      <trkpt lat="44.81033" lon="0.7792">
        <ele>127.6</ele>
        <time>2024-04-07T09:01:35Z</time>
      </trkpt>
      <trkpt lat="44.81035" lon="0.77924">
        <ele>127.8</ele>
        <time>2024-04-07T09:01:36Z</time>
      </trkpt>
      <trkpt lat="44.81037" lon="0.77928">
        <ele>128</ele>
        <time>2024-04-07T09:01:37Z</time>
      </trkpt>
      <trkpt lat="44.8104" lon="0.77938">
        <ele>128.4</ele>
        <time>2024-04-07T09:01:39Z</time>
      </trkpt>
      <trkpt lat="44.81042" lon="0.77948">
        <ele>128.9</ele>
        <time>2024-04-07T09:01:41Z</time>
      </trkpt>
      <trkpt lat="44.81043" lon="0.77953">
        <ele>129.1</ele>
        <time>2024-04-07T09:01:42Z</time>
      </trkpt>
      <trkpt lat="44.81044" lon="0.77957">
        <ele>129.4</ele>
        <time>2024-04-07T09:01:43Z</time>
      </trkpt>
      <trkpt lat="44.81046" lon="0.77968">
        <ele>129.9</ele>
        <time>2024-04-07T09:01:45Z</time>
      </trkpt>
      <trkpt lat="44.81047" lon="0.77979">
        <ele>130.5</ele>
        <time>2024-04-07T09:01:47Z</time>
      </trkpt>
      <trkpt lat="44.81048" lon="0.77985">
        <ele>130.8</ele>
        <time>2024-04-07T09:01:48Z</time>
      </trkpt>
      <trkpt lat="44.81049" lon="0.77989">
        <ele>131.1</ele>
        <time>2024-04-07T09:01:49Z</time>
      </trkpt>
      <trkpt lat="44.81051" lon="0.78">
        <ele>131.6</ele>
        <time>2024-04-07T09:01:51Z</time>
      </trkpt>
      <trkpt lat="44.81052" lon="0.78005">
        <ele>131.9</ele>
        <time>2024-04-07T09:01:52Z</time>
      </trkpt>
      <trkpt lat="44.81052" lon="0.7801">
        <ele>132.2</ele>
        <time>2024-04-07T09:01:53Z</time>
      </trkpt>
      <trkpt lat="44.81053" lon="0.78019">
        <ele>132.7</ele>
        <time>2024-04-07T09:01:55Z</time>
      </trkpt>
      <trkpt lat="44.81053" lon="0.78027">
        <ele>133</ele>
        <time>2024-04-07T09:01:57Z</time>
      </trkpt>
      <trkpt lat="44.81053" lon="0.7803">
        <ele>133.1</ele>
        <time>2024-04-07T09:01:58Z</time>
      </trkpt>
      <trkpt lat="44.81053" lon="0.78034">
        <ele>133.2</ele>
        <time>2024-04-07T09:01:59Z</time>
      </trkpt>
      <trkpt lat="44.81052" lon="0.78041">
        <ele>133.4</ele>
        <time>2024-04-07T09:02:01Z</time>
      </trkpt>
      <trkpt lat="44.8105" lon="0.78048">
        <ele>133.6</ele>
        <time>2024-04-07T09:02:03Z</time>
      </trkpt>
      <trkpt lat="44.81049" lon="0.78055">
        <ele>133.8</ele>
        <time>2024-04-07T09:02:05Z</time>
      </trkpt>
      <trkpt lat="44.81047" lon="0.78061">
        <ele>134</ele>
        <time>2024-04-07T09:02:07Z</time>
      </trkpt>
      <trkpt lat="44.81046" lon="0.78068">
        <ele>134.3</ele>
        <time>2024-04-07T09:02:09Z</time>
      </trkpt>
      <trkpt lat="44.81045" lon="0.78071">
        <ele>134.4</ele>
        <time>2024-04-07T09:02:10Z</time>
      </trkpt>
      <trkpt lat="44.81044" lon="0.78074">
        <ele>134.5</ele>
        <time>2024-04-07T09:02:11Z</time>
      </trkpt>
      <trkpt lat="44.81043" lon="0.78078">
        <ele>134.7</ele>
        <time>2024-04-07T09:02:12Z</time>
      </trkpt>
      <trkpt lat="44.81042" lon="0.78081">
        <ele>134.8</ele>
        <time>2024-04-07T09:02:13Z</time>
      </trkpt>
      <trkpt lat="44.81041" lon="0.78085">
        <ele>135</ele>
        <time>2024-04-07T09:02:14Z</time>
      </trkpt>
      <trkpt lat="44.8104" lon="0.78088">
        <ele>135.2</ele>
        <time>2024-04-07T09:02:15Z</time>
      </trkpt>
      <trkpt lat="44.81039" lon="0.78094">
        <ele>135.5</ele>
        <time>2024-04-07T09:02:17Z</time>
      </trkpt>
      <trkpt lat="44.81037" lon="0.781">
        <ele>135.8</ele>
        <time>2024-04-07T09:02:19Z</time>
      </trkpt>
      <trkpt lat="44.81037" lon="0.78103">
        <ele>135.9</ele>
        <time>2024-04-07T09:02:20Z</time>
      </trkpt>
      <trkpt lat="44.81036" lon="0.78106">
        <ele>136.1</ele>
        <time>2024-04-07T09:02:21Z</time>
      </trkpt>
      <trkpt lat="44.81035" lon="0.78113">
        <ele>136.4</ele>
        <time>2024-04-07T09:02:23Z</time>
      </trkpt>
      <trkpt lat="44.81033" lon="0.7812">
        <ele>136.8</ele>
        <time>2024-04-07T09:02:25Z</time>
      </trkpt>
      <trkpt lat="44.81032" lon="0.78123">
        <ele>137</ele>
        <time>2024-04-07T09:02:26Z</time>
      </trkpt>
      <trkpt lat="44.81032" lon="0.78126">
        <ele>137.2</ele>
        <time>2024-04-07T09:02:27Z</time>
      </trkpt>
      <trkpt lat="44.8103" lon="0.78133">
        <ele>137.5</ele>
        <time>2024-04-07T09:02:29Z</time>
      </trkpt>
      <trkpt lat="44.81029" lon="0.78139">
        <ele>137.8</ele>
        <time>2024-04-07T09:02:31Z</time>
      </trkpt>
      <trkpt lat="44.81027" lon="0.78145">
        <ele>138.1</ele>
        <time>2024-04-07T09:02:33Z</time>
      </trkpt>
      <trkpt lat="44.81026" lon="0.78148">
        <ele>138.3</ele>
        <time>2024-04-07T09:02:34Z</time>
      </trkpt>
      <trkpt lat="44.81025" lon="0.78152">
        <ele>138.4</ele>
        <time>2024-04-07T09:02:35Z</time>
      </trkpt>
      <trkpt lat="44.81024" lon="0.78158">
        <ele>138.7</ele>
        <time>2024-04-07T09:02:37Z</time>
      </trkpt>
      <trkpt lat="44.81022" lon="0.78165">
        <ele>139</ele>
        <time>2024-04-07T09:02:39Z</time>
      </trkpt>
      <trkpt lat="44.81021" lon="0.78171">
        <ele>139.2</ele>
        <time>2024-04-07T09:02:41Z</time>
      </trkpt>
      <trkpt lat="44.8102" lon="0.78174">
        <ele>139.4</ele>
        <time>2024-04-07T09:02:42Z</time>
      </trkpt>
      <trkpt lat="44.81019" lon="0.78177">
        <ele>139.5</ele>
        <time>2024-04-07T09:02:43Z</time>
      </trkpt>
      <trkpt lat="44.81016" lon="0.78183">
        <ele>139.7</ele>
        <time>2024-04-07T09:02:45Z</time>
      </trkpt>
      <trkpt lat="44.81014" lon="0.78188">
        <ele>139.9</ele>
        <time>2024-04-07T09:02:47Z</time>
      </trkpt>
      <trkpt lat="44.81011" lon="0.78192">
        <ele>140.1</ele>
        <time>2024-04-07T09:02:49Z</time>
      </trkpt>
      <trkpt lat="44.81008" lon="0.78197">
        <ele>140.3</ele>
        <time>2024-04-07T09:02:51Z</time>
      </trkpt>
      <trkpt lat="44.81004" lon="0.78202">
        <ele>140.5</ele>
        <time>2024-04-07T09:02:53Z</time>
      </trkpt>
      <trkpt lat="44.81" lon="0.78208">
        <ele>140.6</ele>
        <time>2024-04-07T09:02:55Z</time>
      </trkpt>
      <trkpt lat="44.80998" lon="0.7821">
        <ele>140.7</ele>
        <time>2024-04-07T09:02:56Z</time>
      </trkpt>
      <trkpt lat="44.80997" lon="0.78212">
        <ele>140.7</ele>
        <time>2024-04-07T09:02:57Z</time>
      </trkpt>
      <trkpt lat="44.80992" lon="0.78217">
        <ele>140.8</ele>
        <time>2024-04-07T09:02:59Z</time>
      </trkpt>
      <trkpt lat="44.80988" lon="0.78221">
        <ele>140.8</ele>
        <time>2024-04-07T09:03:01Z</time>
      </trkpt>
      <trkpt lat="44.80986" lon="0.78224">
        <ele>140.8</ele>
        <time>2024-04-07T09:03:02Z</time>
      </trkpt>
      <trkpt lat="44.80983" lon="0.78226">
        <ele>140.8</ele>
        <time>2024-04-07T09:03:03Z</time>
      </trkpt>
      <trkpt lat="44.80977" lon="0.7823">
        <ele>140.8</ele>
        <time>2024-04-07T09:03:05Z</time>
      </trkpt>
      <trkpt lat="44.80972" lon="0.78234">
        <ele>140.7</ele>
        <time>2024-04-07T09:03:07Z</time>
      </trkpt>
      <trkpt lat="44.80969" lon="0.78236">
        <ele>140.6</ele>
        <time>2024-04-07T09:03:08Z</time>
      </trkpt>
      <trkpt lat="44.80965" lon="0.78237">
        <ele>140.6</ele>
        <time>2024-04-07T09:03:09Z</time>
      </trkpt>
      <trkpt lat="44.80959" lon="0.78241">
        <ele>140.4</ele>
        <time>2024-04-07T09:03:11Z</time>
      </trkpt>
      <trkpt lat="44.80953" lon="0.78245">
        <ele>140.2</ele>
        <time>2024-04-07T09:03:13Z</time>
      </trkpt>
      <trkpt lat="44.80946" lon="0.78248">
        <ele>140</ele>
        <time>2024-04-07T09:03:15Z</time>
      </trkpt>
      <trkpt lat="44.80943" lon="0.7825">
        <ele>139.9</ele>
        <time>2024-04-07T09:03:16Z</time>
      </trkpt>
      <trkpt lat="44.8094" lon="0.78252">
        <ele>139.8</ele>
        <time>2024-04-07T09:03:17Z</time>
      </trkpt>
      <trkpt lat="44.80933" lon="0.78255">
        <ele>139.5</ele>
        <time>2024-04-07T09:03:19Z</time>
      </trkpt>
      <trkpt lat="44.80926" lon="0.78259">
        <ele>139.2</ele>
        <time>2024-04-07T09:03:21Z</time>
      </trkpt>
      <trkpt lat="44.80917" lon="0.78263">
        <ele>138.8</ele>
        <time>2024-04-07T09:03:23Z</time>
      </trkpt>
      <trkpt lat="44.80908" lon="0.78268">
        <ele>138.4</ele>
        <time>2024-04-07T09:03:25Z</time>
      </trkpt>
      <trkpt lat="44.80898" lon="0.78273">
        <ele>137.9</ele>
        <time>2024-04-07T09:03:27Z</time>
      </trkpt>
      <trkpt lat="44.80888" lon="0.78279">
        <ele>137.4</ele>
        <time>2024-04-07T09:03:29Z</time>
      </trkpt>
      <trkpt lat="44.80878" lon="0.78285">
        <ele>136.9</ele>
        <time>2024-04-07T09:03:31Z</time>
      </trkpt>
      <trkpt lat="44.80869" lon="0.78291">
        <ele>136.5</ele>
        <time>2024-04-07T09:03:33Z</time>
      </trkpt>
      <trkpt lat="44.80861" lon="0.783">
        <ele>136</ele>
        <time>2024-04-07T09:03:35Z</time>
      </trkpt>
      <trkpt lat="44.80853" lon="0.78309">
        <ele>135.6</ele>
        <time>2024-04-07T09:03:37Z</time>
      </trkpt>
      <trkpt lat="44.80849" lon="0.78315">
        <ele>135.3</ele>
        <time>2024-04-07T09:03:38Z</time>
      </trkpt>
      <trkpt lat="44.80846" lon="0.78321">
        <ele>135.1</ele>
        <time>2024-04-07T09:03:39Z</time>
      </trkpt>
      <trkpt lat="44.8084" lon="0.78334">
        <ele>134.6</ele>
        <time>2024-04-07T09:03:41Z</time>
      </trkpt>
      <trkpt lat="44.80837" lon="0.78341">
        <ele>134.4</ele>
        <time>2024-04-07T09:03:42Z</time>
      </trkpt>
      <trkpt lat="44.80835" lon="0.78348">
        <ele>134.1</ele>
        <time>2024-04-07T09:03:43Z</time>
      </trkpt>
      <trkpt lat="44.80831" lon="0.78363">
        <ele>133.6</ele>
        <time>2024-04-07T09:03:45Z</time>
      </trkpt>
      <trkpt lat="44.80826" lon="0.78378">
        <ele>133.1</ele>
        <time>2024-04-07T09:03:47Z</time>
      </trkpt>
      <trkpt lat="44.80821" lon="0.78393">
        <ele>132.6</ele>
        <time>2024-04-07T09:03:49Z</time>
      </trkpt>
      <trkpt lat="44.80816" lon="0.78408">
        <ele>132.1</ele>
        <time>2024-04-07T09:03:51Z</time>
      </trkpt>
      <trkpt lat="44.80813" lon="0.78415">
        <ele>131.8</ele>
        <time>2024-04-07T09:03:52Z</time>
      </trkpt>
      <trkpt lat="44.8081" lon="0.78421">
        <ele>131.6</ele>
        <time>2024-04-07T09:03:53Z</time>
      </trkpt>
      <trkpt lat="44.80806" lon="0.78428">
        <ele>131.3</ele>
        <time>2024-04-07T09:03:54Z</time>
      </trkpt>
      <trkpt lat="44.80802" lon="0.78434">
        <ele>131.1</ele>
        <time>2024-04-07T09:03:55Z</time>
      </trkpt>
      <trkpt lat="44.80798" lon="0.78439">
        <ele>130.8</ele>
        <time>2024-04-07T09:03:56Z</time>
      </trkpt>
      <trkpt lat="44.80793" lon="0.78444">
        <ele>130.6</ele>
        <time>2024-04-07T09:03:57Z</time>
      </trkpt>
      <trkpt lat="44.80788" lon="0.78448">
        <ele>130.3</ele>
        <time>2024-04-07T09:03:58Z</time>
      </trkpt>
      <trkpt lat="44.80783" lon="0.78453">
        <ele>130</ele>
        <time>2024-04-07T09:03:59Z</time>
      </trkpt>
      <trkpt lat="44.80778" lon="0.78457">
        <ele>129.8</ele>
        <time>2024-04-07T09:04:00Z</time>
      </trkpt>
      <trkpt lat="44.80772" lon="0.7846">
        <ele>129.5</ele>
        <time>2024-04-07T09:04:01Z</time>
      </trkpt>
      <trkpt lat="44.8076" lon="0.78467">
        <ele>129</ele>
        <time>2024-04-07T09:04:03Z</time>
      </trkpt>
      <trkpt lat="44.80748" lon="0.78474">
        <ele>128.5</ele>
        <time>2024-04-07T09:04:05Z</time>
      </trkpt>
      <trkpt lat="44.80736" lon="0.78481">
        <ele>128</ele>
        <time>2024-04-07T09:04:07Z</time>
      </trkpt>
      <trkpt lat="44.80724" lon="0.78488">
        <ele>127.6</ele>
        <time>2024-04-07T09:04:09Z</time>
      </trkpt>
      <trkpt lat="44.80718" lon="0.78491">
        <ele>127.4</ele>
        <time>2024-04-07T09:04:10Z</time>
      </trkpt>
      <trkpt lat="44.80712" lon="0.78494">
        <ele>127.2</ele>
        <time>2024-04-07T09:04:11Z</time>
      </trkpt>
      <trkpt lat="44.807" lon="0.78502">
        <ele>126.8</ele>
        <time>2024-04-07T09:04:13Z</time>
      </trkpt>
      <trkpt lat="44.80694" lon="0.78505">
        <ele>126.6</ele>
        <time>2024-04-07T09:04:14Z</time>
      </trkpt>
      <trkpt lat="44.80687" lon="0.78509">
        <ele>126.5</ele>
        <time>2024-04-07T09:04:15Z</time>
      </trkpt>
      <trkpt lat="44.80675" lon="0.78516">
        <ele>126.1</ele>
        <time>2024-04-07T09:04:17Z</time>
      </trkpt>
      <trkpt lat="44.80664" lon="0.78523">
        <ele>125.8</ele>
        <time>2024-04-07T09:04:19Z</time>
      </trkpt>
      <trkpt lat="44.80653" lon="0.78532">
        <ele>125.5</ele>
        <time>2024-04-07T09:04:21Z</time>
      </trkpt>
      <trkpt lat="44.80648" lon="0.78536">
        <ele>125.4</ele>
        <time>2024-04-07T09:04:22Z</time>
      </trkpt>
      <trkpt lat="44.80643" lon="0.78542">
        <ele>125.2</ele>
        <time>2024-04-07T09:04:23Z</time>
      </trkpt>
      <trkpt lat="44.80633" lon="0.78555">
        <ele>124.9</ele>
        <time>2024-04-07T09:04:25Z</time>
      </trkpt>
      <trkpt lat="44.80624" lon="0.78568">
        <ele>124.5</ele>
        <time>2024-04-07T09:04:27Z</time>
      </trkpt>
      <trkpt lat="44.80615" lon="0.78581">
        <ele>124.2</ele>
        <time>2024-04-07T09:04:29Z</time>
      </trkpt>
      <trkpt lat="44.80609" lon="0.78587">
        <ele>124</ele>
        <time>2024-04-07T09:04:30Z</time>
      </trkpt>
      <trkpt lat="44.80604" lon="0.78592">
        <ele>123.8</ele>
        <time>2024-04-07T09:04:31Z</time>
      </trkpt>
      <trkpt lat="44.80599" lon="0.78597">
        <ele>123.6</ele>
        <time>2024-04-07T09:04:32Z</time>
      </trkpt>
      <trkpt lat="44.80594" lon="0.78603">
        <ele>123.4</ele>
        <time>2024-04-07T09:04:33Z</time>
      </trkpt>
      <trkpt lat="44.80582" lon="0.78613">
        <ele>122.9</ele>
        <time>2024-04-07T09:04:35Z</time>
      </trkpt>
      <trkpt lat="44.80569" lon="0.78623">
        <ele>122.4</ele>
        <time>2024-04-07T09:04:37Z</time>
      </trkpt>
      <trkpt lat="44.80556" lon="0.78633">
        <ele>121.8</ele>
        <time>2024-04-07T09:04:39Z</time>
      </trkpt>
      <trkpt lat="44.80541" lon="0.78642">
        <ele>121.2</ele>
        <time>2024-04-07T09:04:41Z</time>
      </trkpt>
      <trkpt lat="44.80526" lon="0.7865">
        <ele>120.7</ele>
        <time>2024-04-07T09:04:43Z</time>
      </trkpt>
      <trkpt lat="44.80511" lon="0.78657">
        <ele>120.1</ele>
        <time>2024-04-07T09:04:45Z</time>
      </trkpt>
      <trkpt lat="44.80503" lon="0.78661">
        <ele>119.8</ele>
        <time>2024-04-07T09:04:46Z</time>
      </trkpt>
      <trkpt lat="44.80495" lon="0.78665">
        <ele>119.5</ele>
        <time>2024-04-07T09:04:47Z</time>
      </trkpt>
      <trkpt lat="44.8048" lon="0.78671">
        <ele>118.9</ele>
        <time>2024-04-07T09:04:49Z</time>
      </trkpt>
      <trkpt lat="44.80464" lon="0.78678">
        <ele>118.3</ele>
        <time>2024-04-07T09:04:51Z</time>
      </trkpt>
      <trkpt lat="44.80448" lon="0.78684">
        <ele>117.7</ele>
        <time>2024-04-07T09:04:53Z</time>
      </trkpt>
      <trkpt lat="44.80433" lon="0.7869">
        <ele>117.2</ele>
        <time>2024-04-07T09:04:55Z</time>
      </trkpt>
      <trkpt lat="44.80417" lon="0.78697">
        <ele>116.7</ele>
        <time>2024-04-07T09:04:57Z</time>
      </trkpt>
      <trkpt lat="44.8041" lon="0.78703">
        <ele>116.3</ele>
        <time>2024-04-07T09:04:58Z</time>
      </trkpt>
      <trkpt lat="44.80403" lon="0.78709">
        <ele>116</ele>
        <time>2024-04-07T09:04:59Z</time>
      </trkpt>
      <trkpt lat="44.80397" lon="0.78717">
        <ele>115.7</ele>
        <time>2024-04-07T09:05:00Z</time>
      </trkpt>
      <trkpt lat="44.80392" lon="0.78727">
        <ele>115.3</ele>
        <time>2024-04-07T09:05:01Z</time>
      </trkpt>
      <trkpt lat="44.80388" lon="0.78737">
        <ele>115</ele>
        <time>2024-04-07T09:05:02Z</time>
      </trkpt>
      <trkpt lat="44.80385" lon="0.78748">
        <ele>114.6</ele>
        <time>2024-04-07T09:05:03Z</time>
      </trkpt>
      <trkpt lat="44.80383" lon="0.7876">
        <ele>114.3</ele>
        <time>2024-04-07T09:05:04Z</time>
      </trkpt>
      <trkpt lat="44.80381" lon="0.78771">
        <ele>113.9</ele>
        <time>2024-04-07T09:05:05Z</time>
      </trkpt>
      <trkpt lat="44.80377" lon="0.78795">
        <ele>113.2</ele>
        <time>2024-04-07T09:05:07Z</time>
      </trkpt>
      <trkpt lat="44.80372" lon="0.78818">
        <ele>112.6</ele>
        <time>2024-04-07T09:05:09Z</time>
      </trkpt>
      <trkpt lat="44.80369" lon="0.7883">
        <ele>112.2</ele>
        <time>2024-04-07T09:05:10Z</time>
      </trkpt>
      <trkpt lat="44.80366" lon="0.78841">
        <ele>111.9</ele>
        <time>2024-04-07T09:05:11Z</time>
      </trkpt>
      <trkpt lat="44.8036" lon="0.78864">
        <ele>111.3</ele>
        <time>2024-04-07T09:05:13Z</time>
      </trkpt>
      <trkpt lat="44.80354" lon="0.78887">
        <ele>110.6</ele>
        <time>2024-04-07T09:05:15Z</time>
      </trkpt>
      <trkpt lat="44.8035" lon="0.78898">
        <ele>110.3</ele>
        <time>2024-04-07T09:05:16Z</time>
      </trkpt>
      <trkpt lat="44.80347" lon="0.7891">
        <ele>109.9</ele>
        <time>2024-04-07T09:05:17Z</time>
      </trkpt>
      <trkpt lat="44.80341" lon="0.78934">
        <ele>109.2</ele>
        <time>2024-04-07T09:05:19Z</time>
      </trkpt>
      <trkpt lat="44.80333" lon="0.78956">
        <ele>108.5</ele>
        <time>2024-04-07T09:05:21Z</time>
      </trkpt>
      <trkpt lat="44.8033" lon="0.78964">
        <ele>108.2</ele>
        <time>2024-04-07T09:05:22Z</time>
      </trkpt>
      <trkpt lat="44.80326" lon="0.78968">
        <ele>108</ele>
        <time>2024-04-07T09:05:23Z</time>
      </trkpt>
      <trkpt lat="44.80318" lon="0.78974">
        <ele>107.7</ele>
        <time>2024-04-07T09:05:24Z</time>
      </trkpt>
      <trkpt lat="44.80311" lon="0.78978">
        <ele>107.4</ele>
        <time>2024-04-07T09:05:25Z</time>
      </trkpt>
      <trkpt lat="44.80298" lon="0.78981">
        <ele>107.1</ele>
        <time>2024-04-07T09:05:27Z</time>
      </trkpt>
      <trkpt lat="44.80289" lon="0.78983">
        <ele>106.9</ele>
        <time>2024-04-07T09:05:29Z</time>
      </trkpt>
      <trkpt lat="44.80279" lon="0.78982">
        <ele>106.6</ele>
        <time>2024-04-07T09:05:31Z</time>
      </trkpt>
      <trkpt lat="44.80275" lon="0.78979">
        <ele>106.4</ele>
        <time>2024-04-07T09:05:32Z</time>
      </trkpt>
      <trkpt lat="44.80271" lon="0.78976">
        <ele>106.2</ele>
        <time>2024-04-07T09:05:33Z</time>
      </trkpt>
      <trkpt lat="44.80267" lon="0.78972">
        <ele>106</ele>
        <time>2024-04-07T09:05:34Z</time>
      </trkpt>
      <trkpt lat="44.80263" lon="0.78966">
        <ele>105.8</ele>
        <time>2024-04-07T09:05:35Z</time>
      </trkpt>
      <trkpt lat="44.80256" lon="0.78955">
        <ele>105.4</ele>
        <time>2024-04-07T09:05:37Z</time>
      </trkpt>
      <trkpt lat="44.80248" lon="0.78944">
        <ele>105</ele>
        <time>2024-04-07T09:05:39Z</time>
      </trkpt>
      <trkpt lat="44.80241" lon="0.78933">
        <ele>104.6</ele>
        <time>2024-04-07T09:05:41Z</time>
      </trkpt>
      <trkpt lat="44.80233" lon="0.78923">
        <ele>104.3</ele>
        <time>2024-04-07T09:05:43Z</time>
      </trkpt>
      <trkpt lat="44.80228" lon="0.78918">
        <ele>104.2</ele>
        <time>2024-04-07T09:05:44Z</time>
      </trkpt>
      <trkpt lat="44.80224" lon="0.78913">
        <ele>104</ele>
        <time>2024-04-07T09:05:45Z</time>
      </trkpt>
      <trkpt lat="44.80219" lon="0.78909">
        <ele>103.9</ele>
        <time>2024-04-07T09:05:46Z</time>
      </trkpt>
      <trkpt lat="44.80214" lon="0.78905">
        <ele>103.8</ele>
        <time>2024-04-07T09:05:47Z</time>
      </trkpt>
      <trkpt lat="44.80209" lon="0.78901">
        <ele>103.7</ele>
        <time>2024-04-07T09:05:48Z</time>
      </trkpt>
      <trkpt lat="44.80204" lon="0.78897">
        <ele>103.6</ele>
        <time>2024-04-07T09:05:49Z</time>
      </trkpt>
      <trkpt lat="44.80199" lon="0.78894">
        <ele>103.5</ele>
        <time>2024-04-07T09:05:50Z</time>
      </trkpt>
      <trkpt lat="44.80193" lon="0.7889">
        <ele>103.4</ele>
        <time>2024-04-07T09:05:51Z</time>
      </trkpt>
      <trkpt lat="44.80182" lon="0.78884">
        <ele>103.3</ele>
        <time>2024-04-07T09:05:53Z</time>
      </trkpt>
      <trkpt lat="44.80176" lon="0.78881">
        <ele>103.3</ele>
        <time>2024-04-07T09:05:54Z</time>
      </trkpt>
      <trkpt lat="44.80171" lon="0.78879">
        <ele>103.3</ele>
        <time>2024-04-07T09:05:55Z</time>
      </trkpt>
      <trkpt lat="44.80159" lon="0.78874">
        <ele>103.2</ele>
        <time>2024-04-07T09:05:57Z</time>
      </trkpt>
      <trkpt lat="44.80154" lon="0.78872">
        <ele>103.2</ele>
        <time>2024-04-07T09:05:58Z</time>
      </trkpt>
      <trkpt lat="44.80148" lon="0.7887">
        <ele>103.2</ele>
        <time>2024-04-07T09:05:59Z</time>
      </trkpt>
      <trkpt lat="44.80143" lon="0.78868">
        <ele>103.1</ele>
        <time>2024-04-07T09:06:00Z</time>
      </trkpt>
      <trkpt lat="44.80138" lon="0.78867">
        <ele>103.1</ele>
        <time>2024-04-07T09:06:01Z</time>
      </trkpt>
      <trkpt lat="44.80127" lon="0.78865">
        <ele>103.1</ele>
        <time>2024-04-07T09:06:03Z</time>
      </trkpt>
      <trkpt lat="44.80122" lon="0.78865">
        <ele>103.1</ele>
        <time>2024-04-07T09:06:04Z</time>
      </trkpt>
      <trkpt lat="44.80117" lon="0.78865">
        <ele>103.1</ele>
        <time>2024-04-07T09:06:05Z</time>
      </trkpt>
      <trkpt lat="44.80112" lon="0.78863">
        <ele>103.1</ele>
        <time>2024-04-07T09:06:06Z</time>
      </trkpt>
      <trkpt lat="44.80109" lon="0.78862">
        <ele>103.1</ele>
        <time>2024-04-07T09:06:07Z</time>
      </trkpt>
      <trkpt lat="44.80102" lon="0.78859">
        <ele>103.1</ele>
        <time>2024-04-07T09:06:09Z</time>
      </trkpt>
      <trkpt lat="44.80098" lon="0.78857">
        <ele>103.1</ele>
        <time>2024-04-07T09:06:10Z</time>
      </trkpt>
      <trkpt lat="44.80095" lon="0.78853">
        <ele>103.1</ele>
        <time>2024-04-07T09:06:11Z</time>
      </trkpt>
      <trkpt lat="44.80088" lon="0.78843">
        <ele>102.8</ele>
        <time>2024-04-07T09:06:13Z</time>
      </trkpt>
      <trkpt lat="44.8008" lon="0.78834">
        <ele>102.5</ele>
        <time>2024-04-07T09:06:15Z</time>
      </trkpt>
      <trkpt lat="44.8007" lon="0.78829">
        <ele>102.2</ele>
        <time>2024-04-07T09:06:17Z</time>
      </trkpt>
      <trkpt lat="44.8006" lon="0.78827">
        <ele>102</ele>
        <time>2024-04-07T09:06:19Z</time>
      </trkpt>
      <trkpt lat="44.80055" lon="0.78825">
        <ele>102</ele>
        <time>2024-04-07T09:06:20Z</time>
      </trkpt>
      <trkpt lat="44.8005" lon="0.78825">
        <ele>101.9</ele>
        <time>2024-04-07T09:06:21Z</time>
      </trkpt>
      <trkpt lat="44.80038" lon="0.78823">
        <ele>101.8</ele>
        <time>2024-04-07T09:06:23Z</time>
      </trkpt>
      <trkpt lat="44.80033" lon="0.78822">
        <ele>101.7</ele>
        <time>2024-04-07T09:06:24Z</time>
      </trkpt>
      <trkpt lat="44.80027" lon="0.78821">
        <ele>101.7</ele>
        <time>2024-04-07T09:06:25Z</time>
      </trkpt>
      <trkpt lat="44.80016" lon="0.78819">
        <ele>101.6</ele>
        <time>2024-04-07T09:06:27Z</time>
      </trkpt>
      <trkpt lat="44.80005" lon="0.78818">
        <ele>101.5</ele>
        <time>2024-04-07T09:06:29Z</time>
      </trkpt>
      <trkpt lat="44.8" lon="0.78817">
        <ele>101.5</ele>
        <time>2024-04-07T09:06:30Z</time>
      </trkpt>
      <trkpt lat="44.79994" lon="0.78816">
        <ele>101.4</ele>
        <time>2024-04-07T09:06:31Z</time>
      </trkpt>
      <trkpt lat="44.79983" lon="0.78814">
        <ele>101.3</ele>
        <time>2024-04-07T09:06:33Z</time>
      </trkpt>
      <trkpt lat="44.79972" lon="0.78811">
        <ele>101.2</ele>
        <time>2024-04-07T09:06:35Z</time>
      </trkpt>
      <trkpt lat="44.79961" lon="0.78809">
        <ele>101</ele>
        <time>2024-04-07T09:06:37Z</time>
      </trkpt>
      <trkpt lat="44.79955" lon="0.78808">
        <ele>101</ele>
        <time>2024-04-07T09:06:38Z</time>
      </trkpt>
      <trkpt lat="44.7995" lon="0.78806">
        <ele>100.9</ele>
        <time>2024-04-07T09:06:39Z</time>
      </trkpt>
      <trkpt lat="44.79938" lon="0.78804">
        <ele>100.7</ele>
        <time>2024-04-07T09:06:41Z</time>
      </trkpt>
      <trkpt lat="44.79932" lon="0.78802">
        <ele>100.6</ele>
        <time>2024-04-07T09:06:42Z</time>
      </trkpt>
      <trkpt lat="44.79926" lon="0.788">
        <ele>100.6</ele>
        <time>2024-04-07T09:06:43Z</time>
      </trkpt>
      <trkpt lat="44.7992" lon="0.78798">
        <ele>100.5</ele>
        <time>2024-04-07T09:06:44Z</time>
      </trkpt>
      <trkpt lat="44.79914" lon="0.78796">
        <ele>100.4</ele>
        <time>2024-04-07T09:06:45Z</time>
      </trkpt>
      <trkpt lat="44.79902" lon="0.78793">
        <ele>100.1</ele>
        <time>2024-04-07T09:06:47Z</time>
      </trkpt>
      <trkpt lat="44.7989" lon="0.7879">
        <ele>99.9</ele>
        <time>2024-04-07T09:06:49Z</time>
      </trkpt>
      <trkpt lat="44.79877" lon="0.78787">
        <ele>99.7</ele>
        <time>2024-04-07T09:06:51Z</time>
      </trkpt>
      <trkpt lat="44.79865" lon="0.78785">
        <ele>99.5</ele>
        <time>2024-04-07T09:06:53Z</time>
      </trkpt>
      <trkpt lat="44.79851" lon="0.78784">
        <ele>99.2</ele>
        <time>2024-04-07T09:06:55Z</time>
      </trkpt>
      <trkpt lat="44.79845" lon="0.78784">
        <ele>99.1</ele>
        <time>2024-04-07T09:06:56Z</time>
      </trkpt>
      <trkpt lat="44.79838" lon="0.78783">
        <ele>99</ele>
        <time>2024-04-07T09:06:57Z</time>
      </trkpt>
      <trkpt lat="44.79825" lon="0.78783">
        <ele>98.7</ele>
        <time>2024-04-07T09:06:59Z</time>
      </trkpt>
      <trkpt lat="44.79812" lon="0.78783">
        <ele>98.4</ele>
        <time>2024-04-07T09:07:01Z</time>
      </trkpt>
      <trkpt lat="44.79799" lon="0.78782">
        <ele>98</ele>
        <time>2024-04-07T09:07:03Z</time>
      </trkpt>
      <trkpt lat="44.79792" lon="0.78781">
        <ele>97.8</ele>
        <time>2024-04-07T09:07:04Z</time>
      </trkpt>
      <trkpt lat="44.79786" lon="0.7878">
        <ele>97.7</ele>
        <time>2024-04-07T09:07:05Z</time>
      </trkpt>
      <trkpt lat="44.79774" lon="0.78777">
        <ele>97.3</ele>
        <time>2024-04-07T09:07:07Z</time>
      </trkpt>
      <trkpt lat="44.79768" lon="0.78775">
        <ele>97.2</ele>
        <time>2024-04-07T09:07:08Z</time>
      </trkpt>
      <trkpt lat="44.79762" lon="0.78772">
        <ele>97</ele>
        <time>2024-04-07T09:07:09Z</time>
      </trkpt>
      <trkpt lat="44.79756" lon="0.78769">
        <ele>96.8</ele>
        <time>2024-04-07T09:07:10Z</time>
      </trkpt>
      <trkpt lat="44.79751" lon="0.78766">
        <ele>96.7</ele>
        <time>2024-04-07T09:07:11Z</time>
      </trkpt>
      <trkpt lat="44.79745" lon="0.78762">
        <ele>96.5</ele>
        <time>2024-04-07T09:07:12Z</time>
      </trkpt>
      <trkpt lat="44.79739" lon="0.78758">
        <ele>96.3</ele>
        <time>2024-04-07T09:07:13Z</time>
      </trkpt>
      <trkpt lat="44.7973" lon="0.78749">
        <ele>96</ele>
        <time>2024-04-07T09:07:15Z</time>
      </trkpt>
      <trkpt lat="44.79722" lon="0.78737">
        <ele>95.7</ele>
        <time>2024-04-07T09:07:17Z</time>
      </trkpt>
      <trkpt lat="44.79716" lon="0.78722">
        <ele>95.4</ele>
        <time>2024-04-07T09:07:19Z</time>
      </trkpt>
      <trkpt lat="44.79709" lon="0.78706">
        <ele>95.3</ele>
        <time>2024-04-07T09:07:21Z</time>
      </trkpt>
      <trkpt lat="44.79706" lon="0.78698">
        <ele>95.2</ele>
        <time>2024-04-07T09:07:22Z</time>
      </trkpt>
      <trkpt lat="44.79702" lon="0.7869">
        <ele>95.1</ele>
        <time>2024-04-07T09:07:23Z</time>
      </trkpt>
      <trkpt lat="44.79693" lon="0.78675">
        <ele>95</ele>
        <time>2024-04-07T09:07:25Z</time>
      </trkpt>
      <trkpt lat="44.79689" lon="0.78668">
        <ele>95</ele>
        <time>2024-04-07T09:07:26Z</time>
      </trkpt>
      <trkpt lat="44.79685" lon="0.78661">
        <ele>95.1</ele>
        <time>2024-04-07T09:07:27Z</time>
      </trkpt>
      <trkpt lat="44.79682" lon="0.78654">
        <ele>95.2</ele>
        <time>2024-04-07T09:07:28Z</time>
      </trkpt>
      <trkpt lat="44.79678" lon="0.78648">
        <ele>95.3</ele>
        <time>2024-04-07T09:07:29Z</time>
      </trkpt>
      <trkpt lat="44.79675" lon="0.78641">
        <ele>95.5</ele>
        <time>2024-04-07T09:07:30Z</time>
      </trkpt>
      <trkpt lat="44.79673" lon="0.78636">
        <ele>95.7</ele>
        <time>2024-04-07T09:07:31Z</time>
      </trkpt>
      <trkpt lat="44.79668" lon="0.78626">
        <ele>96.2</ele>
        <time>2024-04-07T09:07:33Z</time>
      </trkpt>
      <trkpt lat="44.79661" lon="0.78619">
        <ele>96.7</ele>
        <time>2024-04-07T09:07:35Z</time>
      </trkpt>
      <trkpt lat="44.79655" lon="0.78612">
        <ele>97.3</ele>
        <time>2024-04-07T09:07:37Z</time>
      </trkpt>
      <trkpt lat="44.79649" lon="0.78607">
        <ele>97.8</ele>
        <time>2024-04-07T09:07:39Z</time>
      </trkpt>
      <trkpt lat="44.79644" lon="0.78602">
        <ele>98.2</ele>
        <time>2024-04-07T09:07:41Z</time>
      </trkpt>
      <trkpt lat="44.79639" lon="0.78596">
        <ele>98.6</ele>
        <time>2024-04-07T09:07:43Z</time>
      </trkpt>
      <trkpt lat="44.79633" lon="0.78591">
        <ele>99.1</ele>
        <time>2024-04-07T09:07:45Z</time>
      </trkpt>
      <trkpt lat="44.7963" lon="0.78589">
        <ele>99.3</ele>
        <time>2024-04-07T09:07:46Z</time>
      </trkpt>
      <trkpt lat="44.79628" lon="0.78586">
        <ele>99.6</ele>
        <time>2024-04-07T09:07:47Z</time>
      </trkpt>
      <trkpt lat="44.79622" lon="0.78582">
        <ele>100</ele>
        <time>2024-04-07T09:07:49Z</time>
      </trkpt>
      <trkpt lat="44.79616" lon="0.78578">
        <ele>100.5</ele>
        <time>2024-04-07T09:07:51Z</time>
      </trkpt>
      <trkpt lat="44.79611" lon="0.78577">
        <ele>100.9</ele>
        <time>2024-04-07T09:07:53Z</time>
      </trkpt>
      <trkpt lat="44.79605" lon="0.78574">
        <ele>101.3</ele>
        <time>2024-04-07T09:07:55Z</time>
      </trkpt>
      <trkpt lat="44.796" lon="0.78572">
        <ele>101.7</ele>
        <time>2024-04-07T09:07:57Z</time>
      </trkpt>
      <trkpt lat="44.79595" lon="0.7857">
        <ele>102.1</ele>
        <time>2024-04-07T09:07:59Z</time>
      </trkpt>
      <trkpt lat="44.79589" lon="0.78568">
        <ele>102.6</ele>
        <time>2024-04-07T09:08:01Z</time>
      </trkpt>
      <trkpt lat="44.79583" lon="0.78567">
        <ele>103</ele>
        <time>2024-04-07T09:08:03Z</time>
      </trkpt>
      <trkpt lat="44.79581" lon="0.78565">
        <ele>103.2</ele>
        <time>2024-04-07T09:08:04Z</time>
      </trkpt>
      <trkpt lat="44.79578" lon="0.78564">
        <ele>103.4</ele>
        <time>2024-04-07T09:08:05Z</time>
      </trkpt>
      <trkpt lat="44.79575" lon="0.78563">
        <ele>103.6</ele>
        <time>2024-04-07T09:08:06Z</time>
      </trkpt>
      <trkpt lat="44.79573" lon="0.78562">
        <ele>103.8</ele>
        <time>2024-04-07T09:08:07Z</time>
      </trkpt>
      <trkpt lat="44.7957" lon="0.78561">
        <ele>104.1</ele>
        <time>2024-04-07T09:08:08Z</time>
      </trkpt>
      <trkpt lat="44.79568" lon="0.7856">
        <ele>104.3</ele>
        <time>2024-04-07T09:08:09Z</time>
      </trkpt>
      <trkpt lat="44.79565" lon="0.7856">
        <ele>104.5</ele>
        <time>2024-04-07T09:08:10Z</time>
      </trkpt>
      <trkpt lat="44.79562" lon="0.78559">
        <ele>104.7</ele>
        <time>2024-04-07T09:08:11Z</time>
      </trkpt>
      <trkpt lat="44.79557" lon="0.78556">
        <ele>105.1</ele>
        <time>2024-04-07T09:08:13Z</time>
      </trkpt>
      <trkpt lat="44.79552" lon="0.78554">
        <ele>105.5</ele>
        <time>2024-04-07T09:08:15Z</time>
      </trkpt>
      <trkpt lat="44.79547" lon="0.78551">
        <ele>105.9</ele>
        <time>2024-04-07T09:08:17Z</time>
      </trkpt>
      <trkpt lat="44.79542" lon="0.78547">
        <ele>106.3</ele>
        <time>2024-04-07T09:08:19Z</time>
      </trkpt>
      <trkpt lat="44.79538" lon="0.78544">
        <ele>106.6</ele>
        <time>2024-04-07T09:08:21Z</time>
      </trkpt>
      <trkpt lat="44.79535" lon="0.78541">
        <ele>106.9</ele>
        <time>2024-04-07T09:08:23Z</time>
      </trkpt>
      <trkpt lat="44.79531" lon="0.78538">
        <ele>107.2</ele>
        <time>2024-04-07T09:08:25Z</time>
      </trkpt>
      <trkpt lat="44.79527" lon="0.78534">
        <ele>107.5</ele>
        <time>2024-04-07T09:08:27Z</time>
      </trkpt>
      <trkpt lat="44.79524" lon="0.78531">
        <ele>107.8</ele>
        <time>2024-04-07T09:08:29Z</time>
      </trkpt>
      <trkpt lat="44.79521" lon="0.78528">
        <ele>108.1</ele>
        <time>2024-04-07T09:08:31Z</time>
      </trkpt>
      <trkpt lat="44.79519" lon="0.78527">
        <ele>108.2</ele>
        <time>2024-04-07T09:08:32Z</time>
      </trkpt>
      <trkpt lat="44.79518" lon="0.78525">
        <ele>108.4</ele>
        <time>2024-04-07T09:08:33Z</time>
      </trkpt>
      <trkpt lat="44.79514" lon="0.78522">
        <ele>108.7</ele>
        <time>2024-04-07T09:08:35Z</time>
      </trkpt>
      <trkpt lat="44.79511" lon="0.78518">
        <ele>109</ele>
        <time>2024-04-07T09:08:37Z</time>
      </trkpt>
      <trkpt lat="44.79507" lon="0.78516">
        <ele>109.4</ele>
        <time>2024-04-07T09:08:39Z</time>
      </trkpt>
      <trkpt lat="44.79504" lon="0.78517">
        <ele>109.5</ele>
        <time>2024-04-07T09:08:40Z</time>
      </trkpt>
      <trkpt lat="44.79503" lon="0.7852">
        <ele>110.1</ele>
        <time>2024-04-07T09:08:41Z</time>
      </trkpt>
      <trkpt lat="44.79503" lon="0.78523">
        <ele>110.3</ele>
        <time>2024-04-07T09:08:42Z</time>
      </trkpt>
      <trkpt lat="44.79503" lon="0.78525">
        <ele>110.4</ele>
        <time>2024-04-07T09:08:43Z</time>
      </trkpt>
      <trkpt lat="44.79503" lon="0.78528">
        <ele>110.6</ele>
        <time>2024-04-07T09:08:44Z</time>
      </trkpt>
      <trkpt lat="44.79503" lon="0.78531">
        <ele>110.8</ele>
        <time>2024-04-07T09:08:45Z</time>
      </trkpt>
      <trkpt lat="44.79503" lon="0.78537">
        <ele>111.2</ele>
        <time>2024-04-07T09:08:47Z</time>
      </trkpt>
      <trkpt lat="44.79504" lon="0.78543">
        <ele>111.5</ele>
        <time>2024-04-07T09:08:49Z</time>
      </trkpt>
      <trkpt lat="44.79504" lon="0.78549">
        <ele>111.9</ele>
        <time>2024-04-07T09:08:51Z</time>
      </trkpt>
      <trkpt lat="44.79504" lon="0.78552">
        <ele>112.1</ele>
        <time>2024-04-07T09:08:52Z</time>
      </trkpt>
      <trkpt lat="44.79504" lon="0.78555">
        <ele>112.2</ele>
        <time>2024-04-07T09:08:53Z</time>
      </trkpt>
      <trkpt lat="44.79504" lon="0.78562">
        <ele>112.5</ele>
        <time>2024-04-07T09:08:55Z</time>
      </trkpt>
      <trkpt lat="44.79503" lon="0.78568">
        <ele>112.7</ele>
        <time>2024-04-07T09:08:57Z</time>
      </trkpt>
      <trkpt lat="44.79503" lon="0.78574">
        <ele>112.9</ele>
        <time>2024-04-07T09:08:59Z</time>
      </trkpt>
      <trkpt lat="44.79502" lon="0.7858">
        <ele>113.1</ele>
        <time>2024-04-07T09:09:01Z</time>
      </trkpt>
      <trkpt lat="44.79502" lon="0.78585">
        <ele>113.2</ele>
        <time>2024-04-07T09:09:03Z</time>
      </trkpt>
      <trkpt lat="44.79501" lon="0.78589">
        <ele>113.2</ele>
        <time>2024-04-07T09:09:05Z</time>
      </trkpt>
      <trkpt lat="44.79501" lon="0.78589">
        <ele>113.2</ele>
        <time>2024-04-07T09:09:06Z</time>
      </trkpt>
      <trkpt lat="44.79504" lon="0.78594">
        <ele>113.2</ele>
        <time>2024-04-07T09:10:59Z</time>
      </trkpt>
      <trkpt lat="44.79505" lon="0.78597">
        <ele>113.2</ele>
        <time>2024-04-07T09:11:00Z</time>
      </trkpt>
      <trkpt lat="44.79506" lon="0.78599">
        <ele>113.2</ele>
        <time>2024-04-07T09:11:01Z</time>
      </trkpt>
      <trkpt lat="44.79507" lon="0.78602">
        <ele>113.1</ele>
        <time>2024-04-07T09:11:02Z</time>
      </trkpt>
      <trkpt lat="44.79509" lon="0.78606">
        <ele>113</ele>
        <time>2024-04-07T09:11:03Z</time>
      </trkpt>
      <trkpt lat="44.79511" lon="0.78613">
        <ele>112.7</ele>
        <time>2024-04-07T09:11:05Z</time>
      </trkpt>
      <trkpt lat="44.79515" lon="0.78621">
        <ele>112.3</ele>
        <time>2024-04-07T09:11:07Z</time>
      </trkpt>
      <trkpt lat="44.7952" lon="0.7863">
        <ele>111.7</ele>
        <time>2024-04-07T09:11:09Z</time>
      </trkpt>
      <trkpt lat="44.79523" lon="0.78642">
        <ele>111</ele>
        <time>2024-04-07T09:11:11Z</time>
      </trkpt>
      <trkpt lat="44.79522" lon="0.7865">
        <ele>110.7</ele>
        <time>2024-04-07T09:11:12Z</time>
      </trkpt>
      <trkpt lat="44.79521" lon="0.78657">
        <ele>110.3</ele>
        <time>2024-04-07T09:11:13Z</time>
      </trkpt>
      <trkpt lat="44.79517" lon="0.78671">
        <ele>109.9</ele>
        <time>2024-04-07T09:11:15Z</time>
      </trkpt>
      <trkpt lat="44.79513" lon="0.78685">
        <ele>109.7</ele>
        <time>2024-04-07T09:11:17Z</time>
      </trkpt>
      <trkpt lat="44.79509" lon="0.787">
        <ele>110.1</ele>
        <time>2024-04-07T09:11:19Z</time>
      </trkpt>
      <trkpt lat="44.79509" lon="0.78706">
        <ele>110.3</ele>
        <time>2024-04-07T09:11:20Z</time>
      </trkpt>
      <trkpt lat="44.79509" lon="0.78712">
        <ele>110.5</ele>
        <time>2024-04-07T09:11:21Z</time>
      </trkpt>
      <trkpt lat="44.79511" lon="0.78722">
        <ele>110.7</ele>
        <time>2024-04-07T09:11:23Z</time>
      </trkpt>
      <trkpt lat="44.79513" lon="0.7873">
        <ele>110.9</ele>
        <time>2024-04-07T09:11:25Z</time>
      </trkpt>
      <trkpt lat="44.79516" lon="0.78736">
        <ele>110.9</ele>
        <time>2024-04-07T09:11:27Z</time>
      </trkpt>
      <trkpt lat="44.79519" lon="0.78742">
        <ele>110.8</ele>
        <time>2024-04-07T09:11:29Z</time>
      </trkpt>
      <trkpt lat="44.79521" lon="0.78746">
        <ele>110.7</ele>
        <time>2024-04-07T09:11:31Z</time>
      </trkpt>
      <trkpt lat="44.79523" lon="0.78748">
        <ele>110.7</ele>
        <time>2024-04-07T09:11:32Z</time>
      </trkpt>
      <trkpt lat="44.79525" lon="0.7875">
        <ele>110.6</ele>
        <time>2024-04-07T09:11:33Z</time>
      </trkpt>
      <trkpt lat="44.79528" lon="0.78756">
        <ele>110.3</ele>
        <time>2024-04-07T09:11:35Z</time>
      </trkpt>
      <trkpt lat="44.79532" lon="0.78763">
        <ele>110</ele>
        <time>2024-04-07T09:11:37Z</time>
      </trkpt>
      <trkpt lat="44.79537" lon="0.78772">
        <ele>109.6</ele>
        <time>2024-04-07T09:11:39Z</time>
      </trkpt>
      <trkpt lat="44.79539" lon="0.78777">
        <ele>109.4</ele>
        <time>2024-04-07T09:11:40Z</time>
      </trkpt>
      <trkpt lat="44.79541" lon="0.78783">
        <ele>109.1</ele>
        <time>2024-04-07T09:11:41Z</time>
      </trkpt>
      <trkpt lat="44.79545" lon="0.78795">
        <ele>108.7</ele>
        <time>2024-04-07T09:11:43Z</time>
      </trkpt>
      <trkpt lat="44.79546" lon="0.78808">
        <ele>108.5</ele>
        <time>2024-04-07T09:11:45Z</time>
      </trkpt>
      <trkpt lat="44.79547" lon="0.78813">
        <ele>108.5</ele>
        <time>2024-04-07T09:11:46Z</time>
      </trkpt>
      <trkpt lat="44.79547" lon="0.78818">
        <ele>108.5</ele>
        <time>2024-04-07T09:11:47Z</time>
      </trkpt>
      <trkpt lat="44.79549" lon="0.78822">
        <ele>108.5</ele>
        <time>2024-04-07T09:11:48Z</time>
      </trkpt>
      <trkpt lat="44.79549" lon="0.78825">
        <ele>108.4</ele>
        <time>2024-04-07T09:11:49Z</time>
      </trkpt>
      <trkpt lat="44.79548" lon="0.78836">
        <ele>108.4</ele>
        <time>2024-04-07T09:11:51Z</time>
      </trkpt>
      <trkpt lat="44.79547" lon="0.78848">
        <ele>108.4</ele>
        <time>2024-04-07T09:11:53Z</time>
      </trkpt>
      <trkpt lat="44.79547" lon="0.78855">
        <ele>108.4</ele>
        <time>2024-04-07T09:11:54Z</time>
      </trkpt>
      <trkpt lat="44.79547" lon="0.78861">
        <ele>108.4</ele>
        <time>2024-04-07T09:11:55Z</time>
      </trkpt>
      <trkpt lat="44.79549" lon="0.78873">
        <ele>108.2</ele>
        <time>2024-04-07T09:11:57Z</time>
      </trkpt>
      <trkpt lat="44.7955" lon="0.78878">
        <ele>108.2</ele>
        <time>2024-04-07T09:11:58Z</time>
      </trkpt>
      <trkpt lat="44.79551" lon="0.78884">
        <ele>108.1</ele>
        <time>2024-04-07T09:11:59Z</time>
      </trkpt>
      <trkpt lat="44.79552" lon="0.78897">
        <ele>107.9</ele>
        <time>2024-04-07T09:12:01Z</time>
      </trkpt>
      <trkpt lat="44.79553" lon="0.78909">
        <ele>107.7</ele>
        <time>2024-04-07T09:12:03Z</time>
      </trkpt>
      <trkpt lat="44.79553" lon="0.78916">
        <ele>107.5</ele>
        <time>2024-04-07T09:12:04Z</time>
      </trkpt>
      <trkpt lat="44.79553" lon="0.78922">
        <ele>107.2</ele>
        <time>2024-04-07T09:12:05Z</time>
      </trkpt>
      <trkpt lat="44.79551" lon="0.78929">
        <ele>106.9</ele>
        <time>2024-04-07T09:12:06Z</time>
      </trkpt>
      <trkpt lat="44.7955" lon="0.78936">
        <ele>106.5</ele>
        <time>2024-04-07T09:12:07Z</time>
      </trkpt>
      <trkpt lat="44.79548" lon="0.78942">
        <ele>106.2</ele>
        <time>2024-04-07T09:12:08Z</time>
      </trkpt>
      <trkpt lat="44.79546" lon="0.78947">
        <ele>105.8</ele>
        <time>2024-04-07T09:12:09Z</time>
      </trkpt>
      <trkpt lat="44.79543" lon="0.78954">
        <ele>105.4</ele>
        <time>2024-04-07T09:12:10Z</time>
      </trkpt>
      <trkpt lat="44.79541" lon="0.78963">
        <ele>105.1</ele>
        <time>2024-04-07T09:12:11Z</time>
      </trkpt>
      <trkpt lat="44.7954" lon="0.78971">
        <ele>104.9</ele>
        <time>2024-04-07T09:12:12Z</time>
      </trkpt>
      <trkpt lat="44.7954" lon="0.7898">
        <ele>104.9</ele>
        <time>2024-04-07T09:12:13Z</time>
      </trkpt>
      <trkpt lat="44.79541" lon="0.78996">
        <ele>105.2</ele>
        <time>2024-04-07T09:12:15Z</time>
      </trkpt>
      <trkpt lat="44.79542" lon="0.79001">
        <ele>105.3</ele>
        <time>2024-04-07T09:12:16Z</time>
      </trkpt>
      <trkpt lat="44.79542" lon="0.79007">
        <ele>105.5</ele>
        <time>2024-04-07T09:12:17Z</time>
      </trkpt>
      <trkpt lat="44.79543" lon="0.7902">
        <ele>105.7</ele>
        <time>2024-04-07T09:12:19Z</time>
      </trkpt>
      <trkpt lat="44.79542" lon="0.79032">
        <ele>105.7</ele>
        <time>2024-04-07T09:12:21Z</time>
      </trkpt>
      <trkpt lat="44.79541" lon="0.79045">
        <ele>105.6</ele>
        <time>2024-04-07T09:12:23Z</time>
      </trkpt>
      <trkpt lat="44.7954" lon="0.79051">
        <ele>105.5</ele>
        <time>2024-04-07T09:12:24Z</time>
      </trkpt>
      <trkpt lat="44.79538" lon="0.79057">
        <ele>105.4</ele>
        <time>2024-04-07T09:12:25Z</time>
      </trkpt>
      <trkpt lat="44.79537" lon="0.79063">
        <ele>105.2</ele>
        <time>2024-04-07T09:12:26Z</time>
      </trkpt>
      <trkpt lat="44.79534" lon="0.7907">
        <ele>105.1</ele>
        <time>2024-04-07T09:12:27Z</time>
      </trkpt>
      <trkpt lat="44.79529" lon="0.79082">
        <ele>104.9</ele>
        <time>2024-04-07T09:12:29Z</time>
      </trkpt>
      <trkpt lat="44.79526" lon="0.79087">
        <ele>104.8</ele>
        <time>2024-04-07T09:12:30Z</time>
      </trkpt>
      <trkpt lat="44.79524" lon="0.79091">
        <ele>104.8</ele>
        <time>2024-04-07T09:12:31Z</time>
      </trkpt>
      <trkpt lat="44.79521" lon="0.79097">
        <ele>104.6</ele>
        <time>2024-04-07T09:12:32Z</time>
      </trkpt>
      <trkpt lat="44.79518" lon="0.79104">
        <ele>104.5</ele>
        <time>2024-04-07T09:12:33Z</time>
      </trkpt>
      <trkpt lat="44.79514" lon="0.79116">
        <ele>104.3</ele>
        <time>2024-04-07T09:12:35Z</time>
      </trkpt>
      <trkpt lat="44.79511" lon="0.79127">
        <ele>104.2</ele>
        <time>2024-04-07T09:12:37Z</time>
      </trkpt>
      <trkpt lat="44.79506" lon="0.7914">
        <ele>104.2</ele>
        <time>2024-04-07T09:12:39Z</time>
      </trkpt>
      <trkpt lat="44.79502" lon="0.79154">
        <ele>104.3</ele>
        <time>2024-04-07T09:12:41Z</time>
      </trkpt>
      <trkpt lat="44.79497" lon="0.79166">
        <ele>104.4</ele>
        <time>2024-04-07T09:12:43Z</time>
      </trkpt>
      <trkpt lat="44.79493" lon="0.79179">
        <ele>104.4</ele>
        <time>2024-04-07T09:12:45Z</time>
      </trkpt>
      <trkpt lat="44.79488" lon="0.79191">
        <ele>104.3</ele>
        <time>2024-04-07T09:12:47Z</time>
      </trkpt>
      <trkpt lat="44.79485" lon="0.79202">
        <ele>104.2</ele>
        <time>2024-04-07T09:12:49Z</time>
      </trkpt>
      <trkpt lat="44.79482" lon="0.79213">
        <ele>104.1</ele>
        <time>2024-04-07T09:12:51Z</time>
      </trkpt>
      <trkpt lat="44.79479" lon="0.7922">
        <ele>104.1</ele>
        <time>2024-04-07T09:12:53Z</time>
      </trkpt>
      <trkpt lat="44.79477" lon="0.79223">
        <ele>104.1</ele>
        <time>2024-04-07T09:12:54Z</time>
      </trkpt>
      <trkpt lat="44.79474" lon="0.79228">
        <ele>104.2</ele>
        <time>2024-04-07T09:12:55Z</time>
      </trkpt>
      <trkpt lat="44.79471" lon="0.79235">
        <ele>104.4</ele>
        <time>2024-04-07T09:12:57Z</time>
      </trkpt>
      <trkpt lat="44.79466" lon="0.79244">
        <ele>104.7</ele>
        <time>2024-04-07T09:12:59Z</time>
      </trkpt>
      <trkpt lat="44.79461" lon="0.79252">
        <ele>105</ele>
        <time>2024-04-07T09:13:01Z</time>
      </trkpt>
      <trkpt lat="44.79457" lon="0.7926">
        <ele>105.3</ele>
        <time>2024-04-07T09:13:03Z</time>
      </trkpt>
      <trkpt lat="44.79453" lon="0.79268">
        <ele>105.5</ele>
        <time>2024-04-07T09:13:05Z</time>
      </trkpt>
      <trkpt lat="44.79448" lon="0.79276">
        <ele>105.8</ele>
        <time>2024-04-07T09:13:07Z</time>
      </trkpt>
      <trkpt lat="44.79444" lon="0.79283">
        <ele>105.9</ele>
        <time>2024-04-07T09:13:09Z</time>
      </trkpt>
      <trkpt lat="44.79439" lon="0.79288">
        <ele>106.1</ele>
        <time>2024-04-07T09:13:11Z</time>
      </trkpt>
      <trkpt lat="44.79434" lon="0.79293">
        <ele>106.2</ele>
        <time>2024-04-07T09:13:13Z</time>
      </trkpt>
      <trkpt lat="44.7943" lon="0.79295">
        <ele>106.3</ele>
        <time>2024-04-07T09:13:14Z</time>
      </trkpt>
      <trkpt lat="44.79428" lon="0.79296">
        <ele>106.3</ele>
        <time>2024-04-07T09:13:15Z</time>
      </trkpt>
      <trkpt lat="44.79424" lon="0.79298">
        <ele>106.4</ele>
        <time>2024-04-07T09:13:16Z</time>
      </trkpt>
      <trkpt lat="44.7942" lon="0.793">
        <ele>106.5</ele>
        <time>2024-04-07T09:13:17Z</time>
      </trkpt>
      <trkpt lat="44.79414" lon="0.79306">
        <ele>106.9</ele>
        <time>2024-04-07T09:13:19Z</time>
      </trkpt>
      <trkpt lat="44.7941" lon="0.79311">
        <ele>107.2</ele>
        <time>2024-04-07T09:13:21Z</time>
      </trkpt>
      <trkpt lat="44.79405" lon="0.79316">
        <ele>107.8</ele>
        <time>2024-04-07T09:13:23Z</time>
      </trkpt>
      <trkpt lat="44.79404" lon="0.79319">
        <ele>108</ele>
        <time>2024-04-07T09:13:24Z</time>
      </trkpt>
      <trkpt lat="44.79402" lon="0.79321">
        <ele>108.3</ele>
        <time>2024-04-07T09:13:25Z</time>
      </trkpt>
      <trkpt lat="44.794" lon="0.79324">
        <ele>108.6</ele>
        <time>2024-04-07T09:13:26Z</time>
      </trkpt>
      <trkpt lat="44.79399" lon="0.79326">
        <ele>109</ele>
        <time>2024-04-07T09:13:27Z</time>
      </trkpt>
      <trkpt lat="44.79396" lon="0.79331">
        <ele>109.6</ele>
        <time>2024-04-07T09:13:29Z</time>
      </trkpt>
      <trkpt lat="44.79395" lon="0.79332">
        <ele>109.8</ele>
        <time>2024-04-07T09:13:30Z</time>
      </trkpt>
      <trkpt lat="44.79394" lon="0.79334">
        <ele>110</ele>
        <time>2024-04-07T09:13:31Z</time>
      </trkpt>
      <trkpt lat="44.79393" lon="0.79339">
        <ele>110.6</ele>
        <time>2024-04-07T09:13:33Z</time>
      </trkpt>
      <trkpt lat="44.79392" lon="0.79344">
        <ele>111.1</ele>
        <time>2024-04-07T09:13:35Z</time>
      </trkpt>
      <trkpt lat="44.79391" lon="0.79346">
        <ele>111.4</ele>
        <time>2024-04-07T09:13:36Z</time>
      </trkpt>
      <trkpt lat="44.7939" lon="0.79348">
        <ele>111.6</ele>
        <time>2024-04-07T09:13:37Z</time>
      </trkpt>
      <trkpt lat="44.79389" lon="0.79353">
        <ele>112.1</ele>
        <time>2024-04-07T09:13:39Z</time>
      </trkpt>
      <trkpt lat="44.79387" lon="0.79357">
        <ele>112.6</ele>
        <time>2024-04-07T09:13:41Z</time>
      </trkpt>
      <trkpt lat="44.79385" lon="0.79363">
        <ele>113.2</ele>
        <time>2024-04-07T09:13:43Z</time>
      </trkpt>
      <trkpt lat="44.79383" lon="0.79365">
        <ele>113.5</ele>
        <time>2024-04-07T09:13:44Z</time>
      </trkpt>
      <trkpt lat="44.79382" lon="0.79368">
        <ele>113.8</ele>
        <time>2024-04-07T09:13:45Z</time>
      </trkpt>
      <trkpt lat="44.7938" lon="0.79373">
        <ele>114.2</ele>
        <time>2024-04-07T09:13:47Z</time>
      </trkpt>
      <trkpt lat="44.79379" lon="0.79375">
        <ele>114.5</ele>
        <time>2024-04-07T09:13:48Z</time>
      </trkpt>
      <trkpt lat="44.79377" lon="0.79377">
        <ele>114.7</ele>
        <time>2024-04-07T09:13:49Z</time>
      </trkpt>
      <trkpt lat="44.79375" lon="0.79382">
        <ele>115.1</ele>
        <time>2024-04-07T09:13:51Z</time>
      </trkpt>
      <trkpt lat="44.79372" lon="0.79387">
        <ele>115.5</ele>
        <time>2024-04-07T09:13:53Z</time>
      </trkpt>
      <trkpt lat="44.7937" lon="0.79392">
        <ele>115.8</ele>
        <time>2024-04-07T09:13:55Z</time>
      </trkpt>
      <trkpt lat="44.79369" lon="0.79394">
        <ele>116</ele>
        <time>2024-04-07T09:13:56Z</time>
      </trkpt>
      <trkpt lat="44.79368" lon="0.79397">
        <ele>116.1</ele>
        <time>2024-04-07T09:13:57Z</time>
      </trkpt>
      <trkpt lat="44.79367" lon="0.79402">
        <ele>116.5</ele>
        <time>2024-04-07T09:13:59Z</time>
      </trkpt>
      <trkpt lat="44.79364" lon="0.79408">
        <ele>116.8</ele>
        <time>2024-04-07T09:14:01Z</time>
      </trkpt>
      <trkpt lat="44.79362" lon="0.79413">
        <ele>117.2</ele>
        <time>2024-04-07T09:14:03Z</time>
      </trkpt>
      <trkpt lat="44.79361" lon="0.79415">
        <ele>117.3</ele>
        <time>2024-04-07T09:14:04Z</time>
      </trkpt>
      <trkpt lat="44.7936" lon="0.79417">
        <ele>117.5</ele>
        <time>2024-04-07T09:14:05Z</time>
      </trkpt>
      <trkpt lat="44.79358" lon="0.79423">
        <ele>117.8</ele>
        <time>2024-04-07T09:14:07Z</time>
      </trkpt>
      <trkpt lat="44.79356" lon="0.79427">
        <ele>118.1</ele>
        <time>2024-04-07T09:14:09Z</time>
      </trkpt>
      <trkpt lat="44.79354" lon="0.79433">
        <ele>118.5</ele>
        <time>2024-04-07T09:14:11Z</time>
      </trkpt>
      <trkpt lat="44.79352" lon="0.79438">
        <ele>118.8</ele>
        <time>2024-04-07T09:14:13Z</time>
      </trkpt>
      <trkpt lat="44.7935" lon="0.79444">
        <ele>119.1</ele>
        <time>2024-04-07T09:14:15Z</time>
      </trkpt>
      <trkpt lat="44.79348" lon="0.7945">
        <ele>119.5</ele>
        <time>2024-04-07T09:14:17Z</time>
      </trkpt>
      <trkpt lat="44.79346" lon="0.79456">
        <ele>119.8</ele>
        <time>2024-04-07T09:14:19Z</time>
      </trkpt>
      <trkpt lat="44.79345" lon="0.79462">
        <ele>120.1</ele>
        <time>2024-04-07T09:14:21Z</time>
      </trkpt>
      <trkpt lat="44.79343" lon="0.79467">
        <ele>120.4</ele>
        <time>2024-04-07T09:14:23Z</time>
      </trkpt>
      <trkpt lat="44.79341" lon="0.79473">
        <ele>120.7</ele>
        <time>2024-04-07T09:14:25Z</time>
      </trkpt>
      <trkpt lat="44.79339" lon="0.7948">
        <ele>120.9</ele>
        <time>2024-04-07T09:14:27Z</time>
      </trkpt>
      <trkpt lat="44.79337" lon="0.79486">
        <ele>121.1</ele>
        <time>2024-04-07T09:14:29Z</time>
      </trkpt>
      <trkpt lat="44.79335" lon="0.79492">
        <ele>121.2</ele>
        <time>2024-04-07T09:14:31Z</time>
      </trkpt>
      <trkpt lat="44.79334" lon="0.79495">
        <ele>121.2</ele>
        <time>2024-04-07T09:14:32Z</time>
      </trkpt>
      <trkpt lat="44.79333" lon="0.79498">
        <ele>121.2</ele>
        <time>2024-04-07T09:14:33Z</time>
      </trkpt>
      <trkpt lat="44.79332" lon="0.79505">
        <ele>121.2</ele>
        <time>2024-04-07T09:14:35Z</time>
      </trkpt>
      <trkpt lat="44.79331" lon="0.79513">
        <ele>121.1</ele>
        <time>2024-04-07T09:14:37Z</time>
      </trkpt>
      <trkpt lat="44.7933" lon="0.79522">
        <ele>121</ele>
        <time>2024-04-07T09:14:39Z</time>
      </trkpt>
      <trkpt lat="44.79327" lon="0.79533">
        <ele>120.8</ele>
        <time>2024-04-07T09:14:41Z</time>
      </trkpt>
      <trkpt lat="44.79323" lon="0.79544">
        <ele>120.8</ele>
        <time>2024-04-07T09:14:43Z</time>
      </trkpt>
      <trkpt lat="44.79319" lon="0.79555">
        <ele>120.8</ele>
        <time>2024-04-07T09:14:45Z</time>
      </trkpt>
      <trkpt lat="44.79313" lon="0.79564">
        <ele>120.8</ele>
        <time>2024-04-07T09:14:47Z</time>
      </trkpt>
      <trkpt lat="44.79309" lon="0.79574">
        <ele>120.7</ele>
        <time>2024-04-07T09:14:49Z</time>
      </trkpt>
      <trkpt lat="44.79304" lon="0.79584">
        <ele>120.5</ele>
        <time>2024-04-07T09:14:51Z</time>
      </trkpt>
      <trkpt lat="44.79299" lon="0.79594">
        <ele>120.1</ele>
        <time>2024-04-07T09:14:53Z</time>
      </trkpt>
      <trkpt lat="44.79297" lon="0.79598">
        <ele>119.9</ele>
        <time>2024-04-07T09:14:54Z</time>
      </trkpt>
      <trkpt lat="44.79294" lon="0.79603">
        <ele>119.6</ele>
        <time>2024-04-07T09:14:55Z</time>
      </trkpt>
      <trkpt lat="44.79287" lon="0.79614">
        <ele>118.9</ele>
        <time>2024-04-07T09:14:57Z</time>
      </trkpt>
      <trkpt lat="44.79283" lon="0.79619">
        <ele>118.6</ele>
        <time>2024-04-07T09:14:58Z</time>
      </trkpt>
      <trkpt lat="44.79278" lon="0.79625">
        <ele>118.3</ele>
        <time>2024-04-07T09:14:59Z</time>
      </trkpt>
      <trkpt lat="44.79269" lon="0.79638">
        <ele>117.9</ele>
        <time>2024-04-07T09:15:01Z</time>
      </trkpt>
      <trkpt lat="44.79259" lon="0.79649">
        <ele>117.8</ele>
        <time>2024-04-07T09:15:03Z</time>
      </trkpt>
      <trkpt lat="44.79251" lon="0.7966">
        <ele>117.9</ele>
        <time>2024-04-07T09:15:05Z</time>
      </trkpt>
      <trkpt lat="44.79245" lon="0.79671">
        <ele>118</ele>
        <time>2024-04-07T09:15:07Z</time>
      </trkpt>
      <trkpt lat="44.79243" lon="0.79677">
        <ele>118.1</ele>
        <time>2024-04-07T09:15:08Z</time>
      </trkpt>
      <trkpt lat="44.7924" lon="0.79683">
        <ele>118.2</ele>
        <time>2024-04-07T09:15:09Z</time>
      </trkpt>
      <trkpt lat="44.79237" lon="0.79694">
        <ele>118.2</ele>
        <time>2024-04-07T09:15:11Z</time>
      </trkpt>
      <trkpt lat="44.79236" lon="0.79699">
        <ele>118.2</ele>
        <time>2024-04-07T09:15:12Z</time>
      </trkpt>
      <trkpt lat="44.79234" lon="0.79704">
        <ele>118.1</ele>
        <time>2024-04-07T09:15:13Z</time>
      </trkpt>
      <trkpt lat="44.79234" lon="0.7971">
        <ele>118</ele>
        <time>2024-04-07T09:15:14Z</time>
      </trkpt>
      <trkpt lat="44.79234" lon="0.79716">
        <ele>117.8</ele>
        <time>2024-04-07T09:15:15Z</time>
      </trkpt>
      <trkpt lat="44.79234" lon="0.79722">
        <ele>117.6</ele>
        <time>2024-04-07T09:15:16Z</time>
      </trkpt>
      <trkpt lat="44.79235" lon="0.79729">
        <ele>117.3</ele>
        <time>2024-04-07T09:15:17Z</time>
      </trkpt>
      <trkpt lat="44.79237" lon="0.79743">
        <ele>116.8</ele>
        <time>2024-04-07T09:15:19Z</time>
      </trkpt>
      <trkpt lat="44.79238" lon="0.79756">
        <ele>116.2</ele>
        <time>2024-04-07T09:15:21Z</time>
      </trkpt>
      <trkpt lat="44.79239" lon="0.79773">
        <ele>115.4</ele>
        <time>2024-04-07T09:15:23Z</time>
      </trkpt>
      <trkpt lat="44.79239" lon="0.7978">
        <ele>115.1</ele>
        <time>2024-04-07T09:15:24Z</time>
      </trkpt>
      <trkpt lat="44.79238" lon="0.79786">
        <ele>114.9</ele>
        <time>2024-04-07T09:15:25Z</time>
      </trkpt>
      <trkpt lat="44.79236" lon="0.79795">
        <ele>114.7</ele>
        <time>2024-04-07T09:15:27Z</time>
      </trkpt>
      <trkpt lat="44.79237" lon="0.79797">
        <ele>114.6</ele>
        <time>2024-04-07T09:15:28Z</time>
      </trkpt>
      <trkpt lat="44.79237" lon="0.79803">
        <ele>114.6</ele>
        <time>2024-04-07T09:15:29Z</time>
      </trkpt>
      <trkpt lat="44.79237" lon="0.79809">
        <ele>114.5</ele>
        <time>2024-04-07T09:15:30Z</time>
      </trkpt>
      <trkpt lat="44.79237" lon="0.79816">
        <ele>114.5</ele>
        <time>2024-04-07T09:15:31Z</time>
      </trkpt>
      <trkpt lat="44.79235" lon="0.79823">
        <ele>114.5</ele>
        <time>2024-04-07T09:15:32Z</time>
      </trkpt>
      <trkpt lat="44.79233" lon="0.7983">
        <ele>114.5</ele>
        <time>2024-04-07T09:15:33Z</time>
      </trkpt>
      <trkpt lat="44.79231" lon="0.79837">
        <ele>114.5</ele>
        <time>2024-04-07T09:15:34Z</time>
      </trkpt>
      <trkpt lat="44.7923" lon="0.79842">
        <ele>114.6</ele>
        <time>2024-04-07T09:15:35Z</time>
      </trkpt>
      <trkpt lat="44.79228" lon="0.79853">
        <ele>114.8</ele>
        <time>2024-04-07T09:15:37Z</time>
      </trkpt>
      <trkpt lat="44.79225" lon="0.79865">
        <ele>115.1</ele>
        <time>2024-04-07T09:15:39Z</time>
      </trkpt>
      <trkpt lat="44.79222" lon="0.79876">
        <ele>115.5</ele>
        <time>2024-04-07T09:15:41Z</time>
      </trkpt>
      <trkpt lat="44.79218" lon="0.79884">
        <ele>115.9</ele>
        <time>2024-04-07T09:15:43Z</time>
      </trkpt>
      <trkpt lat="44.79217" lon="0.79889">
        <ele>116.1</ele>
        <time>2024-04-07T09:15:44Z</time>
      </trkpt>
      <trkpt lat="44.79216" lon="0.79894">
        <ele>116.4</ele>
        <time>2024-04-07T09:15:45Z</time>
      </trkpt>
      <trkpt lat="44.79213" lon="0.79902">
        <ele>116.8</ele>
        <time>2024-04-07T09:15:47Z</time>
      </trkpt>
      <trkpt lat="44.79213" lon="0.79904">
        <ele>117</ele>
        <time>2024-04-07T09:15:48Z</time>
      </trkpt>
      <trkpt lat="44.79211" lon="0.79909">
        <ele>117.3</ele>
        <time>2024-04-07T09:15:49Z</time>
      </trkpt>
      <trkpt lat="44.7921" lon="0.79913">
        <ele>117.5</ele>
        <time>2024-04-07T09:15:50Z</time>
      </trkpt>
      <trkpt lat="44.79209" lon="0.79917">
        <ele>117.8</ele>
        <time>2024-04-07T09:15:51Z</time>
      </trkpt>
      <trkpt lat="44.79207" lon="0.79925">
        <ele>118.3</ele>
        <time>2024-04-07T09:15:53Z</time>
      </trkpt>
      <trkpt lat="44.79207" lon="0.79929">
        <ele>118.5</ele>
        <time>2024-04-07T09:15:54Z</time>
      </trkpt>
      <trkpt lat="44.79207" lon="0.79933">
        <ele>118.8</ele>
        <time>2024-04-07T09:15:55Z</time>
      </trkpt>
      <trkpt lat="44.79206" lon="0.7994">
        <ele>119.2</ele>
        <time>2024-04-07T09:15:57Z</time>
      </trkpt>
      <trkpt lat="44.79206" lon="0.79948">
        <ele>119.6</ele>
        <time>2024-04-07T09:15:59Z</time>
      </trkpt>
      <trkpt lat="44.79205" lon="0.79956">
        <ele>120</ele>
        <time>2024-04-07T09:16:01Z</time>
      </trkpt>
      <trkpt lat="44.79204" lon="0.79964">
        <ele>120.3</ele>
        <time>2024-04-07T09:16:03Z</time>
      </trkpt>
      <trkpt lat="44.79203" lon="0.79972">
        <ele>120.7</ele>
        <time>2024-04-07T09:16:05Z</time>
      </trkpt>
      <trkpt lat="44.79203" lon="0.79978">
        <ele>120.9</ele>
        <time>2024-04-07T09:16:07Z</time>
      </trkpt>
      <trkpt lat="44.79202" lon="0.79986">
        <ele>121.2</ele>
        <time>2024-04-07T09:16:09Z</time>
      </trkpt>
      <trkpt lat="44.79201" lon="0.79993">
        <ele>121.5</ele>
        <time>2024-04-07T09:16:11Z</time>
      </trkpt>
      <trkpt lat="44.79201" lon="0.79997">
        <ele>121.5</ele>
        <time>2024-04-07T09:16:12Z</time>
      </trkpt>
      <trkpt lat="44.792" lon="0.8">
        <ele>121.6</ele>
        <time>2024-04-07T09:16:13Z</time>
      </trkpt>
      <trkpt lat="44.792" lon="0.80003">
        <ele>121.6</ele>
        <time>2024-04-07T09:16:14Z</time>
      </trkpt>
      <trkpt lat="44.79201" lon="0.80008">
        <ele>121.7</ele>
        <time>2024-04-07T09:16:15Z</time>
      </trkpt>
      <trkpt lat="44.79201" lon="0.80012">
        <ele>121.7</ele>
        <time>2024-04-07T09:16:16Z</time>
      </trkpt>
      <trkpt lat="44.79201" lon="0.80016">
        <ele>121.4</ele>
        <time>2024-04-07T09:16:17Z</time>
      </trkpt>
      <trkpt lat="44.79202" lon="0.80028">
        <ele>120.7</ele>
        <time>2024-04-07T09:16:19Z</time>
      </trkpt>
      <trkpt lat="44.79203" lon="0.80034">
        <ele>120.2</ele>
        <time>2024-04-07T09:16:20Z</time>
      </trkpt>
      <trkpt lat="44.79204" lon="0.80041">
        <ele>119.6</ele>
        <time>2024-04-07T09:16:21Z</time>
      </trkpt>
      <trkpt lat="44.79206" lon="0.80056">
        <ele>118.1</ele>
        <time>2024-04-07T09:16:23Z</time>
      </trkpt>
      <trkpt lat="44.79208" lon="0.80066">
        <ele>117.3</ele>
        <time>2024-04-07T09:16:24Z</time>
      </trkpt>
      <trkpt lat="44.79212" lon="0.80077">
        <ele>116.4</ele>
        <time>2024-04-07T09:16:25Z</time>
      </trkpt>
      <trkpt lat="44.79214" lon="0.80089">
        <ele>115.7</ele>
        <time>2024-04-07T09:16:26Z</time>
      </trkpt>
      <trkpt lat="44.79215" lon="0.80102">
        <ele>115</ele>
        <time>2024-04-07T09:16:27Z</time>
      </trkpt>
      <trkpt lat="44.79216" lon="0.80114">
        <ele>114.4</ele>
        <time>2024-04-07T09:16:28Z</time>
      </trkpt>
      <trkpt lat="44.79217" lon="0.80126">
        <ele>113.6</ele>
        <time>2024-04-07T09:16:29Z</time>
      </trkpt>
      <trkpt lat="44.79218" lon="0.80138">
        <ele>112.8</ele>
        <time>2024-04-07T09:16:30Z</time>
      </trkpt>
      <trkpt lat="44.79219" lon="0.8015">
        <ele>111.9</ele>
        <time>2024-04-07T09:16:31Z</time>
      </trkpt>
      <trkpt lat="44.79219" lon="0.80172">
        <ele>110.5</ele>
        <time>2024-04-07T09:16:33Z</time>
      </trkpt>
      <trkpt lat="44.79215" lon="0.80191">
        <ele>110</ele>
        <time>2024-04-07T09:16:35Z</time>
      </trkpt>
      <trkpt lat="44.79212" lon="0.80199">
        <ele>109.9</ele>
        <time>2024-04-07T09:16:36Z</time>
      </trkpt>
      <trkpt lat="44.79209" lon="0.80206">
        <ele>109.9</ele>
        <time>2024-04-07T09:16:37Z</time>
      </trkpt>
      <trkpt lat="44.79204" lon="0.80217">
        <ele>109.9</ele>
        <time>2024-04-07T09:16:39Z</time>
      </trkpt>
      <trkpt lat="44.79202" lon="0.80221">
        <ele>110</ele>
        <time>2024-04-07T09:16:40Z</time>
      </trkpt>
      <trkpt lat="44.792" lon="0.80225">
        <ele>110</ele>
        <time>2024-04-07T09:16:41Z</time>
      </trkpt>
      <trkpt lat="44.79197" lon="0.80233">
        <ele>110.2</ele>
        <time>2024-04-07T09:16:43Z</time>
      </trkpt>
      <trkpt lat="44.79196" lon="0.80236">
        <ele>110.3</ele>
        <time>2024-04-07T09:16:44Z</time>
      </trkpt>
      <trkpt lat="44.79195" lon="0.80239">
        <ele>110.3</ele>
        <time>2024-04-07T09:16:45Z</time>
      </trkpt>
      <trkpt lat="44.79192" lon="0.80246">
        <ele>110.5</ele>
        <time>2024-04-07T09:16:47Z</time>
      </trkpt>
      <trkpt lat="44.79191" lon="0.8025">
        <ele>110.6</ele>
        <time>2024-04-07T09:16:48Z</time>
      </trkpt>
      <trkpt lat="44.7919" lon="0.80253">
        <ele>110.7</ele>
        <time>2024-04-07T09:16:49Z</time>
      </trkpt>
      <trkpt lat="44.79187" lon="0.8026">
        <ele>111</ele>
        <time>2024-04-07T09:16:51Z</time>
      </trkpt>
      <trkpt lat="44.79186" lon="0.80263">
        <ele>111.1</ele>
        <time>2024-04-07T09:16:52Z</time>
      </trkpt>
      <trkpt lat="44.79183" lon="0.80267">
        <ele>111.3</ele>
        <time>2024-04-07T09:16:53Z</time>
      </trkpt>
      <trkpt lat="44.7918" lon="0.80273">
        <ele>111.6</ele>
        <time>2024-04-07T09:16:55Z</time>
      </trkpt>
      <trkpt lat="44.79179" lon="0.80276">
        <ele>111.8</ele>
        <time>2024-04-07T09:16:56Z</time>
      </trkpt>
      <trkpt lat="44.79178" lon="0.80279">
        <ele>112</ele>
        <time>2024-04-07T09:16:57Z</time>
      </trkpt>
      <trkpt lat="44.79175" lon="0.80285">
        <ele>112.4</ele>
        <time>2024-04-07T09:16:59Z</time>
      </trkpt>
      <trkpt lat="44.79173" lon="0.80291">
        <ele>112.7</ele>
        <time>2024-04-07T09:17:01Z</time>
      </trkpt>
      <trkpt lat="44.7917" lon="0.80296">
        <ele>113.1</ele>
        <time>2024-04-07T09:17:03Z</time>
      </trkpt>
      <trkpt lat="44.79168" lon="0.80302">
        <ele>113.4</ele>
        <time>2024-04-07T09:17:05Z</time>
      </trkpt>
      <trkpt lat="44.79166" lon="0.80307">
        <ele>113.7</ele>
        <time>2024-04-07T09:17:07Z</time>
      </trkpt>
      <trkpt lat="44.79164" lon="0.80312">
        <ele>113.9</ele>
        <time>2024-04-07T09:17:09Z</time>
      </trkpt>
      <trkpt lat="44.79163" lon="0.80316">
        <ele>114.2</ele>
        <time>2024-04-07T09:17:11Z</time>
      </trkpt>
      <trkpt lat="44.79162" lon="0.80319">
        <ele>114.3</ele>
        <time>2024-04-07T09:17:12Z</time>
      </trkpt>
      <trkpt lat="44.79161" lon="0.80322">
        <ele>114.4</ele>
        <time>2024-04-07T09:17:13Z</time>
      </trkpt>
      <trkpt lat="44.79161" lon="0.80324">
        <ele>114.5</ele>
        <time>2024-04-07T09:17:14Z</time>
      </trkpt>
      <trkpt lat="44.79159" lon="0.80326">
        <ele>114.6</ele>
        <time>2024-04-07T09:17:15Z</time>
      </trkpt>
      <trkpt lat="44.79157" lon="0.80332">
        <ele>114.7</ele>
        <time>2024-04-07T09:17:17Z</time>
      </trkpt>
      <trkpt lat="44.79156" lon="0.80338">
        <ele>114.9</ele>
        <time>2024-04-07T09:17:19Z</time>
      </trkpt>
      <trkpt lat="44.79153" lon="0.80345">
        <ele>115.1</ele>
        <time>2024-04-07T09:17:21Z</time>
      </trkpt>
      <trkpt lat="44.79151" lon="0.80349">
        <ele>115.1</ele>
        <time>2024-04-07T09:17:22Z</time>
      </trkpt>
      <trkpt lat="44.79149" lon="0.80351">
        <ele>115.2</ele>
        <time>2024-04-07T09:17:23Z</time>
      </trkpt>
      <trkpt lat="44.79149" lon="0.80355">
        <ele>115.3</ele>
        <time>2024-04-07T09:17:24Z</time>
      </trkpt>
      <trkpt lat="44.79148" lon="0.80357">
        <ele>115.4</ele>
        <time>2024-04-07T09:17:25Z</time>
      </trkpt>
      <trkpt lat="44.79147" lon="0.80361">
        <ele>115.5</ele>
        <time>2024-04-07T09:17:26Z</time>
      </trkpt>
      <trkpt lat="44.79147" lon="0.80364">
        <ele>115.6</ele>
        <time>2024-04-07T09:17:27Z</time>
      </trkpt>
      <trkpt lat="44.79145" lon="0.8037">
        <ele>115.9</ele>
        <time>2024-04-07T09:17:29Z</time>
      </trkpt>
      <trkpt lat="44.79143" lon="0.80376">
        <ele>116.1</ele>
        <time>2024-04-07T09:17:31Z</time>
      </trkpt>
      <trkpt lat="44.7914" lon="0.80381">
        <ele>116.4</ele>
        <time>2024-04-07T09:17:33Z</time>
      </trkpt>
      <trkpt lat="44.79138" lon="0.80386">
        <ele>116.6</ele>
        <time>2024-04-07T09:17:35Z</time>
      </trkpt>
      <trkpt lat="44.79135" lon="0.80394">
        <ele>116.8</ele>
        <time>2024-04-07T09:17:37Z</time>
      </trkpt>
      <trkpt lat="44.79133" lon="0.80396">
        <ele>116.9</ele>
        <time>2024-04-07T09:17:39Z</time>
      </trkpt>
      <trkpt lat="44.7913" lon="0.80401">
        <ele>117</ele>
        <time>2024-04-07T09:17:41Z</time>
      </trkpt>
      <trkpt lat="44.79129" lon="0.80406">
        <ele>117.2</ele>
        <time>2024-04-07T09:17:43Z</time>
      </trkpt>
      <trkpt lat="44.79127" lon="0.80409">
        <ele>117.3</ele>
        <time>2024-04-07T09:17:45Z</time>
      </trkpt>
      <trkpt lat="44.79123" lon="0.80415">
        <ele>117.4</ele>
        <time>2024-04-07T09:17:47Z</time>
      </trkpt>
      <trkpt lat="44.79122" lon="0.80417">
        <ele>117.4</ele>
        <time>2024-04-07T09:17:48Z</time>
      </trkpt>
      <trkpt lat="44.79121" lon="0.80419">
        <ele>117.5</ele>
        <time>2024-04-07T09:17:49Z</time>
      </trkpt>
      <trkpt lat="44.79119" lon="0.80423">
        <ele>117.6</ele>
        <time>2024-04-07T09:17:51Z</time>
      </trkpt>
      <trkpt lat="44.79118" lon="0.80425">
        <ele>117.6</ele>
        <time>2024-04-07T09:17:52Z</time>
      </trkpt>
      <trkpt lat="44.79117" lon="0.80427">
        <ele>117.7</ele>
        <time>2024-04-07T09:17:53Z</time>
      </trkpt>
      <trkpt lat="44.79116" lon="0.80428">
        <ele>117.7</ele>
        <time>2024-04-07T09:17:55Z</time>
      </trkpt>
      <trkpt lat="44.79111" lon="0.80438">
        <ele>117.9</ele>
        <time>2024-04-07T09:17:59Z</time>
      </trkpt>
      <trkpt lat="44.79108" lon="0.80443">
        <ele>117.9</ele>
        <time>2024-04-07T09:18:01Z</time>
      </trkpt>
      <trkpt lat="44.79107" lon="0.80448">
        <ele>117.9</ele>
        <time>2024-04-07T09:18:03Z</time>
      </trkpt>
      <trkpt lat="44.79106" lon="0.80451">
        <ele>117.9</ele>
        <time>2024-04-07T09:18:04Z</time>
      </trkpt>
      <trkpt lat="44.79104" lon="0.80453">
        <ele>117.9</ele>
        <time>2024-04-07T09:18:05Z</time>
      </trkpt>
      <trkpt lat="44.79102" lon="0.80461">
        <ele>117.9</ele>
        <time>2024-04-07T09:18:07Z</time>
      </trkpt>
      <trkpt lat="44.79101" lon="0.80467">
        <ele>118</ele>
        <time>2024-04-07T09:18:09Z</time>
      </trkpt>
      <trkpt lat="44.791" lon="0.8047">
        <ele>118</ele>
        <time>2024-04-07T09:18:10Z</time>
      </trkpt>
      <trkpt lat="44.79099" lon="0.80472">
        <ele>118.1</ele>
        <time>2024-04-07T09:18:11Z</time>
      </trkpt>
      <trkpt lat="44.79098" lon="0.80475">
        <ele>118.2</ele>
        <time>2024-04-07T09:18:12Z</time>
      </trkpt>
      <trkpt lat="44.79098" lon="0.80479">
        <ele>118.3</ele>
        <time>2024-04-07T09:18:13Z</time>
      </trkpt>
      <trkpt lat="44.79096" lon="0.80483">
        <ele>118.4</ele>
        <time>2024-04-07T09:18:14Z</time>
      </trkpt>
      <trkpt lat="44.79095" lon="0.80485">
        <ele>118.4</ele>
        <time>2024-04-07T09:18:15Z</time>
      </trkpt>
      <trkpt lat="44.79092" lon="0.80489">
        <ele>118.6</ele>
        <time>2024-04-07T09:18:17Z</time>
      </trkpt>
      <trkpt lat="44.7909" lon="0.80491">
        <ele>118.6</ele>
        <time>2024-04-07T09:18:18Z</time>
      </trkpt>
      <trkpt lat="44.7909" lon="0.80492">
        <ele>118.6</ele>
        <time>2024-04-07T09:18:19Z</time>
      </trkpt>
      <trkpt lat="44.79087" lon="0.80497">
        <ele>118.7</ele>
        <time>2024-04-07T09:18:21Z</time>
      </trkpt>
      <trkpt lat="44.79085" lon="0.80502">
        <ele>118.8</ele>
        <time>2024-04-07T09:18:23Z</time>
      </trkpt>
      <trkpt lat="44.79082" lon="0.80508">
        <ele>118.9</ele>
        <time>2024-04-07T09:18:25Z</time>
      </trkpt>
      <trkpt lat="44.79079" lon="0.80513">
        <ele>118.9</ele>
        <time>2024-04-07T09:18:27Z</time>
      </trkpt>
      <trkpt lat="44.79076" lon="0.80517">
        <ele>119</ele>
        <time>2024-04-07T09:18:29Z</time>
      </trkpt>
      <trkpt lat="44.79073" lon="0.8052">
        <ele>119.1</ele>
        <time>2024-04-07T09:18:30Z</time>
      </trkpt>
      <trkpt lat="44.79072" lon="0.80523">
        <ele>119.1</ele>
        <time>2024-04-07T09:18:31Z</time>
      </trkpt>
      <trkpt lat="44.79072" lon="0.80524">
        <ele>119.1</ele>
        <time>2024-04-07T09:18:33Z</time>
      </trkpt>
      <trkpt lat="44.79069" lon="0.8053">
        <ele>119.2</ele>
        <time>2024-04-07T09:18:35Z</time>
      </trkpt>
      <trkpt lat="44.79065" lon="0.80536">
        <ele>119.3</ele>
        <time>2024-04-07T09:18:37Z</time>
      </trkpt>
      <trkpt lat="44.79061" lon="0.80541">
        <ele>119.3</ele>
        <time>2024-04-07T09:18:39Z</time>
      </trkpt>
      <trkpt lat="44.79055" lon="0.80549">
        <ele>119.4</ele>
        <time>2024-04-07T09:18:41Z</time>
      </trkpt>
      <trkpt lat="44.79051" lon="0.80554">
        <ele>119.5</ele>
        <time>2024-04-07T09:18:43Z</time>
      </trkpt>
      <trkpt lat="44.79047" lon="0.80559">
        <ele>119.6</ele>
        <time>2024-04-07T09:18:45Z</time>
      </trkpt>
      <trkpt lat="44.79044" lon="0.80562">
        <ele>119.6</ele>
        <time>2024-04-07T09:18:46Z</time>
      </trkpt>
      <trkpt lat="44.79042" lon="0.80564">
        <ele>119.7</ele>
        <time>2024-04-07T09:18:47Z</time>
      </trkpt>
      <trkpt lat="44.79037" lon="0.8057">
        <ele>119.8</ele>
        <time>2024-04-07T09:18:49Z</time>
      </trkpt>
      <trkpt lat="44.79034" lon="0.80573">
        <ele>119.8</ele>
        <time>2024-04-07T09:18:50Z</time>
      </trkpt>
      <trkpt lat="44.79031" lon="0.80575">
        <ele>119.9</ele>
        <time>2024-04-07T09:18:51Z</time>
      </trkpt>
      <trkpt lat="44.79025" lon="0.8058">
        <ele>120.1</ele>
        <time>2024-04-07T09:18:53Z</time>
      </trkpt>
      <trkpt lat="44.7902" lon="0.80584">
        <ele>120.3</ele>
        <time>2024-04-07T09:18:55Z</time>
      </trkpt>
      <trkpt lat="44.79014" lon="0.80589">
        <ele>120.6</ele>
        <time>2024-04-07T09:18:57Z</time>
      </trkpt>
      <trkpt lat="44.79007" lon="0.80595">
        <ele>121</ele>
        <time>2024-04-07T09:18:59Z</time>
      </trkpt>
      <trkpt lat="44.79" lon="0.806">
        <ele>121.3</ele>
        <time>2024-04-07T09:19:01Z</time>
      </trkpt>
      <trkpt lat="44.78994" lon="0.80604">
        <ele>121.5</ele>
        <time>2024-04-07T09:19:03Z</time>
      </trkpt>
      <trkpt lat="44.78987" lon="0.80609">
        <ele>121.6</ele>
        <time>2024-04-07T09:19:05Z</time>
      </trkpt>
      <trkpt lat="44.78981" lon="0.80613">
        <ele>121.8</ele>
        <time>2024-04-07T09:19:07Z</time>
      </trkpt>
      <trkpt lat="44.78976" lon="0.80616">
        <ele>121.9</ele>
        <time>2024-04-07T09:19:09Z</time>
      </trkpt>
      <trkpt lat="44.78971" lon="0.80619">
        <ele>122.1</ele>
        <time>2024-04-07T09:19:11Z</time>
      </trkpt>
      <trkpt lat="44.78966" lon="0.80622">
        <ele>122.2</ele>
        <time>2024-04-07T09:19:13Z</time>
      </trkpt>
      <trkpt lat="44.78963" lon="0.80624">
        <ele>122.2</ele>
        <time>2024-04-07T09:19:14Z</time>
      </trkpt>
      <trkpt lat="44.7896" lon="0.80625">
        <ele>122.2</ele>
        <time>2024-04-07T09:19:15Z</time>
      </trkpt>
      <trkpt lat="44.78955" lon="0.80628">
        <ele>122.3</ele>
        <time>2024-04-07T09:19:17Z</time>
      </trkpt>
      <trkpt lat="44.78949" lon="0.80631">
        <ele>122.3</ele>
        <time>2024-04-07T09:19:19Z</time>
      </trkpt>
      <trkpt lat="44.78944" lon="0.80635">
        <ele>122.4</ele>
        <time>2024-04-07T09:19:21Z</time>
      </trkpt>
      <trkpt lat="44.78938" lon="0.80637">
        <ele>122.4</ele>
        <time>2024-04-07T09:19:23Z</time>
      </trkpt>
      <trkpt lat="44.78932" lon="0.8064">
        <ele>122.5</ele>
        <time>2024-04-07T09:19:25Z</time>
      </trkpt>
      <trkpt lat="44.78927" lon="0.80643">
        <ele>122.5</ele>
        <time>2024-04-07T09:19:27Z</time>
      </trkpt>
      <trkpt lat="44.78921" lon="0.80645">
        <ele>122.6</ele>
        <time>2024-04-07T09:19:29Z</time>
      </trkpt>
      <trkpt lat="44.78916" lon="0.80648">
        <ele>122.6</ele>
        <time>2024-04-07T09:19:31Z</time>
      </trkpt>
      <trkpt lat="44.7891" lon="0.80651">
        <ele>122.7</ele>
        <time>2024-04-07T09:19:33Z</time>
      </trkpt>
      <trkpt lat="44.78904" lon="0.80653">
        <ele>122.7</ele>
        <time>2024-04-07T09:19:35Z</time>
      </trkpt>
      <trkpt lat="44.78899" lon="0.80656">
        <ele>122.7</ele>
        <time>2024-04-07T09:19:37Z</time>
      </trkpt>
      <trkpt lat="44.78894" lon="0.8066">
        <ele>122.8</ele>
        <time>2024-04-07T09:19:39Z</time>
      </trkpt>
      <trkpt lat="44.78889" lon="0.80663">
        <ele>122.9</ele>
        <time>2024-04-07T09:19:41Z</time>
      </trkpt>
      <trkpt lat="44.78883" lon="0.80667">
        <ele>123</ele>
        <time>2024-04-07T09:19:43Z</time>
      </trkpt>
      <trkpt lat="44.78881" lon="0.80669">
        <ele>123</ele>
        <time>2024-04-07T09:19:44Z</time>
      </trkpt>
      <trkpt lat="44.78878" lon="0.8067">
        <ele>123.1</ele>
        <time>2024-04-07T09:19:45Z</time>
      </trkpt>
      <trkpt lat="44.78874" lon="0.80675">
        <ele>123.2</ele>
        <time>2024-04-07T09:19:47Z</time>
      </trkpt>
      <trkpt lat="44.78869" lon="0.8068">
        <ele>123.3</ele>
        <time>2024-04-07T09:19:49Z</time>
      </trkpt>
      <trkpt lat="44.78867" lon="0.80683">
        <ele>123.3</ele>
        <time>2024-04-07T09:19:50Z</time>
      </trkpt>
      <trkpt lat="44.78865" lon="0.80687">
        <ele>123.4</ele>
        <time>2024-04-07T09:19:51Z</time>
      </trkpt>
      <trkpt lat="44.7886" lon="0.80692">
        <ele>123.5</ele>
        <time>2024-04-07T09:19:53Z</time>
      </trkpt>
      <trkpt lat="44.78858" lon="0.80695">
        <ele>123.5</ele>
        <time>2024-04-07T09:19:54Z</time>
      </trkpt>
      <trkpt lat="44.78856" lon="0.80698">
        <ele>123.5</ele>
        <time>2024-04-07T09:19:55Z</time>
      </trkpt>
      <trkpt lat="44.78852" lon="0.80704">
        <ele>123.6</ele>
        <time>2024-04-07T09:19:57Z</time>
      </trkpt>
      <trkpt lat="44.7885" lon="0.80708">
        <ele>123.7</ele>
        <time>2024-04-07T09:19:58Z</time>
      </trkpt>
      <trkpt lat="44.78848" lon="0.80711">
        <ele>123.7</ele>
        <time>2024-04-07T09:19:59Z</time>
      </trkpt>
      <trkpt lat="44.78844" lon="0.80717">
        <ele>123.9</ele>
        <time>2024-04-07T09:20:01Z</time>
      </trkpt>
      <trkpt lat="44.7884" lon="0.80723">
        <ele>124</ele>
        <time>2024-04-07T09:20:03Z</time>
      </trkpt>
      <trkpt lat="44.78837" lon="0.8073">
        <ele>124.1</ele>
        <time>2024-04-07T09:20:05Z</time>
      </trkpt>
      <trkpt lat="44.78833" lon="0.80735">
        <ele>124.2</ele>
        <time>2024-04-07T09:20:07Z</time>
      </trkpt>
      <trkpt lat="44.7883" lon="0.8074">
        <ele>124.3</ele>
        <time>2024-04-07T09:20:09Z</time>
      </trkpt>
      <trkpt lat="44.78827" lon="0.80746">
        <ele>124.3</ele>
        <time>2024-04-07T09:20:11Z</time>
      </trkpt>
      <trkpt lat="44.78824" lon="0.80751">
        <ele>124.4</ele>
        <time>2024-04-07T09:20:13Z</time>
      </trkpt>
      <trkpt lat="44.78821" lon="0.80754">
        <ele>124.5</ele>
        <time>2024-04-07T09:20:15Z</time>
      </trkpt>
      <trkpt lat="44.78818" lon="0.80755">
        <ele>124.5</ele>
        <time>2024-04-07T09:20:16Z</time>
      </trkpt>
      <trkpt lat="44.78816" lon="0.80756">
        <ele>124.6</ele>
        <time>2024-04-07T09:20:17Z</time>
      </trkpt>
      <trkpt lat="44.78814" lon="0.80754">
        <ele>124.6</ele>
        <time>2024-04-07T09:20:18Z</time>
      </trkpt>
      <trkpt lat="44.78813" lon="0.80752">
        <ele>124.7</ele>
        <time>2024-04-07T09:20:19Z</time>
      </trkpt>
      <trkpt lat="44.78812" lon="0.8075">
        <ele>124.7</ele>
        <time>2024-04-07T09:20:20Z</time>
      </trkpt>
      <trkpt lat="44.78811" lon="0.80748">
        <ele>124.8</ele>
        <time>2024-04-07T09:20:21Z</time>
      </trkpt>
      <trkpt lat="44.7881" lon="0.80743">
        <ele>124.9</ele>
        <time>2024-04-07T09:20:23Z</time>
      </trkpt>
      <trkpt lat="44.78807" lon="0.80737">
        <ele>125</ele>
        <time>2024-04-07T09:20:25Z</time>
      </trkpt>
      <trkpt lat="44.78802" lon="0.8073">
        <ele>125.2</ele>
        <time>2024-04-07T09:20:27Z</time>
      </trkpt>
      <trkpt lat="44.78799" lon="0.80725">
        <ele>125.3</ele>
        <time>2024-04-07T09:20:29Z</time>
      </trkpt>
      <trkpt lat="44.78797" lon="0.80722">
        <ele>125.4</ele>
        <time>2024-04-07T09:20:30Z</time>
      </trkpt>
      <trkpt lat="44.78795" lon="0.8072">
        <ele>125.5</ele>
        <time>2024-04-07T09:20:31Z</time>
      </trkpt>
      <trkpt lat="44.78792" lon="0.80715">
        <ele>125.7</ele>
        <time>2024-04-07T09:20:33Z</time>
      </trkpt>
      <trkpt lat="44.78791" lon="0.80712">
        <ele>125.8</ele>
        <time>2024-04-07T09:20:34Z</time>
      </trkpt>
      <trkpt lat="44.78789" lon="0.80709">
        <ele>125.9</ele>
        <time>2024-04-07T09:20:35Z</time>
      </trkpt>
      <trkpt lat="44.78786" lon="0.80704">
        <ele>126.2</ele>
        <time>2024-04-07T09:20:37Z</time>
      </trkpt>
      <trkpt lat="44.78782" lon="0.80699">
        <ele>126.4</ele>
        <time>2024-04-07T09:20:39Z</time>
      </trkpt>
      <trkpt lat="44.78779" lon="0.80695">
        <ele>126.6</ele>
        <time>2024-04-07T09:20:41Z</time>
      </trkpt>
      <trkpt lat="44.78775" lon="0.8069">
        <ele>126.9</ele>
        <time>2024-04-07T09:20:43Z</time>
      </trkpt>
      <trkpt lat="44.7877" lon="0.80684">
        <ele>127.2</ele>
        <time>2024-04-07T09:20:45Z</time>
      </trkpt>
      <trkpt lat="44.78765" lon="0.80678">
        <ele>127.6</ele>
        <time>2024-04-07T09:20:47Z</time>
      </trkpt>
      <trkpt lat="44.78761" lon="0.80673">
        <ele>127.9</ele>
        <time>2024-04-07T09:20:49Z</time>
      </trkpt>
      <trkpt lat="44.78757" lon="0.80667">
        <ele>128.2</ele>
        <time>2024-04-07T09:20:51Z</time>
      </trkpt>
      <trkpt lat="44.78754" lon="0.80662">
        <ele>128.5</ele>
        <time>2024-04-07T09:20:53Z</time>
      </trkpt>
      <trkpt lat="44.7875" lon="0.80658">
        <ele>128.8</ele>
        <time>2024-04-07T09:20:55Z</time>
      </trkpt>
      <trkpt lat="44.78749" lon="0.80656">
        <ele>128.9</ele>
        <time>2024-04-07T09:20:56Z</time>
      </trkpt>
      <trkpt lat="44.78748" lon="0.80652">
        <ele>129</ele>
        <time>2024-04-07T09:20:57Z</time>
      </trkpt>
      <trkpt lat="44.78746" lon="0.80646">
        <ele>129.3</ele>
        <time>2024-04-07T09:20:59Z</time>
      </trkpt>
      <trkpt lat="44.78741" lon="0.80641">
        <ele>129.6</ele>
        <time>2024-04-07T09:21:01Z</time>
      </trkpt>
      <trkpt lat="44.78738" lon="0.80638">
        <ele>129.8</ele>
        <time>2024-04-07T09:21:03Z</time>
      </trkpt>
      <trkpt lat="44.78738" lon="0.8064">
        <ele>129.9</ele>
        <time>2024-04-07T09:21:04Z</time>
      </trkpt>
      <trkpt lat="44.78736" lon="0.80643">
        <ele>130.1</ele>
        <time>2024-04-07T09:21:05Z</time>
      </trkpt>
      <trkpt lat="44.78735" lon="0.80646">
        <ele>130.2</ele>
        <time>2024-04-07T09:21:06Z</time>
      </trkpt>
      <trkpt lat="44.78735" lon="0.80649">
        <ele>130.3</ele>
        <time>2024-04-07T09:21:07Z</time>
      </trkpt>
      <trkpt lat="44.78736" lon="0.8065">
        <ele>130.3</ele>
        <time>2024-04-07T09:21:08Z</time>
      </trkpt>
      <trkpt lat="44.78735" lon="0.80652">
        <ele>130.4</ele>
        <time>2024-04-07T09:21:09Z</time>
      </trkpt>
      <trkpt lat="44.78734" lon="0.80654">
        <ele>130.5</ele>
        <time>2024-04-07T09:21:10Z</time>
      </trkpt>
      <trkpt lat="44.78733" lon="0.80658">
        <ele>130.6</ele>
        <time>2024-04-07T09:21:11Z</time>
      </trkpt>
      <trkpt lat="44.78733" lon="0.80661">
        <ele>130.8</ele>
        <time>2024-04-07T09:21:12Z</time>
      </trkpt>
      <trkpt lat="44.78733" lon="0.80662">
        <ele>130.8</ele>
        <time>2024-04-07T09:21:13Z</time>
      </trkpt>
      <trkpt lat="44.78717" lon="0.80693">
        <ele>132.1</ele>
        <time>2024-04-07T09:21:45Z</time>
      </trkpt>
      <trkpt lat="44.78712" lon="0.80697">
        <ele>132.4</ele>
        <time>2024-04-07T09:21:47Z</time>
      </trkpt>
      <trkpt lat="44.78708" lon="0.80699">
        <ele>132.6</ele>
        <time>2024-04-07T09:21:49Z</time>
      </trkpt>
      <trkpt lat="44.78705" lon="0.80701">
        <ele>132.8</ele>
        <time>2024-04-07T09:21:51Z</time>
      </trkpt>
      <trkpt lat="44.78703" lon="0.80702">
        <ele>132.9</ele>
        <time>2024-04-07T09:21:52Z</time>
      </trkpt>
      <trkpt lat="44.78701" lon="0.80702">
        <ele>133</ele>
        <time>2024-04-07T09:21:53Z</time>
      </trkpt>
      <trkpt lat="44.78698" lon="0.80704">
        <ele>133.2</ele>
        <time>2024-04-07T09:21:55Z</time>
      </trkpt>
      <trkpt lat="44.78697" lon="0.80705">
        <ele>133.3</ele>
        <time>2024-04-07T09:21:56Z</time>
      </trkpt>
      <trkpt lat="44.78695" lon="0.80706">
        <ele>133.5</ele>
        <time>2024-04-07T09:21:57Z</time>
      </trkpt>
      <trkpt lat="44.78691" lon="0.8071">
        <ele>133.6</ele>
        <time>2024-04-07T09:21:59Z</time>
      </trkpt>
      <trkpt lat="44.7869" lon="0.80711">
        <ele>133.7</ele>
        <time>2024-04-07T09:22:00Z</time>
      </trkpt>
      <trkpt lat="44.78688" lon="0.80713">
        <ele>133.8</ele>
        <time>2024-04-07T09:22:01Z</time>
      </trkpt>
      <trkpt lat="44.78685" lon="0.80716">
        <ele>133.9</ele>
        <time>2024-04-07T09:22:03Z</time>
      </trkpt>
      <trkpt lat="44.78684" lon="0.80717">
        <ele>133.9</ele>
        <time>2024-04-07T09:22:04Z</time>
      </trkpt>
      <trkpt lat="44.78682" lon="0.80719">
        <ele>134</ele>
        <time>2024-04-07T09:22:05Z</time>
      </trkpt>
      <trkpt lat="44.78681" lon="0.80723">
        <ele>134</ele>
        <time>2024-04-07T09:22:07Z</time>
      </trkpt>
      <trkpt lat="44.78681" lon="0.80723">
        <ele>134</ele>
        <time>2024-04-07T09:22:08Z</time>
      </trkpt>
      <trkpt lat="44.78678" lon="0.80728">
        <ele>134</ele>
        <time>2024-04-07T09:22:10Z</time>
      </trkpt>
      <trkpt lat="44.78678" lon="0.8073">
        <ele>134</ele>
        <time>2024-04-07T09:22:11Z</time>
      </trkpt>
      <trkpt lat="44.78677" lon="0.80733">
        <ele>134</ele>
        <time>2024-04-07T09:22:12Z</time>
      </trkpt>
      <trkpt lat="44.78674" lon="0.8074">
        <ele>133.9</ele>
        <time>2024-04-07T09:22:13Z</time>
      </trkpt>
      <trkpt lat="44.78669" lon="0.80753">
        <ele>133.6</ele>
        <time>2024-04-07T09:22:15Z</time>
      </trkpt>
      <trkpt lat="44.78666" lon="0.80759">
        <ele>133.5</ele>
        <time>2024-04-07T09:22:16Z</time>
      </trkpt>
      <trkpt lat="44.78661" lon="0.80766">
        <ele>133.4</ele>
        <time>2024-04-07T09:22:17Z</time>
      </trkpt>
      <trkpt lat="44.78659" lon="0.80772">
        <ele>133.4</ele>
        <time>2024-04-07T09:22:18Z</time>
      </trkpt>
      <trkpt lat="44.78656" lon="0.80779">
        <ele>133.4</ele>
        <time>2024-04-07T09:22:19Z</time>
      </trkpt>
      <trkpt lat="44.78654" lon="0.80789">
        <ele>133.5</ele>
        <time>2024-04-07T09:22:21Z</time>
      </trkpt>
      <trkpt lat="44.78652" lon="0.80802">
        <ele>133.7</ele>
        <time>2024-04-07T09:22:23Z</time>
      </trkpt>
      <trkpt lat="44.78651" lon="0.80808">
        <ele>134</ele>
        <time>2024-04-07T09:22:24Z</time>
      </trkpt>
      <trkpt lat="44.7865" lon="0.80814">
        <ele>134.2</ele>
        <time>2024-04-07T09:22:25Z</time>
      </trkpt>
      <trkpt lat="44.78646" lon="0.80823">
        <ele>134.7</ele>
        <time>2024-04-07T09:22:27Z</time>
      </trkpt>
      <trkpt lat="44.78643" lon="0.80826">
        <ele>134.9</ele>
        <time>2024-04-07T09:22:28Z</time>
      </trkpt>
      <trkpt lat="44.78641" lon="0.80829">
        <ele>135.1</ele>
        <time>2024-04-07T09:22:29Z</time>
      </trkpt>
      <trkpt lat="44.78637" lon="0.80833">
        <ele>135.5</ele>
        <time>2024-04-07T09:22:31Z</time>
      </trkpt>
      <trkpt lat="44.78635" lon="0.80834">
        <ele>135.6</ele>
        <time>2024-04-07T09:22:32Z</time>
      </trkpt>
      <trkpt lat="44.78634" lon="0.80835">
        <ele>135.6</ele>
        <time>2024-04-07T09:22:33Z</time>
      </trkpt>
      <trkpt lat="44.78623" lon="0.80851">
        <ele>136.5</ele>
        <time>2024-04-07T09:22:38Z</time>
      </trkpt>
      <trkpt lat="44.78621" lon="0.80854">
        <ele>136.7</ele>
        <time>2024-04-07T09:22:39Z</time>
      </trkpt>
      <trkpt lat="44.78617" lon="0.8086">
        <ele>137</ele>
        <time>2024-04-07T09:22:41Z</time>
      </trkpt>
      <trkpt lat="44.78612" lon="0.80866">
        <ele>137.3</ele>
        <time>2024-04-07T09:22:43Z</time>
      </trkpt>
      <trkpt lat="44.78609" lon="0.80868">
        <ele>137.5</ele>
        <time>2024-04-07T09:22:44Z</time>
      </trkpt>
      <trkpt lat="44.78607" lon="0.80872">
        <ele>137.7</ele>
        <time>2024-04-07T09:22:45Z</time>
      </trkpt>
      <trkpt lat="44.78602" lon="0.8088">
        <ele>138</ele>
        <time>2024-04-07T09:22:47Z</time>
      </trkpt>
      <trkpt lat="44.78599" lon="0.80887">
        <ele>138.3</ele>
        <time>2024-04-07T09:22:49Z</time>
      </trkpt>
      <trkpt lat="44.78595" lon="0.80892">
        <ele>138.5</ele>
        <time>2024-04-07T09:22:51Z</time>
      </trkpt>
      <trkpt lat="44.7859" lon="0.80896">
        <ele>138.7</ele>
        <time>2024-04-07T09:22:53Z</time>
      </trkpt>
      <trkpt lat="44.78589" lon="0.80898">
        <ele>138.9</ele>
        <time>2024-04-07T09:22:54Z</time>
      </trkpt>
      <trkpt lat="44.78587" lon="0.80901">
        <ele>139</ele>
        <time>2024-04-07T09:22:55Z</time>
      </trkpt>
      <trkpt lat="44.78585" lon="0.80906">
        <ele>139.1</ele>
        <time>2024-04-07T09:22:57Z</time>
      </trkpt>
      <trkpt lat="44.78582" lon="0.8091">
        <ele>139.3</ele>
        <time>2024-04-07T09:22:59Z</time>
      </trkpt>
      <trkpt lat="44.7858" lon="0.80915">
        <ele>139.5</ele>
        <time>2024-04-07T09:23:01Z</time>
      </trkpt>
      <trkpt lat="44.78577" lon="0.80919">
        <ele>139.7</ele>
        <time>2024-04-07T09:23:03Z</time>
      </trkpt>
      <trkpt lat="44.78574" lon="0.80923">
        <ele>140</ele>
        <time>2024-04-07T09:23:05Z</time>
      </trkpt>
      <trkpt lat="44.78572" lon="0.80925">
        <ele>140.1</ele>
        <time>2024-04-07T09:23:06Z</time>
      </trkpt>
      <trkpt lat="44.7857" lon="0.80927">
        <ele>140.2</ele>
        <time>2024-04-07T09:23:07Z</time>
      </trkpt>
      <trkpt lat="44.7857" lon="0.80928">
        <ele>140.3</ele>
        <time>2024-04-07T09:23:08Z</time>
      </trkpt>
      <trkpt lat="44.7857" lon="0.8093">
        <ele>140.4</ele>
        <time>2024-04-07T09:23:09Z</time>
      </trkpt>
      <trkpt lat="44.78566" lon="0.80936">
        <ele>140.8</ele>
        <time>2024-04-07T09:23:11Z</time>
      </trkpt>
      <trkpt lat="44.78564" lon="0.80941">
        <ele>141</ele>
        <time>2024-04-07T09:23:13Z</time>
      </trkpt>
      <trkpt lat="44.78562" lon="0.80943">
        <ele>141.1</ele>
        <time>2024-04-07T09:23:14Z</time>
      </trkpt>
      <trkpt lat="44.78561" lon="0.80945">
        <ele>141.3</ele>
        <time>2024-04-07T09:23:15Z</time>
      </trkpt>
      <trkpt lat="44.78559" lon="0.8095">
        <ele>141.6</ele>
        <time>2024-04-07T09:23:17Z</time>
      </trkpt>
      <trkpt lat="44.78557" lon="0.80956">
        <ele>141.8</ele>
        <time>2024-04-07T09:23:19Z</time>
      </trkpt>
      <trkpt lat="44.78555" lon="0.80961">
        <ele>142.1</ele>
        <time>2024-04-07T09:23:21Z</time>
      </trkpt>
      <trkpt lat="44.78551" lon="0.80966">
        <ele>142.5</ele>
        <time>2024-04-07T09:23:23Z</time>
      </trkpt>
      <trkpt lat="44.78547" lon="0.80968">
        <ele>142.8</ele>
        <time>2024-04-07T09:23:25Z</time>
      </trkpt>
      <trkpt lat="44.78542" lon="0.80969">
        <ele>143.1</ele>
        <time>2024-04-07T09:23:27Z</time>
      </trkpt>
      <trkpt lat="44.7854" lon="0.80969">
        <ele>143.2</ele>
        <time>2024-04-07T09:23:28Z</time>
      </trkpt>
      <trkpt lat="44.78538" lon="0.8097">
        <ele>143.4</ele>
        <time>2024-04-07T09:23:29Z</time>
      </trkpt>
      <trkpt lat="44.78536" lon="0.80971">
        <ele>143.5</ele>
        <time>2024-04-07T09:23:30Z</time>
      </trkpt>
      <trkpt lat="44.78535" lon="0.80972">
        <ele>143.6</ele>
        <time>2024-04-07T09:23:31Z</time>
      </trkpt>
      <trkpt lat="44.78533" lon="0.80973">
        <ele>143.7</ele>
        <time>2024-04-07T09:23:33Z</time>
      </trkpt>
      <trkpt lat="44.78532" lon="0.80977">
        <ele>143.9</ele>
        <time>2024-04-07T09:23:35Z</time>
      </trkpt>
      <trkpt lat="44.78528" lon="0.80981">
        <ele>144.1</ele>
        <time>2024-04-07T09:23:37Z</time>
      </trkpt>
      <trkpt lat="44.78525" lon="0.80983">
        <ele>144.2</ele>
        <time>2024-04-07T09:23:38Z</time>
      </trkpt>
      <trkpt lat="44.78523" lon="0.80986">
        <ele>144.4</ele>
        <time>2024-04-07T09:23:39Z</time>
      </trkpt>
      <trkpt lat="44.78517" lon="0.80988">
        <ele>144.6</ele>
        <time>2024-04-07T09:23:41Z</time>
      </trkpt>
      <trkpt lat="44.78512" lon="0.80991">
        <ele>144.8</ele>
        <time>2024-04-07T09:23:43Z</time>
      </trkpt>
      <trkpt lat="44.7851" lon="0.80992">
        <ele>144.9</ele>
        <time>2024-04-07T09:23:44Z</time>
      </trkpt>
      <trkpt lat="44.78507" lon="0.80993">
        <ele>144.9</ele>
        <time>2024-04-07T09:23:45Z</time>
      </trkpt>
      <trkpt lat="44.78503" lon="0.80995">
        <ele>145</ele>
        <time>2024-04-07T09:23:47Z</time>
      </trkpt>
      <trkpt lat="44.78501" lon="0.80997">
        <ele>145</ele>
        <time>2024-04-07T09:23:48Z</time>
      </trkpt>
      <trkpt lat="44.785" lon="0.80997">
        <ele>145</ele>
        <time>2024-04-07T09:23:49Z</time>
      </trkpt>
      <trkpt lat="44.78496" lon="0.81">
        <ele>145.1</ele>
        <time>2024-04-07T09:23:51Z</time>
      </trkpt>
      <trkpt lat="44.78493" lon="0.81004">
        <ele>145.1</ele>
        <time>2024-04-07T09:23:52Z</time>
      </trkpt>
      <trkpt lat="44.78491" lon="0.81007">
        <ele>145.1</ele>
        <time>2024-04-07T09:23:53Z</time>
      </trkpt>
      <trkpt lat="44.78488" lon="0.81011">
        <ele>145.1</ele>
        <time>2024-04-07T09:23:54Z</time>
      </trkpt>
      <trkpt lat="44.78486" lon="0.81012">
        <ele>145.1</ele>
        <time>2024-04-07T09:23:55Z</time>
      </trkpt>
      <trkpt lat="44.78482" lon="0.81015">
        <ele>145.1</ele>
        <time>2024-04-07T09:23:57Z</time>
      </trkpt>
      <trkpt lat="44.78476" lon="0.81018">
        <ele>145.2</ele>
        <time>2024-04-07T09:23:59Z</time>
      </trkpt>
      <trkpt lat="44.78475" lon="0.8102">
        <ele>145.2</ele>
        <time>2024-04-07T09:24:01Z</time>
      </trkpt>
      <trkpt lat="44.78471" lon="0.81028">
        <ele>145.2</ele>
        <time>2024-04-07T09:24:03Z</time>
      </trkpt>
      <trkpt lat="44.78468" lon="0.81038">
        <ele>145.2</ele>
        <time>2024-04-07T09:24:05Z</time>
      </trkpt>
      <trkpt lat="44.78464" lon="0.81048">
        <ele>145.2</ele>
        <time>2024-04-07T09:24:07Z</time>
      </trkpt>
      <trkpt lat="44.78462" lon="0.81053">
        <ele>145.2</ele>
        <time>2024-04-07T09:24:08Z</time>
      </trkpt>
      <trkpt lat="44.7846" lon="0.81058">
        <ele>145.3</ele>
        <time>2024-04-07T09:24:09Z</time>
      </trkpt>
      <trkpt lat="44.78455" lon="0.81066">
        <ele>145.6</ele>
        <time>2024-04-07T09:24:11Z</time>
      </trkpt>
      <trkpt lat="44.7845" lon="0.81073">
        <ele>145.9</ele>
        <time>2024-04-07T09:24:13Z</time>
      </trkpt>
      <trkpt lat="44.78445" lon="0.81079">
        <ele>146.2</ele>
        <time>2024-04-07T09:24:15Z</time>
      </trkpt>
      <trkpt lat="44.78443" lon="0.81082">
        <ele>146.3</ele>
        <time>2024-04-07T09:24:16Z</time>
      </trkpt>
      <trkpt lat="44.7844" lon="0.81085">
        <ele>146.5</ele>
        <time>2024-04-07T09:24:17Z</time>
      </trkpt>
      <trkpt lat="44.78436" lon="0.8109">
        <ele>146.8</ele>
        <time>2024-04-07T09:24:19Z</time>
      </trkpt>
      <trkpt lat="44.78431" lon="0.81094">
        <ele>147.1</ele>
        <time>2024-04-07T09:24:21Z</time>
      </trkpt>
      <trkpt lat="44.78429" lon="0.81097">
        <ele>147.3</ele>
        <time>2024-04-07T09:24:22Z</time>
      </trkpt>
      <trkpt lat="44.78427" lon="0.81099">
        <ele>147.4</ele>
        <time>2024-04-07T09:24:23Z</time>
      </trkpt>
      <trkpt lat="44.78423" lon="0.81104">
        <ele>147.8</ele>
        <time>2024-04-07T09:24:25Z</time>
      </trkpt>
      <trkpt lat="44.78419" lon="0.81109">
        <ele>148.2</ele>
        <time>2024-04-07T09:24:27Z</time>
      </trkpt>
      <trkpt lat="44.78415" lon="0.81113">
        <ele>148.5</ele>
        <time>2024-04-07T09:24:29Z</time>
      </trkpt>
      <trkpt lat="44.7841" lon="0.81116">
        <ele>148.9</ele>
        <time>2024-04-07T09:24:31Z</time>
      </trkpt>
      <trkpt lat="44.78405" lon="0.8112">
        <ele>149.2</ele>
        <time>2024-04-07T09:24:33Z</time>
      </trkpt>
      <trkpt lat="44.78401" lon="0.81123">
        <ele>149.6</ele>
        <time>2024-04-07T09:24:35Z</time>
      </trkpt>
      <trkpt lat="44.78399" lon="0.81124">
        <ele>149.7</ele>
        <time>2024-04-07T09:24:36Z</time>
      </trkpt>
      <trkpt lat="44.78397" lon="0.81125">
        <ele>149.8</ele>
        <time>2024-04-07T09:24:37Z</time>
      </trkpt>
      <trkpt lat="44.78393" lon="0.81126">
        <ele>150.1</ele>
        <time>2024-04-07T09:24:39Z</time>
      </trkpt>
      <trkpt lat="44.78389" lon="0.81128">
        <ele>150.4</ele>
        <time>2024-04-07T09:24:41Z</time>
      </trkpt>
      <trkpt lat="44.78385" lon="0.8113">
        <ele>150.7</ele>
        <time>2024-04-07T09:24:43Z</time>
      </trkpt>
      <trkpt lat="44.78382" lon="0.81134">
        <ele>151</ele>
        <time>2024-04-07T09:24:45Z</time>
      </trkpt>
      <trkpt lat="44.7838" lon="0.81137">
        <ele>151.2</ele>
        <time>2024-04-07T09:24:46Z</time>
      </trkpt>
      <trkpt lat="44.7838" lon="0.8114">
        <ele>151.4</ele>
        <time>2024-04-07T09:24:47Z</time>
      </trkpt>
      <trkpt lat="44.78378" lon="0.81146">
        <ele>151.9</ele>
        <time>2024-04-07T09:24:49Z</time>
      </trkpt>
      <trkpt lat="44.78377" lon="0.81152">
        <ele>152.4</ele>
        <time>2024-04-07T09:24:51Z</time>
      </trkpt>
      <trkpt lat="44.78376" lon="0.81155">
        <ele>152.6</ele>
        <time>2024-04-07T09:24:52Z</time>
      </trkpt>
      <trkpt lat="44.78375" lon="0.81158">
        <ele>152.9</ele>
        <time>2024-04-07T09:24:53Z</time>
      </trkpt>
      <trkpt lat="44.78374" lon="0.81163">
        <ele>153.3</ele>
        <time>2024-04-07T09:24:55Z</time>
      </trkpt>
      <trkpt lat="44.78376" lon="0.8117">
        <ele>153.9</ele>
        <time>2024-04-07T09:24:57Z</time>
      </trkpt>
      <trkpt lat="44.78376" lon="0.81175">
        <ele>154.4</ele>
        <time>2024-04-07T09:24:59Z</time>
      </trkpt>
      <trkpt lat="44.78375" lon="0.8118">
        <ele>154.8</ele>
        <time>2024-04-07T09:25:01Z</time>
      </trkpt>
      <trkpt lat="44.78374" lon="0.81181">
        <ele>155</ele>
        <time>2024-04-07T09:25:02Z</time>
      </trkpt>
      <trkpt lat="44.78373" lon="0.81183">
        <ele>155.2</ele>
        <time>2024-04-07T09:25:03Z</time>
      </trkpt>
      <trkpt lat="44.78373" lon="0.81185">
        <ele>155.3</ele>
        <time>2024-04-07T09:25:04Z</time>
      </trkpt>
      <trkpt lat="44.78371" lon="0.81186">
        <ele>155.5</ele>
        <time>2024-04-07T09:25:05Z</time>
      </trkpt>
      <trkpt lat="44.78369" lon="0.81189">
        <ele>155.9</ele>
        <time>2024-04-07T09:25:07Z</time>
      </trkpt>
      <trkpt lat="44.78367" lon="0.81191">
        <ele>156.1</ele>
        <time>2024-04-07T09:25:08Z</time>
      </trkpt>
      <trkpt lat="44.78366" lon="0.81192">
        <ele>156.3</ele>
        <time>2024-04-07T09:25:09Z</time>
      </trkpt>
      <trkpt lat="44.78365" lon="0.81193">
        <ele>156.4</ele>
        <time>2024-04-07T09:25:10Z</time>
      </trkpt>
      <trkpt lat="44.78364" lon="0.81193">
        <ele>156.5</ele>
        <time>2024-04-07T09:25:11Z</time>
      </trkpt>
      <trkpt lat="44.7836" lon="0.81195">
        <ele>156.9</ele>
        <time>2024-04-07T09:25:13Z</time>
      </trkpt>
      <trkpt lat="44.78357" lon="0.81196">
        <ele>157.2</ele>
        <time>2024-04-07T09:25:15Z</time>
      </trkpt>
      <trkpt lat="44.78356" lon="0.81196">
        <ele>157.3</ele>
        <time>2024-04-07T09:25:16Z</time>
      </trkpt>
      <trkpt lat="44.78354" lon="0.81197">
        <ele>157.6</ele>
        <time>2024-04-07T09:25:17Z</time>
      </trkpt>
      <trkpt lat="44.78351" lon="0.81198">
        <ele>157.9</ele>
        <time>2024-04-07T09:25:19Z</time>
      </trkpt>
      <trkpt lat="44.78347" lon="0.812">
        <ele>158.2</ele>
        <time>2024-04-07T09:25:21Z</time>
      </trkpt>
      <trkpt lat="44.78344" lon="0.81202">
        <ele>158.5</ele>
        <time>2024-04-07T09:25:23Z</time>
      </trkpt>
      <trkpt lat="44.78342" lon="0.81203">
        <ele>158.7</ele>
        <time>2024-04-07T09:25:25Z</time>
      </trkpt>
      <trkpt lat="44.78338" lon="0.81205">
        <ele>159</ele>
        <time>2024-04-07T09:25:27Z</time>
      </trkpt>
      <trkpt lat="44.78336" lon="0.81206">
        <ele>159.2</ele>
        <time>2024-04-07T09:25:29Z</time>
      </trkpt>
      <trkpt lat="44.78332" lon="0.81207">
        <ele>159.5</ele>
        <time>2024-04-07T09:25:31Z</time>
      </trkpt>
      <trkpt lat="44.78331" lon="0.81208">
        <ele>159.6</ele>
        <time>2024-04-07T09:25:32Z</time>
      </trkpt>
      <trkpt lat="44.78329" lon="0.81209">
        <ele>159.8</ele>
        <time>2024-04-07T09:25:33Z</time>
      </trkpt>
      <trkpt lat="44.78326" lon="0.81211">
        <ele>160</ele>
        <time>2024-04-07T09:25:35Z</time>
      </trkpt>
      <trkpt lat="44.78323" lon="0.81214">
        <ele>160.3</ele>
        <time>2024-04-07T09:25:37Z</time>
      </trkpt>
      <trkpt lat="44.7832" lon="0.81216">
        <ele>160.6</ele>
        <time>2024-04-07T09:25:39Z</time>
      </trkpt>
      <trkpt lat="44.78318" lon="0.81217">
        <ele>160.8</ele>
        <time>2024-04-07T09:25:40Z</time>
      </trkpt>
      <trkpt lat="44.78317" lon="0.81219">
        <ele>160.9</ele>
        <time>2024-04-07T09:25:41Z</time>
      </trkpt>
      <trkpt lat="44.78314" lon="0.81222">
        <ele>161.2</ele>
        <time>2024-04-07T09:25:43Z</time>
      </trkpt>
      <trkpt lat="44.78311" lon="0.81225">
        <ele>161.5</ele>
        <time>2024-04-07T09:25:45Z</time>
      </trkpt>
      <trkpt lat="44.78308" lon="0.81227">
        <ele>161.7</ele>
        <time>2024-04-07T09:25:47Z</time>
      </trkpt>
      <trkpt lat="44.78305" lon="0.81229">
        <ele>162</ele>
        <time>2024-04-07T09:25:49Z</time>
      </trkpt>
      <trkpt lat="44.78302" lon="0.8123">
        <ele>162.2</ele>
        <time>2024-04-07T09:25:51Z</time>
      </trkpt>
      <trkpt lat="44.78298" lon="0.8123">
        <ele>162.5</ele>
        <time>2024-04-07T09:25:53Z</time>
      </trkpt>
      <trkpt lat="44.78295" lon="0.8123">
        <ele>162.7</ele>
        <time>2024-04-07T09:25:55Z</time>
      </trkpt>
      <trkpt lat="44.78292" lon="0.81228">
        <ele>162.9</ele>
        <time>2024-04-07T09:25:57Z</time>
      </trkpt>
      <trkpt lat="44.78288" lon="0.81224">
        <ele>163.1</ele>
        <time>2024-04-07T09:25:59Z</time>
      </trkpt>
      <trkpt lat="44.78286" lon="0.81221">
        <ele>163.2</ele>
        <time>2024-04-07T09:26:01Z</time>
      </trkpt>
      <trkpt lat="44.78285" lon="0.81219">
        <ele>163.3</ele>
        <time>2024-04-07T09:26:02Z</time>
      </trkpt>
      <trkpt lat="44.78284" lon="0.81218">
        <ele>163.3</ele>
        <time>2024-04-07T09:26:03Z</time>
      </trkpt>
      <trkpt lat="44.78282" lon="0.81216">
        <ele>163.4</ele>
        <time>2024-04-07T09:26:04Z</time>
      </trkpt>
      <trkpt lat="44.7828" lon="0.81214">
        <ele>163.5</ele>
        <time>2024-04-07T09:26:05Z</time>
      </trkpt>
      <trkpt lat="44.78279" lon="0.81213">
        <ele>163.5</ele>
        <time>2024-04-07T09:26:06Z</time>
      </trkpt>
      <trkpt lat="44.78278" lon="0.81211">
        <ele>163.6</ele>
        <time>2024-04-07T09:26:07Z</time>
      </trkpt>
      <trkpt lat="44.78273" lon="0.81207">
        <ele>163.8</ele>
        <time>2024-04-07T09:26:09Z</time>
      </trkpt>
      <trkpt lat="44.78271" lon="0.81204">
        <ele>163.9</ele>
        <time>2024-04-07T09:26:10Z</time>
      </trkpt>
      <trkpt lat="44.78269" lon="0.81202">
        <ele>164</ele>
        <time>2024-04-07T09:26:11Z</time>
      </trkpt>
      <trkpt lat="44.78266" lon="0.81198">
        <ele>164.3</ele>
        <time>2024-04-07T09:26:13Z</time>
      </trkpt>
      <trkpt lat="44.78263" lon="0.81194">
        <ele>164.5</ele>
        <time>2024-04-07T09:26:15Z</time>
      </trkpt>
      <trkpt lat="44.78262" lon="0.81192">
        <ele>164.7</ele>
        <time>2024-04-07T09:26:16Z</time>
      </trkpt>
      <trkpt lat="44.7826" lon="0.8119">
        <ele>164.8</ele>
        <time>2024-04-07T09:26:17Z</time>
      </trkpt>
      <trkpt lat="44.78256" lon="0.81187">
        <ele>165.2</ele>
        <time>2024-04-07T09:26:19Z</time>
      </trkpt>
      <trkpt lat="44.78252" lon="0.81183">
        <ele>165.6</ele>
        <time>2024-04-07T09:26:21Z</time>
      </trkpt>
      <trkpt lat="44.7825" lon="0.81182">
        <ele>165.8</ele>
        <time>2024-04-07T09:26:22Z</time>
      </trkpt>
      <trkpt lat="44.78248" lon="0.8118">
        <ele>166</ele>
        <time>2024-04-07T09:26:23Z</time>
      </trkpt>
      <trkpt lat="44.78245" lon="0.81176">
        <ele>166.5</ele>
        <time>2024-04-07T09:26:25Z</time>
      </trkpt>
      <trkpt lat="44.78242" lon="0.81173">
        <ele>166.8</ele>
        <time>2024-04-07T09:26:27Z</time>
      </trkpt>
      <trkpt lat="44.78241" lon="0.81171">
        <ele>167.1</ele>
        <time>2024-04-07T09:26:29Z</time>
      </trkpt>
      <trkpt lat="44.78239" lon="0.81168">
        <ele>167.5</ele>
        <time>2024-04-07T09:26:31Z</time>
      </trkpt>
      <trkpt lat="44.78236" lon="0.81164">
        <ele>167.9</ele>
        <time>2024-04-07T09:26:33Z</time>
      </trkpt>
      <trkpt lat="44.78235" lon="0.81163">
        <ele>168</ele>
        <time>2024-04-07T09:26:34Z</time>
      </trkpt>
      <trkpt lat="44.78234" lon="0.81161">
        <ele>168.2</ele>
        <time>2024-04-07T09:26:35Z</time>
      </trkpt>
      <trkpt lat="44.78231" lon="0.81159">
        <ele>168.6</ele>
        <time>2024-04-07T09:26:37Z</time>
      </trkpt>
      <trkpt lat="44.78229" lon="0.81154">
        <ele>169</ele>
        <time>2024-04-07T09:26:39Z</time>
      </trkpt>
      <trkpt lat="44.78226" lon="0.81152">
        <ele>169.3</ele>
        <time>2024-04-07T09:26:41Z</time>
      </trkpt>
      <trkpt lat="44.78224" lon="0.81148">
        <ele>169.6</ele>
        <time>2024-04-07T09:26:43Z</time>
      </trkpt>
      <trkpt lat="44.78222" lon="0.81147">
        <ele>169.8</ele>
        <time>2024-04-07T09:26:44Z</time>
      </trkpt>
      <trkpt lat="44.78221" lon="0.81145">
        <ele>169.9</ele>
        <time>2024-04-07T09:26:45Z</time>
      </trkpt>
      <trkpt lat="44.78218" lon="0.81142">
        <ele>170.2</ele>
        <time>2024-04-07T09:26:47Z</time>
      </trkpt>
      <trkpt lat="44.78216" lon="0.81139">
        <ele>170.4</ele>
        <time>2024-04-07T09:26:49Z</time>
      </trkpt>
      <trkpt lat="44.78215" lon="0.81137">
        <ele>170.5</ele>
        <time>2024-04-07T09:26:50Z</time>
      </trkpt>
      <trkpt lat="44.78214" lon="0.81135">
        <ele>170.6</ele>
        <time>2024-04-07T09:26:51Z</time>
      </trkpt>
      <trkpt lat="44.78211" lon="0.81133">
        <ele>170.7</ele>
        <time>2024-04-07T09:26:53Z</time>
      </trkpt>
      <trkpt lat="44.78208" lon="0.81132">
        <ele>170.8</ele>
        <time>2024-04-07T09:26:55Z</time>
      </trkpt>
      <trkpt lat="44.78206" lon="0.8113">
        <ele>170.8</ele>
        <time>2024-04-07T09:26:57Z</time>
      </trkpt>
      <trkpt lat="44.78202" lon="0.81128">
        <ele>170.8</ele>
        <time>2024-04-07T09:26:59Z</time>
      </trkpt>
      <trkpt lat="44.78199" lon="0.81125">
        <ele>170.8</ele>
        <time>2024-04-07T09:27:01Z</time>
      </trkpt>
      <trkpt lat="44.78197" lon="0.81123">
        <ele>170.8</ele>
        <time>2024-04-07T09:27:02Z</time>
      </trkpt>
      <trkpt lat="44.78195" lon="0.81121">
        <ele>170.7</ele>
        <time>2024-04-07T09:27:03Z</time>
      </trkpt>
      <trkpt lat="44.78191" lon="0.81118">
        <ele>170.5</ele>
        <time>2024-04-07T09:27:05Z</time>
      </trkpt>
      <trkpt lat="44.78185" lon="0.81112">
        <ele>170.2</ele>
        <time>2024-04-07T09:27:07Z</time>
      </trkpt>
      <trkpt lat="44.78181" lon="0.81107">
        <ele>169.9</ele>
        <time>2024-04-07T09:27:09Z</time>
      </trkpt>
      <trkpt lat="44.78179" lon="0.81104">
        <ele>169.7</ele>
        <time>2024-04-07T09:27:11Z</time>
      </trkpt>
      <trkpt lat="44.78179" lon="0.81104">
        <ele>169.7</ele>
        <time>2024-04-07T09:27:12Z</time>
      </trkpt>
      <trkpt lat="44.78175" lon="0.81106">
        <ele>169.5</ele>
        <time>2024-04-07T09:27:46Z</time>
      </trkpt>
      <trkpt lat="44.78173" lon="0.81108">
        <ele>169.6</ele>
        <time>2024-04-07T09:27:47Z</time>
      </trkpt>
      <trkpt lat="44.78172" lon="0.8111">
        <ele>169.7</ele>
        <time>2024-04-07T09:27:48Z</time>
      </trkpt>
      <trkpt lat="44.78171" lon="0.81113">
        <ele>169.8</ele>
        <time>2024-04-07T09:27:49Z</time>
      </trkpt>
      <trkpt lat="44.78168" lon="0.81119">
        <ele>170</ele>
        <time>2024-04-07T09:27:51Z</time>
      </trkpt>
      <trkpt lat="44.78165" lon="0.81126">
        <ele>170.3</ele>
        <time>2024-04-07T09:27:53Z</time>
      </trkpt>
      <trkpt lat="44.78164" lon="0.81129">
        <ele>170.4</ele>
        <time>2024-04-07T09:27:54Z</time>
      </trkpt>
      <trkpt lat="44.78164" lon="0.81132">
        <ele>170.5</ele>
        <time>2024-04-07T09:27:55Z</time>
      </trkpt>
      <trkpt lat="44.78162" lon="0.81138">
        <ele>170.7</ele>
        <time>2024-04-07T09:27:57Z</time>
      </trkpt>
      <trkpt lat="44.78161" lon="0.81144">
        <ele>170.9</ele>
        <time>2024-04-07T09:27:59Z</time>
      </trkpt>
      <trkpt lat="44.7816" lon="0.81147">
        <ele>171</ele>
        <time>2024-04-07T09:28:00Z</time>
      </trkpt>
      <trkpt lat="44.78158" lon="0.81149">
        <ele>171.1</ele>
        <time>2024-04-07T09:28:01Z</time>
      </trkpt>
      <trkpt lat="44.78156" lon="0.81156">
        <ele>171.4</ele>
        <time>2024-04-07T09:28:03Z</time>
      </trkpt>
      <trkpt lat="44.78155" lon="0.81159">
        <ele>171.5</ele>
        <time>2024-04-07T09:28:04Z</time>
      </trkpt>
      <trkpt lat="44.78155" lon="0.81163">
        <ele>171.6</ele>
        <time>2024-04-07T09:28:05Z</time>
      </trkpt>
      <trkpt lat="44.78152" lon="0.8117">
        <ele>171.9</ele>
        <time>2024-04-07T09:28:07Z</time>
      </trkpt>
      <trkpt lat="44.7815" lon="0.81177">
        <ele>172.2</ele>
        <time>2024-04-07T09:28:09Z</time>
      </trkpt>
      <trkpt lat="44.78149" lon="0.81184">
        <ele>172.4</ele>
        <time>2024-04-07T09:28:11Z</time>
      </trkpt>
      <trkpt lat="44.78147" lon="0.81191">
        <ele>172.6</ele>
        <time>2024-04-07T09:28:13Z</time>
      </trkpt>
      <trkpt lat="44.78145" lon="0.81197">
        <ele>172.8</ele>
        <time>2024-04-07T09:28:15Z</time>
      </trkpt>
      <trkpt lat="44.78143" lon="0.81204">
        <ele>173</ele>
        <time>2024-04-07T09:28:17Z</time>
      </trkpt>
      <trkpt lat="44.78141" lon="0.81211">
        <ele>173.2</ele>
        <time>2024-04-07T09:28:19Z</time>
      </trkpt>
      <trkpt lat="44.78139" lon="0.81218">
        <ele>173.4</ele>
        <time>2024-04-07T09:28:21Z</time>
      </trkpt>
      <trkpt lat="44.78137" lon="0.81226">
        <ele>173.6</ele>
        <time>2024-04-07T09:28:23Z</time>
      </trkpt>
      <trkpt lat="44.78134" lon="0.81233">
        <ele>173.7</ele>
        <time>2024-04-07T09:28:25Z</time>
      </trkpt>
      <trkpt lat="44.78132" lon="0.81241">
        <ele>173.9</ele>
        <time>2024-04-07T09:28:27Z</time>
      </trkpt>
      <trkpt lat="44.78129" lon="0.81249">
        <ele>174</ele>
        <time>2024-04-07T09:28:29Z</time>
      </trkpt>
      <trkpt lat="44.78126" lon="0.81258">
        <ele>174.1</ele>
        <time>2024-04-07T09:28:31Z</time>
      </trkpt>
      <trkpt lat="44.78124" lon="0.81266">
        <ele>174.2</ele>
        <time>2024-04-07T09:28:33Z</time>
      </trkpt>
      <trkpt lat="44.78121" lon="0.81274">
        <ele>174.3</ele>
        <time>2024-04-07T09:28:35Z</time>
      </trkpt>
      <trkpt lat="44.78118" lon="0.81282">
        <ele>174.4</ele>
        <time>2024-04-07T09:28:37Z</time>
      </trkpt>
      <trkpt lat="44.78115" lon="0.81292">
        <ele>174.5</ele>
        <time>2024-04-07T09:28:39Z</time>
      </trkpt>
      <trkpt lat="44.78112" lon="0.81302">
        <ele>174.6</ele>
        <time>2024-04-07T09:28:41Z</time>
      </trkpt>
      <trkpt lat="44.78109" lon="0.81311">
        <ele>174.6</ele>
        <time>2024-04-07T09:28:43Z</time>
      </trkpt>
      <trkpt lat="44.78106" lon="0.81321">
        <ele>174.7</ele>
        <time>2024-04-07T09:28:45Z</time>
      </trkpt>
      <trkpt lat="44.78103" lon="0.81331">
        <ele>174.8</ele>
        <time>2024-04-07T09:28:47Z</time>
      </trkpt>
      <trkpt lat="44.78101" lon="0.81336">
        <ele>174.8</ele>
        <time>2024-04-07T09:28:48Z</time>
      </trkpt>
      <trkpt lat="44.781" lon="0.81341">
        <ele>174.8</ele>
        <time>2024-04-07T09:28:49Z</time>
      </trkpt>
      <trkpt lat="44.78096" lon="0.81351">
        <ele>174.9</ele>
        <time>2024-04-07T09:28:51Z</time>
      </trkpt>
      <trkpt lat="44.78092" lon="0.81358">
        <ele>174.9</ele>
        <time>2024-04-07T09:28:53Z</time>
      </trkpt>
      <trkpt lat="44.78089" lon="0.81364">
        <ele>174.8</ele>
        <time>2024-04-07T09:28:55Z</time>
      </trkpt>
      <trkpt lat="44.78084" lon="0.81368">
        <ele>174.8</ele>
        <time>2024-04-07T09:28:57Z</time>
      </trkpt>
      <trkpt lat="44.78078" lon="0.81373">
        <ele>174.6</ele>
        <time>2024-04-07T09:28:59Z</time>
      </trkpt>
      <trkpt lat="44.78072" lon="0.81377">
        <ele>174.5</ele>
        <time>2024-04-07T09:29:01Z</time>
      </trkpt>
      <trkpt lat="44.78066" lon="0.81381">
        <ele>174.3</ele>
        <time>2024-04-07T09:29:03Z</time>
      </trkpt>
      <trkpt lat="44.78059" lon="0.81385">
        <ele>174.1</ele>
        <time>2024-04-07T09:29:05Z</time>
      </trkpt>
      <trkpt lat="44.78056" lon="0.81386">
        <ele>173.9</ele>
        <time>2024-04-07T09:29:06Z</time>
      </trkpt>
      <trkpt lat="44.78053" lon="0.81387">
        <ele>173.8</ele>
        <time>2024-04-07T09:29:07Z</time>
      </trkpt>
      <trkpt lat="44.78052" lon="0.81389">
        <ele>173.8</ele>
        <time>2024-04-07T09:29:08Z</time>
      </trkpt>
      <trkpt lat="44.78052" lon="0.8139">
        <ele>173.8</ele>
        <time>2024-04-07T09:29:09Z</time>
      </trkpt>
      <trkpt lat="44.78051" lon="0.81391">
        <ele>173.7</ele>
        <time>2024-04-07T09:29:11Z</time>
      </trkpt>
      <trkpt lat="44.78054" lon="0.81391">
        <ele>173.7</ele>
        <time>2024-04-07T09:29:21Z</time>
      </trkpt>
      <trkpt lat="44.78055" lon="0.81391">
        <ele>173.8</ele>
        <time>2024-04-07T09:29:22Z</time>
      </trkpt>
      <trkpt lat="44.78057" lon="0.81389">
        <ele>173.9</ele>
        <time>2024-04-07T09:29:23Z</time>
      </trkpt>
      <trkpt lat="44.7806" lon="0.81387">
        <ele>174.1</ele>
        <time>2024-04-07T09:29:25Z</time>
      </trkpt>
      <trkpt lat="44.78063" lon="0.81384">
        <ele>174.2</ele>
        <time>2024-04-07T09:29:27Z</time>
      </trkpt>
      <trkpt lat="44.78065" lon="0.81383">
        <ele>174.3</ele>
        <time>2024-04-07T09:29:28Z</time>
      </trkpt>
      <trkpt lat="44.78067" lon="0.81381">
        <ele>174.4</ele>
        <time>2024-04-07T09:29:29Z</time>
      </trkpt>
      <trkpt lat="44.78072" lon="0.81378">
        <ele>174.5</ele>
        <time>2024-04-07T09:29:31Z</time>
      </trkpt>
      <trkpt lat="44.78077" lon="0.81375">
        <ele>174.7</ele>
        <time>2024-04-07T09:29:33Z</time>
      </trkpt>
      <trkpt lat="44.7808" lon="0.81373">
        <ele>174.7</ele>
        <time>2024-04-07T09:29:34Z</time>
      </trkpt>
      <trkpt lat="44.78083" lon="0.81371">
        <ele>174.8</ele>
        <time>2024-04-07T09:29:35Z</time>
      </trkpt>
      <trkpt lat="44.78085" lon="0.81369">
        <ele>174.8</ele>
        <time>2024-04-07T09:29:36Z</time>
      </trkpt>
      <trkpt lat="44.78087" lon="0.81368">
        <ele>174.8</ele>
        <time>2024-04-07T09:29:37Z</time>
      </trkpt>
      <trkpt lat="44.78089" lon="0.81366">
        <ele>174.9</ele>
        <time>2024-04-07T09:29:39Z</time>
      </trkpt>
      <trkpt lat="44.78092" lon="0.81365">
        <ele>175</ele>
        <time>2024-04-07T09:29:41Z</time>
      </trkpt>
      <trkpt lat="44.78094" lon="0.81363">
        <ele>175</ele>
        <time>2024-04-07T09:29:43Z</time>
      </trkpt>
      <trkpt lat="44.78098" lon="0.81362">
        <ele>175.1</ele>
        <time>2024-04-07T09:29:45Z</time>
      </trkpt>
      <trkpt lat="44.78103" lon="0.81362">
        <ele>175.2</ele>
        <time>2024-04-07T09:29:47Z</time>
      </trkpt>
      <trkpt lat="44.78109" lon="0.81362">
        <ele>175.2</ele>
        <time>2024-04-07T09:29:49Z</time>
      </trkpt>
      <trkpt lat="44.78111" lon="0.81361">
        <ele>175.2</ele>
        <time>2024-04-07T09:29:50Z</time>
      </trkpt>
      <trkpt lat="44.78114" lon="0.8136">
        <ele>175.3</ele>
        <time>2024-04-07T09:29:51Z</time>
      </trkpt>
      <trkpt lat="44.7812" lon="0.81359">
        <ele>175.2</ele>
        <time>2024-04-07T09:29:53Z</time>
      </trkpt>
      <trkpt lat="44.78126" lon="0.81357">
        <ele>175.2</ele>
        <time>2024-04-07T09:29:55Z</time>
      </trkpt>
      <trkpt lat="44.78132" lon="0.81355">
        <ele>175.2</ele>
        <time>2024-04-07T09:29:57Z</time>
      </trkpt>
      <trkpt lat="44.7814" lon="0.81354">
        <ele>175.2</ele>
        <time>2024-04-07T09:29:59Z</time>
      </trkpt>
      <trkpt lat="44.78147" lon="0.81357">
        <ele>175.2</ele>
        <time>2024-04-07T09:30:01Z</time>
      </trkpt>
      <trkpt lat="44.78152" lon="0.81364">
        <ele>175.2</ele>
        <time>2024-04-07T09:30:03Z</time>
      </trkpt>
      <trkpt lat="44.78155" lon="0.81374">
        <ele>175.3</ele>
        <time>2024-04-07T09:30:05Z</time>
      </trkpt>
      <trkpt lat="44.78157" lon="0.81385">
        <ele>175.5</ele>
        <time>2024-04-07T09:30:07Z</time>
      </trkpt>
      <trkpt lat="44.78158" lon="0.81397">
        <ele>175.6</ele>
        <time>2024-04-07T09:30:09Z</time>
      </trkpt>
      <trkpt lat="44.78159" lon="0.81408">
        <ele>175.6</ele>
        <time>2024-04-07T09:30:11Z</time>
      </trkpt>
      <trkpt lat="44.7816" lon="0.81418">
        <ele>175.5</ele>
        <time>2024-04-07T09:30:13Z</time>
      </trkpt>
      <trkpt lat="44.78162" lon="0.81428">
        <ele>175.6</ele>
        <time>2024-04-07T09:30:15Z</time>
      </trkpt>
      <trkpt lat="44.78163" lon="0.81437">
        <ele>175.6</ele>
        <time>2024-04-07T09:30:17Z</time>
      </trkpt>
      <trkpt lat="44.78163" lon="0.81442">
        <ele>175.7</ele>
        <time>2024-04-07T09:30:18Z</time>
      </trkpt>
      <trkpt lat="44.78164" lon="0.81447">
        <ele>175.7</ele>
        <time>2024-04-07T09:30:19Z</time>
      </trkpt>
      <trkpt lat="44.78165" lon="0.81457">
        <ele>175.8</ele>
        <time>2024-04-07T09:30:21Z</time>
      </trkpt>
      <trkpt lat="44.78166" lon="0.81467">
        <ele>175.9</ele>
        <time>2024-04-07T09:30:23Z</time>
      </trkpt>
      <trkpt lat="44.78167" lon="0.81478">
        <ele>176</ele>
        <time>2024-04-07T09:30:25Z</time>
      </trkpt>
      <trkpt lat="44.78167" lon="0.81483">
        <ele>176.1</ele>
        <time>2024-04-07T09:30:26Z</time>
      </trkpt>
      <trkpt lat="44.78168" lon="0.81488">
        <ele>176.1</ele>
        <time>2024-04-07T09:30:27Z</time>
      </trkpt>
      <trkpt lat="44.78169" lon="0.81498">
        <ele>176.2</ele>
        <time>2024-04-07T09:30:29Z</time>
      </trkpt>
      <trkpt lat="44.7817" lon="0.81508">
        <ele>176.3</ele>
        <time>2024-04-07T09:30:31Z</time>
      </trkpt>
      <trkpt lat="44.78171" lon="0.81518">
        <ele>176.4</ele>
        <time>2024-04-07T09:30:33Z</time>
      </trkpt>
      <trkpt lat="44.78172" lon="0.81528">
        <ele>176.5</ele>
        <time>2024-04-07T09:30:35Z</time>
      </trkpt>
      <trkpt lat="44.78173" lon="0.81538">
        <ele>176.5</ele>
        <time>2024-04-07T09:30:37Z</time>
      </trkpt>
      <trkpt lat="44.78175" lon="0.81548">
        <ele>176.5</ele>
        <time>2024-04-07T09:30:39Z</time>
      </trkpt>
      <trkpt lat="44.78176" lon="0.81558">
        <ele>176.6</ele>
        <time>2024-04-07T09:30:41Z</time>
      </trkpt>
      <trkpt lat="44.78177" lon="0.81569">
        <ele>176.6</ele>
        <time>2024-04-07T09:30:43Z</time>
      </trkpt>
      <trkpt lat="44.78178" lon="0.81579">
        <ele>176.6</ele>
        <time>2024-04-07T09:30:45Z</time>
      </trkpt>
      <trkpt lat="44.78179" lon="0.81589">
        <ele>176.7</ele>
        <time>2024-04-07T09:30:47Z</time>
      </trkpt>
      <trkpt lat="44.7818" lon="0.81594">
        <ele>176.7</ele>
        <time>2024-04-07T09:30:48Z</time>
      </trkpt>
      <trkpt lat="44.78181" lon="0.81599">
        <ele>176.7</ele>
        <time>2024-04-07T09:30:49Z</time>
      </trkpt>
      <trkpt lat="44.78182" lon="0.8161">
        <ele>176.7</ele>
        <time>2024-04-07T09:30:51Z</time>
      </trkpt>
      <trkpt lat="44.78184" lon="0.8162">
        <ele>176.7</ele>
        <time>2024-04-07T09:30:53Z</time>
      </trkpt>
      <trkpt lat="44.78186" lon="0.8163">
        <ele>176.7</ele>
        <time>2024-04-07T09:30:55Z</time>
      </trkpt>
      <trkpt lat="44.78188" lon="0.81641">
        <ele>176.7</ele>
        <time>2024-04-07T09:30:57Z</time>
      </trkpt>
      <trkpt lat="44.78189" lon="0.81645">
        <ele>176.6</ele>
        <time>2024-04-07T09:30:58Z</time>
      </trkpt>
      <trkpt lat="44.7819" lon="0.8165">
        <ele>176.6</ele>
        <time>2024-04-07T09:30:59Z</time>
      </trkpt>
      <trkpt lat="44.78192" lon="0.81661">
        <ele>176.3</ele>
        <time>2024-04-07T09:31:01Z</time>
      </trkpt>
      <trkpt lat="44.78194" lon="0.81672">
        <ele>176.1</ele>
        <time>2024-04-07T09:31:03Z</time>
      </trkpt>
      <trkpt lat="44.78197" lon="0.81683">
        <ele>175.8</ele>
        <time>2024-04-07T09:31:05Z</time>
      </trkpt>
      <trkpt lat="44.78199" lon="0.81695">
        <ele>175.5</ele>
        <time>2024-04-07T09:31:07Z</time>
      </trkpt>
      <trkpt lat="44.78202" lon="0.81706">
        <ele>175.2</ele>
        <time>2024-04-07T09:31:09Z</time>
      </trkpt>
      <trkpt lat="44.78205" lon="0.81713">
        <ele>175</ele>
        <time>2024-04-07T09:31:11Z</time>
      </trkpt>
      <trkpt lat="44.78207" lon="0.81715">
        <ele>174.9</ele>
        <time>2024-04-07T09:31:12Z</time>
      </trkpt>
      <trkpt lat="44.7821" lon="0.81716">
        <ele>174.9</ele>
        <time>2024-04-07T09:31:13Z</time>
      </trkpt>
      <trkpt lat="44.78217" lon="0.81715">
        <ele>174.8</ele>
        <time>2024-04-07T09:31:15Z</time>
      </trkpt>
      <trkpt lat="44.78225" lon="0.81714">
        <ele>174.6</ele>
        <time>2024-04-07T09:31:17Z</time>
      </trkpt>
      <trkpt lat="44.78231" lon="0.81722">
        <ele>174</ele>
        <time>2024-04-07T09:31:19Z</time>
      </trkpt>
      <trkpt lat="44.78232" lon="0.81728">
        <ele>173.7</ele>
        <time>2024-04-07T09:31:20Z</time>
      </trkpt>
      <trkpt lat="44.78233" lon="0.81735">
        <ele>173.3</ele>
        <time>2024-04-07T09:31:21Z</time>
      </trkpt>
      <trkpt lat="44.78235" lon="0.81751">
        <ele>172.4</ele>
        <time>2024-04-07T09:31:23Z</time>
      </trkpt>
      <trkpt lat="44.78235" lon="0.8176">
        <ele>172</ele>
        <time>2024-04-07T09:31:24Z</time>
      </trkpt>
      <trkpt lat="44.78235" lon="0.81769">
        <ele>171.8</ele>
        <time>2024-04-07T09:31:25Z</time>
      </trkpt>
      <trkpt lat="44.78237" lon="0.81787">
        <ele>171.4</ele>
        <time>2024-04-07T09:31:27Z</time>
      </trkpt>
      <trkpt lat="44.78237" lon="0.81804">
        <ele>171.3</ele>
        <time>2024-04-07T09:31:29Z</time>
      </trkpt>
      <trkpt lat="44.78237" lon="0.81821">
        <ele>171.2</ele>
        <time>2024-04-07T09:31:31Z</time>
      </trkpt>
      <trkpt lat="44.78238" lon="0.81836">
        <ele>171.1</ele>
        <time>2024-04-07T09:31:33Z</time>
      </trkpt>
      <trkpt lat="44.78238" lon="0.81843">
        <ele>171.1</ele>
        <time>2024-04-07T09:31:34Z</time>
      </trkpt>
      <trkpt lat="44.78239" lon="0.81851">
        <ele>171.1</ele>
        <time>2024-04-07T09:31:35Z</time>
      </trkpt>
      <trkpt lat="44.7824" lon="0.81858">
        <ele>171.1</ele>
        <time>2024-04-07T09:31:36Z</time>
      </trkpt>
      <trkpt lat="44.78241" lon="0.81864">
        <ele>171.2</ele>
        <time>2024-04-07T09:31:37Z</time>
      </trkpt>
      <trkpt lat="44.78244" lon="0.81878">
        <ele>171.2</ele>
        <time>2024-04-07T09:31:39Z</time>
      </trkpt>
      <trkpt lat="44.78245" lon="0.81884">
        <ele>171.3</ele>
        <time>2024-04-07T09:31:40Z</time>
      </trkpt>
      <trkpt lat="44.78246" lon="0.81891">
        <ele>171.4</ele>
        <time>2024-04-07T09:31:41Z</time>
      </trkpt>
      <trkpt lat="44.78249" lon="0.81904">
        <ele>171.6</ele>
        <time>2024-04-07T09:31:43Z</time>
      </trkpt>
      <trkpt lat="44.78252" lon="0.81918">
        <ele>171.9</ele>
        <time>2024-04-07T09:31:45Z</time>
      </trkpt>
      <trkpt lat="44.78253" lon="0.81925">
        <ele>172.1</ele>
        <time>2024-04-07T09:31:46Z</time>
      </trkpt>
      <trkpt lat="44.78253" lon="0.81932">
        <ele>172.3</ele>
        <time>2024-04-07T09:31:47Z</time>
      </trkpt>
      <trkpt lat="44.78254" lon="0.81939">
        <ele>172.5</ele>
        <time>2024-04-07T09:31:48Z</time>
      </trkpt>
      <trkpt lat="44.78255" lon="0.81946">
        <ele>172.7</ele>
        <time>2024-04-07T09:31:49Z</time>
      </trkpt>
      <trkpt lat="44.78257" lon="0.8196">
        <ele>172.9</ele>
        <time>2024-04-07T09:31:51Z</time>
      </trkpt>
      <trkpt lat="44.78258" lon="0.81974">
        <ele>172.9</ele>
        <time>2024-04-07T09:31:53Z</time>
      </trkpt>
      <trkpt lat="44.78258" lon="0.81981">
        <ele>172.7</ele>
        <time>2024-04-07T09:31:54Z</time>
      </trkpt>
      <trkpt lat="44.78259" lon="0.81989">
        <ele>172.5</ele>
        <time>2024-04-07T09:31:55Z</time>
      </trkpt>
      <trkpt lat="44.78258" lon="0.81997">
        <ele>172.1</ele>
        <time>2024-04-07T09:31:56Z</time>
      </trkpt>
      <trkpt lat="44.78258" lon="0.82006">
        <ele>171.7</ele>
        <time>2024-04-07T09:31:57Z</time>
      </trkpt>
      <trkpt lat="44.78255" lon="0.82025">
        <ele>170.9</ele>
        <time>2024-04-07T09:31:59Z</time>
      </trkpt>
      <trkpt lat="44.78252" lon="0.82044">
        <ele>170.3</ele>
        <time>2024-04-07T09:32:01Z</time>
      </trkpt>
      <trkpt lat="44.78247" lon="0.82063">
        <ele>170</ele>
        <time>2024-04-07T09:32:03Z</time>
      </trkpt>
      <trkpt lat="44.78243" lon="0.82083">
        <ele>169.8</ele>
        <time>2024-04-07T09:32:05Z</time>
      </trkpt>
      <trkpt lat="44.7824" lon="0.82101">
        <ele>169.7</ele>
        <time>2024-04-07T09:32:07Z</time>
      </trkpt>
      <trkpt lat="44.78238" lon="0.82111">
        <ele>169.7</ele>
        <time>2024-04-07T09:32:08Z</time>
      </trkpt>
      <trkpt lat="44.78237" lon="0.8212">
        <ele>169.6</ele>
        <time>2024-04-07T09:32:09Z</time>
      </trkpt>
      <trkpt lat="44.78237" lon="0.8213">
        <ele>169.6</ele>
        <time>2024-04-07T09:32:10Z</time>
      </trkpt>
      <trkpt lat="44.78236" lon="0.82139">
        <ele>169.6</ele>
        <time>2024-04-07T09:32:11Z</time>
      </trkpt>
      <trkpt lat="44.78236" lon="0.82156">
        <ele>169.8</ele>
        <time>2024-04-07T09:32:13Z</time>
      </trkpt>
      <trkpt lat="44.78236" lon="0.82173">
        <ele>170</ele>
        <time>2024-04-07T09:32:15Z</time>
      </trkpt>
      <trkpt lat="44.78237" lon="0.82189">
        <ele>170.3</ele>
        <time>2024-04-07T09:32:17Z</time>
      </trkpt>
      <trkpt lat="44.78238" lon="0.82204">
        <ele>170.7</ele>
        <time>2024-04-07T09:32:19Z</time>
      </trkpt>
      <trkpt lat="44.78239" lon="0.82219">
        <ele>171.2</ele>
        <time>2024-04-07T09:32:21Z</time>
      </trkpt>
      <trkpt lat="44.7824" lon="0.82226">
        <ele>171.4</ele>
        <time>2024-04-07T09:32:22Z</time>
      </trkpt>
      <trkpt lat="44.78241" lon="0.82233">
        <ele>171.7</ele>
        <time>2024-04-07T09:32:23Z</time>
      </trkpt>
      <trkpt lat="44.78242" lon="0.82248">
        <ele>172.3</ele>
        <time>2024-04-07T09:32:25Z</time>
      </trkpt>
      <trkpt lat="44.78243" lon="0.82262">
        <ele>172.8</ele>
        <time>2024-04-07T09:32:27Z</time>
      </trkpt>
      <trkpt lat="44.78245" lon="0.82276">
        <ele>173.1</ele>
        <time>2024-04-07T09:32:29Z</time>
      </trkpt>
      <trkpt lat="44.78245" lon="0.82283">
        <ele>173.2</ele>
        <time>2024-04-07T09:32:30Z</time>
      </trkpt>
      <trkpt lat="44.78246" lon="0.82291">
        <ele>173.2</ele>
        <time>2024-04-07T09:32:31Z</time>
      </trkpt>
      <trkpt lat="44.78248" lon="0.82305">
        <ele>173</ele>
        <time>2024-04-07T09:32:33Z</time>
      </trkpt>
      <trkpt lat="44.7825" lon="0.82321">
        <ele>172.6</ele>
        <time>2024-04-07T09:32:35Z</time>
      </trkpt>
      <trkpt lat="44.78252" lon="0.82329">
        <ele>172.3</ele>
        <time>2024-04-07T09:32:36Z</time>
      </trkpt>
      <trkpt lat="44.78253" lon="0.82338">
        <ele>172.1</ele>
        <time>2024-04-07T09:32:37Z</time>
      </trkpt>
      <trkpt lat="44.78255" lon="0.82356">
        <ele>171.5</ele>
        <time>2024-04-07T09:32:39Z</time>
      </trkpt>
      <trkpt lat="44.78257" lon="0.82375">
        <ele>170.9</ele>
        <time>2024-04-07T09:32:41Z</time>
      </trkpt>
      <trkpt lat="44.78257" lon="0.82393">
        <ele>170.4</ele>
        <time>2024-04-07T09:32:43Z</time>
      </trkpt>
      <trkpt lat="44.78256" lon="0.8241">
        <ele>170.3</ele>
        <time>2024-04-07T09:32:45Z</time>
      </trkpt>
      <trkpt lat="44.78256" lon="0.8242">
        <ele>170.2</ele>
        <time>2024-04-07T09:32:47Z</time>
      </trkpt>
      <trkpt lat="44.78256" lon="0.82427">
        <ele>170.1</ele>
        <time>2024-04-07T09:32:49Z</time>
      </trkpt>
      <trkpt lat="44.78258" lon="0.82431">
        <ele>169.9</ele>
        <time>2024-04-07T09:32:50Z</time>
      </trkpt>
      <trkpt lat="44.78261" lon="0.82432">
        <ele>169.7</ele>
        <time>2024-04-07T09:32:51Z</time>
      </trkpt>
      <trkpt lat="44.78264" lon="0.82432">
        <ele>169.4</ele>
        <time>2024-04-07T09:32:52Z</time>
      </trkpt>
      <trkpt lat="44.78268" lon="0.8243">
        <ele>169.2</ele>
        <time>2024-04-07T09:32:53Z</time>
      </trkpt>
      <trkpt lat="44.78272" lon="0.8243">
        <ele>169</ele>
        <time>2024-04-07T09:32:54Z</time>
      </trkpt>
      <trkpt lat="44.78276" lon="0.82432">
        <ele>168.8</ele>
        <time>2024-04-07T09:32:55Z</time>
      </trkpt>
      <trkpt lat="44.78279" lon="0.82436">
        <ele>168.7</ele>
        <time>2024-04-07T09:32:56Z</time>
      </trkpt>
      <trkpt lat="44.78282" lon="0.82441">
        <ele>168.5</ele>
        <time>2024-04-07T09:32:57Z</time>
      </trkpt>
      <trkpt lat="44.78283" lon="0.82447">
        <ele>168.4</ele>
        <time>2024-04-07T09:32:58Z</time>
      </trkpt>
      <trkpt lat="44.78285" lon="0.82454">
        <ele>168.2</ele>
        <time>2024-04-07T09:32:59Z</time>
      </trkpt>
      <trkpt lat="44.78287" lon="0.82461">
        <ele>168.1</ele>
        <time>2024-04-07T09:33:00Z</time>
      </trkpt>
      <trkpt lat="44.78289" lon="0.82467">
        <ele>167.9</ele>
        <time>2024-04-07T09:33:01Z</time>
      </trkpt>
      <trkpt lat="44.78291" lon="0.82475">
        <ele>167.8</ele>
        <time>2024-04-07T09:33:02Z</time>
      </trkpt>
      <trkpt lat="44.78292" lon="0.82482">
        <ele>167.8</ele>
        <time>2024-04-07T09:33:03Z</time>
      </trkpt>
      <trkpt lat="44.78294" lon="0.82488">
        <ele>167.7</ele>
        <time>2024-04-07T09:33:04Z</time>
      </trkpt>
      <trkpt lat="44.78296" lon="0.82494">
        <ele>167.6</ele>
        <time>2024-04-07T09:33:05Z</time>
      </trkpt>
      <trkpt lat="44.78298" lon="0.82501">
        <ele>167.5</ele>
        <time>2024-04-07T09:33:06Z</time>
      </trkpt>
      <trkpt lat="44.783" lon="0.82508">
        <ele>167.4</ele>
        <time>2024-04-07T09:33:07Z</time>
      </trkpt>
      <trkpt lat="44.78304" lon="0.82521">
        <ele>167.2</ele>
        <time>2024-04-07T09:33:09Z</time>
      </trkpt>
      <trkpt lat="44.78309" lon="0.82535">
        <ele>166.8</ele>
        <time>2024-04-07T09:33:11Z</time>
      </trkpt>
      <trkpt lat="44.78314" lon="0.8255">
        <ele>166.4</ele>
        <time>2024-04-07T09:33:13Z</time>
      </trkpt>
      <trkpt lat="44.78316" lon="0.82558">
        <ele>166.2</ele>
        <time>2024-04-07T09:33:14Z</time>
      </trkpt>
      <trkpt lat="44.78318" lon="0.82566">
        <ele>165.9</ele>
        <time>2024-04-07T09:33:15Z</time>
      </trkpt>
      <trkpt lat="44.78317" lon="0.82575">
        <ele>165.6</ele>
        <time>2024-04-07T09:33:16Z</time>
      </trkpt>
      <trkpt lat="44.78316" lon="0.82583">
        <ele>165.4</ele>
        <time>2024-04-07T09:33:17Z</time>
      </trkpt>
      <trkpt lat="44.78316" lon="0.8259">
        <ele>165.2</ele>
        <time>2024-04-07T09:33:18Z</time>
      </trkpt>
      <trkpt lat="44.78318" lon="0.82597">
        <ele>164.9</ele>
        <time>2024-04-07T09:33:19Z</time>
      </trkpt>
      <trkpt lat="44.7832" lon="0.82606">
        <ele>164.7</ele>
        <time>2024-04-07T09:33:20Z</time>
      </trkpt>
      <trkpt lat="44.78321" lon="0.82614">
        <ele>164.4</ele>
        <time>2024-04-07T09:33:21Z</time>
      </trkpt>
      <trkpt lat="44.78323" lon="0.82621">
        <ele>164.3</ele>
        <time>2024-04-07T09:33:22Z</time>
      </trkpt>
      <trkpt lat="44.78325" lon="0.82628">
        <ele>164.2</ele>
        <time>2024-04-07T09:33:23Z</time>
      </trkpt>
      <trkpt lat="44.78327" lon="0.82634">
        <ele>164.1</ele>
        <time>2024-04-07T09:33:24Z</time>
      </trkpt>
      <trkpt lat="44.78328" lon="0.82641">
        <ele>164.1</ele>
        <time>2024-04-07T09:33:25Z</time>
      </trkpt>
      <trkpt lat="44.7833" lon="0.82647">
        <ele>164.1</ele>
        <time>2024-04-07T09:33:26Z</time>
      </trkpt>
      <trkpt lat="44.78332" lon="0.82654">
        <ele>164.2</ele>
        <time>2024-04-07T09:33:27Z</time>
      </trkpt>
      <trkpt lat="44.78333" lon="0.82661">
        <ele>164.3</ele>
        <time>2024-04-07T09:33:28Z</time>
      </trkpt>
      <trkpt lat="44.78334" lon="0.82666">
        <ele>164.4</ele>
        <time>2024-04-07T09:33:29Z</time>
      </trkpt>
      <trkpt lat="44.78335" lon="0.82671">
        <ele>164.6</ele>
        <time>2024-04-07T09:33:30Z</time>
      </trkpt>
      <trkpt lat="44.78336" lon="0.82676">
        <ele>164.8</ele>
        <time>2024-04-07T09:33:31Z</time>
      </trkpt>
      <trkpt lat="44.78336" lon="0.82682">
        <ele>165</ele>
        <time>2024-04-07T09:33:32Z</time>
      </trkpt>
      <trkpt lat="44.78337" lon="0.82687">
        <ele>165.2</ele>
        <time>2024-04-07T09:33:33Z</time>
      </trkpt>
      <trkpt lat="44.7834" lon="0.82695">
        <ele>165.7</ele>
        <time>2024-04-07T09:33:35Z</time>
      </trkpt>
      <trkpt lat="44.78342" lon="0.82699">
        <ele>166</ele>
        <time>2024-04-07T09:33:36Z</time>
      </trkpt>
      <trkpt lat="44.78344" lon="0.82702">
        <ele>166.2</ele>
        <time>2024-04-07T09:33:37Z</time>
      </trkpt>
      <trkpt lat="44.78349" lon="0.82705">
        <ele>166.7</ele>
        <time>2024-04-07T09:33:39Z</time>
      </trkpt>
      <trkpt lat="44.78351" lon="0.82705">
        <ele>166.9</ele>
        <time>2024-04-07T09:33:40Z</time>
      </trkpt>
      <trkpt lat="44.78352" lon="0.82705">
        <ele>167.1</ele>
        <time>2024-04-07T09:33:41Z</time>
      </trkpt>
      <trkpt lat="44.78357" lon="0.82705">
        <ele>167.5</ele>
        <time>2024-04-07T09:33:43Z</time>
      </trkpt>
      <trkpt lat="44.7836" lon="0.82707">
        <ele>167.7</ele>
        <time>2024-04-07T09:33:45Z</time>
      </trkpt>
      <trkpt lat="44.78364" lon="0.82709">
        <ele>168.1</ele>
        <time>2024-04-07T09:33:47Z</time>
      </trkpt>
      <trkpt lat="44.78369" lon="0.82712">
        <ele>168.5</ele>
        <time>2024-04-07T09:33:49Z</time>
      </trkpt>
      <trkpt lat="44.7837" lon="0.82714">
        <ele>168.6</ele>
        <time>2024-04-07T09:33:50Z</time>
      </trkpt>
      <trkpt lat="44.78372" lon="0.82717">
        <ele>168.8</ele>
        <time>2024-04-07T09:33:51Z</time>
      </trkpt>
      <trkpt lat="44.78373" lon="0.82719">
        <ele>169</ele>
        <time>2024-04-07T09:33:52Z</time>
      </trkpt>
      <trkpt lat="44.78375" lon="0.82722">
        <ele>169.1</ele>
        <time>2024-04-07T09:33:53Z</time>
      </trkpt>
      <trkpt lat="44.78376" lon="0.82723">
        <ele>169.3</ele>
        <time>2024-04-07T09:33:54Z</time>
      </trkpt>
      <trkpt lat="44.78378" lon="0.82725">
        <ele>169.4</ele>
        <time>2024-04-07T09:33:55Z</time>
      </trkpt>
      <trkpt lat="44.7838" lon="0.82727">
        <ele>169.6</ele>
        <time>2024-04-07T09:33:56Z</time>
      </trkpt>
      <trkpt lat="44.78381" lon="0.82728">
        <ele>169.7</ele>
        <time>2024-04-07T09:33:57Z</time>
      </trkpt>
      <trkpt lat="44.78382" lon="0.82733">
        <ele>170</ele>
        <time>2024-04-07T09:33:59Z</time>
      </trkpt>
      <trkpt lat="44.78386" lon="0.82737">
        <ele>170.4</ele>
        <time>2024-04-07T09:34:01Z</time>
      </trkpt>
      <trkpt lat="44.78389" lon="0.82741">
        <ele>170.8</ele>
        <time>2024-04-07T09:34:03Z</time>
      </trkpt>
      <trkpt lat="44.78395" lon="0.82745">
        <ele>171.4</ele>
        <time>2024-04-07T09:34:05Z</time>
      </trkpt>
      <trkpt lat="44.78398" lon="0.82747">
        <ele>171.7</ele>
        <time>2024-04-07T09:34:06Z</time>
      </trkpt>
      <trkpt lat="44.784" lon="0.82749">
        <ele>172</ele>
        <time>2024-04-07T09:34:07Z</time>
      </trkpt>
      <trkpt lat="44.78404" lon="0.82753">
        <ele>172.5</ele>
        <time>2024-04-07T09:34:09Z</time>
      </trkpt>
      <trkpt lat="44.78408" lon="0.82759">
        <ele>173.2</ele>
        <time>2024-04-07T09:34:11Z</time>
      </trkpt>
      <trkpt lat="44.78409" lon="0.82762">
        <ele>173.5</ele>
        <time>2024-04-07T09:34:12Z</time>
      </trkpt>
      <trkpt lat="44.7841" lon="0.82765">
        <ele>173.8</ele>
        <time>2024-04-07T09:34:13Z</time>
      </trkpt>
      <trkpt lat="44.78412" lon="0.82768">
        <ele>174.1</ele>
        <time>2024-04-07T09:34:14Z</time>
      </trkpt>
      <trkpt lat="44.78413" lon="0.82771">
        <ele>174.4</ele>
        <time>2024-04-07T09:34:15Z</time>
      </trkpt>
      <trkpt lat="44.78414" lon="0.82775">
        <ele>174.7</ele>
        <time>2024-04-07T09:34:16Z</time>
      </trkpt>
      <trkpt lat="44.78415" lon="0.82778">
        <ele>174.9</ele>
        <time>2024-04-07T09:34:17Z</time>
      </trkpt>
      <trkpt lat="44.78416" lon="0.82786">
        <ele>175.2</ele>
        <time>2024-04-07T09:34:19Z</time>
      </trkpt>
      <trkpt lat="44.78417" lon="0.82793">
        <ele>175.5</ele>
        <time>2024-04-07T09:34:21Z</time>
      </trkpt>
      <trkpt lat="44.78418" lon="0.828">
        <ele>175.6</ele>
        <time>2024-04-07T09:34:23Z</time>
      </trkpt>
      <trkpt lat="44.78421" lon="0.82806">
        <ele>175.5</ele>
        <time>2024-04-07T09:34:25Z</time>
      </trkpt>
      <trkpt lat="44.78423" lon="0.8281">
        <ele>175.4</ele>
        <time>2024-04-07T09:34:26Z</time>
      </trkpt>
      <trkpt lat="44.78427" lon="0.82813">
        <ele>175.2</ele>
        <time>2024-04-07T09:34:27Z</time>
      </trkpt>
      <trkpt lat="44.78429" lon="0.82817">
        <ele>175</ele>
        <time>2024-04-07T09:34:28Z</time>
      </trkpt>
      <trkpt lat="44.78431" lon="0.82822">
        <ele>174.7</ele>
        <time>2024-04-07T09:34:29Z</time>
      </trkpt>
      <trkpt lat="44.78434" lon="0.82833">
        <ele>174.1</ele>
        <time>2024-04-07T09:34:31Z</time>
      </trkpt>
      <trkpt lat="44.78433" lon="0.82839">
        <ele>173.8</ele>
        <time>2024-04-07T09:34:32Z</time>
      </trkpt>
      <trkpt lat="44.78433" lon="0.82845">
        <ele>173.5</ele>
        <time>2024-04-07T09:34:33Z</time>
      </trkpt>
      <trkpt lat="44.78432" lon="0.82858">
        <ele>172.8</ele>
        <time>2024-04-07T09:34:35Z</time>
      </trkpt>
      <trkpt lat="44.78432" lon="0.82865">
        <ele>172.4</ele>
        <time>2024-04-07T09:34:36Z</time>
      </trkpt>
      <trkpt lat="44.78431" lon="0.82871">
        <ele>172.1</ele>
        <time>2024-04-07T09:34:37Z</time>
      </trkpt>
      <trkpt lat="44.78431" lon="0.82878">
        <ele>171.8</ele>
        <time>2024-04-07T09:34:38Z</time>
      </trkpt>
      <trkpt lat="44.7843" lon="0.82885">
        <ele>171.5</ele>
        <time>2024-04-07T09:34:39Z</time>
      </trkpt>
      <trkpt lat="44.78428" lon="0.82898">
        <ele>171.1</ele>
        <time>2024-04-07T09:34:41Z</time>
      </trkpt>
      <trkpt lat="44.78425" lon="0.8291">
        <ele>170.8</ele>
        <time>2024-04-07T09:34:43Z</time>
      </trkpt>
      <trkpt lat="44.78424" lon="0.82916">
        <ele>170.7</ele>
        <time>2024-04-07T09:34:44Z</time>
      </trkpt>
      <trkpt lat="44.78423" lon="0.82922">
        <ele>170.6</ele>
        <time>2024-04-07T09:34:45Z</time>
      </trkpt>
      <trkpt lat="44.78422" lon="0.82935">
        <ele>170.4</ele>
        <time>2024-04-07T09:34:47Z</time>
      </trkpt>
      <trkpt lat="44.78422" lon="0.82943">
        <ele>170.3</ele>
        <time>2024-04-07T09:34:48Z</time>
      </trkpt>
      <trkpt lat="44.78422" lon="0.8295">
        <ele>170.2</ele>
        <time>2024-04-07T09:34:49Z</time>
      </trkpt>
      <trkpt lat="44.78422" lon="0.82965">
        <ele>170.1</ele>
        <time>2024-04-07T09:34:51Z</time>
      </trkpt>
      <trkpt lat="44.78424" lon="0.82972">
        <ele>170.1</ele>
        <time>2024-04-07T09:34:52Z</time>
      </trkpt>
      <trkpt lat="44.78426" lon="0.82979">
        <ele>170.1</ele>
        <time>2024-04-07T09:34:53Z</time>
      </trkpt>
      <trkpt lat="44.78429" lon="0.82992">
        <ele>170.3</ele>
        <time>2024-04-07T09:34:55Z</time>
      </trkpt>
      <trkpt lat="44.78434" lon="0.83004">
        <ele>170.5</ele>
        <time>2024-04-07T09:34:57Z</time>
      </trkpt>
      <trkpt lat="44.78439" lon="0.83016">
        <ele>170.8</ele>
        <time>2024-04-07T09:34:59Z</time>
      </trkpt>
      <trkpt lat="44.78443" lon="0.83026">
        <ele>171.2</ele>
        <time>2024-04-07T09:35:01Z</time>
      </trkpt>
      <trkpt lat="44.78446" lon="0.83031">
        <ele>171.4</ele>
        <time>2024-04-07T09:35:02Z</time>
      </trkpt>
      <trkpt lat="44.78448" lon="0.83036">
        <ele>171.6</ele>
        <time>2024-04-07T09:35:03Z</time>
      </trkpt>
      <trkpt lat="44.78451" lon="0.83046">
        <ele>172</ele>
        <time>2024-04-07T09:35:05Z</time>
      </trkpt>
      <trkpt lat="44.78453" lon="0.83056">
        <ele>172.2</ele>
        <time>2024-04-07T09:35:07Z</time>
      </trkpt>
      <trkpt lat="44.78451" lon="0.83064">
        <ele>172.4</ele>
        <time>2024-04-07T09:35:09Z</time>
      </trkpt>
      <trkpt lat="44.78449" lon="0.83067">
        <ele>172.5</ele>
        <time>2024-04-07T09:35:10Z</time>
      </trkpt>
      <trkpt lat="44.78447" lon="0.8307">
        <ele>172.5</ele>
        <time>2024-04-07T09:35:11Z</time>
      </trkpt>
      <trkpt lat="44.78441" lon="0.83076">
        <ele>172.6</ele>
        <time>2024-04-07T09:35:13Z</time>
      </trkpt>
      <trkpt lat="44.78436" lon="0.83083">
        <ele>172.7</ele>
        <time>2024-04-07T09:35:15Z</time>
      </trkpt>
      <trkpt lat="44.78431" lon="0.8309">
        <ele>172.7</ele>
        <time>2024-04-07T09:35:17Z</time>
      </trkpt>
      <trkpt lat="44.78428" lon="0.83095">
        <ele>172.7</ele>
        <time>2024-04-07T09:35:19Z</time>
      </trkpt>
      <trkpt lat="44.78425" lon="0.83099">
        <ele>172.7</ele>
        <time>2024-04-07T09:35:21Z</time>
      </trkpt>
      <trkpt lat="44.78425" lon="0.83101">
        <ele>172.7</ele>
        <time>2024-04-07T09:35:22Z</time>
      </trkpt>
      <trkpt lat="44.78425" lon="0.83103">
        <ele>172.7</ele>
        <time>2024-04-07T09:35:23Z</time>
      </trkpt>
      <trkpt lat="44.78428" lon="0.83109">
        <ele>172.8</ele>
        <time>2024-04-07T09:35:25Z</time>
      </trkpt>
      <trkpt lat="44.78431" lon="0.83116">
        <ele>172.8</ele>
        <time>2024-04-07T09:35:27Z</time>
      </trkpt>
      <trkpt lat="44.78433" lon="0.83119">
        <ele>172.8</ele>
        <time>2024-04-07T09:35:28Z</time>
      </trkpt>
      <trkpt lat="44.78436" lon="0.83122">
        <ele>172.8</ele>
        <time>2024-04-07T09:35:29Z</time>
      </trkpt>
      <trkpt lat="44.78441" lon="0.83128">
        <ele>172.8</ele>
        <time>2024-04-07T09:35:31Z</time>
      </trkpt>
      <trkpt lat="44.78447" lon="0.83135">
        <ele>172.8</ele>
        <time>2024-04-07T09:35:33Z</time>
      </trkpt>
      <trkpt lat="44.7845" lon="0.83138">
        <ele>172.8</ele>
        <time>2024-04-07T09:35:34Z</time>
      </trkpt>
      <trkpt lat="44.78454" lon="0.83142">
        <ele>172.9</ele>
        <time>2024-04-07T09:35:35Z</time>
      </trkpt>
      <trkpt lat="44.78458" lon="0.83145">
        <ele>173</ele>
        <time>2024-04-07T09:35:36Z</time>
      </trkpt>
      <trkpt lat="44.78461" lon="0.83147">
        <ele>173.2</ele>
        <time>2024-04-07T09:35:37Z</time>
      </trkpt>
      <trkpt lat="44.78466" lon="0.83147">
        <ele>173.4</ele>
        <time>2024-04-07T09:35:38Z</time>
      </trkpt>
      <trkpt lat="44.78469" lon="0.83145">
        <ele>173.6</ele>
        <time>2024-04-07T09:35:39Z</time>
      </trkpt>
      <trkpt lat="44.78472" lon="0.83144">
        <ele>173.8</ele>
        <time>2024-04-07T09:35:40Z</time>
      </trkpt>
      <trkpt lat="44.78475" lon="0.83142">
        <ele>173.9</ele>
        <time>2024-04-07T09:35:41Z</time>
      </trkpt>
      <trkpt lat="44.78481" lon="0.83138">
        <ele>174.1</ele>
        <time>2024-04-07T09:35:43Z</time>
      </trkpt>
      <trkpt lat="44.78487" lon="0.83135">
        <ele>174.3</ele>
        <time>2024-04-07T09:35:45Z</time>
      </trkpt>
      <trkpt lat="44.78494" lon="0.83133">
        <ele>174.3</ele>
        <time>2024-04-07T09:35:47Z</time>
      </trkpt>
      <trkpt lat="44.78502" lon="0.83132">
        <ele>174.4</ele>
        <time>2024-04-07T09:35:49Z</time>
      </trkpt>
      <trkpt lat="44.78509" lon="0.83131">
        <ele>174.5</ele>
        <time>2024-04-07T09:35:51Z</time>
      </trkpt>
      <trkpt lat="44.78517" lon="0.83127">
        <ele>174.7</ele>
        <time>2024-04-07T09:35:53Z</time>
      </trkpt>
      <trkpt lat="44.7852" lon="0.83126">
        <ele>174.9</ele>
        <time>2024-04-07T09:35:54Z</time>
      </trkpt>
      <trkpt lat="44.78524" lon="0.83124">
        <ele>174.9</ele>
        <time>2024-04-07T09:35:55Z</time>
      </trkpt>
      <trkpt lat="44.78531" lon="0.83121">
        <ele>175.2</ele>
        <time>2024-04-07T09:35:57Z</time>
      </trkpt>
      <trkpt lat="44.78538" lon="0.83118">
        <ele>175.5</ele>
        <time>2024-04-07T09:35:59Z</time>
      </trkpt>
      <trkpt lat="44.78542" lon="0.83118">
        <ele>175.6</ele>
        <time>2024-04-07T09:36:00Z</time>
      </trkpt>
      <trkpt lat="44.78546" lon="0.83117">
        <ele>175.7</ele>
        <time>2024-04-07T09:36:01Z</time>
      </trkpt>
      <trkpt lat="44.78553" lon="0.83116">
        <ele>175.9</ele>
        <time>2024-04-07T09:36:03Z</time>
      </trkpt>
      <trkpt lat="44.78561" lon="0.83115">
        <ele>175.9</ele>
        <time>2024-04-07T09:36:05Z</time>
      </trkpt>
      <trkpt lat="44.78565" lon="0.83117">
        <ele>175.8</ele>
        <time>2024-04-07T09:36:06Z</time>
      </trkpt>
      <trkpt lat="44.78568" lon="0.83122">
        <ele>175.5</ele>
        <time>2024-04-07T09:36:07Z</time>
      </trkpt>
      <trkpt lat="44.7857" lon="0.83128">
        <ele>175.2</ele>
        <time>2024-04-07T09:36:08Z</time>
      </trkpt>
      <trkpt lat="44.78572" lon="0.83136">
        <ele>174.6</ele>
        <time>2024-04-07T09:36:09Z</time>
      </trkpt>
      <trkpt lat="44.78574" lon="0.83144">
        <ele>174</ele>
        <time>2024-04-07T09:36:10Z</time>
      </trkpt>
      <trkpt lat="44.78577" lon="0.8315">
        <ele>173.5</ele>
        <time>2024-04-07T09:36:11Z</time>
      </trkpt>
      <trkpt lat="44.7858" lon="0.83154">
        <ele>173.1</ele>
        <time>2024-04-07T09:36:12Z</time>
      </trkpt>
      <trkpt lat="44.78585" lon="0.83156">
        <ele>172.7</ele>
        <time>2024-04-07T09:36:13Z</time>
      </trkpt>
      <trkpt lat="44.78594" lon="0.83154">
        <ele>171.8</ele>
        <time>2024-04-07T09:36:15Z</time>
      </trkpt>
      <trkpt lat="44.78604" lon="0.83149">
        <ele>171</ele>
        <time>2024-04-07T09:36:17Z</time>
      </trkpt>
      <trkpt lat="44.78617" lon="0.83143">
        <ele>169.7</ele>
        <time>2024-04-07T09:36:19Z</time>
      </trkpt>
      <trkpt lat="44.78633" lon="0.83136">
        <ele>168.3</ele>
        <time>2024-04-07T09:36:21Z</time>
      </trkpt>
      <trkpt lat="44.78648" lon="0.83128">
        <ele>167.3</ele>
        <time>2024-04-07T09:36:23Z</time>
      </trkpt>
      <trkpt lat="44.78664" lon="0.83119">
        <ele>166.5</ele>
        <time>2024-04-07T09:36:25Z</time>
      </trkpt>
      <trkpt lat="44.78679" lon="0.83107">
        <ele>165.3</ele>
        <time>2024-04-07T09:36:27Z</time>
      </trkpt>
      <trkpt lat="44.78694" lon="0.83095">
        <ele>163.8</ele>
        <time>2024-04-07T09:36:29Z</time>
      </trkpt>
      <trkpt lat="44.78708" lon="0.83084">
        <ele>162.4</ele>
        <time>2024-04-07T09:36:31Z</time>
      </trkpt>
      <trkpt lat="44.78715" lon="0.83078">
        <ele>161.8</ele>
        <time>2024-04-07T09:36:32Z</time>
      </trkpt>
      <trkpt lat="44.78721" lon="0.83071">
        <ele>161.2</ele>
        <time>2024-04-07T09:36:33Z</time>
      </trkpt>
      <trkpt lat="44.78727" lon="0.83066">
        <ele>160.7</ele>
        <time>2024-04-07T09:36:34Z</time>
      </trkpt>
      <trkpt lat="44.78734" lon="0.83062">
        <ele>160.2</ele>
        <time>2024-04-07T09:36:35Z</time>
      </trkpt>
      <trkpt lat="44.78741" lon="0.83059">
        <ele>159.6</ele>
        <time>2024-04-07T09:36:36Z</time>
      </trkpt>
      <trkpt lat="44.78749" lon="0.83057">
        <ele>158.9</ele>
        <time>2024-04-07T09:36:37Z</time>
      </trkpt>
      <trkpt lat="44.78757" lon="0.83055">
        <ele>158.2</ele>
        <time>2024-04-07T09:36:38Z</time>
      </trkpt>
      <trkpt lat="44.78766" lon="0.83053">
        <ele>157.3</ele>
        <time>2024-04-07T09:36:39Z</time>
      </trkpt>
      <trkpt lat="44.78775" lon="0.83051">
        <ele>156.3</ele>
        <time>2024-04-07T09:36:40Z</time>
      </trkpt>
      <trkpt lat="44.78784" lon="0.8305">
        <ele>155.4</ele>
        <time>2024-04-07T09:36:41Z</time>
      </trkpt>
      <trkpt lat="44.78803" lon="0.83049">
        <ele>153.8</ele>
        <time>2024-04-07T09:36:43Z</time>
      </trkpt>
      <trkpt lat="44.78812" lon="0.83049">
        <ele>153.2</ele>
        <time>2024-04-07T09:36:44Z</time>
      </trkpt>
      <trkpt lat="44.78821" lon="0.8305">
        <ele>152.7</ele>
        <time>2024-04-07T09:36:45Z</time>
      </trkpt>
      <trkpt lat="44.78839" lon="0.83053">
        <ele>151.7</ele>
        <time>2024-04-07T09:36:47Z</time>
      </trkpt>
      <trkpt lat="44.78857" lon="0.83054">
        <ele>150.9</ele>
        <time>2024-04-07T09:36:49Z</time>
      </trkpt>
      <trkpt lat="44.78875" lon="0.83054">
        <ele>150.4</ele>
        <time>2024-04-07T09:36:51Z</time>
      </trkpt>
      <trkpt lat="44.78893" lon="0.83052">
        <ele>150</ele>
        <time>2024-04-07T09:36:53Z</time>
      </trkpt>
      <trkpt lat="44.7891" lon="0.83048">
        <ele>149.6</ele>
        <time>2024-04-07T09:36:55Z</time>
      </trkpt>
      <trkpt lat="44.78926" lon="0.83046">
        <ele>149.2</ele>
        <time>2024-04-07T09:36:57Z</time>
      </trkpt>
      <trkpt lat="44.78933" lon="0.83045">
        <ele>148.9</ele>
        <time>2024-04-07T09:36:58Z</time>
      </trkpt>
      <trkpt lat="44.78941" lon="0.83045">
        <ele>148.6</ele>
        <time>2024-04-07T09:36:59Z</time>
      </trkpt>
      <trkpt lat="44.78949" lon="0.83045">
        <ele>148.2</ele>
        <time>2024-04-07T09:37:00Z</time>
      </trkpt>
      <trkpt lat="44.78957" lon="0.83047">
        <ele>147.7</ele>
        <time>2024-04-07T09:37:01Z</time>
      </trkpt>
      <trkpt lat="44.78965" lon="0.8305">
        <ele>147.2</ele>
        <time>2024-04-07T09:37:02Z</time>
      </trkpt>
      <trkpt lat="44.78974" lon="0.83052">
        <ele>146.7</ele>
        <time>2024-04-07T09:37:03Z</time>
      </trkpt>
      <trkpt lat="44.7899" lon="0.83057">
        <ele>145.6</ele>
        <time>2024-04-07T09:37:05Z</time>
      </trkpt>
      <trkpt lat="44.78995" lon="0.83061">
        <ele>145.3</ele>
        <time>2024-04-07T09:37:06Z</time>
      </trkpt>
      <trkpt lat="44.78998" lon="0.83066">
        <ele>145</ele>
        <time>2024-04-07T09:37:07Z</time>
      </trkpt>
      <trkpt lat="44.78999" lon="0.83074">
        <ele>144.6</ele>
        <time>2024-04-07T09:37:08Z</time>
      </trkpt>
      <trkpt lat="44.78999" lon="0.83081">
        <ele>144.3</ele>
        <time>2024-04-07T09:37:09Z</time>
      </trkpt>
      <trkpt lat="44.78999" lon="0.83094">
        <ele>144</ele>
        <time>2024-04-07T09:37:11Z</time>
      </trkpt>
      <trkpt lat="44.78999" lon="0.83106">
        <ele>143.8</ele>
        <time>2024-04-07T09:37:13Z</time>
      </trkpt>
      <trkpt lat="44.78999" lon="0.83117">
        <ele>143.8</ele>
        <time>2024-04-07T09:37:15Z</time>
      </trkpt>
      <trkpt lat="44.79" lon="0.83127">
        <ele>143.9</ele>
        <time>2024-04-07T09:37:17Z</time>
      </trkpt>
      <trkpt lat="44.79001" lon="0.83133">
        <ele>143.9</ele>
        <time>2024-04-07T09:37:18Z</time>
      </trkpt>
      <trkpt lat="44.79001" lon="0.83138">
        <ele>144</ele>
        <time>2024-04-07T09:37:19Z</time>
      </trkpt>
      <trkpt lat="44.79002" lon="0.83148">
        <ele>144.4</ele>
        <time>2024-04-07T09:37:21Z</time>
      </trkpt>
      <trkpt lat="44.79004" lon="0.83158">
        <ele>145</ele>
        <time>2024-04-07T09:37:23Z</time>
      </trkpt>
      <trkpt lat="44.79004" lon="0.83162">
        <ele>145.2</ele>
        <time>2024-04-07T09:37:24Z</time>
      </trkpt>
      <trkpt lat="44.79005" lon="0.83165">
        <ele>145.5</ele>
        <time>2024-04-07T09:37:25Z</time>
      </trkpt>
      <trkpt lat="44.79007" lon="0.83172">
        <ele>146</ele>
        <time>2024-04-07T09:37:27Z</time>
      </trkpt>
      <trkpt lat="44.7901" lon="0.83178">
        <ele>146.5</ele>
        <time>2024-04-07T09:37:29Z</time>
      </trkpt>
      <trkpt lat="44.79012" lon="0.83184">
        <ele>147</ele>
        <time>2024-04-07T09:37:31Z</time>
      </trkpt>
      <trkpt lat="44.79013" lon="0.8319">
        <ele>147.6</ele>
        <time>2024-04-07T09:37:33Z</time>
      </trkpt>
      <trkpt lat="44.79016" lon="0.83196">
        <ele>148.4</ele>
        <time>2024-04-07T09:37:35Z</time>
      </trkpt>
      <trkpt lat="44.79018" lon="0.83199">
        <ele>148.8</ele>
        <time>2024-04-07T09:37:36Z</time>
      </trkpt>
      <trkpt lat="44.7902" lon="0.83202">
        <ele>149.4</ele>
        <time>2024-04-07T09:37:37Z</time>
      </trkpt>
      <trkpt lat="44.79021" lon="0.83205">
        <ele>149.8</ele>
        <time>2024-04-07T09:37:38Z</time>
      </trkpt>
      <trkpt lat="44.79022" lon="0.83207">
        <ele>150.2</ele>
        <time>2024-04-07T09:37:39Z</time>
      </trkpt>
      <trkpt lat="44.79024" lon="0.83213">
        <ele>151</ele>
        <time>2024-04-07T09:37:41Z</time>
      </trkpt>
      <trkpt lat="44.79024" lon="0.83218">
        <ele>151.7</ele>
        <time>2024-04-07T09:37:43Z</time>
      </trkpt>
      <trkpt lat="44.79024" lon="0.8322">
        <ele>151.9</ele>
        <time>2024-04-07T09:37:44Z</time>
      </trkpt>
      <trkpt lat="44.79024" lon="0.83222">
        <ele>152.1</ele>
        <time>2024-04-07T09:37:45Z</time>
      </trkpt>
      <trkpt lat="44.79022" lon="0.83223">
        <ele>152.5</ele>
        <time>2024-04-07T09:37:46Z</time>
      </trkpt>
      <trkpt lat="44.79022" lon="0.83225">
        <ele>152.7</ele>
        <time>2024-04-07T09:37:47Z</time>
      </trkpt>
      <trkpt lat="44.79022" lon="0.8323">
        <ele>153.2</ele>
        <time>2024-04-07T09:37:49Z</time>
      </trkpt>
      <trkpt lat="44.79022" lon="0.83232">
        <ele>153.5</ele>
        <time>2024-04-07T09:37:50Z</time>
      </trkpt>
      <trkpt lat="44.79022" lon="0.83235">
        <ele>153.7</ele>
        <time>2024-04-07T09:37:51Z</time>
      </trkpt>
      <trkpt lat="44.79021" lon="0.8324">
        <ele>154.2</ele>
        <time>2024-04-07T09:37:53Z</time>
      </trkpt>
      <trkpt lat="44.7902" lon="0.83246">
        <ele>154.7</ele>
        <time>2024-04-07T09:37:55Z</time>
      </trkpt>
      <trkpt lat="44.79018" lon="0.8325">
        <ele>155.1</ele>
        <time>2024-04-07T09:37:57Z</time>
      </trkpt>
      <trkpt lat="44.79017" lon="0.83251">
        <ele>155.3</ele>
        <time>2024-04-07T09:37:58Z</time>
      </trkpt>
      <trkpt lat="44.79015" lon="0.83253">
        <ele>155.5</ele>
        <time>2024-04-07T09:37:59Z</time>
      </trkpt>
      <trkpt lat="44.79014" lon="0.83255">
        <ele>155.7</ele>
        <time>2024-04-07T09:38:00Z</time>
      </trkpt>
      <trkpt lat="44.79013" lon="0.83257">
        <ele>155.9</ele>
        <time>2024-04-07T09:38:01Z</time>
      </trkpt>
      <trkpt lat="44.79012" lon="0.83261">
        <ele>156.2</ele>
        <time>2024-04-07T09:38:03Z</time>
      </trkpt>
      <trkpt lat="44.7901" lon="0.83265">
        <ele>156.5</ele>
        <time>2024-04-07T09:38:05Z</time>
      </trkpt>
      <trkpt lat="44.79009" lon="0.8327">
        <ele>156.9</ele>
        <time>2024-04-07T09:38:07Z</time>
      </trkpt>
      <trkpt lat="44.79008" lon="0.83273">
        <ele>157.1</ele>
        <time>2024-04-07T09:38:08Z</time>
      </trkpt>
      <trkpt lat="44.79007" lon="0.83275">
        <ele>157.3</ele>
        <time>2024-04-07T09:38:09Z</time>
      </trkpt>
      <trkpt lat="44.79008" lon="0.8328">
        <ele>157.7</ele>
        <time>2024-04-07T09:38:11Z</time>
      </trkpt>
      <trkpt lat="44.79007" lon="0.83282">
        <ele>157.9</ele>
        <time>2024-04-07T09:38:12Z</time>
      </trkpt>
      <trkpt lat="44.79007" lon="0.83284">
        <ele>158.1</ele>
        <time>2024-04-07T09:38:13Z</time>
      </trkpt>
      <trkpt lat="44.79005" lon="0.83286">
        <ele>158.3</ele>
        <time>2024-04-07T09:38:14Z</time>
      </trkpt>
      <trkpt lat="44.79005" lon="0.83287">
        <ele>158.4</ele>
        <time>2024-04-07T09:38:15Z</time>
      </trkpt>
      <trkpt lat="44.79003" lon="0.83291">
        <ele>158.7</ele>
        <time>2024-04-07T09:38:17Z</time>
      </trkpt>
      <trkpt lat="44.79002" lon="0.83292">
        <ele>158.9</ele>
        <time>2024-04-07T09:38:18Z</time>
      </trkpt>
      <trkpt lat="44.79001" lon="0.83295">
        <ele>159.1</ele>
        <time>2024-04-07T09:38:19Z</time>
      </trkpt>
      <trkpt lat="44.79" lon="0.83298">
        <ele>159.4</ele>
        <time>2024-04-07T09:38:20Z</time>
      </trkpt>
      <trkpt lat="44.79" lon="0.833">
        <ele>159.6</ele>
        <time>2024-04-07T09:38:21Z</time>
      </trkpt>
      <trkpt lat="44.78998" lon="0.83305">
        <ele>160</ele>
        <time>2024-04-07T09:38:23Z</time>
      </trkpt>
      <trkpt lat="44.78997" lon="0.83309">
        <ele>160.4</ele>
        <time>2024-04-07T09:38:25Z</time>
      </trkpt>
      <trkpt lat="44.78996" lon="0.83314">
        <ele>160.9</ele>
        <time>2024-04-07T09:38:27Z</time>
      </trkpt>
      <trkpt lat="44.78996" lon="0.83316">
        <ele>161.1</ele>
        <time>2024-04-07T09:38:28Z</time>
      </trkpt>
      <trkpt lat="44.78996" lon="0.83319">
        <ele>161.3</ele>
        <time>2024-04-07T09:38:29Z</time>
      </trkpt>
      <trkpt lat="44.78997" lon="0.83324">
        <ele>161.8</ele>
        <time>2024-04-07T09:38:31Z</time>
      </trkpt>
      <trkpt lat="44.78998" lon="0.8333">
        <ele>162.3</ele>
        <time>2024-04-07T09:38:33Z</time>
      </trkpt>
      <trkpt lat="44.78997" lon="0.83332">
        <ele>162.6</ele>
        <time>2024-04-07T09:38:34Z</time>
      </trkpt>
      <trkpt lat="44.78997" lon="0.83335">
        <ele>162.7</ele>
        <time>2024-04-07T09:38:35Z</time>
      </trkpt>
      <trkpt lat="44.78998" lon="0.83339">
        <ele>163</ele>
        <time>2024-04-07T09:38:37Z</time>
      </trkpt>
      <trkpt lat="44.78998" lon="0.8334">
        <ele>163.1</ele>
        <time>2024-04-07T09:38:38Z</time>
      </trkpt>
      <trkpt lat="44.78999" lon="0.83342">
        <ele>163.2</ele>
        <time>2024-04-07T09:38:39Z</time>
      </trkpt>
      <trkpt lat="44.79001" lon="0.83343">
        <ele>163.3</ele>
        <time>2024-04-07T09:38:40Z</time>
      </trkpt>
      <trkpt lat="44.79002" lon="0.83343">
        <ele>163.4</ele>
        <time>2024-04-07T09:38:41Z</time>
      </trkpt>
      <trkpt lat="44.79004" lon="0.83346">
        <ele>163.5</ele>
        <time>2024-04-07T09:38:43Z</time>
      </trkpt>
      <trkpt lat="44.79006" lon="0.83347">
        <ele>163.6</ele>
        <time>2024-04-07T09:38:44Z</time>
      </trkpt>
      <trkpt lat="44.79006" lon="0.83347">
        <ele>163.6</ele>
        <time>2024-04-07T09:38:45Z</time>
      </trkpt>
      <trkpt lat="44.79006" lon="0.83347">
        <ele>163.6</ele>
        <time>2024-04-07T09:38:46Z</time>
      </trkpt>
      <trkpt lat="44.79012" lon="0.83349">
        <ele>163.5</ele>
        <time>2024-04-07T09:40:04Z</time>
      </trkpt>
      <trkpt lat="44.79015" lon="0.83349">
        <ele>163.4</ele>
        <time>2024-04-07T09:40:05Z</time>
      </trkpt>
      <trkpt lat="44.79022" lon="0.8335">
        <ele>163</ele>
        <time>2024-04-07T09:40:07Z</time>
      </trkpt>
      <trkpt lat="44.7903" lon="0.83352">
        <ele>162.6</ele>
        <time>2024-04-07T09:40:09Z</time>
      </trkpt>
      <trkpt lat="44.79038" lon="0.83355">
        <ele>162.2</ele>
        <time>2024-04-07T09:40:11Z</time>
      </trkpt>
      <trkpt lat="44.79046" lon="0.83359">
        <ele>161.7</ele>
        <time>2024-04-07T09:40:13Z</time>
      </trkpt>
      <trkpt lat="44.79051" lon="0.8336">
        <ele>161.5</ele>
        <time>2024-04-07T09:40:14Z</time>
      </trkpt>
      <trkpt lat="44.79056" lon="0.83359">
        <ele>161.2</ele>
        <time>2024-04-07T09:40:15Z</time>
      </trkpt>
      <trkpt lat="44.79067" lon="0.83357">
        <ele>160.7</ele>
        <time>2024-04-07T09:40:17Z</time>
      </trkpt>
      <trkpt lat="44.79072" lon="0.83355">
        <ele>160.5</ele>
        <time>2024-04-07T09:40:18Z</time>
      </trkpt>
      <trkpt lat="44.79077" lon="0.83355">
        <ele>160.3</ele>
        <time>2024-04-07T09:40:19Z</time>
      </trkpt>
      <trkpt lat="44.79087" lon="0.83354">
        <ele>159.5</ele>
        <time>2024-04-07T09:40:21Z</time>
      </trkpt>
      <trkpt lat="44.79094" lon="0.83353">
        <ele>159</ele>
        <time>2024-04-07T09:40:22Z</time>
      </trkpt>
      <trkpt lat="44.791" lon="0.83352">
        <ele>158.3</ele>
        <time>2024-04-07T09:40:23Z</time>
      </trkpt>
      <trkpt lat="44.79115" lon="0.83355">
        <ele>156.7</ele>
        <time>2024-04-07T09:40:25Z</time>
      </trkpt>
      <trkpt lat="44.79122" lon="0.8336">
        <ele>155.9</ele>
        <time>2024-04-07T09:40:26Z</time>
      </trkpt>
      <trkpt lat="44.79127" lon="0.83367">
        <ele>155.2</ele>
        <time>2024-04-07T09:40:27Z</time>
      </trkpt>
      <trkpt lat="44.79136" lon="0.83383">
        <ele>154.1</ele>
        <time>2024-04-07T09:40:29Z</time>
      </trkpt>
      <trkpt lat="44.7915" lon="0.83381">
        <ele>152.9</ele>
        <time>2024-04-07T09:40:31Z</time>
      </trkpt>
      <trkpt lat="44.79156" lon="0.83375">
        <ele>152.2</ele>
        <time>2024-04-07T09:40:32Z</time>
      </trkpt>
      <trkpt lat="44.79163" lon="0.83369">
        <ele>151.5</ele>
        <time>2024-04-07T09:40:33Z</time>
      </trkpt>
      <trkpt lat="44.79169" lon="0.83363">
        <ele>150.6</ele>
        <time>2024-04-07T09:40:34Z</time>
      </trkpt>
      <trkpt lat="44.79176" lon="0.83357">
        <ele>149.8</ele>
        <time>2024-04-07T09:40:35Z</time>
      </trkpt>
      <trkpt lat="44.79183" lon="0.8335">
        <ele>148.8</ele>
        <time>2024-04-07T09:40:36Z</time>
      </trkpt>
      <trkpt lat="44.79191" lon="0.83345">
        <ele>147.9</ele>
        <time>2024-04-07T09:40:37Z</time>
      </trkpt>
      <trkpt lat="44.79198" lon="0.83338">
        <ele>147</ele>
        <time>2024-04-07T09:40:38Z</time>
      </trkpt>
      <trkpt lat="44.79205" lon="0.83332">
        <ele>146.1</ele>
        <time>2024-04-07T09:40:39Z</time>
      </trkpt>
      <trkpt lat="44.79212" lon="0.83327">
        <ele>145.2</ele>
        <time>2024-04-07T09:40:40Z</time>
      </trkpt>
      <trkpt lat="44.7922" lon="0.83324">
        <ele>144.3</ele>
        <time>2024-04-07T09:40:41Z</time>
      </trkpt>
      <trkpt lat="44.79229" lon="0.83321">
        <ele>143.3</ele>
        <time>2024-04-07T09:40:42Z</time>
      </trkpt>
      <trkpt lat="44.79237" lon="0.83318">
        <ele>142.2</ele>
        <time>2024-04-07T09:40:43Z</time>
      </trkpt>
      <trkpt lat="44.79254" lon="0.83314">
        <ele>140.5</ele>
        <time>2024-04-07T09:40:45Z</time>
      </trkpt>
      <trkpt lat="44.79268" lon="0.83318">
        <ele>139.4</ele>
        <time>2024-04-07T09:40:47Z</time>
      </trkpt>
      <trkpt lat="44.79274" lon="0.83319">
        <ele>138.8</ele>
        <time>2024-04-07T09:40:48Z</time>
      </trkpt>
      <trkpt lat="44.79281" lon="0.83319">
        <ele>138.2</ele>
        <time>2024-04-07T09:40:49Z</time>
      </trkpt>
      <trkpt lat="44.79288" lon="0.83318">
        <ele>137.5</ele>
        <time>2024-04-07T09:40:50Z</time>
      </trkpt>
      <trkpt lat="44.79294" lon="0.83314">
        <ele>137</ele>
        <time>2024-04-07T09:40:51Z</time>
      </trkpt>
      <trkpt lat="44.79305" lon="0.83303">
        <ele>136</ele>
        <time>2024-04-07T09:40:53Z</time>
      </trkpt>
      <trkpt lat="44.79309" lon="0.83299">
        <ele>135.8</ele>
        <time>2024-04-07T09:40:54Z</time>
      </trkpt>
      <trkpt lat="44.79314" lon="0.83296">
        <ele>136.1</ele>
        <time>2024-04-07T09:40:55Z</time>
      </trkpt>
      <trkpt lat="44.7932" lon="0.83293">
        <ele>136.4</ele>
        <time>2024-04-07T09:40:57Z</time>
      </trkpt>
      <trkpt lat="44.79328" lon="0.83292">
        <ele>137</ele>
        <time>2024-04-07T09:40:59Z</time>
      </trkpt>
      <trkpt lat="44.79334" lon="0.83289">
        <ele>137.6</ele>
        <time>2024-04-07T09:41:01Z</time>
      </trkpt>
      <trkpt lat="44.79335" lon="0.83286">
        <ele>137.9</ele>
        <time>2024-04-07T09:41:03Z</time>
      </trkpt>
      <trkpt lat="44.79335" lon="0.83286">
        <ele>137.9</ele>
        <time>2024-04-07T09:41:04Z</time>
      </trkpt>
      <trkpt lat="44.79439" lon="0.83242">
        <ele>149.9</ele>
        <time>2024-04-07T09:42:20Z</time>
      </trkpt>
      <trkpt lat="44.7944" lon="0.83242">
        <ele>150</ele>
        <time>2024-04-07T09:42:21Z</time>
      </trkpt>
      <trkpt lat="44.79446" lon="0.83241">
        <ele>150.2</ele>
        <time>2024-04-07T09:42:23Z</time>
      </trkpt>
      <trkpt lat="44.79449" lon="0.83239">
        <ele>150.3</ele>
        <time>2024-04-07T09:42:25Z</time>
      </trkpt>
      <trkpt lat="44.79453" lon="0.83238">
        <ele>150.5</ele>
        <time>2024-04-07T09:42:27Z</time>
      </trkpt>
      <trkpt lat="44.79457" lon="0.83237">
        <ele>150.6</ele>
        <time>2024-04-07T09:42:29Z</time>
      </trkpt>
      <trkpt lat="44.79461" lon="0.83237">
        <ele>150.8</ele>
        <time>2024-04-07T09:42:31Z</time>
      </trkpt>
      <trkpt lat="44.79464" lon="0.83236">
        <ele>150.9</ele>
        <time>2024-04-07T09:42:32Z</time>
      </trkpt>
      <trkpt lat="44.79464" lon="0.83235">
        <ele>151</ele>
        <time>2024-04-07T09:42:33Z</time>
      </trkpt>
      <trkpt lat="44.7947" lon="0.83235">
        <ele>151.3</ele>
        <time>2024-04-07T09:42:35Z</time>
      </trkpt>
      <trkpt lat="44.7947" lon="0.83235">
        <ele>151.3</ele>
        <time>2024-04-07T09:42:36Z</time>
      </trkpt>
      <trkpt lat="44.79479" lon="0.83232">
        <ele>151.7</ele>
        <time>2024-04-07T09:42:40Z</time>
      </trkpt>
      <trkpt lat="44.79482" lon="0.83232">
        <ele>151.9</ele>
        <time>2024-04-07T09:42:41Z</time>
      </trkpt>
      <trkpt lat="44.79484" lon="0.83232">
        <ele>151.9</ele>
        <time>2024-04-07T09:42:42Z</time>
      </trkpt>
      <trkpt lat="44.79485" lon="0.83232">
        <ele>152</ele>
        <time>2024-04-07T09:42:43Z</time>
      </trkpt>
      <trkpt lat="44.79487" lon="0.83231">
        <ele>152.1</ele>
        <time>2024-04-07T09:42:45Z</time>
      </trkpt>
      <trkpt lat="44.79515" lon="0.83226">
        <ele>153.1</ele>
        <time>2024-04-07T09:43:02Z</time>
      </trkpt>
      <trkpt lat="44.79517" lon="0.83226">
        <ele>153.1</ele>
        <time>2024-04-07T09:43:03Z</time>
      </trkpt>
      <trkpt lat="44.79519" lon="0.83225">
        <ele>153.1</ele>
        <time>2024-04-07T09:43:05Z</time>
      </trkpt>
      <trkpt lat="44.79523" lon="0.83224">
        <ele>153.1</ele>
        <time>2024-04-07T09:43:07Z</time>
      </trkpt>
      <trkpt lat="44.79529" lon="0.83224">
        <ele>153</ele>
        <time>2024-04-07T09:43:09Z</time>
      </trkpt>
      <trkpt lat="44.79535" lon="0.83224">
        <ele>152.9</ele>
        <time>2024-04-07T09:43:11Z</time>
      </trkpt>
      <trkpt lat="44.79543" lon="0.83225">
        <ele>152.8</ele>
        <time>2024-04-07T09:43:13Z</time>
      </trkpt>
      <trkpt lat="44.79547" lon="0.83225">
        <ele>152.7</ele>
        <time>2024-04-07T09:43:14Z</time>
      </trkpt>
      <trkpt lat="44.7955" lon="0.83225">
        <ele>152.7</ele>
        <time>2024-04-07T09:43:15Z</time>
      </trkpt>
      <trkpt lat="44.79555" lon="0.83225">
        <ele>152.6</ele>
        <time>2024-04-07T09:43:17Z</time>
      </trkpt>
      <trkpt lat="44.7956" lon="0.83226">
        <ele>152.7</ele>
        <time>2024-04-07T09:43:19Z</time>
      </trkpt>
      <trkpt lat="44.79561" lon="0.83226">
        <ele>152.7</ele>
        <time>2024-04-07T09:43:20Z</time>
      </trkpt>
      <trkpt lat="44.79563" lon="0.83227">
        <ele>152.7</ele>
        <time>2024-04-07T09:43:21Z</time>
      </trkpt>
      <trkpt lat="44.79568" lon="0.83228">
        <ele>152.8</ele>
        <time>2024-04-07T09:43:23Z</time>
      </trkpt>
      <trkpt lat="44.79573" lon="0.8323">
        <ele>153</ele>
        <time>2024-04-07T09:43:25Z</time>
      </trkpt>
      <trkpt lat="44.79576" lon="0.83231">
        <ele>153.1</ele>
        <time>2024-04-07T09:43:26Z</time>
      </trkpt>
      <trkpt lat="44.79578" lon="0.83232">
        <ele>153.1</ele>
        <time>2024-04-07T09:43:27Z</time>
      </trkpt>
      <trkpt lat="44.79582" lon="0.83233">
        <ele>153.3</ele>
        <time>2024-04-07T09:43:28Z</time>
      </trkpt>
      <trkpt lat="44.79585" lon="0.83234">
        <ele>153.4</ele>
        <time>2024-04-07T09:43:29Z</time>
      </trkpt>
      <trkpt lat="44.7959" lon="0.83238">
        <ele>153.7</ele>
        <time>2024-04-07T09:43:31Z</time>
      </trkpt>
      <trkpt lat="44.79596" lon="0.83242">
        <ele>154.2</ele>
        <time>2024-04-07T09:43:33Z</time>
      </trkpt>
      <trkpt lat="44.79602" lon="0.83245">
        <ele>154.6</ele>
        <time>2024-04-07T09:43:35Z</time>
      </trkpt>
      <trkpt lat="44.79608" lon="0.83248">
        <ele>155</ele>
        <time>2024-04-07T09:43:37Z</time>
      </trkpt>
      <trkpt lat="44.79615" lon="0.83252">
        <ele>155.3</ele>
        <time>2024-04-07T09:43:39Z</time>
      </trkpt>
      <trkpt lat="44.79617" lon="0.83253">
        <ele>155.4</ele>
        <time>2024-04-07T09:43:40Z</time>
      </trkpt>
      <trkpt lat="44.79621" lon="0.83255">
        <ele>155.4</ele>
        <time>2024-04-07T09:43:41Z</time>
      </trkpt>
      <trkpt lat="44.79628" lon="0.8326">
        <ele>155.4</ele>
        <time>2024-04-07T09:43:43Z</time>
      </trkpt>
      <trkpt lat="44.79632" lon="0.83262">
        <ele>155.3</ele>
        <time>2024-04-07T09:43:44Z</time>
      </trkpt>
      <trkpt lat="44.79636" lon="0.83265">
        <ele>155.1</ele>
        <time>2024-04-07T09:43:45Z</time>
      </trkpt>
      <trkpt lat="44.79642" lon="0.83269">
        <ele>154.9</ele>
        <time>2024-04-07T09:43:47Z</time>
      </trkpt>
      <trkpt lat="44.79647" lon="0.83272">
        <ele>154.7</ele>
        <time>2024-04-07T09:43:49Z</time>
      </trkpt>
      <trkpt lat="44.79649" lon="0.83272">
        <ele>154.7</ele>
        <time>2024-04-07T09:43:50Z</time>
      </trkpt>
      <trkpt lat="44.7965" lon="0.83272">
        <ele>154.6</ele>
        <time>2024-04-07T09:43:51Z</time>
      </trkpt>
      <trkpt lat="44.79651" lon="0.83273">
        <ele>154.6</ele>
        <time>2024-04-07T09:43:52Z</time>
      </trkpt>
      <trkpt lat="44.7966" lon="0.83279">
        <ele>154.5</ele>
        <time>2024-04-07T09:44:03Z</time>
      </trkpt>
      <trkpt lat="44.79662" lon="0.8328">
        <ele>154.5</ele>
        <time>2024-04-07T09:44:04Z</time>
      </trkpt>
      <trkpt lat="44.79665" lon="0.83281">
        <ele>154.5</ele>
        <time>2024-04-07T09:44:05Z</time>
      </trkpt>
      <trkpt lat="44.79668" lon="0.83283">
        <ele>154.5</ele>
        <time>2024-04-07T09:44:07Z</time>
      </trkpt>
      <trkpt lat="44.79669" lon="0.83284">
        <ele>154.5</ele>
        <time>2024-04-07T09:44:08Z</time>
      </trkpt>
      <trkpt lat="44.7967" lon="0.83284">
        <ele>154.5</ele>
        <time>2024-04-07T09:44:09Z</time>
      </trkpt>
      <trkpt lat="44.79676" lon="0.83287">
        <ele>154.5</ele>
        <time>2024-04-07T09:44:11Z</time>
      </trkpt>
      <trkpt lat="44.79685" lon="0.83288">
        <ele>154.5</ele>
        <time>2024-04-07T09:44:13Z</time>
      </trkpt>
      <trkpt lat="44.79691" lon="0.83288">
        <ele>154.5</ele>
        <time>2024-04-07T09:44:15Z</time>
      </trkpt>
      <trkpt lat="44.79693" lon="0.83289">
        <ele>154.5</ele>
        <time>2024-04-07T09:44:17Z</time>
      </trkpt>
      <trkpt lat="44.79695" lon="0.83289">
        <ele>154.5</ele>
        <time>2024-04-07T09:44:19Z</time>
      </trkpt>
      <trkpt lat="44.79695" lon="0.83289">
        <ele>154.5</ele>
        <time>2024-04-07T09:44:20Z</time>
      </trkpt>
      <trkpt lat="44.79709" lon="0.8329">
        <ele>155.2</ele>
        <time>2024-04-07T09:44:27Z</time>
      </trkpt>
      <trkpt lat="44.79711" lon="0.83289">
        <ele>155.4</ele>
        <time>2024-04-07T09:44:29Z</time>
      </trkpt>
      <trkpt lat="44.79714" lon="0.83288">
        <ele>155.6</ele>
        <time>2024-04-07T09:44:31Z</time>
      </trkpt>
      <trkpt lat="44.79718" lon="0.83286">
        <ele>155.9</ele>
        <time>2024-04-07T09:44:33Z</time>
      </trkpt>
      <trkpt lat="44.79721" lon="0.83284">
        <ele>156.2</ele>
        <time>2024-04-07T09:44:35Z</time>
      </trkpt>
      <trkpt lat="44.79723" lon="0.83283">
        <ele>156.3</ele>
        <time>2024-04-07T09:44:36Z</time>
      </trkpt>
      <trkpt lat="44.79723" lon="0.83282">
        <ele>156.3</ele>
        <time>2024-04-07T09:44:37Z</time>
      </trkpt>
      <trkpt lat="44.79723" lon="0.8328">
        <ele>156.4</ele>
        <time>2024-04-07T09:44:38Z</time>
      </trkpt>
      <trkpt lat="44.79723" lon="0.83279">
        <ele>156.5</ele>
        <time>2024-04-07T09:44:39Z</time>
      </trkpt>
      <trkpt lat="44.79723" lon="0.83276">
        <ele>156.6</ele>
        <time>2024-04-07T09:44:40Z</time>
      </trkpt>
      <trkpt lat="44.79725" lon="0.83274">
        <ele>156.8</ele>
        <time>2024-04-07T09:44:41Z</time>
      </trkpt>
      <trkpt lat="44.79728" lon="0.83272">
        <ele>157</ele>
        <time>2024-04-07T09:44:43Z</time>
      </trkpt>
      <trkpt lat="44.79731" lon="0.8327">
        <ele>157.2</ele>
        <time>2024-04-07T09:44:45Z</time>
      </trkpt>
      <trkpt lat="44.79733" lon="0.83269">
        <ele>157.4</ele>
        <time>2024-04-07T09:44:46Z</time>
      </trkpt>
      <trkpt lat="44.79734" lon="0.83268">
        <ele>157.4</ele>
        <time>2024-04-07T09:44:47Z</time>
      </trkpt>
      <trkpt lat="44.79734" lon="0.83268">
        <ele>157.4</ele>
        <time>2024-04-07T09:44:48Z</time>
      </trkpt>
      <trkpt lat="44.79824" lon="0.83249">
        <ele>169.1</ele>
        <time>2024-04-07T09:45:43Z</time>
      </trkpt>
      <trkpt lat="44.79825" lon="0.83248">
        <ele>169.2</ele>
        <time>2024-04-07T09:45:44Z</time>
      </trkpt>
      <trkpt lat="44.79826" lon="0.83246">
        <ele>169.3</ele>
        <time>2024-04-07T09:45:45Z</time>
      </trkpt>
      <trkpt lat="44.79827" lon="0.83245">
        <ele>169.5</ele>
        <time>2024-04-07T09:45:46Z</time>
      </trkpt>
      <trkpt lat="44.79828" lon="0.83244">
        <ele>169.6</ele>
        <time>2024-04-07T09:45:47Z</time>
      </trkpt>
      <trkpt lat="44.79829" lon="0.83242">
        <ele>169.8</ele>
        <time>2024-04-07T09:45:48Z</time>
      </trkpt>
      <trkpt lat="44.79831" lon="0.83242">
        <ele>169.9</ele>
        <time>2024-04-07T09:45:49Z</time>
      </trkpt>
      <trkpt lat="44.79834" lon="0.8324">
        <ele>170.2</ele>
        <time>2024-04-07T09:45:51Z</time>
      </trkpt>
      <trkpt lat="44.79836" lon="0.83239">
        <ele>170.4</ele>
        <time>2024-04-07T09:45:52Z</time>
      </trkpt>
      <trkpt lat="44.79837" lon="0.83237">
        <ele>170.5</ele>
        <time>2024-04-07T09:45:53Z</time>
      </trkpt>
      <trkpt lat="44.79839" lon="0.83235">
        <ele>170.8</ele>
        <time>2024-04-07T09:45:55Z</time>
      </trkpt>
      <trkpt lat="44.79842" lon="0.83232">
        <ele>171</ele>
        <time>2024-04-07T09:45:57Z</time>
      </trkpt>
      <trkpt lat="44.79844" lon="0.83231">
        <ele>171.2</ele>
        <time>2024-04-07T09:45:59Z</time>
      </trkpt>
      <trkpt lat="44.79845" lon="0.83229">
        <ele>171.4</ele>
        <time>2024-04-07T09:46:01Z</time>
      </trkpt>
      <trkpt lat="44.79848" lon="0.83227">
        <ele>171.6</ele>
        <time>2024-04-07T09:46:03Z</time>
      </trkpt>
      <trkpt lat="44.7985" lon="0.83226">
        <ele>171.7</ele>
        <time>2024-04-07T09:46:04Z</time>
      </trkpt>
      <trkpt lat="44.79851" lon="0.83226">
        <ele>171.8</ele>
        <time>2024-04-07T09:46:05Z</time>
      </trkpt>
      <trkpt lat="44.79854" lon="0.83224">
        <ele>172</ele>
        <time>2024-04-07T09:46:07Z</time>
      </trkpt>
      <trkpt lat="44.79857" lon="0.83221">
        <ele>172.2</ele>
        <time>2024-04-07T09:46:09Z</time>
      </trkpt>
      <trkpt lat="44.79861" lon="0.83219">
        <ele>172.4</ele>
        <time>2024-04-07T09:46:11Z</time>
      </trkpt>
      <trkpt lat="44.79865" lon="0.83217">
        <ele>172.6</ele>
        <time>2024-04-07T09:46:13Z</time>
      </trkpt>
      <trkpt lat="44.79867" lon="0.83215">
        <ele>172.7</ele>
        <time>2024-04-07T09:46:14Z</time>
      </trkpt>
      <trkpt lat="44.79869" lon="0.83214">
        <ele>172.7</ele>
        <time>2024-04-07T09:46:15Z</time>
      </trkpt>
      <trkpt lat="44.79873" lon="0.83212">
        <ele>172.9</ele>
        <time>2024-04-07T09:46:17Z</time>
      </trkpt>
      <trkpt lat="44.79877" lon="0.83209">
        <ele>173.1</ele>
        <time>2024-04-07T09:46:19Z</time>
      </trkpt>
      <trkpt lat="44.79879" lon="0.83208">
        <ele>173.2</ele>
        <time>2024-04-07T09:46:20Z</time>
      </trkpt>
      <trkpt lat="44.7988" lon="0.83208">
        <ele>173.2</ele>
        <time>2024-04-07T09:46:21Z</time>
      </trkpt>
      <trkpt lat="44.79883" lon="0.83205">
        <ele>173.4</ele>
        <time>2024-04-07T09:46:23Z</time>
      </trkpt>
      <trkpt lat="44.79886" lon="0.83202">
        <ele>173.6</ele>
        <time>2024-04-07T09:46:25Z</time>
      </trkpt>
      <trkpt lat="44.79888" lon="0.83198">
        <ele>173.7</ele>
        <time>2024-04-07T09:46:27Z</time>
      </trkpt>
      <trkpt lat="44.79891" lon="0.83193">
        <ele>173.9</ele>
        <time>2024-04-07T09:46:29Z</time>
      </trkpt>
      <trkpt lat="44.79893" lon="0.83188">
        <ele>174.2</ele>
        <time>2024-04-07T09:46:31Z</time>
      </trkpt>
      <trkpt lat="44.79894" lon="0.83186">
        <ele>174.3</ele>
        <time>2024-04-07T09:46:32Z</time>
      </trkpt>
      <trkpt lat="44.79895" lon="0.83184">
        <ele>174.4</ele>
        <time>2024-04-07T09:46:33Z</time>
      </trkpt>
      <trkpt lat="44.79897" lon="0.83181">
        <ele>174.6</ele>
        <time>2024-04-07T09:46:35Z</time>
      </trkpt>
      <trkpt lat="44.79898" lon="0.83176">
        <ele>174.8</ele>
        <time>2024-04-07T09:46:37Z</time>
      </trkpt>
      <trkpt lat="44.799" lon="0.83174">
        <ele>174.9</ele>
        <time>2024-04-07T09:46:38Z</time>
      </trkpt>
      <trkpt lat="44.79901" lon="0.83172">
        <ele>175</ele>
        <time>2024-04-07T09:46:39Z</time>
      </trkpt>
      <trkpt lat="44.79905" lon="0.83168">
        <ele>175.3</ele>
        <time>2024-04-07T09:46:41Z</time>
      </trkpt>
      <trkpt lat="44.79907" lon="0.83164">
        <ele>175.5</ele>
        <time>2024-04-07T09:46:42Z</time>
      </trkpt>
      <trkpt lat="44.79908" lon="0.83162">
        <ele>175.7</ele>
        <time>2024-04-07T09:46:43Z</time>
      </trkpt>
      <trkpt lat="44.79909" lon="0.83159">
        <ele>175.8</ele>
        <time>2024-04-07T09:46:44Z</time>
      </trkpt>
      <trkpt lat="44.7991" lon="0.83156">
        <ele>175.9</ele>
        <time>2024-04-07T09:46:45Z</time>
      </trkpt>
      <trkpt lat="44.7991" lon="0.83154">
        <ele>176</ele>
        <time>2024-04-07T09:46:46Z</time>
      </trkpt>
      <trkpt lat="44.79911" lon="0.83151">
        <ele>176.1</ele>
        <time>2024-04-07T09:46:47Z</time>
      </trkpt>
      <trkpt lat="44.79913" lon="0.83149">
        <ele>176.3</ele>
        <time>2024-04-07T09:46:48Z</time>
      </trkpt>
      <trkpt lat="44.79915" lon="0.83146">
        <ele>176.4</ele>
        <time>2024-04-07T09:46:49Z</time>
      </trkpt>
      <trkpt lat="44.7992" lon="0.83142">
        <ele>176.7</ele>
        <time>2024-04-07T09:46:51Z</time>
      </trkpt>
      <trkpt lat="44.79924" lon="0.83138">
        <ele>176.9</ele>
        <time>2024-04-07T09:46:53Z</time>
      </trkpt>
      <trkpt lat="44.79926" lon="0.83135">
        <ele>177</ele>
        <time>2024-04-07T09:46:54Z</time>
      </trkpt>
      <trkpt lat="44.79928" lon="0.83134">
        <ele>177.1</ele>
        <time>2024-04-07T09:46:55Z</time>
      </trkpt>
      <trkpt lat="44.79932" lon="0.8313">
        <ele>177.3</ele>
        <time>2024-04-07T09:46:57Z</time>
      </trkpt>
      <trkpt lat="44.79932" lon="0.83128">
        <ele>177.4</ele>
        <time>2024-04-07T09:46:58Z</time>
      </trkpt>
      <trkpt lat="44.79934" lon="0.83126">
        <ele>177.5</ele>
        <time>2024-04-07T09:46:59Z</time>
      </trkpt>
      <trkpt lat="44.7994" lon="0.83122">
        <ele>177.8</ele>
        <time>2024-04-07T09:47:01Z</time>
      </trkpt>
      <trkpt lat="44.79947" lon="0.8312">
        <ele>178</ele>
        <time>2024-04-07T09:47:03Z</time>
      </trkpt>
      <trkpt lat="44.79953" lon="0.83119">
        <ele>178.3</ele>
        <time>2024-04-07T09:47:05Z</time>
      </trkpt>
      <trkpt lat="44.79959" lon="0.83116">
        <ele>178.7</ele>
        <time>2024-04-07T09:47:07Z</time>
      </trkpt>
      <trkpt lat="44.79965" lon="0.83115">
        <ele>179.1</ele>
        <time>2024-04-07T09:47:09Z</time>
      </trkpt>
      <trkpt lat="44.79969" lon="0.83114">
        <ele>179.4</ele>
        <time>2024-04-07T09:47:11Z</time>
      </trkpt>
      <trkpt lat="44.79973" lon="0.83113">
        <ele>179.7</ele>
        <time>2024-04-07T09:47:13Z</time>
      </trkpt>
      <trkpt lat="44.79978" lon="0.83113">
        <ele>180.1</ele>
        <time>2024-04-07T09:47:15Z</time>
      </trkpt>
      <trkpt lat="44.79984" lon="0.83112">
        <ele>180.5</ele>
        <time>2024-04-07T09:47:17Z</time>
      </trkpt>
      <trkpt lat="44.79989" lon="0.83111">
        <ele>180.8</ele>
        <time>2024-04-07T09:47:19Z</time>
      </trkpt>
      <trkpt lat="44.79993" lon="0.83111">
        <ele>181.1</ele>
        <time>2024-04-07T09:47:21Z</time>
      </trkpt>
      <trkpt lat="44.79999" lon="0.83111">
        <ele>181.5</ele>
        <time>2024-04-07T09:47:23Z</time>
      </trkpt>
      <trkpt lat="44.80005" lon="0.83109">
        <ele>181.8</ele>
        <time>2024-04-07T09:47:25Z</time>
      </trkpt>
      <trkpt lat="44.8001" lon="0.83109">
        <ele>181.9</ele>
        <time>2024-04-07T09:47:27Z</time>
      </trkpt>
      <trkpt lat="44.80013" lon="0.83109">
        <ele>182</ele>
        <time>2024-04-07T09:47:28Z</time>
      </trkpt>
      <trkpt lat="44.80018" lon="0.83109">
        <ele>182.2</ele>
        <time>2024-04-07T09:47:29Z</time>
      </trkpt>
      <trkpt lat="44.80025" lon="0.83108">
        <ele>182.4</ele>
        <time>2024-04-07T09:47:31Z</time>
      </trkpt>
      <trkpt lat="44.8003" lon="0.83107">
        <ele>182.5</ele>
        <time>2024-04-07T09:47:33Z</time>
      </trkpt>
      <trkpt lat="44.80033" lon="0.83106">
        <ele>182.5</ele>
        <time>2024-04-07T09:47:34Z</time>
      </trkpt>
      <trkpt lat="44.80035" lon="0.83106">
        <ele>182.6</ele>
        <time>2024-04-07T09:47:35Z</time>
      </trkpt>
      <trkpt lat="44.80038" lon="0.83103">
        <ele>182.6</ele>
        <time>2024-04-07T09:47:37Z</time>
      </trkpt>
      <trkpt lat="44.8004" lon="0.83102">
        <ele>182.7</ele>
        <time>2024-04-07T09:47:38Z</time>
      </trkpt>
      <trkpt lat="44.80042" lon="0.83101">
        <ele>182.7</ele>
        <time>2024-04-07T09:47:39Z</time>
      </trkpt>
      <trkpt lat="44.80047" lon="0.831">
        <ele>182.9</ele>
        <time>2024-04-07T09:47:41Z</time>
      </trkpt>
      <trkpt lat="44.80052" lon="0.83099">
        <ele>183</ele>
        <time>2024-04-07T09:47:43Z</time>
      </trkpt>
      <trkpt lat="44.80057" lon="0.83096">
        <ele>183.2</ele>
        <time>2024-04-07T09:47:45Z</time>
      </trkpt>
      <trkpt lat="44.80062" lon="0.83094">
        <ele>183.4</ele>
        <time>2024-04-07T09:47:47Z</time>
      </trkpt>
      <trkpt lat="44.80066" lon="0.83092">
        <ele>183.5</ele>
        <time>2024-04-07T09:47:49Z</time>
      </trkpt>
      <trkpt lat="44.80068" lon="0.8309">
        <ele>183.7</ele>
        <time>2024-04-07T09:47:51Z</time>
      </trkpt>
      <trkpt lat="44.8007" lon="0.83089">
        <ele>183.8</ele>
        <time>2024-04-07T09:47:53Z</time>
      </trkpt>
      <trkpt lat="44.80072" lon="0.83089">
        <ele>183.9</ele>
        <time>2024-04-07T09:47:54Z</time>
      </trkpt>
      <trkpt lat="44.80074" lon="0.83088">
        <ele>184</ele>
        <time>2024-04-07T09:47:55Z</time>
      </trkpt>
      <trkpt lat="44.80079" lon="0.83086">
        <ele>184.2</ele>
        <time>2024-04-07T09:47:57Z</time>
      </trkpt>
      <trkpt lat="44.80084" lon="0.83085">
        <ele>184.5</ele>
        <time>2024-04-07T09:47:59Z</time>
      </trkpt>
      <trkpt lat="44.80087" lon="0.83081">
        <ele>184.7</ele>
        <time>2024-04-07T09:48:01Z</time>
      </trkpt>
      <trkpt lat="44.8009" lon="0.8308">
        <ele>184.9</ele>
        <time>2024-04-07T09:48:03Z</time>
      </trkpt>
      <trkpt lat="44.80092" lon="0.83079">
        <ele>185</ele>
        <time>2024-04-07T09:48:04Z</time>
      </trkpt>
      <trkpt lat="44.80095" lon="0.83078">
        <ele>185.2</ele>
        <time>2024-04-07T09:48:05Z</time>
      </trkpt>
      <trkpt lat="44.80099" lon="0.83076">
        <ele>185.6</ele>
        <time>2024-04-07T09:48:07Z</time>
      </trkpt>
      <trkpt lat="44.80104" lon="0.83075">
        <ele>185.9</ele>
        <time>2024-04-07T09:48:09Z</time>
      </trkpt>
      <trkpt lat="44.8011" lon="0.83074">
        <ele>186.4</ele>
        <time>2024-04-07T09:48:11Z</time>
      </trkpt>
      <trkpt lat="44.80114" lon="0.83073">
        <ele>186.8</ele>
        <time>2024-04-07T09:48:13Z</time>
      </trkpt>
      <trkpt lat="44.80117" lon="0.83073">
        <ele>187</ele>
        <time>2024-04-07T09:48:14Z</time>
      </trkpt>
      <trkpt lat="44.80119" lon="0.83073">
        <ele>187.2</ele>
        <time>2024-04-07T09:48:15Z</time>
      </trkpt>
      <trkpt lat="44.80124" lon="0.83072">
        <ele>187.6</ele>
        <time>2024-04-07T09:48:17Z</time>
      </trkpt>
      <trkpt lat="44.80127" lon="0.83071">
        <ele>187.9</ele>
        <time>2024-04-07T09:48:19Z</time>
      </trkpt>
      <trkpt lat="44.8013" lon="0.83069">
        <ele>188.2</ele>
        <time>2024-04-07T09:48:21Z</time>
      </trkpt>
      <trkpt lat="44.80135" lon="0.83066">
        <ele>188.7</ele>
        <time>2024-04-07T09:48:23Z</time>
      </trkpt>
      <trkpt lat="44.80139" lon="0.83065">
        <ele>189.2</ele>
        <time>2024-04-07T09:48:25Z</time>
      </trkpt>
      <trkpt lat="44.80145" lon="0.83064">
        <ele>189.8</ele>
        <time>2024-04-07T09:48:27Z</time>
      </trkpt>
      <trkpt lat="44.80153" lon="0.83063">
        <ele>190.7</ele>
        <time>2024-04-07T09:48:29Z</time>
      </trkpt>
      <trkpt lat="44.80159" lon="0.83062">
        <ele>191.5</ele>
        <time>2024-04-07T09:48:31Z</time>
      </trkpt>
      <trkpt lat="44.80163" lon="0.83061">
        <ele>192.1</ele>
        <time>2024-04-07T09:48:33Z</time>
      </trkpt>
      <trkpt lat="44.80168" lon="0.83059">
        <ele>192.7</ele>
        <time>2024-04-07T09:48:35Z</time>
      </trkpt>
      <trkpt lat="44.80172" lon="0.83057">
        <ele>193.2</ele>
        <time>2024-04-07T09:48:37Z</time>
      </trkpt>
      <trkpt lat="44.80174" lon="0.83056">
        <ele>193.5</ele>
        <time>2024-04-07T09:48:38Z</time>
      </trkpt>
      <trkpt lat="44.80175" lon="0.83054">
        <ele>193.8</ele>
        <time>2024-04-07T09:48:39Z</time>
      </trkpt>
      <trkpt lat="44.80179" lon="0.83051">
        <ele>194.3</ele>
        <time>2024-04-07T09:48:41Z</time>
      </trkpt>
      <trkpt lat="44.80183" lon="0.83049">
        <ele>194.7</ele>
        <time>2024-04-07T09:48:43Z</time>
      </trkpt>
      <trkpt lat="44.80186" lon="0.83046">
        <ele>195.2</ele>
        <time>2024-04-07T09:48:45Z</time>
      </trkpt>
      <trkpt lat="44.80188" lon="0.83045">
        <ele>195.4</ele>
        <time>2024-04-07T09:48:46Z</time>
      </trkpt>
      <trkpt lat="44.80189" lon="0.83043">
        <ele>195.7</ele>
        <time>2024-04-07T09:48:47Z</time>
      </trkpt>
      <trkpt lat="44.80193" lon="0.8304">
        <ele>196.1</ele>
        <time>2024-04-07T09:48:49Z</time>
      </trkpt>
      <trkpt lat="44.80196" lon="0.83038">
        <ele>196.5</ele>
        <time>2024-04-07T09:48:51Z</time>
      </trkpt>
      <trkpt lat="44.80198" lon="0.83035">
        <ele>196.9</ele>
        <time>2024-04-07T09:48:53Z</time>
      </trkpt>
      <trkpt lat="44.80199" lon="0.83034">
        <ele>197</ele>
        <time>2024-04-07T09:48:54Z</time>
      </trkpt>
      <trkpt lat="44.80201" lon="0.83033">
        <ele>197.2</ele>
        <time>2024-04-07T09:48:55Z</time>
      </trkpt>
      <trkpt lat="44.80204" lon="0.8303">
        <ele>197.6</ele>
        <time>2024-04-07T09:48:57Z</time>
      </trkpt>
      <trkpt lat="44.80207" lon="0.83027">
        <ele>198</ele>
        <time>2024-04-07T09:48:59Z</time>
      </trkpt>
      <trkpt lat="44.80208" lon="0.83026">
        <ele>198.2</ele>
        <time>2024-04-07T09:49:00Z</time>
      </trkpt>
      <trkpt lat="44.8021" lon="0.83024">
        <ele>198.4</ele>
        <time>2024-04-07T09:49:01Z</time>
      </trkpt>
      <trkpt lat="44.80212" lon="0.83021">
        <ele>198.8</ele>
        <time>2024-04-07T09:49:03Z</time>
      </trkpt>
      <trkpt lat="44.80215" lon="0.83018">
        <ele>199.2</ele>
        <time>2024-04-07T09:49:05Z</time>
      </trkpt>
      <trkpt lat="44.80218" lon="0.83015">
        <ele>199.6</ele>
        <time>2024-04-07T09:49:07Z</time>
      </trkpt>
      <trkpt lat="44.80222" lon="0.83013">
        <ele>200</ele>
        <time>2024-04-07T09:49:09Z</time>
      </trkpt>
      <trkpt lat="44.80225" lon="0.8301">
        <ele>200.4</ele>
        <time>2024-04-07T09:49:11Z</time>
      </trkpt>
      <trkpt lat="44.80229" lon="0.83008">
        <ele>200.8</ele>
        <time>2024-04-07T09:49:13Z</time>
      </trkpt>
      <trkpt lat="44.8023" lon="0.83008">
        <ele>200.9</ele>
        <time>2024-04-07T09:49:14Z</time>
      </trkpt>
      <trkpt lat="44.80232" lon="0.83008">
        <ele>201</ele>
        <time>2024-04-07T09:49:15Z</time>
      </trkpt>
      <trkpt lat="44.80235" lon="0.83007">
        <ele>201.3</ele>
        <time>2024-04-07T09:49:17Z</time>
      </trkpt>
      <trkpt lat="44.80238" lon="0.83005">
        <ele>201.5</ele>
        <time>2024-04-07T09:49:19Z</time>
      </trkpt>
      <trkpt lat="44.80239" lon="0.83005">
        <ele>201.7</ele>
        <time>2024-04-07T09:49:20Z</time>
      </trkpt>
      <trkpt lat="44.80241" lon="0.83005">
        <ele>201.8</ele>
        <time>2024-04-07T09:49:21Z</time>
      </trkpt>
      <trkpt lat="44.80245" lon="0.83004">
        <ele>202.1</ele>
        <time>2024-04-07T09:49:23Z</time>
      </trkpt>
      <trkpt lat="44.8025" lon="0.83003">
        <ele>202.4</ele>
        <time>2024-04-07T09:49:25Z</time>
      </trkpt>
      <trkpt lat="44.80255" lon="0.83002">
        <ele>202.7</ele>
        <time>2024-04-07T09:49:27Z</time>
      </trkpt>
      <trkpt lat="44.80259" lon="0.83002">
        <ele>202.8</ele>
        <time>2024-04-07T09:49:29Z</time>
      </trkpt>
      <trkpt lat="44.80263" lon="0.83002">
        <ele>203</ele>
        <time>2024-04-07T09:49:31Z</time>
      </trkpt>
      <trkpt lat="44.80267" lon="0.83002">
        <ele>203.2</ele>
        <time>2024-04-07T09:49:33Z</time>
      </trkpt>
      <trkpt lat="44.80271" lon="0.83002">
        <ele>203.4</ele>
        <time>2024-04-07T09:49:35Z</time>
      </trkpt>
      <trkpt lat="44.80274" lon="0.83001">
        <ele>203.6</ele>
        <time>2024-04-07T09:49:37Z</time>
      </trkpt>
      <trkpt lat="44.80278" lon="0.83001">
        <ele>203.8</ele>
        <time>2024-04-07T09:49:39Z</time>
      </trkpt>
      <trkpt lat="44.80282" lon="0.83">
        <ele>204</ele>
        <time>2024-04-07T09:49:41Z</time>
      </trkpt>
      <trkpt lat="44.80284" lon="0.82999">
        <ele>204.1</ele>
        <time>2024-04-07T09:49:42Z</time>
      </trkpt>
      <trkpt lat="44.80285" lon="0.82998">
        <ele>204.2</ele>
        <time>2024-04-07T09:49:43Z</time>
      </trkpt>
      <trkpt lat="44.80286" lon="0.82993">
        <ele>204.3</ele>
        <time>2024-04-07T09:49:45Z</time>
      </trkpt>
      <trkpt lat="44.80287" lon="0.82991">
        <ele>204.3</ele>
        <time>2024-04-07T09:49:46Z</time>
      </trkpt>
      <trkpt lat="44.80287" lon="0.82988">
        <ele>204.3</ele>
        <time>2024-04-07T09:49:47Z</time>
      </trkpt>
      <trkpt lat="44.80285" lon="0.82982">
        <ele>204.3</ele>
        <time>2024-04-07T09:49:49Z</time>
      </trkpt>
      <trkpt lat="44.80284" lon="0.82976">
        <ele>204.4</ele>
        <time>2024-04-07T09:49:51Z</time>
      </trkpt>
      <trkpt lat="44.80282" lon="0.8297">
        <ele>204.4</ele>
        <time>2024-04-07T09:49:53Z</time>
      </trkpt>
      <trkpt lat="44.80281" lon="0.82964">
        <ele>204.4</ele>
        <time>2024-04-07T09:49:55Z</time>
      </trkpt>
      <trkpt lat="44.8028" lon="0.82957">
        <ele>204.4</ele>
        <time>2024-04-07T09:49:57Z</time>
      </trkpt>
      <trkpt lat="44.80279" lon="0.8295">
        <ele>204.5</ele>
        <time>2024-04-07T09:49:59Z</time>
      </trkpt>
      <trkpt lat="44.80277" lon="0.82943">
        <ele>204.5</ele>
        <time>2024-04-07T09:50:01Z</time>
      </trkpt>
      <trkpt lat="44.80276" lon="0.82935">
        <ele>204.5</ele>
        <time>2024-04-07T09:50:03Z</time>
      </trkpt>
      <trkpt lat="44.80274" lon="0.82927">
        <ele>204.5</ele>
        <time>2024-04-07T09:50:05Z</time>
      </trkpt>
      <trkpt lat="44.80272" lon="0.82917">
        <ele>204.6</ele>
        <time>2024-04-07T09:50:07Z</time>
      </trkpt>
      <trkpt lat="44.80271" lon="0.82907">
        <ele>204.6</ele>
        <time>2024-04-07T09:50:09Z</time>
      </trkpt>
      <trkpt lat="44.8027" lon="0.82902">
        <ele>204.6</ele>
        <time>2024-04-07T09:50:10Z</time>
      </trkpt>
      <trkpt lat="44.80269" lon="0.82897">
        <ele>204.6</ele>
        <time>2024-04-07T09:50:11Z</time>
      </trkpt>
      <trkpt lat="44.80268" lon="0.82886">
        <ele>204.5</ele>
        <time>2024-04-07T09:50:13Z</time>
      </trkpt>
      <trkpt lat="44.80268" lon="0.82875">
        <ele>204.4</ele>
        <time>2024-04-07T09:50:15Z</time>
      </trkpt>
      <trkpt lat="44.80268" lon="0.82869">
        <ele>204.3</ele>
        <time>2024-04-07T09:50:16Z</time>
      </trkpt>
      <trkpt lat="44.80268" lon="0.82863">
        <ele>204.2</ele>
        <time>2024-04-07T09:50:17Z</time>
      </trkpt>
      <trkpt lat="44.80268" lon="0.8285">
        <ele>204</ele>
        <time>2024-04-07T09:50:19Z</time>
      </trkpt>
      <trkpt lat="44.80269" lon="0.82837">
        <ele>203.8</ele>
        <time>2024-04-07T09:50:21Z</time>
      </trkpt>
      <trkpt lat="44.8027" lon="0.8283">
        <ele>203.6</ele>
        <time>2024-04-07T09:50:22Z</time>
      </trkpt>
      <trkpt lat="44.80271" lon="0.82824">
        <ele>203.5</ele>
        <time>2024-04-07T09:50:23Z</time>
      </trkpt>
      <trkpt lat="44.80273" lon="0.82811">
        <ele>203.2</ele>
        <time>2024-04-07T09:50:25Z</time>
      </trkpt>
      <trkpt lat="44.80274" lon="0.82804">
        <ele>203</ele>
        <time>2024-04-07T09:50:26Z</time>
      </trkpt>
      <trkpt lat="44.80274" lon="0.82797">
        <ele>202.8</ele>
        <time>2024-04-07T09:50:27Z</time>
      </trkpt>
      <trkpt lat="44.80275" lon="0.82781">
        <ele>202.5</ele>
        <time>2024-04-07T09:50:29Z</time>
      </trkpt>
      <trkpt lat="44.80277" lon="0.82765">
        <ele>202.1</ele>
        <time>2024-04-07T09:50:31Z</time>
      </trkpt>
      <trkpt lat="44.80278" lon="0.82757">
        <ele>201.9</ele>
        <time>2024-04-07T09:50:32Z</time>
      </trkpt>
      <trkpt lat="44.80279" lon="0.82748">
        <ele>201.8</ele>
        <time>2024-04-07T09:50:33Z</time>
      </trkpt>
      <trkpt lat="44.80282" lon="0.82732">
        <ele>201.4</ele>
        <time>2024-04-07T09:50:35Z</time>
      </trkpt>
      <trkpt lat="44.80282" lon="0.82724">
        <ele>201.3</ele>
        <time>2024-04-07T09:50:36Z</time>
      </trkpt>
      <trkpt lat="44.80283" lon="0.82716">
        <ele>201.1</ele>
        <time>2024-04-07T09:50:37Z</time>
      </trkpt>
      <trkpt lat="44.80285" lon="0.82707">
        <ele>200.9</ele>
        <time>2024-04-07T09:50:38Z</time>
      </trkpt>
      <trkpt lat="44.80286" lon="0.82699">
        <ele>200.7</ele>
        <time>2024-04-07T09:50:39Z</time>
      </trkpt>
      <trkpt lat="44.80289" lon="0.82681">
        <ele>200.3</ele>
        <time>2024-04-07T09:50:41Z</time>
      </trkpt>
      <trkpt lat="44.80293" lon="0.82665">
        <ele>199.8</ele>
        <time>2024-04-07T09:50:43Z</time>
      </trkpt>
      <trkpt lat="44.80297" lon="0.82652">
        <ele>199.5</ele>
        <time>2024-04-07T09:50:45Z</time>
      </trkpt>
      <trkpt lat="44.80301" lon="0.82642">
        <ele>199.2</ele>
        <time>2024-04-07T09:50:47Z</time>
      </trkpt>
      <trkpt lat="44.80303" lon="0.82632">
        <ele>198.9</ele>
        <time>2024-04-07T09:50:49Z</time>
      </trkpt>
      <trkpt lat="44.80307" lon="0.82621">
        <ele>198.6</ele>
        <time>2024-04-07T09:50:51Z</time>
      </trkpt>
      <trkpt lat="44.80309" lon="0.82616">
        <ele>198.5</ele>
        <time>2024-04-07T09:50:52Z</time>
      </trkpt>
      <trkpt lat="44.80312" lon="0.8261">
        <ele>198.3</ele>
        <time>2024-04-07T09:50:53Z</time>
      </trkpt>
      <trkpt lat="44.80314" lon="0.82603">
        <ele>198.1</ele>
        <time>2024-04-07T09:50:54Z</time>
      </trkpt>
      <trkpt lat="44.80317" lon="0.82596">
        <ele>197.9</ele>
        <time>2024-04-07T09:50:55Z</time>
      </trkpt>
      <trkpt lat="44.80322" lon="0.82582">
        <ele>197.5</ele>
        <time>2024-04-07T09:50:57Z</time>
      </trkpt>
      <trkpt lat="44.80326" lon="0.8257">
        <ele>197.2</ele>
        <time>2024-04-07T09:50:59Z</time>
      </trkpt>
      <trkpt lat="44.80335" lon="0.82565">
        <ele>196.3</ele>
        <time>2024-04-07T09:51:01Z</time>
      </trkpt>
      <trkpt lat="44.80347" lon="0.82563">
        <ele>194.7</ele>
        <time>2024-04-07T09:51:03Z</time>
      </trkpt>
      <trkpt lat="44.80354" lon="0.82563">
        <ele>193.7</ele>
        <time>2024-04-07T09:51:04Z</time>
      </trkpt>
      <trkpt lat="44.8036" lon="0.82563">
        <ele>192.7</ele>
        <time>2024-04-07T09:51:05Z</time>
      </trkpt>
      <trkpt lat="44.80367" lon="0.82564">
        <ele>191.5</ele>
        <time>2024-04-07T09:51:06Z</time>
      </trkpt>
      <trkpt lat="44.80374" lon="0.82564">
        <ele>190.3</ele>
        <time>2024-04-07T09:51:07Z</time>
      </trkpt>
      <trkpt lat="44.80389" lon="0.82565">
        <ele>188</ele>
        <time>2024-04-07T09:51:09Z</time>
      </trkpt>
      <trkpt lat="44.80405" lon="0.8256">
        <ele>185.5</ele>
        <time>2024-04-07T09:51:11Z</time>
      </trkpt>
      <trkpt lat="44.80422" lon="0.82552">
        <ele>182.9</ele>
        <time>2024-04-07T09:51:13Z</time>
      </trkpt>
      <trkpt lat="44.80439" lon="0.8255">
        <ele>180.3</ele>
        <time>2024-04-07T09:51:15Z</time>
      </trkpt>
      <trkpt lat="44.80457" lon="0.82555">
        <ele>178.1</ele>
        <time>2024-04-07T09:51:17Z</time>
      </trkpt>
      <trkpt lat="44.80465" lon="0.82557">
        <ele>177.1</ele>
        <time>2024-04-07T09:51:18Z</time>
      </trkpt>
      <trkpt lat="44.80472" lon="0.82556">
        <ele>176.1</ele>
        <time>2024-04-07T09:51:19Z</time>
      </trkpt>
      <trkpt lat="44.8048" lon="0.82552">
        <ele>174.9</ele>
        <time>2024-04-07T09:51:20Z</time>
      </trkpt>
      <trkpt lat="44.80487" lon="0.82546">
        <ele>174.1</ele>
        <time>2024-04-07T09:51:21Z</time>
      </trkpt>
      <trkpt lat="44.80494" lon="0.82541">
        <ele>174.1</ele>
        <time>2024-04-07T09:51:22Z</time>
      </trkpt>
      <trkpt lat="44.80499" lon="0.82535">
        <ele>174.1</ele>
        <time>2024-04-07T09:51:23Z</time>
      </trkpt>
      <trkpt lat="44.80503" lon="0.82531">
        <ele>174.1</ele>
        <time>2024-04-07T09:51:24Z</time>
      </trkpt>
      <trkpt lat="44.80507" lon="0.82528">
        <ele>174.2</ele>
        <time>2024-04-07T09:51:25Z</time>
      </trkpt>
      <trkpt lat="44.80519" lon="0.82523">
        <ele>174.1</ele>
        <time>2024-04-07T09:51:27Z</time>
      </trkpt>
      <trkpt lat="44.80532" lon="0.8252">
        <ele>173.3</ele>
        <time>2024-04-07T09:51:29Z</time>
      </trkpt>
      <trkpt lat="44.80544" lon="0.82516">
        <ele>172.4</ele>
        <time>2024-04-07T09:51:31Z</time>
      </trkpt>
      <trkpt lat="44.80557" lon="0.82511">
        <ele>171.4</ele>
        <time>2024-04-07T09:51:33Z</time>
      </trkpt>
      <trkpt lat="44.8057" lon="0.82505">
        <ele>170.1</ele>
        <time>2024-04-07T09:51:35Z</time>
      </trkpt>
      <trkpt lat="44.80577" lon="0.82502">
        <ele>169.3</ele>
        <time>2024-04-07T09:51:36Z</time>
      </trkpt>
      <trkpt lat="44.80584" lon="0.82497">
        <ele>168.3</ele>
        <time>2024-04-07T09:51:37Z</time>
      </trkpt>
      <trkpt lat="44.80593" lon="0.82494">
        <ele>167</ele>
        <time>2024-04-07T09:51:38Z</time>
      </trkpt>
      <trkpt lat="44.80602" lon="0.8249">
        <ele>165.4</ele>
        <time>2024-04-07T09:51:39Z</time>
      </trkpt>
      <trkpt lat="44.80623" lon="0.8248">
        <ele>162.1</ele>
        <time>2024-04-07T09:51:41Z</time>
      </trkpt>
      <trkpt lat="44.80633" lon="0.82474">
        <ele>161.1</ele>
        <time>2024-04-07T09:51:42Z</time>
      </trkpt>
      <trkpt lat="44.80642" lon="0.82467">
        <ele>160.6</ele>
        <time>2024-04-07T09:51:43Z</time>
      </trkpt>
      <trkpt lat="44.8065" lon="0.82457">
        <ele>160.8</ele>
        <time>2024-04-07T09:51:44Z</time>
      </trkpt>
      <trkpt lat="44.80657" lon="0.82448">
        <ele>161.3</ele>
        <time>2024-04-07T09:51:45Z</time>
      </trkpt>
      <trkpt lat="44.80663" lon="0.82439">
        <ele>161.9</ele>
        <time>2024-04-07T09:51:46Z</time>
      </trkpt>
      <trkpt lat="44.80668" lon="0.82433">
        <ele>162.3</ele>
        <time>2024-04-07T09:51:47Z</time>
      </trkpt>
      <trkpt lat="44.80671" lon="0.82432">
        <ele>162.5</ele>
        <time>2024-04-07T09:51:48Z</time>
      </trkpt>
      <trkpt lat="44.80674" lon="0.82435">
        <ele>162.6</ele>
        <time>2024-04-07T09:51:49Z</time>
      </trkpt>
      <trkpt lat="44.80675" lon="0.82438">
        <ele>162.7</ele>
        <time>2024-04-07T09:51:50Z</time>
      </trkpt>
      <trkpt lat="44.80678" lon="0.82441">
        <ele>162.7</ele>
        <time>2024-04-07T09:51:51Z</time>
      </trkpt>
      <trkpt lat="44.80682" lon="0.82449">
        <ele>162.8</ele>
        <time>2024-04-07T09:51:53Z</time>
      </trkpt>
      <trkpt lat="44.80685" lon="0.82452">
        <ele>162.8</ele>
        <time>2024-04-07T09:51:54Z</time>
      </trkpt>
      <trkpt lat="44.80687" lon="0.82456">
        <ele>162.8</ele>
        <time>2024-04-07T09:51:55Z</time>
      </trkpt>
      <trkpt lat="44.80693" lon="0.82463">
        <ele>162.8</ele>
        <time>2024-04-07T09:51:57Z</time>
      </trkpt>
      <trkpt lat="44.80697" lon="0.82466">
        <ele>162.6</ele>
        <time>2024-04-07T09:51:58Z</time>
      </trkpt>
      <trkpt lat="44.80701" lon="0.82469">
        <ele>162.5</ele>
        <time>2024-04-07T09:51:59Z</time>
      </trkpt>
      <trkpt lat="44.80706" lon="0.82473">
        <ele>162.3</ele>
        <time>2024-04-07T09:52:00Z</time>
      </trkpt>
      <trkpt lat="44.8071" lon="0.82476">
        <ele>162.1</ele>
        <time>2024-04-07T09:52:01Z</time>
      </trkpt>
      <trkpt lat="44.80714" lon="0.82479">
        <ele>162</ele>
        <time>2024-04-07T09:52:02Z</time>
      </trkpt>
      <trkpt lat="44.80718" lon="0.82483">
        <ele>161.7</ele>
        <time>2024-04-07T09:52:03Z</time>
      </trkpt>
      <trkpt lat="44.80727" lon="0.8249">
        <ele>161.3</ele>
        <time>2024-04-07T09:52:05Z</time>
      </trkpt>
      <trkpt lat="44.80732" lon="0.82493">
        <ele>161.1</ele>
        <time>2024-04-07T09:52:06Z</time>
      </trkpt>
      <trkpt lat="44.80737" lon="0.82497">
        <ele>160.9</ele>
        <time>2024-04-07T09:52:07Z</time>
      </trkpt>
      <trkpt lat="44.80742" lon="0.82501">
        <ele>160.8</ele>
        <time>2024-04-07T09:52:08Z</time>
      </trkpt>
      <trkpt lat="44.80748" lon="0.82504">
        <ele>160.6</ele>
        <time>2024-04-07T09:52:09Z</time>
      </trkpt>
      <trkpt lat="44.80759" lon="0.82511">
        <ele>160.5</ele>
        <time>2024-04-07T09:52:11Z</time>
      </trkpt>
      <trkpt lat="44.80764" lon="0.82513">
        <ele>160.4</ele>
        <time>2024-04-07T09:52:12Z</time>
      </trkpt>
      <trkpt lat="44.80768" lon="0.82513">
        <ele>160.4</ele>
        <time>2024-04-07T09:52:13Z</time>
      </trkpt>
      <trkpt lat="44.80772" lon="0.8251">
        <ele>160.4</ele>
        <time>2024-04-07T09:52:14Z</time>
      </trkpt>
      <trkpt lat="44.80774" lon="0.82507">
        <ele>160.5</ele>
        <time>2024-04-07T09:52:15Z</time>
      </trkpt>
      <trkpt lat="44.80779" lon="0.82499">
        <ele>160.6</ele>
        <time>2024-04-07T09:52:17Z</time>
      </trkpt>
      <trkpt lat="44.80784" lon="0.82492">
        <ele>160.6</ele>
        <time>2024-04-07T09:52:19Z</time>
      </trkpt>
      <trkpt lat="44.80789" lon="0.82483">
        <ele>160.5</ele>
        <time>2024-04-07T09:52:21Z</time>
      </trkpt>
      <trkpt lat="44.80791" lon="0.82479">
        <ele>160.4</ele>
        <time>2024-04-07T09:52:22Z</time>
      </trkpt>
      <trkpt lat="44.80794" lon="0.82473">
        <ele>160.1</ele>
        <time>2024-04-07T09:52:23Z</time>
      </trkpt>
      <trkpt lat="44.80798" lon="0.82467">
        <ele>159.7</ele>
        <time>2024-04-07T09:52:24Z</time>
      </trkpt>
      <trkpt lat="44.80801" lon="0.82461">
        <ele>159.2</ele>
        <time>2024-04-07T09:52:25Z</time>
      </trkpt>
      <trkpt lat="44.80808" lon="0.82448">
        <ele>158.1</ele>
        <time>2024-04-07T09:52:27Z</time>
      </trkpt>
      <trkpt lat="44.80812" lon="0.82442">
        <ele>157.6</ele>
        <time>2024-04-07T09:52:28Z</time>
      </trkpt>
      <trkpt lat="44.80815" lon="0.82435">
        <ele>157.7</ele>
        <time>2024-04-07T09:52:29Z</time>
      </trkpt>
      <trkpt lat="44.80821" lon="0.8242">
        <ele>158.1</ele>
        <time>2024-04-07T09:52:31Z</time>
      </trkpt>
      <trkpt lat="44.80824" lon="0.82412">
        <ele>158.5</ele>
        <time>2024-04-07T09:52:32Z</time>
      </trkpt>
      <trkpt lat="44.80827" lon="0.82404">
        <ele>158.8</ele>
        <time>2024-04-07T09:52:33Z</time>
      </trkpt>
      <trkpt lat="44.80832" lon="0.82395">
        <ele>159.3</ele>
        <time>2024-04-07T09:52:35Z</time>
      </trkpt>
      <trkpt lat="44.80836" lon="0.82394">
        <ele>159.5</ele>
        <time>2024-04-07T09:52:36Z</time>
      </trkpt>
      <trkpt lat="44.8084" lon="0.82395">
        <ele>159.4</ele>
        <time>2024-04-07T09:52:37Z</time>
      </trkpt>
      <trkpt lat="44.80849" lon="0.824">
        <ele>158.4</ele>
        <time>2024-04-07T09:52:39Z</time>
      </trkpt>
      <trkpt lat="44.80859" lon="0.82408">
        <ele>157.4</ele>
        <time>2024-04-07T09:52:41Z</time>
      </trkpt>
      <trkpt lat="44.80867" lon="0.82416">
        <ele>156.5</ele>
        <time>2024-04-07T09:52:43Z</time>
      </trkpt>
      <trkpt lat="44.80871" lon="0.8242">
        <ele>156.2</ele>
        <time>2024-04-07T09:52:44Z</time>
      </trkpt>
      <trkpt lat="44.80876" lon="0.82424">
        <ele>155.8</ele>
        <time>2024-04-07T09:52:45Z</time>
      </trkpt>
      <trkpt lat="44.80885" lon="0.82432">
        <ele>155.2</ele>
        <time>2024-04-07T09:52:47Z</time>
      </trkpt>
      <trkpt lat="44.80897" lon="0.82439">
        <ele>154.4</ele>
        <time>2024-04-07T09:52:49Z</time>
      </trkpt>
      <trkpt lat="44.80908" lon="0.82448">
        <ele>153.7</ele>
        <time>2024-04-07T09:52:51Z</time>
      </trkpt>
      <trkpt lat="44.80913" lon="0.82452">
        <ele>153.4</ele>
        <time>2024-04-07T09:52:52Z</time>
      </trkpt>
      <trkpt lat="44.80918" lon="0.82456">
        <ele>153.1</ele>
        <time>2024-04-07T09:52:53Z</time>
      </trkpt>
      <trkpt lat="44.80928" lon="0.82465">
        <ele>152.4</ele>
        <time>2024-04-07T09:52:55Z</time>
      </trkpt>
      <trkpt lat="44.8094" lon="0.82475">
        <ele>151.6</ele>
        <time>2024-04-07T09:52:57Z</time>
      </trkpt>
      <trkpt lat="44.80947" lon="0.8248">
        <ele>151.2</ele>
        <time>2024-04-07T09:52:58Z</time>
      </trkpt>
      <trkpt lat="44.80954" lon="0.82485">
        <ele>150.9</ele>
        <time>2024-04-07T09:52:59Z</time>
      </trkpt>
      <trkpt lat="44.80963" lon="0.82493">
        <ele>150.6</ele>
        <time>2024-04-07T09:53:01Z</time>
      </trkpt>
      <trkpt lat="44.80965" lon="0.82495">
        <ele>150.6</ele>
        <time>2024-04-07T09:53:02Z</time>
      </trkpt>
      <trkpt lat="44.80966" lon="0.82496">
        <ele>150.5</ele>
        <time>2024-04-07T09:53:03Z</time>
      </trkpt>
      <trkpt lat="44.80967" lon="0.82498">
        <ele>150.5</ele>
        <time>2024-04-07T09:53:05Z</time>
      </trkpt>
      <trkpt lat="44.80968" lon="0.82499">
        <ele>150.5</ele>
        <time>2024-04-07T09:53:06Z</time>
      </trkpt>
      <trkpt lat="44.80969" lon="0.825">
        <ele>150.5</ele>
        <time>2024-04-07T09:53:07Z</time>
      </trkpt>
      <trkpt lat="44.80971" lon="0.82502">
        <ele>150.6</ele>
        <time>2024-04-07T09:53:08Z</time>
      </trkpt>
      <trkpt lat="44.80973" lon="0.82504">
        <ele>150.7</ele>
        <time>2024-04-07T09:53:09Z</time>
      </trkpt>
      <trkpt lat="44.80977" lon="0.82506">
        <ele>150.8</ele>
        <time>2024-04-07T09:53:11Z</time>
      </trkpt>
      <trkpt lat="44.8098" lon="0.82509">
        <ele>150.9</ele>
        <time>2024-04-07T09:53:13Z</time>
      </trkpt>
      <trkpt lat="44.80985" lon="0.82507">
        <ele>151.1</ele>
        <time>2024-04-07T09:53:18Z</time>
      </trkpt>
      <trkpt lat="44.80987" lon="0.82507">
        <ele>151.2</ele>
        <time>2024-04-07T09:53:19Z</time>
      </trkpt>
      <trkpt lat="44.80985" lon="0.82506">
        <ele>151.1</ele>
        <time>2024-04-07T09:53:21Z</time>
      </trkpt>
      <trkpt lat="44.80983" lon="0.82505">
        <ele>151.1</ele>
        <time>2024-04-07T09:53:23Z</time>
      </trkpt>
      <trkpt lat="44.80981" lon="0.82505">
        <ele>151</ele>
        <time>2024-04-07T09:53:24Z</time>
      </trkpt>
      <trkpt lat="44.80981" lon="0.82505">
        <ele>151</ele>
        <time>2024-04-07T09:53:25Z</time>
      </trkpt>
      <trkpt lat="44.80978" lon="0.82506">
        <ele>150.9</ele>
        <time>2024-04-07T09:53:27Z</time>
      </trkpt>
      <trkpt lat="44.80977" lon="0.82506">
        <ele>150.9</ele>
        <time>2024-04-07T09:53:28Z</time>
      </trkpt>
      <trkpt lat="44.80975" lon="0.82505">
        <ele>150.8</ele>
        <time>2024-04-07T09:53:29Z</time>
      </trkpt>
      <trkpt lat="44.80973" lon="0.82504">
        <ele>150.7</ele>
        <time>2024-04-07T09:53:31Z</time>
      </trkpt>
      <trkpt lat="44.80973" lon="0.82502">
        <ele>150.7</ele>
        <time>2024-04-07T09:53:33Z</time>
      </trkpt>
      <trkpt lat="44.80973" lon="0.82502">
        <ele>150.7</ele>
        <time>2024-04-07T09:53:35Z</time>
      </trkpt>
      <trkpt lat="44.80972" lon="0.82504">
        <ele>150.6</ele>
        <time>2024-04-07T09:53:39Z</time>
      </trkpt>
      <trkpt lat="44.80973" lon="0.82505">
        <ele>150.6</ele>
        <time>2024-04-07T09:53:40Z</time>
      </trkpt>
      <trkpt lat="44.80973" lon="0.82505">
        <ele>150.6</ele>
        <time>2024-04-07T09:53:41Z</time>
      </trkpt>
      <trkpt lat="44.8097" lon="0.82504">
        <ele>150.5</ele>
        <time>2024-04-07T09:53:43Z</time>
      </trkpt>
      <trkpt lat="44.80971" lon="0.82503">
        <ele>150.5</ele>
        <time>2024-04-07T09:53:44Z</time>
      </trkpt>
      <trkpt lat="44.80973" lon="0.82502">
        <ele>150.6</ele>
        <time>2024-04-07T09:53:45Z</time>
      </trkpt>
      <trkpt lat="44.80974" lon="0.82499">
        <ele>150.6</ele>
        <time>2024-04-07T09:53:47Z</time>
      </trkpt>
      <trkpt lat="44.80975" lon="0.82497">
        <ele>150.6</ele>
        <time>2024-04-07T09:53:49Z</time>
      </trkpt>
      <trkpt lat="44.80976" lon="0.82494">
        <ele>150.6</ele>
        <time>2024-04-07T09:53:51Z</time>
      </trkpt>
      <trkpt lat="44.80976" lon="0.82493">
        <ele>150.6</ele>
        <time>2024-04-07T09:53:52Z</time>
      </trkpt>
      <trkpt lat="44.80977" lon="0.82491">
        <ele>150.7</ele>
        <time>2024-04-07T09:53:53Z</time>
      </trkpt>
      <trkpt lat="44.80977" lon="0.82488">
        <ele>151</ele>
        <time>2024-04-07T09:53:55Z</time>
      </trkpt>
      <trkpt lat="44.80977" lon="0.82485">
        <ele>151.2</ele>
        <time>2024-04-07T09:53:57Z</time>
      </trkpt>
      <trkpt lat="44.80977" lon="0.82482">
        <ele>151.5</ele>
        <time>2024-04-07T09:53:59Z</time>
      </trkpt>
      <trkpt lat="44.80977" lon="0.8248">
        <ele>151.7</ele>
        <time>2024-04-07T09:54:00Z</time>
      </trkpt>
      <trkpt lat="44.80978" lon="0.82479">
        <ele>151.9</ele>
        <time>2024-04-07T09:54:01Z</time>
      </trkpt>
      <trkpt lat="44.80978" lon="0.82475">
        <ele>152.2</ele>
        <time>2024-04-07T09:54:03Z</time>
      </trkpt>
      <trkpt lat="44.80978" lon="0.82469">
        <ele>152.8</ele>
        <time>2024-04-07T09:54:05Z</time>
      </trkpt>
      <trkpt lat="44.80979" lon="0.82463">
        <ele>153.4</ele>
        <time>2024-04-07T09:54:07Z</time>
      </trkpt>
      <trkpt lat="44.80978" lon="0.8246">
        <ele>153.7</ele>
        <time>2024-04-07T09:54:08Z</time>
      </trkpt>
      <trkpt lat="44.80978" lon="0.82456">
        <ele>154.1</ele>
        <time>2024-04-07T09:54:09Z</time>
      </trkpt>
      <trkpt lat="44.8098" lon="0.82451">
        <ele>154.6</ele>
        <time>2024-04-07T09:54:11Z</time>
      </trkpt>
      <trkpt lat="44.80983" lon="0.82448">
        <ele>155.1</ele>
        <time>2024-04-07T09:54:13Z</time>
      </trkpt>
      <trkpt lat="44.80984" lon="0.82447">
        <ele>155.3</ele>
        <time>2024-04-07T09:54:14Z</time>
      </trkpt>
      <trkpt lat="44.80985" lon="0.82446">
        <ele>155.4</ele>
        <time>2024-04-07T09:54:15Z</time>
      </trkpt>
      <trkpt lat="44.80987" lon="0.82443">
        <ele>155.8</ele>
        <time>2024-04-07T09:54:17Z</time>
      </trkpt>
      <trkpt lat="44.8099" lon="0.82439">
        <ele>156.4</ele>
        <time>2024-04-07T09:54:19Z</time>
      </trkpt>
      <trkpt lat="44.80993" lon="0.82436">
        <ele>156.9</ele>
        <time>2024-04-07T09:54:21Z</time>
      </trkpt>
      <trkpt lat="44.80995" lon="0.82432">
        <ele>157.4</ele>
        <time>2024-04-07T09:54:23Z</time>
      </trkpt>
      <trkpt lat="44.80996" lon="0.82428">
        <ele>157.9</ele>
        <time>2024-04-07T09:54:25Z</time>
      </trkpt>
      <trkpt lat="44.80998" lon="0.82425">
        <ele>158.3</ele>
        <time>2024-04-07T09:54:27Z</time>
      </trkpt>
      <trkpt lat="44.81" lon="0.82422">
        <ele>158.7</ele>
        <time>2024-04-07T09:54:29Z</time>
      </trkpt>
      <trkpt lat="44.81001" lon="0.82419">
        <ele>159.1</ele>
        <time>2024-04-07T09:54:31Z</time>
      </trkpt>
      <trkpt lat="44.81002" lon="0.82415">
        <ele>159.5</ele>
        <time>2024-04-07T09:54:33Z</time>
      </trkpt>
      <trkpt lat="44.81003" lon="0.82413">
        <ele>159.7</ele>
        <time>2024-04-07T09:54:34Z</time>
      </trkpt>
      <trkpt lat="44.81004" lon="0.82412">
        <ele>159.9</ele>
        <time>2024-04-07T09:54:35Z</time>
      </trkpt>
      <trkpt lat="44.81005" lon="0.82407">
        <ele>160.3</ele>
        <time>2024-04-07T09:54:37Z</time>
      </trkpt>
      <trkpt lat="44.81007" lon="0.82404">
        <ele>160.6</ele>
        <time>2024-04-07T09:54:39Z</time>
      </trkpt>
      <trkpt lat="44.81008" lon="0.82402">
        <ele>160.8</ele>
        <time>2024-04-07T09:54:40Z</time>
      </trkpt>
      <trkpt lat="44.81009" lon="0.824">
        <ele>161</ele>
        <time>2024-04-07T09:54:41Z</time>
      </trkpt>
      <trkpt lat="44.81011" lon="0.82396">
        <ele>161.4</ele>
        <time>2024-04-07T09:54:43Z</time>
      </trkpt>
      <trkpt lat="44.81012" lon="0.82396">
        <ele>161.5</ele>
        <time>2024-04-07T09:54:44Z</time>
      </trkpt>
      <trkpt lat="44.81014" lon="0.82396">
        <ele>161.7</ele>
        <time>2024-04-07T09:54:45Z</time>
      </trkpt>
      <trkpt lat="44.81017" lon="0.82397">
        <ele>161.9</ele>
        <time>2024-04-07T09:54:47Z</time>
      </trkpt>
      <trkpt lat="44.81022" lon="0.82398">
        <ele>161.9</ele>
        <time>2024-04-07T09:54:49Z</time>
      </trkpt>
      <trkpt lat="44.81027" lon="0.824">
        <ele>162</ele>
        <time>2024-04-07T09:54:51Z</time>
      </trkpt>
      <trkpt lat="44.81031" lon="0.82402">
        <ele>162</ele>
        <time>2024-04-07T09:54:53Z</time>
      </trkpt>
      <trkpt lat="44.81035" lon="0.82404">
        <ele>162.1</ele>
        <time>2024-04-07T09:54:55Z</time>
      </trkpt>
      <trkpt lat="44.81039" lon="0.82408">
        <ele>162.1</ele>
        <time>2024-04-07T09:54:57Z</time>
      </trkpt>
      <trkpt lat="44.81041" lon="0.8241">
        <ele>162.2</ele>
        <time>2024-04-07T09:54:58Z</time>
      </trkpt>
      <trkpt lat="44.81042" lon="0.82411">
        <ele>162.2</ele>
        <time>2024-04-07T09:54:59Z</time>
      </trkpt>
      <trkpt lat="44.81047" lon="0.82414">
        <ele>162.3</ele>
        <time>2024-04-07T09:55:01Z</time>
      </trkpt>
      <trkpt lat="44.81051" lon="0.82419">
        <ele>162.3</ele>
        <time>2024-04-07T09:55:03Z</time>
      </trkpt>
      <trkpt lat="44.81054" lon="0.8242">
        <ele>162.4</ele>
        <time>2024-04-07T09:55:04Z</time>
      </trkpt>
      <trkpt lat="44.81056" lon="0.82422">
        <ele>162.4</ele>
        <time>2024-04-07T09:55:05Z</time>
      </trkpt>
      <trkpt lat="44.8106" lon="0.82424">
        <ele>162.5</ele>
        <time>2024-04-07T09:55:07Z</time>
      </trkpt>
      <trkpt lat="44.81065" lon="0.82428">
        <ele>162.5</ele>
        <time>2024-04-07T09:55:09Z</time>
      </trkpt>
      <trkpt lat="44.81069" lon="0.82431">
        <ele>162.5</ele>
        <time>2024-04-07T09:55:11Z</time>
      </trkpt>
      <trkpt lat="44.81072" lon="0.82433">
        <ele>162.5</ele>
        <time>2024-04-07T09:55:13Z</time>
      </trkpt>
      <trkpt lat="44.81076" lon="0.82434">
        <ele>162.5</ele>
        <time>2024-04-07T09:55:15Z</time>
      </trkpt>
      <trkpt lat="44.81081" lon="0.8243">
        <ele>162.6</ele>
        <time>2024-04-07T09:55:17Z</time>
      </trkpt>
      <trkpt lat="44.81084" lon="0.82428">
        <ele>162.6</ele>
        <time>2024-04-07T09:55:18Z</time>
      </trkpt>
      <trkpt lat="44.81086" lon="0.82426">
        <ele>162.6</ele>
        <time>2024-04-07T09:55:19Z</time>
      </trkpt>
      <trkpt lat="44.81088" lon="0.82425">
        <ele>162.6</ele>
        <time>2024-04-07T09:55:20Z</time>
      </trkpt>
      <trkpt lat="44.81091" lon="0.82424">
        <ele>162.6</ele>
        <time>2024-04-07T09:55:21Z</time>
      </trkpt>
      <trkpt lat="44.81093" lon="0.82424">
        <ele>162.6</ele>
        <time>2024-04-07T09:55:22Z</time>
      </trkpt>
      <trkpt lat="44.81095" lon="0.82423">
        <ele>162.5</ele>
        <time>2024-04-07T09:55:23Z</time>
      </trkpt>
      <trkpt lat="44.81099" lon="0.82422">
        <ele>162.5</ele>
        <time>2024-04-07T09:55:25Z</time>
      </trkpt>
      <trkpt lat="44.81101" lon="0.8242">
        <ele>162.5</ele>
        <time>2024-04-07T09:55:26Z</time>
      </trkpt>
      <trkpt lat="44.81101" lon="0.82419">
        <ele>162.5</ele>
        <time>2024-04-07T09:55:27Z</time>
      </trkpt>
      <trkpt lat="44.81102" lon="0.82418">
        <ele>162.5</ele>
        <time>2024-04-07T09:55:29Z</time>
      </trkpt>
    </trkseg>
  </trk>
  <trk>
    <name><![CDATA[oublie trace 2024]]></name>
    <extensions>
      <line xmlns="http://www.topografix.com/GPX/gpx_style/0/2">
        <color>ff2600</color>
        <width>4</width>
      </line>
    </extensions>
    <trkseg>
      <trkpt lat="44.82999" lon="0.7444">
        <ele>105.5</ele>
      </trkpt>
      <trkpt lat="44.83012" lon="0.74405">
        <ele>103.7</ele>
      </trkpt>
      <trkpt lat="44.83028" lon="0.74365">
        <ele>103.1</ele>
      </trkpt>
      <trkpt lat="44.83039" lon="0.74341">
        <ele>103</ele>
      </trkpt>
      <trkpt lat="44.83049" lon="0.74321">
        <ele>103.1</ele>
      </trkpt>
      <trkpt lat="44.83053" lon="0.74307">
        <ele>102.8</ele>
      </trkpt>
      <trkpt lat="44.83056" lon="0.74293">
        <ele>102.2</ele>
      </trkpt>
      <trkpt lat="44.83056" lon="0.74251">
        <ele>98.3</ele>
      </trkpt>
      <trkpt lat="44.83062" lon="0.74237">
        <ele>97.9</ele>
      </trkpt>
      <trkpt lat="44.83083" lon="0.74201">
        <ele>96</ele>
      </trkpt>
      <trkpt lat="44.83103" lon="0.74167">
        <ele>95.4</ele>
      </trkpt>
      <trkpt lat="44.83124" lon="0.74128">
        <ele>93.4</ele>
      </trkpt>
      <trkpt lat="44.83139" lon="0.74107">
        <ele>92.5</ele>
      </trkpt>
      <trkpt lat="44.83155" lon="0.74076">
        <ele>89.7</ele>
      </trkpt>
      <trkpt lat="44.83168" lon="0.74056">
        <ele>88</ele>
      </trkpt>
      <trkpt lat="44.83185" lon="0.74034">
        <ele>84.2</ele>
      </trkpt>
      <trkpt lat="44.83202" lon="0.73987">
        <ele>80.8</ele>
      </trkpt>
      <trkpt lat="44.8321" lon="0.73969">
        <ele>79.3</ele>
      </trkpt>
      <trkpt lat="44.83221" lon="0.73965">
        <ele>77.7</ele>
      </trkpt>
      <trkpt lat="44.83231" lon="0.73965">
        <ele>79.4</ele>
      </trkpt>
      <trkpt lat="44.83231" lon="0.73943">
        <ele>81.3</ele>
      </trkpt>
      <trkpt lat="44.83227" lon="0.73917">
        <ele>81.7</ele>
      </trkpt>
      <trkpt lat="44.83212" lon="0.73854">
        <ele>84.5</ele>
      </trkpt>
      <trkpt lat="44.83196" lon="0.73775">
        <ele>92.8</ele>
      </trkpt>
      <trkpt lat="44.83195" lon="0.73732">
        <ele>98.6</ele>
      </trkpt>
      <trkpt lat="44.83173" lon="0.7365">
        <ele>107.3</ele>
      </trkpt>
      <trkpt lat="44.83169" lon="0.73623">
        <ele>110.6</ele>
      </trkpt>
      <trkpt lat="44.83159" lon="0.73597">
        <ele>113.9</ele>
      </trkpt>
      <trkpt lat="44.83147" lon="0.73576">
        <ele>116.3</ele>
      </trkpt>
      <trkpt lat="44.83134" lon="0.73557">
        <ele>119.1</ele>
      </trkpt>
      <trkpt lat="44.83127" lon="0.73524">
        <ele>119.9</ele>
      </trkpt>
      <trkpt lat="44.83109" lon="0.73476">
        <ele>120.3</ele>
      </trkpt>
      <trkpt lat="44.83093" lon="0.73428">
        <ele>118.4</ele>
      </trkpt>
      <trkpt lat="44.83087" lon="0.73409">
        <ele>116.9</ele>
      </trkpt>
      <trkpt lat="44.83077" lon="0.73392">
        <ele>116.2</ele>
      </trkpt>
      <trkpt lat="44.83064" lon="0.73374">
        <ele>116.4</ele>
      </trkpt>
      <trkpt lat="44.83055" lon="0.73364">
        <ele>117.2</ele>
      </trkpt>
      <trkpt lat="44.8304" lon="0.73328">
        <ele>117.7</ele>
      </trkpt>
      <trkpt lat="44.8303" lon="0.733">
        <ele>120.6</ele>
      </trkpt>
      <trkpt lat="44.83022" lon="0.73274">
        <ele>121.5</ele>
      </trkpt>
      <trkpt lat="44.8302" lon="0.73263">
        <ele>121.8</ele>
      </trkpt>
      <trkpt lat="44.83013" lon="0.73248">
        <ele>122</ele>
      </trkpt>
      <trkpt lat="44.82994" lon="0.73269">
        <ele>122.1</ele>
      </trkpt>
      <trkpt lat="44.82968" lon="0.73299">
        <ele>120.8</ele>
      </trkpt>
      <trkpt lat="44.82951" lon="0.73323">
        <ele>120.5</ele>
      </trkpt>
      <trkpt lat="44.8292" lon="0.73345">
        <ele>118.1</ele>
      </trkpt>
      <trkpt lat="44.82889" lon="0.73364">
        <ele>117.4</ele>
      </trkpt>
      <trkpt lat="44.82838" lon="0.73382">
        <ele>117.8</ele>
      </trkpt>
      <trkpt lat="44.82805" lon="0.73394">
        <ele>117.8</ele>
      </trkpt>
      <trkpt lat="44.82766" lon="0.73407">
        <ele>121.9</ele>
      </trkpt>
      <trkpt lat="44.82759" lon="0.7341">
        <ele>122.9</ele>
      </trkpt>
      <trkpt lat="44.82739" lon="0.7341">
        <ele>125.2</ele>
      </trkpt>
      <trkpt lat="44.82728" lon="0.73416">
        <ele>127.3</ele>
      </trkpt>
      <trkpt lat="44.82721" lon="0.73423">
        <ele>128.1</ele>
      </trkpt>
      <trkpt lat="44.8271" lon="0.73437">
        <ele>128.9</ele>
      </trkpt>
      <trkpt lat="44.82696" lon="0.73453">
        <ele>129.6</ele>
      </trkpt>
      <trkpt lat="44.82663" lon="0.73474">
        <ele>130.3</ele>
      </trkpt>
      <trkpt lat="44.82653" lon="0.73478">
        <ele>130.9</ele>
      </trkpt>
      <trkpt lat="44.82625" lon="0.73487">
        <ele>131.3</ele>
      </trkpt>
      <trkpt lat="44.82604" lon="0.73495">
        <ele>131.9</ele>
      </trkpt>
      <trkpt lat="44.82582" lon="0.73508">
        <ele>133.3</ele>
      </trkpt>
      <trkpt lat="44.82561" lon="0.73523">
        <ele>134.8</ele>
      </trkpt>
      <trkpt lat="44.82551" lon="0.73536">
        <ele>134.7</ele>
      </trkpt>
      <trkpt lat="44.82533" lon="0.73564">
        <ele>134.4</ele>
      </trkpt>
      <trkpt lat="44.82504" lon="0.73615">
        <ele>135</ele>
      </trkpt>
      <trkpt lat="44.82491" lon="0.73638">
        <ele>134.4</ele>
      </trkpt>
      <trkpt lat="44.82483" lon="0.73645">
        <ele>134</ele>
      </trkpt>
      <trkpt lat="44.82474" lon="0.73651">
        <ele>133.6</ele>
      </trkpt>
      <trkpt lat="44.8246" lon="0.73659">
        <ele>132.5</ele>
      </trkpt>
      <trkpt lat="44.82445" lon="0.73663">
        <ele>131.6</ele>
      </trkpt>
      <trkpt lat="44.82423" lon="0.73662">
        <ele>130.3</ele>
      </trkpt>
      <trkpt lat="44.82409" lon="0.73657">
        <ele>130.1</ele>
      </trkpt>
      <trkpt lat="44.8239" lon="0.73648">
        <ele>130.1</ele>
      </trkpt>
      <trkpt lat="44.82374" lon="0.73639">
        <ele>130.4</ele>
      </trkpt>
      <trkpt lat="44.82358" lon="0.73632">
        <ele>130</ele>
      </trkpt>
      <trkpt lat="44.82327" lon="0.73616">
        <ele>130.3</ele>
      </trkpt>
      <trkpt lat="44.82316" lon="0.73608">
        <ele>130.4</ele>
      </trkpt>
      <trkpt lat="44.82285" lon="0.7359">
        <ele>130.4</ele>
      </trkpt>
      <trkpt lat="44.82277" lon="0.73586">
        <ele>130.5</ele>
      </trkpt>
      <trkpt lat="44.82262" lon="0.73577">
        <ele>131</ele>
      </trkpt>
      <trkpt lat="44.82247" lon="0.73569">
        <ele>131.7</ele>
      </trkpt>
      <trkpt lat="44.8224" lon="0.73561">
        <ele>132.8</ele>
      </trkpt>
      <trkpt lat="44.8223" lon="0.73545">
        <ele>134.1</ele>
      </trkpt>
      <trkpt lat="44.82221" lon="0.73536">
        <ele>134.8</ele>
      </trkpt>
      <trkpt lat="44.82205" lon="0.73525">
        <ele>136.2</ele>
      </trkpt>
      <trkpt lat="44.82191" lon="0.73514">
        <ele>137.1</ele>
      </trkpt>
      <trkpt lat="44.82175" lon="0.73508">
        <ele>137.5</ele>
      </trkpt>
      <trkpt lat="44.82156" lon="0.73488">
        <ele>138.2</ele>
      </trkpt>
      <trkpt lat="44.82147" lon="0.73473">
        <ele>138.9</ele>
      </trkpt>
      <trkpt lat="44.82142" lon="0.73448">
        <ele>139.9</ele>
      </trkpt>
      <trkpt lat="44.82136" lon="0.73436">
        <ele>140.4</ele>
      </trkpt>
      <trkpt lat="44.82128" lon="0.73426">
        <ele>140.8</ele>
      </trkpt>
      <trkpt lat="44.8212" lon="0.73414">
        <ele>141</ele>
      </trkpt>
      <trkpt lat="44.82116" lon="0.73407">
        <ele>141.2</ele>
      </trkpt>
      <trkpt lat="44.82097" lon="0.73387">
        <ele>142.5</ele>
      </trkpt>
      <trkpt lat="44.82081" lon="0.73371">
        <ele>143.8</ele>
      </trkpt>
      <trkpt lat="44.82072" lon="0.73363">
        <ele>144.4</ele>
      </trkpt>
      <trkpt lat="44.82056" lon="0.73345">
        <ele>145.5</ele>
      </trkpt>
      <trkpt lat="44.82046" lon="0.73333">
        <ele>145.6</ele>
      </trkpt>
      <trkpt lat="44.82036" lon="0.73321">
        <ele>145.3</ele>
      </trkpt>
      <trkpt lat="44.82033" lon="0.73319">
        <ele>145.2</ele>
      </trkpt>
      <trkpt lat="44.82031" lon="0.73321">
        <ele>145.1</ele>
      </trkpt>
      <trkpt lat="44.8203" lon="0.73333">
        <ele>145.1</ele>
      </trkpt>
      <trkpt lat="44.8203" lon="0.7335">
        <ele>145</ele>
      </trkpt>
      <trkpt lat="44.82032" lon="0.73388">
        <ele>144.2</ele>
      </trkpt>
      <trkpt lat="44.82034" lon="0.73422">
        <ele>142</ele>
      </trkpt>
      <trkpt lat="44.82038" lon="0.7346">
        <ele>139.4</ele>
      </trkpt>
      <trkpt lat="44.82039" lon="0.73502">
        <ele>136.3</ele>
      </trkpt>
      <trkpt lat="44.82036" lon="0.73538">
        <ele>135</ele>
      </trkpt>
      <trkpt lat="44.82034" lon="0.73579">
        <ele>134</ele>
      </trkpt>
      <trkpt lat="44.82033" lon="0.73605">
        <ele>134</ele>
      </trkpt>
      <trkpt lat="44.82028" lon="0.73626">
        <ele>134</ele>
      </trkpt>
      <trkpt lat="44.82012" lon="0.73644">
        <ele>134.2</ele>
      </trkpt>
      <trkpt lat="44.81998" lon="0.73662">
        <ele>134.8</ele>
      </trkpt>
      <trkpt lat="44.8199" lon="0.73697">
        <ele>136.1</ele>
      </trkpt>
      <trkpt lat="44.81981" lon="0.7374">
        <ele>137.4</ele>
      </trkpt>
      <trkpt lat="44.81976" lon="0.73752">
        <ele>137.8</ele>
      </trkpt>
      <trkpt lat="44.81976" lon="0.7376">
        <ele>137.8</ele>
      </trkpt>
      <trkpt lat="44.81964" lon="0.73785">
        <ele>138.1</ele>
      </trkpt>
      <trkpt lat="44.81963" lon="0.73811">
        <ele>137.5</ele>
      </trkpt>
      <trkpt lat="44.81959" lon="0.73832">
        <ele>137.5</ele>
      </trkpt>
      <trkpt lat="44.81965" lon="0.73859">
        <ele>137.4</ele>
      </trkpt>
      <trkpt lat="44.81976" lon="0.73899">
        <ele>138.3</ele>
      </trkpt>
      <trkpt lat="44.81979" lon="0.73915">
        <ele>138.9</ele>
      </trkpt>
      <trkpt lat="44.81984" lon="0.73955">
        <ele>140.4</ele>
      </trkpt>
      <trkpt lat="44.81988" lon="0.74006">
        <ele>139.6</ele>
      </trkpt>
      <trkpt lat="44.81993" lon="0.74064">
        <ele>137.7</ele>
      </trkpt>
      <trkpt lat="44.81996" lon="0.74074">
        <ele>137.3</ele>
      </trkpt>
      <trkpt lat="44.82003" lon="0.74104">
        <ele>136.3</ele>
      </trkpt>
      <trkpt lat="44.8201" lon="0.74159">
        <ele>135.5</ele>
      </trkpt>
      <trkpt lat="44.82014" lon="0.74176">
        <ele>135.2</ele>
      </trkpt>
      <trkpt lat="44.82021" lon="0.74198">
        <ele>134.6</ele>
      </trkpt>
      <trkpt lat="44.82032" lon="0.74222">
        <ele>134.1</ele>
      </trkpt>
      <trkpt lat="44.8204" lon="0.74247">
        <ele>133.2</ele>
      </trkpt>
      <trkpt lat="44.82052" lon="0.74264">
        <ele>132.1</ele>
      </trkpt>
      <trkpt lat="44.82065" lon="0.7428">
        <ele>129.8</ele>
      </trkpt>
      <trkpt lat="44.82087" lon="0.74311">
        <ele>125.8</ele>
      </trkpt>
      <trkpt lat="44.82117" lon="0.74344">
        <ele>125</ele>
      </trkpt>
      <trkpt lat="44.82155" lon="0.74383">
        <ele>126.4</ele>
      </trkpt>
      <trkpt lat="44.82174" lon="0.74399">
        <ele>127.2</ele>
      </trkpt>
      <trkpt lat="44.82167" lon="0.74413">
        <ele>126.2</ele>
      </trkpt>
      <trkpt lat="44.82158" lon="0.74463">
        <ele>123.4</ele>
      </trkpt>
      <trkpt lat="44.82153" lon="0.74506">
        <ele>121.4</ele>
      </trkpt>
      <trkpt lat="44.82151" lon="0.74532">
        <ele>121.4</ele>
      </trkpt>
      <trkpt lat="44.82155" lon="0.74563">
        <ele>123</ele>
      </trkpt>
      <trkpt lat="44.82172" lon="0.74599">
        <ele>123.1</ele>
      </trkpt>
      <trkpt lat="44.8219" lon="0.74633">
        <ele>123.6</ele>
      </trkpt>
      <trkpt lat="44.82204" lon="0.74654">
        <ele>123.3</ele>
      </trkpt>
      <trkpt lat="44.82237" lon="0.74688">
        <ele>119.9</ele>
      </trkpt>
      <trkpt lat="44.82289" lon="0.74739">
        <ele>115.3</ele>
      </trkpt>
      <trkpt lat="44.82318" lon="0.74768">
        <ele>112.4</ele>
      </trkpt>
      <trkpt lat="44.82335" lon="0.74781">
        <ele>112</ele>
      </trkpt>
      <trkpt lat="44.82359" lon="0.74792">
        <ele>112.5</ele>
      </trkpt>
      <trkpt lat="44.82401" lon="0.7481">
        <ele>114.2</ele>
      </trkpt>
      <trkpt lat="44.8242" lon="0.74818">
        <ele>114.8</ele>
      </trkpt>
      <trkpt lat="44.82444" lon="0.74828">
        <ele>114.6</ele>
      </trkpt>
      <trkpt lat="44.82461" lon="0.74842">
        <ele>114.5</ele>
      </trkpt>
      <trkpt lat="44.82486" lon="0.74859">
        <ele>115.8</ele>
      </trkpt>
      <trkpt lat="44.82507" lon="0.74869">
        <ele>116.8</ele>
      </trkpt>
      <trkpt lat="44.82545" lon="0.74909">
        <ele>120</ele>
      </trkpt>
      <trkpt lat="44.82567" lon="0.74929">
        <ele>122.4</ele>
      </trkpt>
      <trkpt lat="44.82576" lon="0.74931">
        <ele>123.6</ele>
      </trkpt>
      <trkpt lat="44.82593" lon="0.74928">
        <ele>124.3</ele>
      </trkpt>
      <trkpt lat="44.82612" lon="0.74925">
        <ele>123.9</ele>
      </trkpt>
      <trkpt lat="44.82621" lon="0.74929">
        <ele>124.7</ele>
      </trkpt>
      <trkpt lat="44.82631" lon="0.74945">
        <ele>126.7</ele>
      </trkpt>
    </trkseg>
  </trk>
</gpx>